<?xml version="1.0" encoding="UTF-8" standalone="no" ?>
<gpx xmlns="http://www.topografix.com/GPX/1/1" xmlns:xsi="http://www.w3.org/2001/XMLSchema-instance" xsi:schemaLocation="http://www.topografix.com/GPX/1/1 http://www.topografix.com/GPX/1/1/gpx.xsd" version="1.1" creator="VisuGPX - https://www.visugpx.com">
  <metadata>
    <name>En cours- Tour des Corbières</name>
  </metadata>
  <trk>
    <name><![CDATA[En cours- Tour des Corbières]]></name>
    <extensions>
      <line xmlns="http://www.topografix.com/GPX/gpx_style/0/2">
        <color>7b219f</color>
        <opacity>0.3</opacity>
        <width>4</width>
        <dasharray>12</dasharray>
      </line>
    </extensions>
    <trkseg>
      <trkpt lat="43.31355" lon="2.66136">
        <ele>104.299637</ele>
        <time>2022-06-03T16:29:57.688Z</time>
      </trkpt>
      <trkpt lat="43.31362" lon="2.66141">
        <ele>104.299637</ele>
        <time>2022-06-03T16:29:58.960Z</time>
      </trkpt>
      <trkpt lat="43.31347" lon="2.66182">
        <ele>104.299637</ele>
        <time>2022-06-03T16:30:04.582Z</time>
      </trkpt>
      <trkpt lat="43.3137" lon="2.66193">
        <ele>104.299637</ele>
        <time>2022-06-03T16:30:08.681Z</time>
      </trkpt>
      <trkpt lat="43.31357" lon="2.66228">
        <ele>104.239115</ele>
        <time>2022-06-03T16:30:13.198Z</time>
      </trkpt>
      <trkpt lat="43.31322" lon="2.662">
        <ele>103.622654</ele>
        <time>2022-06-03T16:30:19.818Z</time>
      </trkpt>
      <trkpt lat="43.31306" lon="2.66168">
        <ele>103.19581</ele>
        <time>2022-06-03T16:30:24.265Z</time>
      </trkpt>
      <trkpt lat="43.31301" lon="2.6616">
        <ele>103.082589</ele>
        <time>2022-06-03T16:30:25.465Z</time>
      </trkpt>
      <trkpt lat="43.31288" lon="2.66154">
        <ele>102.873479</ele>
        <time>2022-06-03T16:30:27.618Z</time>
      </trkpt>
      <trkpt lat="43.31281" lon="2.66152">
        <ele>102.767428</ele>
        <time>2022-06-03T16:30:28.712Z</time>
      </trkpt>
      <trkpt lat="43.31255" lon="2.66144">
        <ele>102.361919</ele>
        <time>2022-06-03T16:30:32.994Z</time>
      </trkpt>
      <trkpt lat="43.31244" lon="2.66141">
        <ele>102.192504</ele>
        <time>2022-06-03T16:30:34.710Z</time>
      </trkpt>
      <trkpt lat="43.31237" lon="2.66139">
        <ele>102.085713</ele>
        <time>2022-06-03T16:30:35.782Z</time>
      </trkpt>
      <trkpt lat="43.31235" lon="2.66139">
        <ele>102.054459</ele>
        <time>2022-06-03T16:30:36.108Z</time>
      </trkpt>
      <trkpt lat="43.31223" lon="2.66132">
        <ele>101.860316</ele>
        <time>2022-06-03T16:30:38.243Z</time>
      </trkpt>
      <trkpt lat="43.31223" lon="2.66119">
        <ele>101.717061</ele>
        <time>2022-06-03T16:30:39.725Z</time>
      </trkpt>
      <trkpt lat="43.31224" lon="2.66102">
        <ele>101.516061</ele>
        <time>2022-06-03T16:30:41.577Z</time>
      </trkpt>
      <trkpt lat="43.31217" lon="2.66114">
        <ele>101.313762</ele>
        <time>2022-06-03T16:30:43.382Z</time>
      </trkpt>
      <trkpt lat="43.31183" lon="2.66091">
        <ele>100.618384</ele>
        <time>2022-06-03T16:30:49.337Z</time>
      </trkpt>
      <trkpt lat="43.31161" lon="2.66084">
        <ele>100.206856</ele>
        <time>2022-06-03T16:30:52.724Z</time>
      </trkpt>
      <trkpt lat="43.31096" lon="2.66081">
        <ele>99.000186</ele>
        <time>2022-06-03T16:31:02.831Z</time>
      </trkpt>
      <trkpt lat="43.31086" lon="2.66076">
        <ele>98.807048</ele>
        <time>2022-06-03T16:31:04.426Z</time>
      </trkpt>
      <trkpt lat="43.31048" lon="2.66031">
        <ele>98.068323</ele>
        <time>2022-06-03T16:31:12.220Z</time>
      </trkpt>
      <trkpt lat="43.31025" lon="2.66">
        <ele>97.757526</ele>
        <time>2022-06-03T16:31:17.244Z</time>
      </trkpt>
      <trkpt lat="43.30978" lon="2.65991">
        <ele>97.293285</ele>
        <time>2022-06-03T16:31:24.733Z</time>
      </trkpt>
      <trkpt lat="43.3088" lon="2.65956">
        <ele>96.544932</ele>
        <time>2022-06-03T16:31:41.707Z</time>
      </trkpt>
      <trkpt lat="43.30785" lon="2.65922">
        <ele>96.695259</ele>
        <time>2022-06-03T16:32:00.234Z</time>
      </trkpt>
      <trkpt lat="43.30769" lon="2.65922">
        <ele>96.719611</ele>
        <time>2022-06-03T16:32:03.361Z</time>
      </trkpt>
      <trkpt lat="43.30761" lon="2.65908">
        <ele>96.739857</ele>
        <time>2022-06-03T16:32:06.024Z</time>
      </trkpt>
      <trkpt lat="43.30715" lon="2.6587">
        <ele>96.804457</ele>
        <time>2022-06-03T16:32:16.760Z</time>
      </trkpt>
      <trkpt lat="43.30627" lon="2.65773">
        <ele>96.889919</ele>
        <time>2022-06-03T16:32:38.152Z</time>
      </trkpt>
      <trkpt lat="43.30558" lon="2.65717">
        <ele>96.950872</ele>
        <time>2022-06-03T16:32:52.590Z</time>
      </trkpt>
      <trkpt lat="43.30518" lon="2.65698">
        <ele>96.983324</ele>
        <time>2022-06-03T16:33:00.212Z</time>
      </trkpt>
      <trkpt lat="43.30456" lon="2.6569">
        <ele>97.03136</ele>
        <time>2022-06-03T16:33:11.794Z</time>
      </trkpt>
      <trkpt lat="43.30412" lon="2.65715">
        <ele>97.148199</ele>
        <time>2022-06-03T16:33:21.336Z</time>
      </trkpt>
      <trkpt lat="43.30388" lon="2.65691">
        <ele>97.4746</ele>
        <time>2022-06-03T16:33:27.753Z</time>
      </trkpt>
      <trkpt lat="43.30371" lon="2.65696">
        <ele>97.66093</ele>
        <time>2022-06-03T16:33:31.541Z</time>
      </trkpt>
      <trkpt lat="43.3035" lon="2.65654">
        <ele>98.060471</ele>
        <time>2022-06-03T16:33:40.083Z</time>
      </trkpt>
      <trkpt lat="43.30249" lon="2.65547">
        <ele>99.344611</ele>
        <time>2022-06-03T16:34:11.304Z</time>
      </trkpt>
      <trkpt lat="43.30205" lon="2.65486">
        <ele>99.855998</ele>
        <time>2022-06-03T16:34:25.776Z</time>
      </trkpt>
      <trkpt lat="43.30181" lon="2.65436">
        <ele>100.211896</ele>
        <time>2022-06-03T16:34:35.012Z</time>
      </trkpt>
      <trkpt lat="43.30016" lon="2.65385">
        <ele>100.265163</ele>
        <time>2022-06-03T16:35:05.931Z</time>
      </trkpt>
      <trkpt lat="43.29958" lon="2.6533">
        <ele>100.101043</ele>
        <time>2022-06-03T16:35:18.235Z</time>
      </trkpt>
      <trkpt lat="43.29914" lon="2.65309">
        <ele>99.935686</ele>
        <time>2022-06-03T16:35:26.433Z</time>
      </trkpt>
      <trkpt lat="43.29841" lon="2.65298">
        <ele>99.672699</ele>
        <time>2022-06-03T16:35:39.484Z</time>
      </trkpt>
      <trkpt lat="43.29634" lon="2.65313">
        <ele>99.272123</ele>
        <time>2022-06-03T16:36:16.951Z</time>
      </trkpt>
      <trkpt lat="43.2953" lon="2.65309">
        <ele>99.162327</ele>
        <time>2022-06-03T16:36:36.510Z</time>
      </trkpt>
      <trkpt lat="43.29473" lon="2.653">
        <ele>99.103828</ele>
        <time>2022-06-03T16:36:47.148Z</time>
      </trkpt>
      <trkpt lat="43.29451" lon="2.65299">
        <ele>99.081492</ele>
        <time>2022-06-03T16:36:50.909Z</time>
      </trkpt>
      <trkpt lat="43.29404" lon="2.65309">
        <ele>98.702322</ele>
        <time>2022-06-03T16:36:59.392Z</time>
      </trkpt>
      <trkpt lat="43.29344" lon="2.65357">
        <ele>98.127873</ele>
        <time>2022-06-03T16:37:10.949Z</time>
      </trkpt>
      <trkpt lat="43.29306" lon="2.65375">
        <ele>97.794748</ele>
        <time>2022-06-03T16:37:17.456Z</time>
      </trkpt>
      <trkpt lat="43.29252" lon="2.65383">
        <ele>97.296575</ele>
        <time>2022-06-03T16:37:26.520Z</time>
      </trkpt>
      <trkpt lat="43.29133" lon="2.65415">
        <ele>96.107881</ele>
        <time>2022-06-03T16:37:46.615Z</time>
      </trkpt>
      <trkpt lat="43.29025" lon="2.6541">
        <ele>95.278082</ele>
        <time>2022-06-03T16:38:05.202Z</time>
      </trkpt>
      <trkpt lat="43.28994" lon="2.65417">
        <ele>95.067954</ele>
        <time>2022-06-03T16:38:10.492Z</time>
      </trkpt>
      <trkpt lat="43.28968" lon="2.65431">
        <ele>94.878727</ele>
        <time>2022-06-03T16:38:15.269Z</time>
      </trkpt>
      <trkpt lat="43.28918" lon="2.65472">
        <ele>94.491135</ele>
        <time>2022-06-03T16:38:25.273Z</time>
      </trkpt>
      <trkpt lat="43.28877" lon="2.65489">
        <ele>94.218283</ele>
        <time>2022-06-03T16:38:32.659Z</time>
      </trkpt>
      <trkpt lat="43.28845" lon="2.65495">
        <ele>94.014401</ele>
        <time>2022-06-03T16:38:38.221Z</time>
      </trkpt>
      <trkpt lat="43.288" lon="2.65487">
        <ele>93.725336</ele>
        <time>2022-06-03T16:38:46.068Z</time>
      </trkpt>
      <trkpt lat="43.2876" lon="2.65488">
        <ele>93.470791</ele>
        <time>2022-06-03T16:38:52.908Z</time>
      </trkpt>
      <trkpt lat="43.28602" lon="2.65564">
        <ele>92.189454</ele>
        <time>2022-06-03T16:39:21.376Z</time>
      </trkpt>
      <trkpt lat="43.28516" lon="2.65569">
        <ele>91.553525</ele>
        <time>2022-06-03T16:39:36.054Z</time>
      </trkpt>
      <trkpt lat="43.28349" lon="2.65634">
        <ele>90.622689</ele>
        <time>2022-06-03T16:40:05.826Z</time>
      </trkpt>
      <trkpt lat="43.28264" lon="2.65645">
        <ele>90.450195</ele>
        <time>2022-06-03T16:40:21.275Z</time>
      </trkpt>
      <trkpt lat="43.28188" lon="2.65641">
        <ele>90.661165</ele>
        <time>2022-06-03T16:40:36.673Z</time>
      </trkpt>
      <trkpt lat="43.28174" lon="2.65635">
        <ele>90.747282</ele>
        <time>2022-06-03T16:40:39.834Z</time>
      </trkpt>
      <trkpt lat="43.28106" lon="2.65623">
        <ele>91.160532</ele>
        <time>2022-06-03T16:40:54.685Z</time>
      </trkpt>
      <trkpt lat="43.27982" lon="2.65612">
        <ele>91.447355</ele>
        <time>2022-06-03T16:41:21.128Z</time>
      </trkpt>
      <trkpt lat="43.27923" lon="2.6559">
        <ele>91.432855</ele>
        <time>2022-06-03T16:41:32.888Z</time>
      </trkpt>
      <trkpt lat="43.27913" lon="2.65611">
        <ele>91.428562</ele>
        <time>2022-06-03T16:41:36.150Z</time>
      </trkpt>
      <trkpt lat="43.27825" lon="2.65753">
        <ele>87.619853</ele>
        <time>2022-06-03T16:41:56.306Z</time>
      </trkpt>
      <trkpt lat="43.27793" lon="2.65754">
        <ele>86.497942</ele>
        <time>2022-06-03T16:42:00.223Z</time>
      </trkpt>
      <trkpt lat="43.27705" lon="2.65779">
        <ele>81.66505</ele>
        <time>2022-06-03T16:42:11.824Z</time>
      </trkpt>
      <trkpt lat="43.2769" lon="2.65779">
        <ele>80.67005</ele>
        <time>2022-06-03T16:42:13.626Z</time>
      </trkpt>
      <trkpt lat="43.27657" lon="2.65769">
        <ele>78.390316</ele>
        <time>2022-06-03T16:42:17.770Z</time>
      </trkpt>
      <trkpt lat="43.27642" lon="2.65776">
        <ele>77.2734</ele>
        <time>2022-06-03T16:42:19.895Z</time>
      </trkpt>
      <trkpt lat="43.27608" lon="2.65836">
        <ele>73.500598</ele>
        <time>2022-06-03T16:42:26.694Z</time>
      </trkpt>
      <trkpt lat="43.27591" lon="2.65851">
        <ele>72.437279</ele>
        <time>2022-06-03T16:42:29.349Z</time>
      </trkpt>
      <trkpt lat="43.27584" lon="2.65849">
        <ele>72.151672</ele>
        <time>2022-06-03T16:42:30.174Z</time>
      </trkpt>
      <trkpt lat="43.27525" lon="2.65902">
        <ele>69.320376</ele>
        <time>2022-06-03T16:42:39.818Z</time>
      </trkpt>
      <trkpt lat="43.27505" lon="2.65912">
        <ele>68.463765</ele>
        <time>2022-06-03T16:42:43.150Z</time>
      </trkpt>
      <trkpt lat="43.27457" lon="2.65936">
        <ele>66.421074</ele>
        <time>2022-06-03T16:42:50.428Z</time>
      </trkpt>
      <trkpt lat="43.27434" lon="2.6596">
        <ele>65.463154</ele>
        <time>2022-06-03T16:42:54.843Z</time>
      </trkpt>
      <trkpt lat="43.27419" lon="2.66036">
        <ele>64.424953</ele>
        <time>2022-06-03T16:43:03.673Z</time>
      </trkpt>
      <trkpt lat="43.27371" lon="2.65985">
        <ele>63.316214</ele>
        <time>2022-06-03T16:43:13.004Z</time>
      </trkpt>
      <trkpt lat="43.27298" lon="2.65935">
        <ele>62.030732</ele>
        <time>2022-06-03T16:43:25.385Z</time>
      </trkpt>
      <trkpt lat="43.27247" lon="2.65885">
        <ele>61.277274</ele>
        <time>2022-06-03T16:43:34.909Z</time>
      </trkpt>
      <trkpt lat="43.2702" lon="2.65786">
        <ele>59.050022</ele>
        <time>2022-06-03T16:44:13.213Z</time>
      </trkpt>
      <trkpt lat="43.26935" lon="2.65743">
        <ele>58.655651</ele>
        <time>2022-06-03T16:44:28.452Z</time>
      </trkpt>
      <trkpt lat="43.2681" lon="2.65653">
        <ele>58.305763</ele>
        <time>2022-06-03T16:44:53.086Z</time>
      </trkpt>
      <trkpt lat="43.26759" lon="2.656">
        <ele>58.23556</ele>
        <time>2022-06-03T16:45:04.306Z</time>
      </trkpt>
      <trkpt lat="43.26648" lon="2.65513">
        <ele>58.166676</ele>
        <time>2022-06-03T16:45:26.752Z</time>
      </trkpt>
      <trkpt lat="43.26637" lon="2.65504">
        <ele>58.178281</ele>
        <time>2022-06-03T16:45:28.916Z</time>
      </trkpt>
      <trkpt lat="43.26634" lon="2.65502">
        <ele>58.181976</ele>
        <time>2022-06-03T16:45:29.609Z</time>
      </trkpt>
      <trkpt lat="43.266" lon="2.65489">
        <ele>58.215018</ele>
        <time>2022-06-03T16:45:35.873Z</time>
      </trkpt>
      <trkpt lat="43.26498" lon="2.65491">
        <ele>58.326239</ele>
        <time>2022-06-03T16:45:54.827Z</time>
      </trkpt>
      <trkpt lat="43.26399" lon="2.65474">
        <ele>58.603638</ele>
        <time>2022-06-03T16:46:14.026Z</time>
      </trkpt>
      <trkpt lat="43.26259" lon="2.6549">
        <ele>58.972559</ele>
        <time>2022-06-03T16:46:40.751Z</time>
      </trkpt>
      <trkpt lat="43.26217" lon="2.65492">
        <ele>59.07579</ele>
        <time>2022-06-03T16:46:48.560Z</time>
      </trkpt>
      <trkpt lat="43.2608" lon="2.65469">
        <ele>59.18682</ele>
        <time>2022-06-03T16:47:14.049Z</time>
      </trkpt>
      <trkpt lat="43.25974" lon="2.65426">
        <ele>59.094155</ele>
        <time>2022-06-03T16:47:33.424Z</time>
      </trkpt>
      <trkpt lat="43.25821" lon="2.65399">
        <ele>58.13338</ele>
        <time>2022-06-03T16:47:58.708Z</time>
      </trkpt>
      <trkpt lat="43.25665" lon="2.65348">
        <ele>57.067692</ele>
        <time>2022-06-03T16:48:24.565Z</time>
      </trkpt>
      <trkpt lat="43.2549" lon="2.65692">
        <ele>55.782145</ele>
        <time>2022-06-03T16:49:18.850Z</time>
      </trkpt>
      <trkpt lat="43.25479" lon="2.65703">
        <ele>55.731468</ele>
        <time>2022-06-03T16:49:21.158Z</time>
      </trkpt>
      <trkpt lat="43.25437" lon="2.6572">
        <ele>55.564092</ele>
        <time>2022-06-03T16:49:28.908Z</time>
      </trkpt>
      <trkpt lat="43.25428" lon="2.65728">
        <ele>55.521645</ele>
        <time>2022-06-03T16:49:30.886Z</time>
      </trkpt>
      <trkpt lat="43.25424" lon="2.65739">
        <ele>55.489474</ele>
        <time>2022-06-03T16:49:32.327Z</time>
      </trkpt>
      <trkpt lat="43.25424" lon="2.65778">
        <ele>55.428357</ele>
        <time>2022-06-03T16:49:37.458Z</time>
      </trkpt>
      <trkpt lat="43.25413" lon="2.65794">
        <ele>55.494769</ele>
        <time>2022-06-03T16:49:40.230Z</time>
      </trkpt>
      <trkpt lat="43.25321" lon="2.65815">
        <ele>55.888246</ele>
        <time>2022-06-03T16:49:58.440Z</time>
      </trkpt>
      <trkpt lat="43.25252" lon="2.65817">
        <ele>56.189756</ele>
        <time>2022-06-03T16:50:13.871Z</time>
      </trkpt>
      <trkpt lat="43.25214" lon="2.65812">
        <ele>56.474281</ele>
        <time>2022-06-03T16:50:22.588Z</time>
      </trkpt>
      <trkpt lat="43.25124" lon="2.65783">
        <ele>57.16932</ele>
        <time>2022-06-03T16:50:42.656Z</time>
      </trkpt>
      <trkpt lat="43.2509" lon="2.65775">
        <ele>57.424866</ele>
        <time>2022-06-03T16:50:49.652Z</time>
      </trkpt>
      <trkpt lat="43.25033" lon="2.65757">
        <ele>57.560402</ele>
        <time>2022-06-03T16:51:01.692Z</time>
      </trkpt>
      <trkpt lat="43.24987" lon="2.65745">
        <ele>57.609648</ele>
        <time>2022-06-03T16:51:10.134Z</time>
      </trkpt>
      <trkpt lat="43.24983" lon="2.65743">
        <ele>57.613867</ele>
        <time>2022-06-03T16:51:10.898Z</time>
      </trkpt>
      <trkpt lat="43.24952" lon="2.65738">
        <ele>57.647033</ele>
        <time>2022-06-03T16:51:16.246Z</time>
      </trkpt>
      <trkpt lat="43.24898" lon="2.65749">
        <ele>57.719957</ele>
        <time>2022-06-03T16:51:25.835Z</time>
      </trkpt>
      <trkpt lat="43.24818" lon="2.6577">
        <ele>58.085419</ele>
        <time>2022-06-03T16:51:41.299Z</time>
      </trkpt>
      <trkpt lat="43.24806" lon="2.65778">
        <ele>58.144093</ele>
        <time>2022-06-03T16:51:44.009Z</time>
      </trkpt>
      <trkpt lat="43.24787" lon="2.65806">
        <ele>58.268709</ele>
        <time>2022-06-03T16:51:49.775Z</time>
      </trkpt>
      <trkpt lat="43.24776" lon="2.65799">
        <ele>58.324289</ele>
        <time>2022-06-03T16:51:52.558Z</time>
      </trkpt>
      <trkpt lat="43.24696" lon="2.65795">
        <ele>58.869153</ele>
        <time>2022-06-03T16:52:09.317Z</time>
      </trkpt>
      <trkpt lat="43.24652" lon="2.65788">
        <ele>59.266693</ele>
        <time>2022-06-03T16:52:19.129Z</time>
      </trkpt>
      <trkpt lat="43.24619" lon="2.65777">
        <ele>59.580041</ele>
        <time>2022-06-03T16:52:27.251Z</time>
      </trkpt>
      <trkpt lat="43.24567" lon="2.6575">
        <ele>60.093013</ele>
        <time>2022-06-03T16:52:39.925Z</time>
      </trkpt>
      <trkpt lat="43.24491" lon="2.65735">
        <ele>60.161394</ele>
        <time>2022-06-03T16:52:56.217Z</time>
      </trkpt>
      <trkpt lat="43.24416" lon="2.65732">
        <ele>60.176582</ele>
        <time>2022-06-03T16:53:09.778Z</time>
      </trkpt>
      <trkpt lat="43.24364" lon="2.65722">
        <ele>59.9987</ele>
        <time>2022-06-03T16:53:18.656Z</time>
      </trkpt>
      <trkpt lat="43.24325" lon="2.65709">
        <ele>59.581984</ele>
        <time>2022-06-03T16:53:25.168Z</time>
      </trkpt>
      <trkpt lat="43.24247" lon="2.65664">
        <ele>58.700953</ele>
        <time>2022-06-03T16:53:38.932Z</time>
      </trkpt>
      <trkpt lat="43.2389" lon="2.65335">
        <ele>56.016604</ele>
        <time>2022-06-03T16:54:53.107Z</time>
      </trkpt>
      <trkpt lat="43.23825" lon="2.65244">
        <ele>55.879034</ele>
        <time>2022-06-03T16:55:10.015Z</time>
      </trkpt>
      <trkpt lat="43.23762" lon="2.65097">
        <ele>55.701181</ele>
        <time>2022-06-03T16:55:33.239Z</time>
      </trkpt>
      <trkpt lat="43.23584" lon="2.64418">
        <ele>55.227144</ele>
        <time>2022-06-03T16:57:08.526Z</time>
      </trkpt>
      <trkpt lat="43.23363" lon="2.63966">
        <ele>56.860665</ele>
        <time>2022-06-03T16:58:29.722Z</time>
      </trkpt>
      <trkpt lat="43.23152" lon="2.63541">
        <ele>59.397494</ele>
        <time>2022-06-03T16:59:48.562Z</time>
      </trkpt>
      <trkpt lat="43.23112" lon="2.63462">
        <ele>60.020018</ele>
        <time>2022-06-03T17:00:12.916Z</time>
      </trkpt>
      <trkpt lat="43.231" lon="2.63438">
        <ele>60.258003</ele>
        <time>2022-06-03T17:00:18.067Z</time>
      </trkpt>
      <trkpt lat="43.23096" lon="2.63429">
        <ele>60.340025</ele>
        <time>2022-06-03T17:00:20.605Z</time>
      </trkpt>
      <trkpt lat="43.23045" lon="2.6333">
        <ele>61.333758</ele>
        <time>2022-06-03T17:00:51.128Z</time>
      </trkpt>
      <trkpt lat="43.23022" lon="2.633">
        <ele>61.692974</ele>
        <time>2022-06-03T17:01:02.168Z</time>
      </trkpt>
      <trkpt lat="43.22922" lon="2.63112">
        <ele>62.617571</ele>
        <time>2022-06-03T17:01:38.301Z</time>
      </trkpt>
      <trkpt lat="43.22809" lon="2.62882">
        <ele>61.980759</ele>
        <time>2022-06-03T17:02:14.155Z</time>
      </trkpt>
      <trkpt lat="43.22783" lon="2.6283">
        <ele>61.524909</ele>
        <time>2022-06-03T17:02:21.540Z</time>
      </trkpt>
      <trkpt lat="43.22698" lon="2.6275">
        <ele>60.123719</ele>
        <time>2022-06-03T17:02:37.776Z</time>
      </trkpt>
      <trkpt lat="43.22679" lon="2.6272">
        <ele>59.730921</ele>
        <time>2022-06-03T17:02:42.217Z</time>
      </trkpt>
      <trkpt lat="43.22683" lon="2.62706">
        <ele>59.577876</ele>
        <time>2022-06-03T17:02:44.070Z</time>
      </trkpt>
      <trkpt lat="43.22678" lon="2.62696">
        <ele>59.462762</ele>
        <time>2022-06-03T17:02:45.419Z</time>
      </trkpt>
      <trkpt lat="43.2267" lon="2.62694">
        <ele>59.393156</ele>
        <time>2022-06-03T17:02:46.767Z</time>
      </trkpt>
      <trkpt lat="43.22663" lon="2.62699">
        <ele>59.349849</ele>
        <time>2022-06-03T17:02:48.075Z</time>
      </trkpt>
      <trkpt lat="43.22628" lon="2.6264">
        <ele>59.047714</ele>
        <time>2022-06-03T17:02:57.710Z</time>
      </trkpt>
      <trkpt lat="43.2256" lon="2.62542">
        <ele>58.515911</ele>
        <time>2022-06-03T17:03:15.337Z</time>
      </trkpt>
      <trkpt lat="43.22539" lon="2.62519">
        <ele>58.435021</ele>
        <time>2022-06-03T17:03:20.255Z</time>
      </trkpt>
      <trkpt lat="43.22488" lon="2.6247">
        <ele>58.366641</ele>
        <time>2022-06-03T17:03:31.628Z</time>
      </trkpt>
      <trkpt lat="43.22484" lon="2.62472">
        <ele>58.361608</ele>
        <time>2022-06-03T17:03:32.430Z</time>
      </trkpt>
      <trkpt lat="43.22445" lon="2.62479">
        <ele>58.318555</ele>
        <time>2022-06-03T17:03:39.697Z</time>
      </trkpt>
      <trkpt lat="43.22401" lon="2.62476">
        <ele>58.269028</ele>
        <time>2022-06-03T17:03:48.150Z</time>
      </trkpt>
      <trkpt lat="43.22389" lon="2.62468">
        <ele>58.254478</ele>
        <time>2022-06-03T17:03:50.560Z</time>
      </trkpt>
      <trkpt lat="43.22378" lon="2.62481">
        <ele>58.179436</ele>
        <time>2022-06-03T17:03:53.103Z</time>
      </trkpt>
      <trkpt lat="43.22365" lon="2.62459">
        <ele>58.062826</ele>
        <time>2022-06-03T17:03:56.631Z</time>
      </trkpt>
      <trkpt lat="43.22361" lon="2.62451">
        <ele>58.018383</ele>
        <time>2022-06-03T17:03:57.938Z</time>
      </trkpt>
      <trkpt lat="43.22347" lon="2.62423">
        <ele>57.875202</ele>
        <time>2022-06-03T17:04:02.064Z</time>
      </trkpt>
      <trkpt lat="43.22338" lon="2.62407">
        <ele>57.788744</ele>
        <time>2022-06-03T17:04:04.569Z</time>
      </trkpt>
      <trkpt lat="43.22336" lon="2.62391">
        <ele>57.72021</ele>
        <time>2022-06-03T17:04:06.563Z</time>
      </trkpt>
      <trkpt lat="43.22336" lon="2.62351">
        <ele>57.553209</ele>
        <time>2022-06-03T17:04:11.501Z</time>
      </trkpt>
      <trkpt lat="43.22332" lon="2.62317">
        <ele>57.404519</ele>
        <time>2022-06-03T17:04:15.961Z</time>
      </trkpt>
      <trkpt lat="43.223" lon="2.62289">
        <ele>57.199178</ele>
        <time>2022-06-03T17:04:22.430Z</time>
      </trkpt>
      <trkpt lat="43.22296" lon="2.62268">
        <ele>57.154754</ele>
        <time>2022-06-03T17:04:25.124Z</time>
      </trkpt>
      <trkpt lat="43.22292" lon="2.62247">
        <ele>57.112468</ele>
        <time>2022-06-03T17:04:27.713Z</time>
      </trkpt>
      <trkpt lat="43.2229" lon="2.62242">
        <ele>57.101891</ele>
        <time>2022-06-03T17:04:28.366Z</time>
      </trkpt>
      <trkpt lat="43.22284" lon="2.62214">
        <ele>57.042684</ele>
        <time>2022-06-03T17:04:31.950Z</time>
      </trkpt>
      <trkpt lat="43.22282" lon="2.62206">
        <ele>57.025919</ele>
        <time>2022-06-03T17:04:32.981Z</time>
      </trkpt>
      <trkpt lat="43.22273" lon="2.62216">
        <ele>56.994707</ele>
        <time>2022-06-03T17:04:34.981Z</time>
      </trkpt>
      <trkpt lat="43.22225" lon="2.62245">
        <ele>56.851949</ele>
        <time>2022-06-03T17:04:44.175Z</time>
      </trkpt>
      <trkpt lat="43.22193" lon="2.62265">
        <ele>56.754055</ele>
        <time>2022-06-03T17:04:50.776Z</time>
      </trkpt>
      <trkpt lat="43.22146" lon="2.62265">
        <ele>56.798691</ele>
        <time>2022-06-03T17:05:00.163Z</time>
      </trkpt>
      <trkpt lat="43.22099" lon="2.6225">
        <ele>56.918484</ele>
        <time>2022-06-03T17:05:10.412Z</time>
      </trkpt>
      <trkpt lat="43.22071" lon="2.62238">
        <ele>56.988715</ele>
        <time>2022-06-03T17:05:16.001Z</time>
      </trkpt>
      <trkpt lat="43.22041" lon="2.62226">
        <ele>57.066417</ele>
        <time>2022-06-03T17:05:22.021Z</time>
      </trkpt>
      <trkpt lat="43.21994" lon="2.62197">
        <ele>57.126826</ele>
        <time>2022-06-03T17:05:31.793Z</time>
      </trkpt>
      <trkpt lat="43.21975" lon="2.62177">
        <ele>57.071281</ele>
        <time>2022-06-03T17:05:36.189Z</time>
      </trkpt>
      <trkpt lat="43.21971" lon="2.62174">
        <ele>57.060187</ele>
        <time>2022-06-03T17:05:37.042Z</time>
      </trkpt>
      <trkpt lat="43.21933" lon="2.62152">
        <ele>56.963807</ele>
        <time>2022-06-03T17:05:44.329Z</time>
      </trkpt>
      <trkpt lat="43.2181" lon="2.62156">
        <ele>56.737232</ele>
        <time>2022-06-03T17:06:06.090Z</time>
      </trkpt>
      <trkpt lat="43.21684" lon="2.62118">
        <ele>56.743466</ele>
        <time>2022-06-03T17:06:29.736Z</time>
      </trkpt>
      <trkpt lat="43.21569" lon="2.62026">
        <ele>58.263933</ele>
        <time>2022-06-03T17:06:59.177Z</time>
      </trkpt>
      <trkpt lat="43.21527" lon="2.61975">
        <ele>59.052895</ele>
        <time>2022-06-03T17:07:13.571Z</time>
      </trkpt>
      <trkpt lat="43.21451" lon="2.61828">
        <ele>63.179251</ele>
        <time>2022-06-03T17:07:53.687Z</time>
      </trkpt>
      <trkpt lat="43.21445" lon="2.61822">
        <ele>63.427455</ele>
        <time>2022-06-03T17:07:56.189Z</time>
      </trkpt>
      <trkpt lat="43.21404" lon="2.61746">
        <ele>65.838585</ele>
        <time>2022-06-03T17:08:20.584Z</time>
      </trkpt>
      <trkpt lat="43.21324" lon="2.61635">
        <ele>70.511948</ele>
        <time>2022-06-03T17:09:01.831Z</time>
      </trkpt>
      <trkpt lat="43.21249" lon="2.61516">
        <ele>74.327915</ele>
        <time>2022-06-03T17:09:39.688Z</time>
      </trkpt>
      <trkpt lat="43.21182" lon="2.61456">
        <ele>76.457039</ele>
        <time>2022-06-03T17:10:02.610Z</time>
      </trkpt>
      <trkpt lat="43.21166" lon="2.61426">
        <ele>77.187417</ele>
        <time>2022-06-03T17:10:09.825Z</time>
      </trkpt>
      <trkpt lat="43.21156" lon="2.61383">
        <ele>77.691687</ele>
        <time>2022-06-03T17:10:17.999Z</time>
      </trkpt>
      <trkpt lat="43.21192" lon="2.60997">
        <ele>80.031824</ele>
        <time>2022-06-03T17:11:19.537Z</time>
      </trkpt>
      <trkpt lat="43.21162" lon="2.60954">
        <ele>80.291117</ele>
        <time>2022-06-03T17:11:27.963Z</time>
      </trkpt>
      <trkpt lat="43.2115" lon="2.60947">
        <ele>80.355979</ele>
        <time>2022-06-03T17:11:30.421Z</time>
      </trkpt>
      <trkpt lat="43.2102" lon="2.60955">
        <ele>80.361595</ele>
        <time>2022-06-03T17:11:55.101Z</time>
      </trkpt>
      <trkpt lat="43.21014" lon="2.60949">
        <ele>80.36188</ele>
        <time>2022-06-03T17:11:56.378Z</time>
      </trkpt>
      <trkpt lat="43.20995" lon="2.6086">
        <ele>80.052882</ele>
        <time>2022-06-03T17:12:08.654Z</time>
      </trkpt>
      <trkpt lat="43.20983" lon="2.60833">
        <ele>79.79529</ele>
        <time>2022-06-03T17:12:12.588Z</time>
      </trkpt>
      <trkpt lat="43.20943" lon="2.60753">
        <ele>78.983898</ele>
        <time>2022-06-03T17:12:24.291Z</time>
      </trkpt>
      <trkpt lat="43.20868" lon="2.60664">
        <ele>77.450863</ele>
        <time>2022-06-03T17:12:44.279Z</time>
      </trkpt>
      <trkpt lat="43.20834" lon="2.60609">
        <ele>76.334487</ele>
        <time>2022-06-03T17:12:54.486Z</time>
      </trkpt>
      <trkpt lat="43.2067" lon="2.60255">
        <ele>70.353903</ele>
        <time>2022-06-03T17:13:55.245Z</time>
      </trkpt>
      <trkpt lat="43.2065" lon="2.60205">
        <ele>69.898477</ele>
        <time>2022-06-03T17:14:04.107Z</time>
      </trkpt>
      <trkpt lat="43.20626" lon="2.60091">
        <ele>68.955146</ele>
        <time>2022-06-03T17:14:22.962Z</time>
      </trkpt>
      <trkpt lat="43.20613" lon="2.60053">
        <ele>68.843406</ele>
        <time>2022-06-03T17:14:29.764Z</time>
      </trkpt>
      <trkpt lat="43.20551" lon="2.59947">
        <ele>69.013211</ele>
        <time>2022-06-03T17:14:53.869Z</time>
      </trkpt>
      <trkpt lat="43.20522" lon="2.59901">
        <ele>69.08895</ele>
        <time>2022-06-03T17:15:05.124Z</time>
      </trkpt>
      <trkpt lat="43.20482" lon="2.5983">
        <ele>69.167003</ele>
        <time>2022-06-03T17:15:18.180Z</time>
      </trkpt>
      <trkpt lat="43.20452" lon="2.59776">
        <ele>69.215109</ele>
        <time>2022-06-03T17:15:28.072Z</time>
      </trkpt>
      <trkpt lat="43.20432" lon="2.5974">
        <ele>69.247506</ele>
        <time>2022-06-03T17:15:34.644Z</time>
      </trkpt>
      <trkpt lat="43.2041" lon="2.59713">
        <ele>69.276362</ele>
        <time>2022-06-03T17:15:40.146Z</time>
      </trkpt>
      <trkpt lat="43.20376" lon="2.59702">
        <ele>69.066073</ele>
        <time>2022-06-03T17:15:46.115Z</time>
      </trkpt>
      <trkpt lat="43.20379" lon="2.59678">
        <ele>68.732952</ele>
        <time>2022-06-03T17:15:49.327Z</time>
      </trkpt>
      <trkpt lat="43.20356" lon="2.59672">
        <ele>68.303514</ele>
        <time>2022-06-03T17:15:53.059Z</time>
      </trkpt>
      <trkpt lat="43.20341" lon="2.59669">
        <ele>68.024189</ele>
        <time>2022-06-03T17:15:55.461Z</time>
      </trkpt>
      <trkpt lat="43.20336" lon="2.59627">
        <ele>67.468145</ele>
        <time>2022-06-03T17:16:00.207Z</time>
      </trkpt>
      <trkpt lat="43.20091" lon="2.59683">
        <ele>61.93383</ele>
        <time>2022-06-03T17:16:35.227Z</time>
      </trkpt>
      <trkpt lat="43.19978" lon="2.59732">
        <ele>60.820564</ele>
        <time>2022-06-03T17:16:53.432Z</time>
      </trkpt>
      <trkpt lat="43.19942" lon="2.59756">
        <ele>60.500172</ele>
        <time>2022-06-03T17:17:00.581Z</time>
      </trkpt>
      <trkpt lat="43.19925" lon="2.59778">
        <ele>60.314828</ele>
        <time>2022-06-03T17:17:05.152Z</time>
      </trkpt>
      <trkpt lat="43.19918" lon="2.59799">
        <ele>60.285111</ele>
        <time>2022-06-03T17:17:08.631Z</time>
      </trkpt>
      <trkpt lat="43.19911" lon="2.59864">
        <ele>60.553525</ele>
        <time>2022-06-03T17:17:18.475Z</time>
      </trkpt>
      <trkpt lat="43.19829" lon="2.59992">
        <ele>61.24933</ele>
        <time>2022-06-03T17:17:43.610Z</time>
      </trkpt>
      <trkpt lat="43.19822" lon="2.60006">
        <ele>61.325117</ele>
        <time>2022-06-03T17:17:45.906Z</time>
      </trkpt>
      <trkpt lat="43.19806" lon="2.60016">
        <ele>61.44002</ele>
        <time>2022-06-03T17:17:49.676Z</time>
      </trkpt>
      <trkpt lat="43.19788" lon="2.60018">
        <ele>61.549455</ele>
        <time>2022-06-03T17:17:53.112Z</time>
      </trkpt>
      <trkpt lat="43.19723" lon="2.5998">
        <ele>61.995735</ele>
        <time>2022-06-03T17:18:07.353Z</time>
      </trkpt>
      <trkpt lat="43.19702" lon="2.59964">
        <ele>62.144397</ele>
        <time>2022-06-03T17:18:12.157Z</time>
      </trkpt>
      <trkpt lat="43.19637" lon="2.59937">
        <ele>62.72897</ele>
        <time>2022-06-03T17:18:25.792Z</time>
      </trkpt>
      <trkpt lat="43.19403" lon="2.59888">
        <ele>65.748372</ele>
        <time>2022-06-03T17:19:20.602Z</time>
      </trkpt>
      <trkpt lat="43.19309" lon="2.59835">
        <ele>67.325769</ele>
        <time>2022-06-03T17:19:44.889Z</time>
      </trkpt>
      <trkpt lat="43.19286" lon="2.59833">
        <ele>67.824039</ele>
        <time>2022-06-03T17:19:50.578Z</time>
      </trkpt>
      <trkpt lat="43.19209" lon="2.59845">
        <ele>69.536323</ele>
        <time>2022-06-03T17:20:10.805Z</time>
      </trkpt>
      <trkpt lat="43.19136" lon="2.59831">
        <ele>71.185184</ele>
        <time>2022-06-03T17:20:31.381Z</time>
      </trkpt>
      <trkpt lat="43.19016" lon="2.5983">
        <ele>74.779193</ele>
        <time>2022-06-03T17:21:06.786Z</time>
      </trkpt>
      <trkpt lat="43.18969" lon="2.59817">
        <ele>76.204729</ele>
        <time>2022-06-03T17:21:21.292Z</time>
      </trkpt>
      <trkpt lat="43.18891" lon="2.5982">
        <ele>79.147291</ele>
        <time>2022-06-03T17:21:46.145Z</time>
      </trkpt>
      <trkpt lat="43.18849" lon="2.59827">
        <ele>80.768936</ele>
        <time>2022-06-03T17:22:00.184Z</time>
      </trkpt>
      <trkpt lat="43.18845" lon="2.59829">
        <ele>80.92271</ele>
        <time>2022-06-03T17:22:01.556Z</time>
      </trkpt>
      <trkpt lat="43.18827" lon="2.59832">
        <ele>81.632668</ele>
        <time>2022-06-03T17:22:08.200Z</time>
      </trkpt>
      <trkpt lat="43.18789" lon="2.59835">
        <ele>83.104774</ele>
        <time>2022-06-03T17:22:22.006Z</time>
      </trkpt>
      <trkpt lat="43.18764" lon="2.59824">
        <ele>83.970083</ele>
        <time>2022-06-03T17:22:31.454Z</time>
      </trkpt>
      <trkpt lat="43.1876" lon="2.59822">
        <ele>84.102163</ele>
        <time>2022-06-03T17:22:32.932Z</time>
      </trkpt>
      <trkpt lat="43.18747" lon="2.59826">
        <ele>84.504567</ele>
        <time>2022-06-03T17:22:37.365Z</time>
      </trkpt>
      <trkpt lat="43.18702" lon="2.59818">
        <ele>85.952909</ele>
        <time>2022-06-03T17:22:52.271Z</time>
      </trkpt>
      <trkpt lat="43.18677" lon="2.59808">
        <ele>86.761918</ele>
        <time>2022-06-03T17:23:00.154Z</time>
      </trkpt>
      <trkpt lat="43.18654" lon="2.59799">
        <ele>87.504637</ele>
        <time>2022-06-03T17:23:06.933Z</time>
      </trkpt>
      <trkpt lat="43.18642" lon="2.5978">
        <ele>88.077642</ele>
        <time>2022-06-03T17:23:11.811Z</time>
      </trkpt>
      <trkpt lat="43.18634" lon="2.59767">
        <ele>88.486386</ele>
        <time>2022-06-03T17:23:15.411Z</time>
      </trkpt>
      <trkpt lat="43.18625" lon="2.59752">
        <ele>88.915296</ele>
        <time>2022-06-03T17:23:18.932Z</time>
      </trkpt>
      <trkpt lat="43.18622" lon="2.59727">
        <ele>89.197809</ele>
        <time>2022-06-03T17:23:23.604Z</time>
      </trkpt>
      <trkpt lat="43.18622" lon="2.59695">
        <ele>89.452041</ele>
        <time>2022-06-03T17:23:29.082Z</time>
      </trkpt>
      <trkpt lat="43.18622" lon="2.59692">
        <ele>89.478506</ele>
        <time>2022-06-03T17:23:29.632Z</time>
      </trkpt>
      <trkpt lat="43.18622" lon="2.59661">
        <ele>89.72953</ele>
        <time>2022-06-03T17:23:35.421Z</time>
      </trkpt>
      <trkpt lat="43.18614" lon="2.59633">
        <ele>89.969293</ele>
        <time>2022-06-03T17:23:40.761Z</time>
      </trkpt>
      <trkpt lat="43.18602" lon="2.59594">
        <ele>90.308253</ele>
        <time>2022-06-03T17:23:48.054Z</time>
      </trkpt>
      <trkpt lat="43.18593" lon="2.59571">
        <ele>90.519713</ele>
        <time>2022-06-03T17:23:52.230Z</time>
      </trkpt>
      <trkpt lat="43.1855" lon="2.5952">
        <ele>90.903537</ele>
        <time>2022-06-03T17:24:03.139Z</time>
      </trkpt>
      <trkpt lat="43.18536" lon="2.59514">
        <ele>90.770796</ele>
        <time>2022-06-03T17:24:06.055Z</time>
      </trkpt>
      <trkpt lat="43.18521" lon="2.59531">
        <ele>90.596323</ele>
        <time>2022-06-03T17:24:09.453Z</time>
      </trkpt>
      <trkpt lat="43.18496" lon="2.5953">
        <ele>90.361727</ele>
        <time>2022-06-03T17:24:14.029Z</time>
      </trkpt>
      <trkpt lat="43.18494" lon="2.59407">
        <ele>89.539065</ele>
        <time>2022-06-03T17:24:28.101Z</time>
      </trkpt>
      <trkpt lat="43.18493" lon="2.59341">
        <ele>88.654988</ele>
        <time>2022-06-03T17:24:35.100Z</time>
      </trkpt>
      <trkpt lat="43.18491" lon="2.5926">
        <ele>87.194274</ele>
        <time>2022-06-03T17:24:43.213Z</time>
      </trkpt>
      <trkpt lat="43.1849" lon="2.59215">
        <ele>86.388358</ele>
        <time>2022-06-03T17:24:47.715Z</time>
      </trkpt>
      <trkpt lat="43.1849" lon="2.59205">
        <ele>86.206735</ele>
        <time>2022-06-03T17:24:48.740Z</time>
      </trkpt>
      <trkpt lat="43.18489" lon="2.59179">
        <ele>85.739072</ele>
        <time>2022-06-03T17:24:51.387Z</time>
      </trkpt>
      <trkpt lat="43.18485" lon="2.59021">
        <ele>84.201722</ele>
        <time>2022-06-03T17:25:08.678Z</time>
      </trkpt>
      <trkpt lat="43.18463" lon="2.5889">
        <ele>83.354789</ele>
        <time>2022-06-03T17:25:25.655Z</time>
      </trkpt>
      <trkpt lat="43.18464" lon="2.58874">
        <ele>83.436364</ele>
        <time>2022-06-03T17:25:27.642Z</time>
      </trkpt>
      <trkpt lat="43.18453" lon="2.58855">
        <ele>83.561322</ele>
        <time>2022-06-03T17:25:31.516Z</time>
      </trkpt>
      <trkpt lat="43.18424" lon="2.58718">
        <ele>84.278071</ele>
        <time>2022-06-03T17:25:52.896Z</time>
      </trkpt>
      <trkpt lat="43.18417" lon="2.58708">
        <ele>84.346486</ele>
        <time>2022-06-03T17:25:55.033Z</time>
      </trkpt>
      <trkpt lat="43.18396" lon="2.58698">
        <ele>84.495085</ele>
        <time>2022-06-03T17:25:59.781Z</time>
      </trkpt>
      <trkpt lat="43.18319" lon="2.58657">
        <ele>85.585275</ele>
        <time>2022-06-03T17:26:18.742Z</time>
      </trkpt>
      <trkpt lat="43.18183" lon="2.58645">
        <ele>87.773273</ele>
        <time>2022-06-03T17:26:51.304Z</time>
      </trkpt>
      <trkpt lat="43.18158" lon="2.5865">
        <ele>88.394164</ele>
        <time>2022-06-03T17:26:57.765Z</time>
      </trkpt>
      <trkpt lat="43.18068" lon="2.58689">
        <ele>90.651852</ele>
        <time>2022-06-03T17:27:23.511Z</time>
      </trkpt>
      <trkpt lat="43.18016" lon="2.58699">
        <ele>92.201384</ele>
        <time>2022-06-03T17:27:39.394Z</time>
      </trkpt>
      <trkpt lat="43.1798" lon="2.587">
        <ele>93.743733</ele>
        <time>2022-06-03T17:27:51.259Z</time>
      </trkpt>
      <trkpt lat="43.17925" lon="2.58693">
        <ele>96.036014</ele>
        <time>2022-06-03T17:28:10.038Z</time>
      </trkpt>
      <trkpt lat="43.17895" lon="2.58689">
        <ele>97.337528</ele>
        <time>2022-06-03T17:28:21.550Z</time>
      </trkpt>
      <trkpt lat="43.17853" lon="2.58684">
        <ele>99.120258</ele>
        <time>2022-06-03T17:28:37.284Z</time>
      </trkpt>
      <trkpt lat="43.17725" lon="2.58665">
        <ele>105.79643</ele>
        <time>2022-06-03T17:29:27.830Z</time>
      </trkpt>
      <trkpt lat="43.17637" lon="2.58638">
        <ele>110.169319</ele>
        <time>2022-06-03T17:30:02.451Z</time>
      </trkpt>
      <trkpt lat="43.17502" lon="2.58675">
        <ele>116.271248</ele>
        <time>2022-06-03T17:30:51.668Z</time>
      </trkpt>
      <trkpt lat="43.17398" lon="2.58728">
        <ele>119.130731</ele>
        <time>2022-06-03T17:31:23.048Z</time>
      </trkpt>
      <trkpt lat="43.17358" lon="2.5875">
        <ele>120.226685</ele>
        <time>2022-06-03T17:31:34.361Z</time>
      </trkpt>
      <trkpt lat="43.17289" lon="2.58758">
        <ele>121.554138</ele>
        <time>2022-06-03T17:31:51.594Z</time>
      </trkpt>
      <trkpt lat="43.1728" lon="2.58754">
        <ele>121.684516</ele>
        <time>2022-06-03T17:31:53.743Z</time>
      </trkpt>
      <trkpt lat="43.17245" lon="2.58719">
        <ele>122.324122</ele>
        <time>2022-06-03T17:32:03.623Z</time>
      </trkpt>
      <trkpt lat="43.17231" lon="2.58695">
        <ele>122.658776</ele>
        <time>2022-06-03T17:32:08.728Z</time>
      </trkpt>
      <trkpt lat="43.17171" lon="2.58615">
        <ele>123.925673</ele>
        <time>2022-06-03T17:32:27.943Z</time>
      </trkpt>
      <trkpt lat="43.17101" lon="2.58383">
        <ele>127.282644</ele>
        <time>2022-06-03T17:33:12.773Z</time>
      </trkpt>
      <trkpt lat="43.17095" lon="2.58333">
        <ele>128.331483</ele>
        <time>2022-06-03T17:33:23.064Z</time>
      </trkpt>
      <trkpt lat="43.17086" lon="2.5828">
        <ele>129.465958</ele>
        <time>2022-06-03T17:33:35.295Z</time>
      </trkpt>
      <trkpt lat="43.17081" lon="2.58268">
        <ele>129.756134</ele>
        <time>2022-06-03T17:33:38.507Z</time>
      </trkpt>
      <trkpt lat="43.17078" lon="2.5826">
        <ele>129.940728</ele>
        <time>2022-06-03T17:33:40.264Z</time>
      </trkpt>
      <trkpt lat="43.17071" lon="2.58225">
        <ele>130.688894</ele>
        <time>2022-06-03T17:33:48.624Z</time>
      </trkpt>
      <trkpt lat="43.17084" lon="2.5815">
        <ele>132.187043</ele>
        <time>2022-06-03T17:34:06.104Z</time>
      </trkpt>
      <trkpt lat="43.17075" lon="2.58106">
        <ele>132.969862</ele>
        <time>2022-06-03T17:34:16.981Z</time>
      </trkpt>
      <trkpt lat="43.17063" lon="2.58078">
        <ele>133.523389</ele>
        <time>2022-06-03T17:34:24.386Z</time>
      </trkpt>
      <trkpt lat="43.17058" lon="2.58067">
        <ele>133.738656</ele>
        <time>2022-06-03T17:34:27.112Z</time>
      </trkpt>
      <trkpt lat="43.17056" lon="2.58064">
        <ele>133.80623</ele>
        <time>2022-06-03T17:34:28.030Z</time>
      </trkpt>
      <trkpt lat="43.17054" lon="2.58059">
        <ele>133.89464</ele>
        <time>2022-06-03T17:34:29.121Z</time>
      </trkpt>
      <trkpt lat="43.17041" lon="2.58013">
        <ele>134.741504</ele>
        <time>2022-06-03T17:34:38.797Z</time>
      </trkpt>
      <trkpt lat="43.17038" lon="2.57996">
        <ele>135.037169</ele>
        <time>2022-06-03T17:34:41.656Z</time>
      </trkpt>
      <trkpt lat="43.17037" lon="2.57962">
        <ele>135.625859</ele>
        <time>2022-06-03T17:34:47.226Z</time>
      </trkpt>
      <trkpt lat="43.17035" lon="2.57935">
        <ele>136.019784</ele>
        <time>2022-06-03T17:34:51.367Z</time>
      </trkpt>
      <trkpt lat="43.17035" lon="2.57917">
        <ele>136.204859</ele>
        <time>2022-06-03T17:34:54.112Z</time>
      </trkpt>
      <trkpt lat="43.17008" lon="2.57855">
        <ele>136.943353</ele>
        <time>2022-06-03T17:35:03.465Z</time>
      </trkpt>
      <trkpt lat="43.17002" lon="2.57839">
        <ele>137.124031</ele>
        <time>2022-06-03T17:35:05.720Z</time>
      </trkpt>
      <trkpt lat="43.16981" lon="2.57813">
        <ele>137.525537</ele>
        <time>2022-06-03T17:35:11.441Z</time>
      </trkpt>
      <trkpt lat="43.16946" lon="2.57786">
        <ele>138.080685</ele>
        <time>2022-06-03T17:35:20.360Z</time>
      </trkpt>
      <trkpt lat="43.16937" lon="2.57781">
        <ele>138.223427</ele>
        <time>2022-06-03T17:35:23.003Z</time>
      </trkpt>
      <trkpt lat="43.16912" lon="2.57767">
        <ele>139.404441</ele>
        <time>2022-06-03T17:35:34.459Z</time>
      </trkpt>
      <trkpt lat="43.16875" lon="2.5775">
        <ele>142.667803</ele>
        <time>2022-06-03T17:35:49.895Z</time>
      </trkpt>
      <trkpt lat="43.16832" lon="2.57734">
        <ele>146.452355</ele>
        <time>2022-06-03T17:36:10.911Z</time>
      </trkpt>
      <trkpt lat="43.16808" lon="2.57734">
        <ele>148.531769</ele>
        <time>2022-06-03T17:36:26.005Z</time>
      </trkpt>
      <trkpt lat="43.16791" lon="2.57733">
        <ele>149.923672</ele>
        <time>2022-06-03T17:36:34.252Z</time>
      </trkpt>
      <trkpt lat="43.16774" lon="2.57736">
        <ele>151.386689</ele>
        <time>2022-06-03T17:36:47.591Z</time>
      </trkpt>
      <trkpt lat="43.16739" lon="2.57761">
        <ele>155.191415</ele>
        <time>2022-06-03T17:37:14.213Z</time>
      </trkpt>
      <trkpt lat="43.16672" lon="2.57783">
        <ele>163.568499</ele>
        <time>2022-06-03T17:38:04.768Z</time>
      </trkpt>
      <trkpt lat="43.16627" lon="2.57813">
        <ele>169.590833</ele>
        <time>2022-06-03T17:38:37.511Z</time>
      </trkpt>
      <trkpt lat="43.16584" lon="2.57862">
        <ele>176.311133</ele>
        <time>2022-06-03T17:39:12.693Z</time>
      </trkpt>
      <trkpt lat="43.16553" lon="2.57865">
        <ele>179.452388</ele>
        <time>2022-06-03T17:39:31.953Z</time>
      </trkpt>
      <trkpt lat="43.16531" lon="2.57898">
        <ele>182.816842</ele>
        <time>2022-06-03T17:39:52.154Z</time>
      </trkpt>
      <trkpt lat="43.16488" lon="2.57908">
        <ele>187.366224</ele>
        <time>2022-06-03T17:40:18.129Z</time>
      </trkpt>
      <trkpt lat="43.16485" lon="2.57941">
        <ele>189.877019</ele>
        <time>2022-06-03T17:40:32.059Z</time>
      </trkpt>
      <trkpt lat="43.16435" lon="2.58047">
        <ele>199.335495</ele>
        <time>2022-06-03T17:41:24.525Z</time>
      </trkpt>
      <trkpt lat="43.16423" lon="2.58058">
        <ele>200.790786</ele>
        <time>2022-06-03T17:41:33.408Z</time>
      </trkpt>
      <trkpt lat="43.16405" lon="2.58056">
        <ele>202.681462</ele>
        <time>2022-06-03T17:41:44.586Z</time>
      </trkpt>
      <trkpt lat="43.16374" lon="2.5799">
        <ele>208.614532</ele>
        <time>2022-06-03T17:42:18.401Z</time>
      </trkpt>
      <trkpt lat="43.16321" lon="2.57993">
        <ele>214.249018</ele>
        <time>2022-06-03T17:42:51.501Z</time>
      </trkpt>
      <trkpt lat="43.1631" lon="2.57973">
        <ele>216.35443</ele>
        <time>2022-06-03T17:43:02.726Z</time>
      </trkpt>
      <trkpt lat="43.16303" lon="2.57931">
        <ele>220.009107</ele>
        <time>2022-06-03T17:43:23.557Z</time>
      </trkpt>
      <trkpt lat="43.16279" lon="2.57901">
        <ele>223.746865</ele>
        <time>2022-06-03T17:43:45.867Z</time>
      </trkpt>
      <trkpt lat="43.16262" lon="2.57865">
        <ele>227.335399</ele>
        <time>2022-06-03T17:44:07.946Z</time>
      </trkpt>
      <trkpt lat="43.16251" lon="2.57858">
        <ele>228.772674</ele>
        <time>2022-06-03T17:44:16.407Z</time>
      </trkpt>
      <trkpt lat="43.16148" lon="2.57841">
        <ele>239.013772</ele>
        <time>2022-06-03T17:45:18.829Z</time>
      </trkpt>
      <trkpt lat="43.16109" lon="2.57829">
        <ele>242.555074</ele>
        <time>2022-06-03T17:45:41.123Z</time>
      </trkpt>
      <trkpt lat="43.16096" lon="2.5784">
        <ele>243.935673</ele>
        <time>2022-06-03T17:45:49.471Z</time>
      </trkpt>
      <trkpt lat="43.16072" lon="2.57872">
        <ele>246.857484</ele>
        <time>2022-06-03T17:46:05.775Z</time>
      </trkpt>
      <trkpt lat="43.16061" lon="2.5794">
        <ele>251.225768</ele>
        <time>2022-06-03T17:46:28.442Z</time>
      </trkpt>
      <trkpt lat="43.16048" lon="2.5794">
        <ele>252.239493</ele>
        <time>2022-06-03T17:46:32.708Z</time>
      </trkpt>
      <trkpt lat="43.16025" lon="2.57911">
        <ele>254.806864</ele>
        <time>2022-06-03T17:46:46.545Z</time>
      </trkpt>
      <trkpt lat="43.16001" lon="2.57927">
        <ele>256.945281</ele>
        <time>2022-06-03T17:47:02.506Z</time>
      </trkpt>
      <trkpt lat="43.15986" lon="2.5795">
        <ele>258.755789</ele>
        <time>2022-06-03T17:47:16.154Z</time>
      </trkpt>
      <trkpt lat="43.15925" lon="2.57956">
        <ele>263.636973</ele>
        <time>2022-06-03T17:47:58.376Z</time>
      </trkpt>
      <trkpt lat="43.15853" lon="2.57906">
        <ele>271.897107</ele>
        <time>2022-06-03T17:48:56.845Z</time>
      </trkpt>
      <trkpt lat="43.15808" lon="2.57914">
        <ele>276.632528</ele>
        <time>2022-06-03T17:49:28.958Z</time>
      </trkpt>
      <trkpt lat="43.15746" lon="2.5797">
        <ele>283.988584</ele>
        <time>2022-06-03T17:50:23.551Z</time>
      </trkpt>
      <trkpt lat="43.15667" lon="2.57995">
        <ele>291.144311</ele>
        <time>2022-06-03T17:51:14.585Z</time>
      </trkpt>
      <trkpt lat="43.15634" lon="2.58031">
        <ele>294.861375</ele>
        <time>2022-06-03T17:51:39.845Z</time>
      </trkpt>
      <trkpt lat="43.15628" lon="2.58059">
        <ele>296.74779</ele>
        <time>2022-06-03T17:51:54.335Z</time>
      </trkpt>
      <trkpt lat="43.15629" lon="2.58078">
        <ele>297.996146</ele>
        <time>2022-06-03T17:52:03.098Z</time>
      </trkpt>
      <trkpt lat="43.15617" lon="2.58091">
        <ele>299.214779</ele>
        <time>2022-06-03T17:52:13.466Z</time>
      </trkpt>
      <trkpt lat="43.15614" lon="2.58107">
        <ele>300.198585</ele>
        <time>2022-06-03T17:52:21.356Z</time>
      </trkpt>
      <trkpt lat="43.15631" lon="2.58149">
        <ele>302.95277</ele>
        <time>2022-06-03T17:52:44.232Z</time>
      </trkpt>
      <trkpt lat="43.15632" lon="2.58159">
        <ele>303.571744</ele>
        <time>2022-06-03T17:52:48.946Z</time>
      </trkpt>
      <trkpt lat="43.15625" lon="2.58174">
        <ele>304.599889</ele>
        <time>2022-06-03T17:52:57.972Z</time>
      </trkpt>
      <trkpt lat="43.156" lon="2.5819">
        <ele>306.751069</ele>
        <time>2022-06-03T17:53:15.163Z</time>
      </trkpt>
      <trkpt lat="43.15563" lon="2.58197">
        <ele>309.758862</ele>
        <time>2022-06-03T17:53:38.779Z</time>
      </trkpt>
      <trkpt lat="43.15474" lon="2.58099">
        <ele>314.898085</ele>
        <time>2022-06-03T17:54:38.836Z</time>
      </trkpt>
      <trkpt lat="43.15458" lon="2.5806">
        <ele>315.898934</ele>
        <time>2022-06-03T17:54:53.025Z</time>
      </trkpt>
      <trkpt lat="43.15411" lon="2.58008">
        <ele>317.728372</ele>
        <time>2022-06-03T17:55:12.663Z</time>
      </trkpt>
      <trkpt lat="43.15367" lon="2.57976">
        <ele>316.412985</ele>
        <time>2022-06-03T17:55:25.351Z</time>
      </trkpt>
      <trkpt lat="43.15323" lon="2.57951">
        <ele>314.702128</ele>
        <time>2022-06-03T17:55:36.877Z</time>
      </trkpt>
      <trkpt lat="43.15261" lon="2.57929">
        <ele>312.400974</ele>
        <time>2022-06-03T17:55:51.793Z</time>
      </trkpt>
      <trkpt lat="43.15256" lon="2.5793">
        <ele>312.212323</ele>
        <time>2022-06-03T17:55:53.131Z</time>
      </trkpt>
      <trkpt lat="43.15231" lon="2.5793">
        <ele>311.263421</ele>
        <time>2022-06-03T17:55:58.634Z</time>
      </trkpt>
      <trkpt lat="43.15171" lon="2.57872">
        <ele>307.279247</ele>
        <time>2022-06-03T17:56:15.101Z</time>
      </trkpt>
      <trkpt lat="43.1516" lon="2.57847">
        <ele>306.136733</ele>
        <time>2022-06-03T17:56:19.872Z</time>
      </trkpt>
      <trkpt lat="43.1516" lon="2.57803">
        <ele>304.395548</ele>
        <time>2022-06-03T17:56:27.138Z</time>
      </trkpt>
      <trkpt lat="43.15156" lon="2.57786">
        <ele>303.690328</ele>
        <time>2022-06-03T17:56:29.935Z</time>
      </trkpt>
      <trkpt lat="43.1514" lon="2.57775">
        <ele>302.693415</ele>
        <time>2022-06-03T17:56:34.494Z</time>
      </trkpt>
      <trkpt lat="43.15123" lon="2.57777">
        <ele>301.757383</ele>
        <time>2022-06-03T17:56:38.539Z</time>
      </trkpt>
      <trkpt lat="43.15065" lon="2.57903">
        <ele>296.006482</ele>
        <time>2022-06-03T17:57:04.155Z</time>
      </trkpt>
      <trkpt lat="43.15056" lon="2.57911">
        <ele>295.470259</ele>
        <time>2022-06-03T17:57:06.508Z</time>
      </trkpt>
      <trkpt lat="43.1499" lon="2.57897">
        <ele>291.814518</ele>
        <time>2022-06-03T17:57:21.272Z</time>
      </trkpt>
      <trkpt lat="43.14948" lon="2.57894">
        <ele>288.780155</ele>
        <time>2022-06-03T17:57:30.444Z</time>
      </trkpt>
      <trkpt lat="43.1491" lon="2.57899">
        <ele>286.000581</ele>
        <time>2022-06-03T17:57:38.688Z</time>
      </trkpt>
      <trkpt lat="43.14857" lon="2.57891">
        <ele>282.147414</ele>
        <time>2022-06-03T17:57:50.256Z</time>
      </trkpt>
      <trkpt lat="43.14783" lon="2.57872">
        <ele>276.703468</ele>
        <time>2022-06-03T17:58:06.418Z</time>
      </trkpt>
      <trkpt lat="43.14769" lon="2.57881">
        <ele>275.579</ele>
        <time>2022-06-03T17:58:09.612Z</time>
      </trkpt>
      <trkpt lat="43.14741" lon="2.5794">
        <ele>271.7993</ele>
        <time>2022-06-03T17:58:21.036Z</time>
      </trkpt>
      <trkpt lat="43.14729" lon="2.5794">
        <ele>270.895824</ele>
        <time>2022-06-03T17:58:23.721Z</time>
      </trkpt>
      <trkpt lat="43.14701" lon="2.57922">
        <ele>268.67688</ele>
        <time>2022-06-03T17:58:30.350Z</time>
      </trkpt>
      <trkpt lat="43.14679" lon="2.57928">
        <ele>267.037118</ele>
        <time>2022-06-03T17:58:35.212Z</time>
      </trkpt>
      <trkpt lat="43.14651" lon="2.57911">
        <ele>264.691445</ele>
        <time>2022-06-03T17:58:41.938Z</time>
      </trkpt>
      <trkpt lat="43.14602" lon="2.57912">
        <ele>260.878863</ele>
        <time>2022-06-03T17:58:52.397Z</time>
      </trkpt>
      <trkpt lat="43.14563" lon="2.57934">
        <ele>257.538385</ele>
        <time>2022-06-03T17:59:01.398Z</time>
      </trkpt>
      <trkpt lat="43.14523" lon="2.5797">
        <ele>253.77455</ele>
        <time>2022-06-03T17:59:11.643Z</time>
      </trkpt>
      <trkpt lat="43.14513" lon="2.57967">
        <ele>253.003403</ele>
        <time>2022-06-03T17:59:13.915Z</time>
      </trkpt>
      <trkpt lat="43.14507" lon="2.57954">
        <ele>252.109106</ele>
        <time>2022-06-03T17:59:16.313Z</time>
      </trkpt>
      <trkpt lat="43.14509" lon="2.57938">
        <ele>251.268453</ele>
        <time>2022-06-03T17:59:18.759Z</time>
      </trkpt>
      <trkpt lat="43.14534" lon="2.57864">
        <ele>246.986014</ele>
        <time>2022-06-03T17:59:31.409Z</time>
      </trkpt>
      <trkpt lat="43.14549" lon="2.57776">
        <ele>242.231967</ele>
        <time>2022-06-03T17:59:45.949Z</time>
      </trkpt>
      <trkpt lat="43.14564" lon="2.5773">
        <ele>239.581084</ele>
        <time>2022-06-03T17:59:54.216Z</time>
      </trkpt>
      <trkpt lat="43.14566" lon="2.57724">
        <ele>239.233026</ele>
        <time>2022-06-03T17:59:55.337Z</time>
      </trkpt>
      <trkpt lat="43.14577" lon="2.57687">
        <ele>236.993129</ele>
        <time>2022-06-03T18:00:01.688Z</time>
      </trkpt>
      <trkpt lat="43.14576" lon="2.5767">
        <ele>235.997898</ele>
        <time>2022-06-03T18:00:04.467Z</time>
      </trkpt>
      <trkpt lat="43.14505" lon="2.57569">
        <ele>228.106619</ele>
        <time>2022-06-03T18:00:26.116Z</time>
      </trkpt>
      <trkpt lat="43.14477" lon="2.57538">
        <ele>225.351535</ele>
        <time>2022-06-03T18:00:33.776Z</time>
      </trkpt>
      <trkpt lat="43.14383" lon="2.57459">
        <ele>217.3562</ele>
        <time>2022-06-03T18:00:57.508Z</time>
      </trkpt>
      <trkpt lat="43.14374" lon="2.5745">
        <ele>216.559581</ele>
        <time>2022-06-03T18:00:59.794Z</time>
      </trkpt>
      <trkpt lat="43.14316" lon="2.57393">
        <ele>211.644936</ele>
        <time>2022-06-03T18:01:15.539Z</time>
      </trkpt>
      <trkpt lat="43.14237" lon="2.57329">
        <ele>207.34499</ele>
        <time>2022-06-03T18:01:36.769Z</time>
      </trkpt>
      <trkpt lat="43.14174" lon="2.57287">
        <ele>204.049579</ele>
        <time>2022-06-03T18:01:53.717Z</time>
      </trkpt>
      <trkpt lat="43.14091" lon="2.5722">
        <ele>200.770933</ele>
        <time>2022-06-03T18:02:17.125Z</time>
      </trkpt>
      <trkpt lat="43.13955" lon="2.57094">
        <ele>195.984138</ele>
        <time>2022-06-03T18:02:57.698Z</time>
      </trkpt>
      <trkpt lat="43.1382" lon="2.56935">
        <ele>192.410514</ele>
        <time>2022-06-03T18:03:43.856Z</time>
      </trkpt>
      <trkpt lat="43.13771" lon="2.56893">
        <ele>191.676443</ele>
        <time>2022-06-03T18:03:59.442Z</time>
      </trkpt>
      <trkpt lat="43.13757" lon="2.56872">
        <ele>191.406111</ele>
        <time>2022-06-03T18:04:05.377Z</time>
      </trkpt>
      <trkpt lat="43.13743" lon="2.56811">
        <ele>191.085379</ele>
        <time>2022-06-03T18:04:18.944Z</time>
      </trkpt>
      <trkpt lat="43.13691" lon="2.56747">
        <ele>191.380677</ele>
        <time>2022-06-03T18:04:40.939Z</time>
      </trkpt>
      <trkpt lat="43.13563" lon="2.56647">
        <ele>191.955044</ele>
        <time>2022-06-03T18:05:29.092Z</time>
      </trkpt>
      <trkpt lat="43.13395" lon="2.56458">
        <ele>192.628261</ele>
        <time>2022-06-03T18:06:34.777Z</time>
      </trkpt>
      <trkpt lat="43.13373" lon="2.56418">
        <ele>192.729135</ele>
        <time>2022-06-03T18:06:45.752Z</time>
      </trkpt>
      <trkpt lat="43.13356" lon="2.5636">
        <ele>192.855214</ele>
        <time>2022-06-03T18:06:59.613Z</time>
      </trkpt>
      <trkpt lat="43.13304" lon="2.56233">
        <ele>193.778886</ele>
        <time>2022-06-03T18:07:34.841Z</time>
      </trkpt>
      <trkpt lat="43.13276" lon="2.56202">
        <ele>194.102441</ele>
        <time>2022-06-03T18:07:42.650Z</time>
      </trkpt>
      <trkpt lat="43.13234" lon="2.56153">
        <ele>194.645631</ele>
        <time>2022-06-03T18:07:55.034Z</time>
      </trkpt>
      <trkpt lat="43.13217" lon="2.56135">
        <ele>194.929703</ele>
        <time>2022-06-03T18:07:59.998Z</time>
      </trkpt>
      <trkpt lat="43.13147" lon="2.56097">
        <ele>195.935402</ele>
        <time>2022-06-03T18:08:17.625Z</time>
      </trkpt>
      <trkpt lat="43.13117" lon="2.56066">
        <ele>196.431782</ele>
        <time>2022-06-03T18:08:26.504Z</time>
      </trkpt>
      <trkpt lat="43.13091" lon="2.56036">
        <ele>196.880348</ele>
        <time>2022-06-03T18:08:34.299Z</time>
      </trkpt>
      <trkpt lat="43.13048" lon="2.55971">
        <ele>197.623019</ele>
        <time>2022-06-03T18:08:48.676Z</time>
      </trkpt>
      <trkpt lat="43.13036" lon="2.55956">
        <ele>197.815463</ele>
        <time>2022-06-03T18:08:52.513Z</time>
      </trkpt>
      <trkpt lat="43.13021" lon="2.55939">
        <ele>198.039904</ele>
        <time>2022-06-03T18:08:56.953Z</time>
      </trkpt>
      <trkpt lat="43.13018" lon="2.55935">
        <ele>198.086225</ele>
        <time>2022-06-03T18:08:57.883Z</time>
      </trkpt>
      <trkpt lat="43.12984" lon="2.55901">
        <ele>198.578155</ele>
        <time>2022-06-03T18:09:07.596Z</time>
      </trkpt>
      <trkpt lat="43.12981" lon="2.55899">
        <ele>198.613411</ele>
        <time>2022-06-03T18:09:08.255Z</time>
      </trkpt>
      <trkpt lat="43.1296" lon="2.55881">
        <ele>198.901889</ele>
        <time>2022-06-03T18:09:13.636Z</time>
      </trkpt>
      <trkpt lat="43.1294" lon="2.55862">
        <ele>199.03453</ele>
        <time>2022-06-03T18:09:18.866Z</time>
      </trkpt>
      <trkpt lat="43.12918" lon="2.55841">
        <ele>199.124611</ele>
        <time>2022-06-03T18:09:24.392Z</time>
      </trkpt>
      <trkpt lat="43.12905" lon="2.55836">
        <ele>199.169452</ele>
        <time>2022-06-03T18:09:27.016Z</time>
      </trkpt>
      <trkpt lat="43.12885" lon="2.55824">
        <ele>199.241354</ele>
        <time>2022-06-03T18:09:31.227Z</time>
      </trkpt>
      <trkpt lat="43.12879" lon="2.5582">
        <ele>199.263766</ele>
        <time>2022-06-03T18:09:32.457Z</time>
      </trkpt>
      <trkpt lat="43.12874" lon="2.55815">
        <ele>199.283921</ele>
        <time>2022-06-03T18:09:33.573Z</time>
      </trkpt>
      <trkpt lat="43.1286" lon="2.55803">
        <ele>199.341366</ele>
        <time>2022-06-03T18:09:36.858Z</time>
      </trkpt>
      <trkpt lat="43.12808" lon="2.55751">
        <ele>199.557378</ele>
        <time>2022-06-03T18:09:48.352Z</time>
      </trkpt>
      <trkpt lat="43.12799" lon="2.55746">
        <ele>199.57451</ele>
        <time>2022-06-03T18:09:49.988Z</time>
      </trkpt>
      <trkpt lat="43.12794" lon="2.5574">
        <ele>199.574938</ele>
        <time>2022-06-03T18:09:51.042Z</time>
      </trkpt>
      <trkpt lat="43.12769" lon="2.55657">
        <ele>199.579454</ele>
        <time>2022-06-03T18:10:02.517Z</time>
      </trkpt>
      <trkpt lat="43.12733" lon="2.55566">
        <ele>199.584659</ele>
        <time>2022-06-03T18:10:15.936Z</time>
      </trkpt>
      <trkpt lat="43.12715" lon="2.55519">
        <ele>199.600593</ele>
        <time>2022-06-03T18:10:23.337Z</time>
      </trkpt>
      <trkpt lat="43.12666" lon="2.55385">
        <ele>199.74195</ele>
        <time>2022-06-03T18:10:43.720Z</time>
      </trkpt>
      <trkpt lat="43.12652" lon="2.55317">
        <ele>199.80981</ele>
        <time>2022-06-03T18:10:53.207Z</time>
      </trkpt>
      <trkpt lat="43.12593" lon="2.55286">
        <ele>199.749986</ele>
        <time>2022-06-03T18:11:04.701Z</time>
      </trkpt>
      <trkpt lat="43.12511" lon="2.55263">
        <ele>199.644955</ele>
        <time>2022-06-03T18:11:19.780Z</time>
      </trkpt>
      <trkpt lat="43.12495" lon="2.55248">
        <ele>199.621136</ele>
        <time>2022-06-03T18:11:23.105Z</time>
      </trkpt>
      <trkpt lat="43.12433" lon="2.55164">
        <ele>199.861745</ele>
        <time>2022-06-03T18:11:39.849Z</time>
      </trkpt>
      <trkpt lat="43.1242" lon="2.5514">
        <ele>199.947258</ele>
        <time>2022-06-03T18:11:44.107Z</time>
      </trkpt>
      <trkpt lat="43.12415" lon="2.55114">
        <ele>200.026349</ele>
        <time>2022-06-03T18:11:48.110Z</time>
      </trkpt>
      <trkpt lat="43.12423" lon="2.55042">
        <ele>200.244015</ele>
        <time>2022-06-03T18:11:59.435Z</time>
      </trkpt>
      <trkpt lat="43.12388" lon="2.54968">
        <ele>200.704186</ele>
        <time>2022-06-03T18:12:13.080Z</time>
      </trkpt>
      <trkpt lat="43.12376" lon="2.54925">
        <ele>200.999877</ele>
        <time>2022-06-03T18:12:20.553Z</time>
      </trkpt>
      <trkpt lat="43.12303" lon="2.54748">
        <ele>202.444582</ele>
        <time>2022-06-03T18:12:53.382Z</time>
      </trkpt>
      <trkpt lat="43.12242" lon="2.54631">
        <ele>203.729526</ele>
        <time>2022-06-03T18:13:18.001Z</time>
      </trkpt>
      <trkpt lat="43.12118" lon="2.54454">
        <ele>206.412357</ele>
        <time>2022-06-03T18:14:02.596Z</time>
      </trkpt>
      <trkpt lat="43.12095" lon="2.54452">
        <ele>206.773088</ele>
        <time>2022-06-03T18:14:08.631Z</time>
      </trkpt>
      <trkpt lat="43.12011" lon="2.54278">
        <ele>209.109213</ele>
        <time>2022-06-03T18:14:45.924Z</time>
      </trkpt>
      <trkpt lat="43.11918" lon="2.54108">
        <ele>212.085375</ele>
        <time>2022-06-03T18:15:24.070Z</time>
      </trkpt>
      <trkpt lat="43.11877" lon="2.54029">
        <ele>213.65304</ele>
        <time>2022-06-03T18:15:45.222Z</time>
      </trkpt>
      <trkpt lat="43.11767" lon="2.53809">
        <ele>219.097877</ele>
        <time>2022-06-03T18:16:47.419Z</time>
      </trkpt>
      <trkpt lat="43.11759" lon="2.53587">
        <ele>220.83828</ele>
        <time>2022-06-03T18:17:21.671Z</time>
      </trkpt>
      <trkpt lat="43.1173" lon="2.53409">
        <ele>221.137823</ele>
        <time>2022-06-03T18:17:46.211Z</time>
      </trkpt>
      <trkpt lat="43.1173" lon="2.53389">
        <ele>221.170409</ele>
        <time>2022-06-03T18:17:49.050Z</time>
      </trkpt>
      <trkpt lat="43.11716" lon="2.53374">
        <ele>221.210452</ele>
        <time>2022-06-03T18:17:52.752Z</time>
      </trkpt>
      <trkpt lat="43.11679" lon="2.53317">
        <ele>221.632945</ele>
        <time>2022-06-03T18:18:04.372Z</time>
      </trkpt>
      <trkpt lat="43.11604" lon="2.53121">
        <ele>222.252795</ele>
        <time>2022-06-03T18:18:39.674Z</time>
      </trkpt>
      <trkpt lat="43.11587" lon="2.53093">
        <ele>221.933802</ele>
        <time>2022-06-03T18:18:44.105Z</time>
      </trkpt>
      <trkpt lat="43.11508" lon="2.52994">
        <ele>220.635507</ele>
        <time>2022-06-03T18:18:59.995Z</time>
      </trkpt>
      <trkpt lat="43.11456" lon="2.52933">
        <ele>218.529049</ele>
        <time>2022-06-03T18:19:09.427Z</time>
      </trkpt>
      <trkpt lat="43.11427" lon="2.52906">
        <ele>217.278418</ele>
        <time>2022-06-03T18:19:14.223Z</time>
      </trkpt>
      <trkpt lat="43.11334" lon="2.5288">
        <ele>213.985112</ele>
        <time>2022-06-03T18:19:26.486Z</time>
      </trkpt>
      <trkpt lat="43.11315" lon="2.52869">
        <ele>213.363376</ele>
        <time>2022-06-03T18:19:29.218Z</time>
      </trkpt>
      <trkpt lat="43.11295" lon="2.52849">
        <ele>212.599756</ele>
        <time>2022-06-03T18:19:32.669Z</time>
      </trkpt>
      <trkpt lat="43.11264" lon="2.52797">
        <ele>211.113664</ele>
        <time>2022-06-03T18:19:39.391Z</time>
      </trkpt>
      <trkpt lat="43.11258" lon="2.52785">
        <ele>210.765431</ele>
        <time>2022-06-03T18:19:40.995Z</time>
      </trkpt>
      <trkpt lat="43.11235" lon="2.52745">
        <ele>209.651695</ele>
        <time>2022-06-03T18:19:46.140Z</time>
      </trkpt>
      <trkpt lat="43.11216" lon="2.52726">
        <ele>208.92383</ele>
        <time>2022-06-03T18:19:49.520Z</time>
      </trkpt>
      <trkpt lat="43.1115" lon="2.52704">
        <ele>207.575325</ele>
        <time>2022-06-03T18:19:59.187Z</time>
      </trkpt>
      <trkpt lat="43.10799" lon="2.5262">
        <ele>201.821584</ele>
        <time>2022-06-03T18:20:53.351Z</time>
      </trkpt>
      <trkpt lat="43.1074" lon="2.52599">
        <ele>201.00472</ele>
        <time>2022-06-03T18:21:02.831Z</time>
      </trkpt>
      <trkpt lat="43.10718" lon="2.52596">
        <ele>200.705707</ele>
        <time>2022-06-03T18:21:06.281Z</time>
      </trkpt>
      <trkpt lat="43.10621" lon="2.52572">
        <ele>199.331867</ele>
        <time>2022-06-03T18:21:21.550Z</time>
      </trkpt>
      <trkpt lat="43.10496" lon="2.52517">
        <ele>197.505638</ele>
        <time>2022-06-03T18:21:41.494Z</time>
      </trkpt>
      <trkpt lat="43.10378" lon="2.52444">
        <ele>196.069793</ele>
        <time>2022-06-03T18:22:01.712Z</time>
      </trkpt>
      <trkpt lat="43.10332" lon="2.52407">
        <ele>195.497177</ele>
        <time>2022-06-03T18:22:10.426Z</time>
      </trkpt>
      <trkpt lat="43.10295" lon="2.5236">
        <ele>195.035286</ele>
        <time>2022-06-03T18:22:18.702Z</time>
      </trkpt>
      <trkpt lat="43.10241" lon="2.52315">
        <ele>194.4574</ele>
        <time>2022-06-03T18:22:28.929Z</time>
      </trkpt>
      <trkpt lat="43.10231" lon="2.52308">
        <ele>194.354299</ele>
        <time>2022-06-03T18:22:30.771Z</time>
      </trkpt>
      <trkpt lat="43.10136" lon="2.52237">
        <ele>193.230187</ele>
        <time>2022-06-03T18:22:47.623Z</time>
      </trkpt>
      <trkpt lat="43.10055" lon="2.5221">
        <ele>192.294799</ele>
        <time>2022-06-03T18:23:00.639Z</time>
      </trkpt>
      <trkpt lat="43.10044" lon="2.52206">
        <ele>192.174596</ele>
        <time>2022-06-03T18:23:02.283Z</time>
      </trkpt>
      <trkpt lat="43.09835" lon="2.52051">
        <ele>190.812574</ele>
        <time>2022-06-03T18:23:41.495Z</time>
      </trkpt>
      <trkpt lat="43.09759" lon="2.52033">
        <ele>190.844389</ele>
        <time>2022-06-03T18:23:55.865Z</time>
      </trkpt>
      <trkpt lat="43.09747" lon="2.52032">
        <ele>190.849248</ele>
        <time>2022-06-03T18:23:58.109Z</time>
      </trkpt>
      <trkpt lat="43.09688" lon="2.52024">
        <ele>190.897664</ele>
        <time>2022-06-03T18:24:09.446Z</time>
      </trkpt>
      <trkpt lat="43.09666" lon="2.52021">
        <ele>190.988504</ele>
        <time>2022-06-03T18:24:13.720Z</time>
      </trkpt>
      <trkpt lat="43.0954" lon="2.52">
        <ele>191.513438</ele>
        <time>2022-06-03T18:24:37.850Z</time>
      </trkpt>
      <trkpt lat="43.09416" lon="2.5196">
        <ele>193.590296</ele>
        <time>2022-06-03T18:25:05.319Z</time>
      </trkpt>
      <trkpt lat="43.09238" lon="2.51922">
        <ele>199.781878</ele>
        <time>2022-06-03T18:26:01.152Z</time>
      </trkpt>
      <trkpt lat="43.09069" lon="2.51874">
        <ele>208.017921</ele>
        <time>2022-06-03T18:27:14.624Z</time>
      </trkpt>
      <trkpt lat="43.09042" lon="2.51866">
        <ele>209.406722</ele>
        <time>2022-06-03T18:27:25.695Z</time>
      </trkpt>
      <trkpt lat="43.08868" lon="2.51815">
        <ele>204.8</ele>
        <time>2022-06-03T18:28:01.291Z</time>
      </trkpt>
      <trkpt lat="43.0881" lon="2.52023">
        <ele>204.5</ele>
        <time>2022-06-03T18:28:11.676Z</time>
      </trkpt>
      <trkpt lat="43.08791" lon="2.52146">
        <ele>203.658077</ele>
        <time>2022-06-03T18:28:41.488Z</time>
      </trkpt>
      <trkpt lat="43.08766" lon="2.52162">
        <ele>203.39983</ele>
        <time>2022-06-03T18:28:45.610Z</time>
      </trkpt>
      <trkpt lat="43.08712" lon="2.52182">
        <ele>202.877305</ele>
        <time>2022-06-03T18:28:54.584Z</time>
      </trkpt>
      <trkpt lat="43.08666" lon="2.52204">
        <ele>202.430993</ele>
        <time>2022-06-03T18:29:02.962Z</time>
      </trkpt>
      <trkpt lat="43.08609" lon="2.52245">
        <ele>201.746088</ele>
        <time>2022-06-03T18:29:15.176Z</time>
      </trkpt>
      <trkpt lat="43.08581" lon="2.52255">
        <ele>201.314205</ele>
        <time>2022-06-03T18:29:19.703Z</time>
      </trkpt>
      <trkpt lat="43.08488" lon="2.52246">
        <ele>199.965913</ele>
        <time>2022-06-03T18:29:33.900Z</time>
      </trkpt>
      <trkpt lat="43.08468" lon="2.5225">
        <ele>199.666973</ele>
        <time>2022-06-03T18:29:37.403Z</time>
      </trkpt>
      <trkpt lat="43.08429" lon="2.5232">
        <ele>197.949601</ele>
        <time>2022-06-03T18:29:46.609Z</time>
      </trkpt>
      <trkpt lat="43.08412" lon="2.5235">
        <ele>197.127941</ele>
        <time>2022-06-03T18:29:50.151Z</time>
      </trkpt>
      <trkpt lat="43.08318" lon="2.52373">
        <ele>194.196829</ele>
        <time>2022-06-03T18:30:03.354Z</time>
      </trkpt>
      <trkpt lat="43.083" lon="2.5239">
        <ele>193.661552</ele>
        <time>2022-06-03T18:30:06.616Z</time>
      </trkpt>
      <trkpt lat="43.08283" lon="2.52439">
        <ele>192.843854</ele>
        <time>2022-06-03T18:30:12.442Z</time>
      </trkpt>
      <trkpt lat="43.08251" lon="2.52589">
        <ele>190.499069</ele>
        <time>2022-06-03T18:30:29.068Z</time>
      </trkpt>
      <trkpt lat="43.08213" lon="2.52806">
        <ele>187.963309</ele>
        <time>2022-06-03T18:30:54.098Z</time>
      </trkpt>
      <trkpt lat="43.08205" lon="2.52857">
        <ele>187.417604</ele>
        <time>2022-06-03T18:30:59.846Z</time>
      </trkpt>
      <trkpt lat="43.08191" lon="2.52895">
        <ele>187.049914</ele>
        <time>2022-06-03T18:31:04.566Z</time>
      </trkpt>
      <trkpt lat="43.08171" lon="2.52929">
        <ele>186.676076</ele>
        <time>2022-06-03T18:31:09.396Z</time>
      </trkpt>
      <trkpt lat="43.08132" lon="2.52968">
        <ele>186.112632</ele>
        <time>2022-06-03T18:31:16.839Z</time>
      </trkpt>
      <trkpt lat="43.08125" lon="2.53002">
        <ele>185.802793</ele>
        <time>2022-06-03T18:31:20.981Z</time>
      </trkpt>
      <trkpt lat="43.08123" lon="2.53038">
        <ele>185.495173</ele>
        <time>2022-06-03T18:31:25.048Z</time>
      </trkpt>
      <trkpt lat="43.08119" lon="2.53078">
        <ele>185.821946</ele>
        <time>2022-06-03T18:31:29.941Z</time>
      </trkpt>
      <trkpt lat="43.08113" lon="2.53092">
        <ele>186.06913</ele>
        <time>2022-06-03T18:31:32.016Z</time>
      </trkpt>
      <trkpt lat="43.08074" lon="2.5315">
        <ele>187.20649</ele>
        <time>2022-06-03T18:31:44.478Z</time>
      </trkpt>
      <trkpt lat="43.08046" lon="2.532">
        <ele>188.12324</ele>
        <time>2022-06-03T18:31:57.533Z</time>
      </trkpt>
      <trkpt lat="43.08043" lon="2.53205">
        <ele>188.220761</ele>
        <time>2022-06-03T18:31:58.729Z</time>
      </trkpt>
      <trkpt lat="43.07972" lon="2.53137">
        <ele>192.144602</ele>
        <time>2022-06-03T18:32:31.270Z</time>
      </trkpt>
      <trkpt lat="43.07961" lon="2.5314">
        <ele>192.895905</ele>
        <time>2022-06-03T18:32:38.077Z</time>
      </trkpt>
      <trkpt lat="43.07932" lon="2.53165">
        <ele>195.12372</ele>
        <time>2022-06-03T18:32:54.498Z</time>
      </trkpt>
      <trkpt lat="43.07877" lon="2.53182">
        <ele>198.868897</ele>
        <time>2022-06-03T18:33:24.386Z</time>
      </trkpt>
      <trkpt lat="43.07876" lon="2.53186">
        <ele>199.087935</ele>
        <time>2022-06-03T18:33:26.097Z</time>
      </trkpt>
      <trkpt lat="43.07913" lon="2.53285">
        <ele>194.9</ele>
        <time>2022-06-03T18:33:43.891Z</time>
      </trkpt>
      <trkpt lat="43.07838" lon="2.53228">
        <ele>202.664738</ele>
        <time>2022-06-03T18:33:58.144Z</time>
      </trkpt>
      <trkpt lat="43.07818" lon="2.53234">
        <ele>204.28154</ele>
        <time>2022-06-03T18:34:08.801Z</time>
      </trkpt>
      <trkpt lat="43.07706" lon="2.53293">
        <ele>213.823369</ele>
        <time>2022-06-03T18:35:22.532Z</time>
      </trkpt>
      <trkpt lat="43.07619" lon="2.53323">
        <ele>221.285576</ele>
        <time>2022-06-03T18:36:17.453Z</time>
      </trkpt>
      <trkpt lat="43.07609" lon="2.53323">
        <ele>222.174222</ele>
        <time>2022-06-03T18:36:24.524Z</time>
      </trkpt>
      <trkpt lat="43.07531" lon="2.5329">
        <ele>229.081052</ele>
        <time>2022-06-03T18:37:17.495Z</time>
      </trkpt>
      <trkpt lat="43.07482" lon="2.53295">
        <ele>233.138062</ele>
        <time>2022-06-03T18:37:49.394Z</time>
      </trkpt>
      <trkpt lat="43.07438" lon="2.53309">
        <ele>236.771875</ele>
        <time>2022-06-03T18:38:17.495Z</time>
      </trkpt>
      <trkpt lat="43.07399" lon="2.53351">
        <ele>240.815012</ele>
        <time>2022-06-03T18:38:48.308Z</time>
      </trkpt>
      <trkpt lat="43.07356" lon="2.53386">
        <ele>244.882757</ele>
        <time>2022-06-03T18:39:19.121Z</time>
      </trkpt>
      <trkpt lat="43.07341" lon="2.53411">
        <ele>246.438049</ele>
        <time>2022-06-03T18:39:32.726Z</time>
      </trkpt>
      <trkpt lat="43.07316" lon="2.53421">
        <ele>248.173621</ele>
        <time>2022-06-03T18:39:47.825Z</time>
      </trkpt>
      <trkpt lat="43.0728" lon="2.53447">
        <ele>250.933622</ele>
        <time>2022-06-03T18:40:11.067Z</time>
      </trkpt>
      <trkpt lat="43.0719" lon="2.53472">
        <ele>257.056833</ele>
        <time>2022-06-03T18:41:00.099Z</time>
      </trkpt>
      <trkpt lat="43.071" lon="2.53512">
        <ele>264.60018</ele>
        <time>2022-06-03T18:41:54.717Z</time>
      </trkpt>
      <trkpt lat="43.07042" lon="2.53561">
        <ele>270.049789</ele>
        <time>2022-06-03T18:42:40.037Z</time>
      </trkpt>
      <trkpt lat="43.06906" lon="2.5366">
        <ele>284.178891</ele>
        <time>2022-06-03T18:44:25.638Z</time>
      </trkpt>
      <trkpt lat="43.06884" lon="2.53685">
        <ele>286.812851</ele>
        <time>2022-06-03T18:44:45.230Z</time>
      </trkpt>
      <trkpt lat="43.06834" lon="2.53714">
        <ele>290.325914</ele>
        <time>2022-06-03T18:45:18.681Z</time>
      </trkpt>
      <trkpt lat="43.06807" lon="2.53721">
        <ele>291.840701</ele>
        <time>2022-06-03T18:45:33.537Z</time>
      </trkpt>
      <trkpt lat="43.06787" lon="2.5372">
        <ele>292.979509</ele>
        <time>2022-06-03T18:45:45.064Z</time>
      </trkpt>
      <trkpt lat="43.06738" lon="2.53712">
        <ele>295.692336</ele>
        <time>2022-06-03T18:46:07.346Z</time>
      </trkpt>
      <trkpt lat="43.06588" lon="2.53728">
        <ele>299.429761</ele>
        <time>2022-06-03T18:47:11.877Z</time>
      </trkpt>
      <trkpt lat="43.06451" lon="2.5373">
        <ele>297.555886</ele>
        <time>2022-06-03T18:47:48.110Z</time>
      </trkpt>
      <trkpt lat="43.06404" lon="2.53717">
        <ele>295.493389</ele>
        <time>2022-06-03T18:47:59.186Z</time>
      </trkpt>
      <trkpt lat="43.06397" lon="2.53708">
        <ele>295.073068</ele>
        <time>2022-06-03T18:48:01.406Z</time>
      </trkpt>
      <trkpt lat="43.06363" lon="2.53681">
        <ele>293.404616</ele>
        <time>2022-06-03T18:48:08.091Z</time>
      </trkpt>
      <trkpt lat="43.06328" lon="2.53642">
        <ele>290.692492</ele>
        <time>2022-06-03T18:48:15.624Z</time>
      </trkpt>
      <trkpt lat="43.06307" lon="2.53569">
        <ele>286.595374</ele>
        <time>2022-06-03T18:48:24.788Z</time>
      </trkpt>
      <trkpt lat="43.06271" lon="2.53499">
        <ele>282.088248</ele>
        <time>2022-06-03T18:48:34.969Z</time>
      </trkpt>
      <trkpt lat="43.06262" lon="2.53493">
        <ele>281.391181</ele>
        <time>2022-06-03T18:48:36.670Z</time>
      </trkpt>
      <trkpt lat="43.06249" lon="2.53494">
        <ele>280.449226</ele>
        <time>2022-06-03T18:48:38.967Z</time>
      </trkpt>
      <trkpt lat="43.06238" lon="2.53501">
        <ele>279.585161</ele>
        <time>2022-06-03T18:48:40.942Z</time>
      </trkpt>
      <trkpt lat="43.06196" lon="2.53507">
        <ele>277.026224</ele>
        <time>2022-06-03T18:48:48.232Z</time>
      </trkpt>
      <trkpt lat="43.06184" lon="2.53516">
        <ele>276.206872</ele>
        <time>2022-06-03T18:48:50.597Z</time>
      </trkpt>
      <trkpt lat="43.06163" lon="2.53549">
        <ele>274.241327</ele>
        <time>2022-06-03T18:48:55.811Z</time>
      </trkpt>
      <trkpt lat="43.06143" lon="2.53553">
        <ele>273.052285</ele>
        <time>2022-06-03T18:48:58.978Z</time>
      </trkpt>
      <trkpt lat="43.06104" lon="2.53539">
        <ele>270.561234</ele>
        <time>2022-06-03T18:49:05.799Z</time>
      </trkpt>
      <trkpt lat="43.06064" lon="2.53509">
        <ele>268.566117</ele>
        <time>2022-06-03T18:49:14.011Z</time>
      </trkpt>
      <trkpt lat="43.06041" lon="2.53477">
        <ele>268.115315</ele>
        <time>2022-06-03T18:49:20.237Z</time>
      </trkpt>
      <trkpt lat="43.06021" lon="2.53453">
        <ele>267.747166</ele>
        <time>2022-06-03T18:49:25.499Z</time>
      </trkpt>
      <trkpt lat="43.06013" lon="2.53408">
        <ele>267.280696</ele>
        <time>2022-06-03T18:49:32.610Z</time>
      </trkpt>
      <trkpt lat="43.05974" lon="2.53317">
        <ele>266.448116</ele>
        <time>2022-06-03T18:49:50.520Z</time>
      </trkpt>
      <trkpt lat="43.05967" lon="2.53312">
        <ele>266.601655</ele>
        <time>2022-06-03T18:49:53.835Z</time>
      </trkpt>
      <trkpt lat="43.0596" lon="2.53284">
        <ele>267.041067</ele>
        <time>2022-06-03T18:50:00.151Z</time>
      </trkpt>
      <trkpt lat="43.05957" lon="2.53273">
        <ele>267.221064</ele>
        <time>2022-06-03T18:50:02.904Z</time>
      </trkpt>
      <trkpt lat="43.05937" lon="2.53222">
        <ele>268.09781</ele>
        <time>2022-06-03T18:50:15.887Z</time>
      </trkpt>
      <trkpt lat="43.05888" lon="2.53126">
        <ele>269.845369</ele>
        <time>2022-06-03T18:50:38.247Z</time>
      </trkpt>
      <trkpt lat="43.05878" lon="2.53095">
        <ele>270.281589</ele>
        <time>2022-06-03T18:50:43.608Z</time>
      </trkpt>
      <trkpt lat="43.05852" lon="2.5293">
        <ele>272.301571</ele>
        <time>2022-06-03T18:51:12.577Z</time>
      </trkpt>
      <trkpt lat="43.05796" lon="2.52816">
        <ele>274.66952</ele>
        <time>2022-06-03T18:51:38.927Z</time>
      </trkpt>
      <trkpt lat="43.05698" lon="2.52652">
        <ele>279.616726</ele>
        <time>2022-06-03T18:52:26.097Z</time>
      </trkpt>
      <trkpt lat="43.0567" lon="2.52612">
        <ele>281.391269</ele>
        <time>2022-06-03T18:52:40.280Z</time>
      </trkpt>
      <trkpt lat="43.05655" lon="2.52603">
        <ele>282.112083</ele>
        <time>2022-06-03T18:52:46.540Z</time>
      </trkpt>
      <trkpt lat="43.05645" lon="2.52597">
        <ele>282.588405</ele>
        <time>2022-06-03T18:52:50.231Z</time>
      </trkpt>
      <trkpt lat="43.05644" lon="2.52556">
        <ele>283.888847</ele>
        <time>2022-06-03T18:53:01.109Z</time>
      </trkpt>
      <trkpt lat="43.05644" lon="2.52553">
        <ele>283.981955</ele>
        <time>2022-06-03T18:53:01.790Z</time>
      </trkpt>
      <trkpt lat="43.05648" lon="2.52509">
        <ele>285.392106</ele>
        <time>2022-06-03T18:53:13.647Z</time>
      </trkpt>
      <trkpt lat="43.0562" lon="2.52493">
        <ele>287.064103</ele>
        <time>2022-06-03T18:53:26.696Z</time>
      </trkpt>
      <trkpt lat="43.05529" lon="2.52462">
        <ele>292.935178</ele>
        <time>2022-06-03T18:54:03.518Z</time>
      </trkpt>
      <trkpt lat="43.05491" lon="2.52463">
        <ele>295.267618</ele>
        <time>2022-06-03T18:54:18.395Z</time>
      </trkpt>
      <trkpt lat="43.05486" lon="2.52458">
        <ele>295.679677</ele>
        <time>2022-06-03T18:54:23.559Z</time>
      </trkpt>
      <trkpt lat="43.05493" lon="2.52448">
        <ele>296.325008</ele>
        <time>2022-06-03T18:54:29.564Z</time>
      </trkpt>
      <trkpt lat="43.05545" lon="2.52431">
        <ele>302.00542</ele>
        <time>2022-06-03T18:54:56.679Z</time>
      </trkpt>
      <trkpt lat="43.05615" lon="2.52428">
        <ele>310.35289</ele>
        <time>2022-06-03T18:55:42.987Z</time>
      </trkpt>
      <trkpt lat="43.05632" lon="2.52411">
        <ele>312.954845</ele>
        <time>2022-06-03T18:56:04.592Z</time>
      </trkpt>
      <trkpt lat="43.05664" lon="2.52351">
        <ele>319.519464</ele>
        <time>2022-06-03T18:56:49.314Z</time>
      </trkpt>
      <trkpt lat="43.05686" lon="2.52281">
        <ele>326.553829</ele>
        <time>2022-06-03T18:57:40.142Z</time>
      </trkpt>
      <trkpt lat="43.05697" lon="2.52225">
        <ele>331.864021</ele>
        <time>2022-06-03T18:58:17.639Z</time>
      </trkpt>
      <trkpt lat="43.05682" lon="2.52153">
        <ele>338.812491</ele>
        <time>2022-06-03T18:58:57.972Z</time>
      </trkpt>
      <trkpt lat="43.05665" lon="2.52118">
        <ele>341.862623</ele>
        <time>2022-06-03T18:59:17.817Z</time>
      </trkpt>
      <trkpt lat="43.05673" lon="2.52091">
        <ele>342.90297</ele>
        <time>2022-06-03T18:59:33.657Z</time>
      </trkpt>
      <trkpt lat="43.05673" lon="2.51997">
        <ele>346.345744</ele>
        <time>2022-06-03T19:00:08.426Z</time>
      </trkpt>
      <trkpt lat="43.05652" lon="2.51925">
        <ele>349.184262</ele>
        <time>2022-06-03T19:00:28.598Z</time>
      </trkpt>
      <trkpt lat="43.05651" lon="2.51906">
        <ele>349.898551</ele>
        <time>2022-06-03T19:00:36.531Z</time>
      </trkpt>
      <trkpt lat="43.05662" lon="2.51859">
        <ele>351.748558</ele>
        <time>2022-06-03T19:00:49.822Z</time>
      </trkpt>
      <trkpt lat="43.05682" lon="2.51844">
        <ele>352.930025</ele>
        <time>2022-06-03T19:00:56.139Z</time>
      </trkpt>
      <trkpt lat="43.05687" lon="2.51847">
        <ele>353.252491</ele>
        <time>2022-06-03T19:00:59.436Z</time>
      </trkpt>
      <trkpt lat="43.05708" lon="2.51908">
        <ele>355.813186</ele>
        <time>2022-06-03T19:01:21.483Z</time>
      </trkpt>
      <trkpt lat="43.05718" lon="2.51924">
        <ele>356.62577</ele>
        <time>2022-06-03T19:01:30.842Z</time>
      </trkpt>
      <trkpt lat="43.05726" lon="2.51919">
        <ele>357.064824</ele>
        <time>2022-06-03T19:01:38.369Z</time>
      </trkpt>
      <trkpt lat="43.05714" lon="2.51892">
        <ele>358.248954</ele>
        <time>2022-06-03T19:01:51.157Z</time>
      </trkpt>
      <trkpt lat="43.05709" lon="2.51833">
        <ele>361.385576</ele>
        <time>2022-06-03T19:02:18.762Z</time>
      </trkpt>
      <trkpt lat="43.05711" lon="2.51804">
        <ele>363.758889</ele>
        <time>2022-06-03T19:02:32.025Z</time>
      </trkpt>
      <trkpt lat="43.05693" lon="2.51766">
        <ele>367.433633</ele>
        <time>2022-06-03T19:02:56.065Z</time>
      </trkpt>
      <trkpt lat="43.05676" lon="2.51747">
        <ele>369.856526</ele>
        <time>2022-06-03T19:03:15.168Z</time>
      </trkpt>
      <trkpt lat="43.05618" lon="2.51766">
        <ele>376.356655</ele>
        <time>2022-06-03T19:04:00.441Z</time>
      </trkpt>
      <trkpt lat="43.05579" lon="2.51821">
        <ele>381.331151</ele>
        <time>2022-06-03T19:04:45.896Z</time>
      </trkpt>
      <trkpt lat="43.05543" lon="2.51847">
        <ele>384.096648</ele>
        <time>2022-06-03T19:05:14.448Z</time>
      </trkpt>
      <trkpt lat="43.05506" lon="2.51921">
        <ele>388.478476</ele>
        <time>2022-06-03T19:05:46.271Z</time>
      </trkpt>
      <trkpt lat="43.05511" lon="2.51973">
        <ele>391.065895</ele>
        <time>2022-06-03T19:06:03.046Z</time>
      </trkpt>
      <trkpt lat="43.05501" lon="2.52028">
        <ele>391.92382</ele>
        <time>2022-06-03T19:06:19.347Z</time>
      </trkpt>
      <trkpt lat="43.05487" lon="2.52051">
        <ele>392.16748</ele>
        <time>2022-06-03T19:06:26.596Z</time>
      </trkpt>
      <trkpt lat="43.05474" lon="2.52092">
        <ele>392.525935</ele>
        <time>2022-06-03T19:06:36.358Z</time>
      </trkpt>
      <trkpt lat="43.05457" lon="2.52099">
        <ele>392.724428</ele>
        <time>2022-06-03T19:06:41.721Z</time>
      </trkpt>
      <trkpt lat="43.05416" lon="2.52094">
        <ele>393.180333</ele>
        <time>2022-06-03T19:06:53.961Z</time>
      </trkpt>
      <trkpt lat="43.05382" lon="2.521">
        <ele>393.611401</ele>
        <time>2022-06-03T19:07:05.123Z</time>
      </trkpt>
      <trkpt lat="43.05335" lon="2.52078">
        <ele>395.088915</ele>
        <time>2022-06-03T19:07:22.734Z</time>
      </trkpt>
      <trkpt lat="43.05297" lon="2.52051">
        <ele>396.392143</ele>
        <time>2022-06-03T19:07:40.486Z</time>
      </trkpt>
      <trkpt lat="43.05196" lon="2.51943">
        <ele>401.254903</ele>
        <time>2022-06-03T19:08:40.883Z</time>
      </trkpt>
      <trkpt lat="43.05165" lon="2.51931">
        <ele>402.943196</ele>
        <time>2022-06-03T19:08:56.620Z</time>
      </trkpt>
      <trkpt lat="43.05133" lon="2.51929">
        <ele>404.687068</ele>
        <time>2022-06-03T19:09:12.709Z</time>
      </trkpt>
      <trkpt lat="43.05126" lon="2.51921">
        <ele>405.154434</ele>
        <time>2022-06-03T19:09:16.798Z</time>
      </trkpt>
      <trkpt lat="43.05116" lon="2.51851">
        <ele>407.951116</ele>
        <time>2022-06-03T19:09:42.000Z</time>
      </trkpt>
      <trkpt lat="43.0515" lon="2.51778">
        <ele>412.995365</ele>
        <time>2022-06-03T19:10:23.983Z</time>
      </trkpt>
      <trkpt lat="43.05158" lon="2.51717">
        <ele>416.846104</ele>
        <time>2022-06-03T19:10:51.519Z</time>
      </trkpt>
      <trkpt lat="43.05169" lon="2.51712">
        <ele>417.878156</ele>
        <time>2022-06-03T19:11:01.430Z</time>
      </trkpt>
      <trkpt lat="43.05199" lon="2.51721">
        <ele>420.498568</ele>
        <time>2022-06-03T19:11:18.012Z</time>
      </trkpt>
      <trkpt lat="43.05204" lon="2.51715">
        <ele>421.04864</ele>
        <time>2022-06-03T19:11:25.965Z</time>
      </trkpt>
      <trkpt lat="43.05231" lon="2.51661">
        <ele>425.053689</ele>
        <time>2022-06-03T19:11:55.860Z</time>
      </trkpt>
      <trkpt lat="43.05228" lon="2.51629">
        <ele>426.949097</ele>
        <time>2022-06-03T19:12:12.737Z</time>
      </trkpt>
      <trkpt lat="43.05236" lon="2.51615">
        <ele>428.01174</ele>
        <time>2022-06-03T19:12:20.423Z</time>
      </trkpt>
      <trkpt lat="43.05242" lon="2.51585">
        <ele>429.855041</ele>
        <time>2022-06-03T19:12:36.812Z</time>
      </trkpt>
      <trkpt lat="43.05242" lon="2.51514">
        <ele>434.045261</ele>
        <time>2022-06-03T19:13:10.268Z</time>
      </trkpt>
      <trkpt lat="43.05236" lon="2.51458">
        <ele>437.383598</ele>
        <time>2022-06-03T19:13:31.418Z</time>
      </trkpt>
      <trkpt lat="43.05236" lon="2.51354">
        <ele>443.141533</ele>
        <time>2022-06-03T19:14:12.224Z</time>
      </trkpt>
      <trkpt lat="43.05226" lon="2.51315">
        <ele>445.442001</ele>
        <time>2022-06-03T19:14:29.914Z</time>
      </trkpt>
      <trkpt lat="43.05227" lon="2.51271">
        <ele>447.817526</ele>
        <time>2022-06-03T19:14:48.940Z</time>
      </trkpt>
      <trkpt lat="43.05214" lon="2.51238">
        <ele>449.893429</ele>
        <time>2022-06-03T19:15:06.603Z</time>
      </trkpt>
      <trkpt lat="43.05136" lon="2.51236">
        <ele>456.84609</ele>
        <time>2022-06-03T19:16:00.704Z</time>
      </trkpt>
      <trkpt lat="43.05113" lon="2.51226">
        <ele>459.118813</ele>
        <time>2022-06-03T19:16:17.354Z</time>
      </trkpt>
      <trkpt lat="43.05053" lon="2.51212">
        <ele>465.016811</ele>
        <time>2022-06-03T19:17:01.486Z</time>
      </trkpt>
      <trkpt lat="43.05026" lon="2.51223">
        <ele>467.677374</ele>
        <time>2022-06-03T19:17:20.689Z</time>
      </trkpt>
      <trkpt lat="43.04927" lon="2.51329">
        <ele>476.818117</ele>
        <time>2022-06-03T19:18:35.826Z</time>
      </trkpt>
      <trkpt lat="43.04812" lon="2.51361">
        <ele>485.020819</ele>
        <time>2022-06-03T19:19:36.682Z</time>
      </trkpt>
      <trkpt lat="43.04788" lon="2.51356">
        <ele>486.733082</ele>
        <time>2022-06-03T19:19:48.951Z</time>
      </trkpt>
      <trkpt lat="43.04842" lon="2.51326">
        <ele>490.822499</ele>
        <time>2022-06-03T19:20:22.554Z</time>
      </trkpt>
      <trkpt lat="43.04881" lon="2.51286">
        <ele>494.316626</ele>
        <time>2022-06-03T19:20:54.058Z</time>
      </trkpt>
      <trkpt lat="43.04998" lon="2.51099">
        <ele>511.842856</ele>
        <time>2022-06-03T19:22:59.779Z</time>
      </trkpt>
      <trkpt lat="43.05027" lon="2.51076">
        <ele>515.022845</ele>
        <time>2022-06-03T19:23:22.087Z</time>
      </trkpt>
      <trkpt lat="43.05072" lon="2.51061">
        <ele>519.382733</ele>
        <time>2022-06-03T19:23:53.405Z</time>
      </trkpt>
      <trkpt lat="43.05078" lon="2.51056">
        <ele>520.041123</ele>
        <time>2022-06-03T19:23:57.913Z</time>
      </trkpt>
      <trkpt lat="43.05075" lon="2.51043">
        <ele>520.955491</ele>
        <time>2022-06-03T19:24:04.974Z</time>
      </trkpt>
      <trkpt lat="43.04998" lon="2.51065">
        <ele>528.402493</ele>
        <time>2022-06-03T19:24:50.874Z</time>
      </trkpt>
      <trkpt lat="43.04943" lon="2.51055">
        <ele>532.2</ele>
      </trkpt>
      <trkpt lat="43.04932" lon="2.5102">
        <ele>536.4</ele>
        <time>2022-06-03T19:25:29.461Z</time>
      </trkpt>
      <trkpt lat="43.04899" lon="2.50924">
        <ele>547</ele>
        <time>2022-06-03T19:25:50.506Z</time>
      </trkpt>
      <trkpt lat="43.04869" lon="2.50896">
        <ele>550.2</ele>
        <time>2022-06-03T19:26:26.313Z</time>
      </trkpt>
      <trkpt lat="43.0486" lon="2.50838">
        <ele>554.9</ele>
      </trkpt>
      <trkpt lat="43.04833" lon="2.50808">
        <ele>560</ele>
      </trkpt>
      <trkpt lat="43.04807" lon="2.50823">
        <ele>562.8</ele>
      </trkpt>
      <trkpt lat="43.04778" lon="2.5087">
        <ele>577.842568</ele>
        <time>2022-06-03T19:29:53.029Z</time>
      </trkpt>
      <trkpt lat="43.04762" lon="2.50876">
        <ele>580.107306</ele>
        <time>2022-06-03T19:30:08.399Z</time>
      </trkpt>
      <trkpt lat="43.04734" lon="2.50904">
        <ele>584.664648</ele>
        <time>2022-06-03T19:30:37.308Z</time>
      </trkpt>
      <trkpt lat="43.0472" lon="2.50905">
        <ele>586.444393</ele>
        <time>2022-06-03T19:30:47.454Z</time>
      </trkpt>
      <trkpt lat="43.04665" lon="2.5088">
        <ele>594.079299</ele>
        <time>2022-06-03T19:31:29.314Z</time>
      </trkpt>
      <trkpt lat="43.04617" lon="2.50905">
        <ele>600.892534</ele>
        <time>2022-06-03T19:32:03.836Z</time>
      </trkpt>
      <trkpt lat="43.04598" lon="2.50909">
        <ele>603.128435</ele>
        <time>2022-06-03T19:32:14.876Z</time>
      </trkpt>
      <trkpt lat="43.04576" lon="2.50899">
        <ele>605.240237</ele>
        <time>2022-06-03T19:32:29.631Z</time>
      </trkpt>
      <trkpt lat="43.04549" lon="2.509">
        <ele>607.62631</ele>
        <time>2022-06-03T19:32:46.381Z</time>
      </trkpt>
      <trkpt lat="43.04469" lon="2.50868">
        <ele>615.058392</ele>
        <time>2022-06-03T19:33:33.064Z</time>
      </trkpt>
      <trkpt lat="43.04439" lon="2.50832">
        <ele>618.630483</ele>
        <time>2022-06-03T19:33:52.290Z</time>
      </trkpt>
      <trkpt lat="43.04333" lon="2.50735">
        <ele>625.033098</ele>
        <time>2022-06-03T19:34:46.290Z</time>
      </trkpt>
      <trkpt lat="43.04313" lon="2.50712">
        <ele>626.290606</ele>
        <time>2022-06-03T19:34:54.861Z</time>
      </trkpt>
      <trkpt lat="43.04291" lon="2.50661">
        <ele>627.981496</ele>
        <time>2022-06-03T19:35:08.048Z</time>
      </trkpt>
      <trkpt lat="43.04264" lon="2.5064">
        <ele>628.680463</ele>
        <time>2022-06-03T19:35:17.034Z</time>
      </trkpt>
      <trkpt lat="43.04211" lon="2.50582">
        <ele>630.176027</ele>
        <time>2022-06-03T19:35:34.793Z</time>
      </trkpt>
      <trkpt lat="43.04165" lon="2.50522">
        <ele>631.625446</ele>
        <time>2022-06-03T19:35:52.264Z</time>
      </trkpt>
      <trkpt lat="43.04088" lon="2.50443">
        <ele>635.464266</ele>
        <time>2022-06-03T19:36:23.308Z</time>
      </trkpt>
      <trkpt lat="43.04014" lon="2.50353">
        <ele>639.68245</ele>
        <time>2022-06-03T19:37:03.581Z</time>
      </trkpt>
      <trkpt lat="43.03894" lon="2.50234">
        <ele>648.265247</ele>
        <time>2022-06-03T19:38:08.240Z</time>
      </trkpt>
      <trkpt lat="43.03881" lon="2.50205">
        <ele>649.713366</ele>
        <time>2022-06-03T19:38:18.862Z</time>
      </trkpt>
      <trkpt lat="43.03878" lon="2.50186">
        <ele>650.534801</ele>
        <time>2022-06-03T19:38:24.972Z</time>
      </trkpt>
      <trkpt lat="43.03893" lon="2.50129">
        <ele>653.116969</ele>
        <time>2022-06-03T19:38:43.474Z</time>
      </trkpt>
      <trkpt lat="43.03894" lon="2.50102">
        <ele>654.294303</ele>
        <time>2022-06-03T19:38:51.998Z</time>
      </trkpt>
      <trkpt lat="43.03891" lon="2.50068">
        <ele>655.740384</ele>
        <time>2022-06-03T19:39:02.324Z</time>
      </trkpt>
      <trkpt lat="43.03876" lon="2.50027">
        <ele>657.689948</ele>
        <time>2022-06-03T19:39:16.361Z</time>
      </trkpt>
      <trkpt lat="43.03871" lon="2.49943">
        <ele>661.571947</ele>
        <time>2022-06-03T19:39:43.892Z</time>
      </trkpt>
      <trkpt lat="43.03763" lon="2.49744">
        <ele>673.546393</ele>
        <time>2022-06-03T19:41:12.720Z</time>
      </trkpt>
      <trkpt lat="43.03742" lon="2.49717">
        <ele>674.912523</ele>
        <time>2022-06-03T19:41:25.027Z</time>
      </trkpt>
      <trkpt lat="43.03718" lon="2.49673">
        <ele>676.861226</ele>
        <time>2022-06-03T19:41:41.618Z</time>
      </trkpt>
      <trkpt lat="43.03697" lon="2.49647">
        <ele>678.224957</ele>
        <time>2022-06-03T19:41:53.229Z</time>
      </trkpt>
      <trkpt lat="43.03685" lon="2.49618">
        <ele>679.409862</ele>
        <time>2022-06-03T19:42:02.698Z</time>
      </trkpt>
      <trkpt lat="43.03639" lon="2.49436">
        <ele>682.421946</ele>
        <time>2022-06-03T19:42:46.887Z</time>
      </trkpt>
      <trkpt lat="43.03637" lon="2.49395">
        <ele>682.840343</ele>
        <time>2022-06-03T19:42:54.420Z</time>
      </trkpt>
      <trkpt lat="43.0365" lon="2.49338">
        <ele>683.375648</ele>
        <time>2022-06-03T19:43:05.215Z</time>
      </trkpt>
      <trkpt lat="43.03651" lon="2.49207">
        <ele>682.972946</ele>
        <time>2022-06-03T19:43:27.443Z</time>
      </trkpt>
      <trkpt lat="43.0365" lon="2.49135">
        <ele>682.750055</ele>
        <time>2022-06-03T19:43:39.121Z</time>
      </trkpt>
      <trkpt lat="43.03638" lon="2.49051">
        <ele>681.530692</ele>
        <time>2022-06-03T19:43:52.362Z</time>
      </trkpt>
      <trkpt lat="43.03643" lon="2.48978">
        <ele>679.884679</ele>
        <time>2022-06-03T19:44:02.685Z</time>
      </trkpt>
      <trkpt lat="43.03615" lon="2.48866">
        <ele>677.227886</ele>
        <time>2022-06-03T19:44:17.931Z</time>
      </trkpt>
      <trkpt lat="43.03568" lon="2.48742">
        <ele>676.631537</ele>
        <time>2022-06-03T19:44:37.125Z</time>
      </trkpt>
      <trkpt lat="43.03573" lon="2.48621">
        <ele>676.804518</ele>
        <time>2022-06-03T19:45:03.874Z</time>
      </trkpt>
      <trkpt lat="43.03576" lon="2.48592">
        <ele>678.470113</ele>
        <time>2022-06-03T19:45:17.116Z</time>
      </trkpt>
      <trkpt lat="43.03612" lon="2.48535">
        <ele>682.801471</ele>
        <time>2022-06-03T19:45:44.196Z</time>
      </trkpt>
      <trkpt lat="43.03664" lon="2.48484">
        <ele>687.860539</ele>
        <time>2022-06-03T19:46:26.042Z</time>
      </trkpt>
      <trkpt lat="43.03724" lon="2.48449">
        <ele>691.85978</ele>
        <time>2022-06-03T19:47:08.352Z</time>
      </trkpt>
      <trkpt lat="43.03726" lon="2.48434">
        <ele>692.34729</ele>
        <time>2022-06-03T19:47:14.500Z</time>
      </trkpt>
      <trkpt lat="43.03668" lon="2.48391">
        <ele>695.199061</ele>
        <time>2022-06-03T19:47:42.822Z</time>
      </trkpt>
      <trkpt lat="43.03661" lon="2.48371">
        <ele>695.910311</ele>
        <time>2022-06-03T19:47:48.228Z</time>
      </trkpt>
      <trkpt lat="43.03656" lon="2.48315">
        <ele>697.693349</ele>
        <time>2022-06-03T19:47:59.163Z</time>
      </trkpt>
      <trkpt lat="43.03645" lon="2.48294">
        <ele>698.146208</ele>
        <time>2022-06-03T19:48:03.342Z</time>
      </trkpt>
      <trkpt lat="43.03629" lon="2.48277">
        <ele>697.823236</ele>
        <time>2022-06-03T19:48:07.351Z</time>
      </trkpt>
      <trkpt lat="43.03554" lon="2.48257">
        <ele>696.603714</ele>
        <time>2022-06-03T19:48:22.027Z</time>
      </trkpt>
      <trkpt lat="43.03533" lon="2.48248">
        <ele>696.269377</ele>
        <time>2022-06-03T19:48:26.010Z</time>
      </trkpt>
      <trkpt lat="43.03525" lon="2.48232">
        <ele>696.043713</ele>
        <time>2022-06-03T19:48:28.681Z</time>
      </trkpt>
      <trkpt lat="43.03516" lon="2.48161">
        <ele>696.221372</ele>
        <time>2022-06-03T19:48:39.123Z</time>
      </trkpt>
      <trkpt lat="43.03491" lon="2.48064">
        <ele>701.244611</ele>
        <time>2022-06-03T19:49:11.323Z</time>
      </trkpt>
      <trkpt lat="43.03505" lon="2.4799">
        <ele>705.02906</ele>
        <time>2022-06-03T19:49:45.368Z</time>
      </trkpt>
      <trkpt lat="43.03531" lon="2.47903">
        <ele>710.799815</ele>
        <time>2022-06-03T19:50:34.862Z</time>
      </trkpt>
      <trkpt lat="43.0354" lon="2.4781">
        <ele>717.850631</ele>
        <time>2022-06-03T19:51:31.367Z</time>
      </trkpt>
      <trkpt lat="43.03533" lon="2.47778">
        <ele>720.345907</ele>
        <time>2022-06-03T19:51:50.792Z</time>
      </trkpt>
      <trkpt lat="43.03484" lon="2.47684">
        <ele>725.706756</ele>
        <time>2022-06-03T19:52:39.497Z</time>
      </trkpt>
      <trkpt lat="43.03457" lon="2.47568">
        <ele>724.866888</ele>
        <time>2022-06-03T19:53:04.302Z</time>
      </trkpt>
      <trkpt lat="43.03421" lon="2.4749">
        <ele>723.705469</ele>
        <time>2022-06-03T19:53:19.718Z</time>
      </trkpt>
      <trkpt lat="43.03375" lon="2.47354">
        <ele>712.724942</ele>
        <time>2022-06-03T19:53:42.702Z</time>
      </trkpt>
      <trkpt lat="43.0336" lon="2.47336">
        <ele>710.757561</ele>
        <time>2022-06-03T19:53:46.729Z</time>
      </trkpt>
      <trkpt lat="43.03346" lon="2.47335">
        <ele>709.353126</ele>
        <time>2022-06-03T19:53:49.517Z</time>
      </trkpt>
      <trkpt lat="43.03313" lon="2.47348">
        <ele>705.829593</ele>
        <time>2022-06-03T19:53:56.115Z</time>
      </trkpt>
      <trkpt lat="43.03246" lon="2.47408">
        <ele>696.651635</ele>
        <time>2022-06-03T19:54:11.895Z</time>
      </trkpt>
      <trkpt lat="43.03233" lon="2.47412">
        <ele>695.123612</ele>
        <time>2022-06-03T19:54:14.517Z</time>
      </trkpt>
      <trkpt lat="43.03219" lon="2.47413">
        <ele>693.624143</ele>
        <time>2022-06-03T19:54:17.053Z</time>
      </trkpt>
      <trkpt lat="43.03204" lon="2.47405">
        <ele>691.729413</ele>
        <time>2022-06-03T19:54:20.870Z</time>
      </trkpt>
      <trkpt lat="43.03195" lon="2.47393">
        <ele>690.286094</ele>
        <time>2022-06-03T19:54:23.217Z</time>
      </trkpt>
      <trkpt lat="43.03163" lon="2.4732">
        <ele>685.198108</ele>
        <time>2022-06-03T19:54:37.137Z</time>
      </trkpt>
      <trkpt lat="43.03151" lon="2.47231">
        <ele>683.653985</ele>
        <time>2022-06-03T19:54:52.561Z</time>
      </trkpt>
      <trkpt lat="43.03179" lon="2.47178">
        <ele>682.543911</ele>
        <time>2022-06-03T19:55:05.752Z</time>
      </trkpt>
      <trkpt lat="43.03183" lon="2.47114">
        <ele>681.462234</ele>
        <time>2022-06-03T19:55:25.479Z</time>
      </trkpt>
      <trkpt lat="43.0318" lon="2.47046">
        <ele>680.61436</ele>
        <time>2022-06-03T19:55:44.490Z</time>
      </trkpt>
      <trkpt lat="43.03199" lon="2.46949">
        <ele>679.388436</ele>
        <time>2022-06-03T19:56:05.112Z</time>
      </trkpt>
      <trkpt lat="43.03229" lon="2.469">
        <ele>678.596976</ele>
        <time>2022-06-03T19:56:16.108Z</time>
      </trkpt>
      <trkpt lat="43.03223" lon="2.46865">
        <ele>676.049498</ele>
        <time>2022-06-03T19:56:21.821Z</time>
      </trkpt>
      <trkpt lat="43.03193" lon="2.46827">
        <ele>670.92327</ele>
        <time>2022-06-03T19:56:30.198Z</time>
      </trkpt>
      <trkpt lat="43.03178" lon="2.4679">
        <ele>666.962839</ele>
        <time>2022-06-03T19:56:36.178Z</time>
      </trkpt>
      <trkpt lat="43.03158" lon="2.46717">
        <ele>659.766468</ele>
        <time>2022-06-03T19:56:47.067Z</time>
      </trkpt>
      <trkpt lat="43.03113" lon="2.46674">
        <ele>652.956303</ele>
        <time>2022-06-03T19:56:57.843Z</time>
      </trkpt>
      <trkpt lat="43.03099" lon="2.46647">
        <ele>650.183246</ele>
        <time>2022-06-03T19:57:02.427Z</time>
      </trkpt>
      <trkpt lat="43.03061" lon="2.46543">
        <ele>640.351649</ele>
        <time>2022-06-03T19:57:19.543Z</time>
      </trkpt>
      <trkpt lat="43.03055" lon="2.46473">
        <ele>634.685562</ele>
        <time>2022-06-03T19:57:30.085Z</time>
      </trkpt>
      <trkpt lat="43.03058" lon="2.46423">
        <ele>633.09573</ele>
        <time>2022-06-03T19:57:38.695Z</time>
      </trkpt>
      <trkpt lat="43.03047" lon="2.46395">
        <ele>632.080633</ele>
        <time>2022-06-03T19:57:44.563Z</time>
      </trkpt>
      <trkpt lat="43.03023" lon="2.46367">
        <ele>630.728244</ele>
        <time>2022-06-03T19:57:52.490Z</time>
      </trkpt>
      <trkpt lat="43.03003" lon="2.46324">
        <ele>629.133181</ele>
        <time>2022-06-03T19:58:02.019Z</time>
      </trkpt>
      <trkpt lat="43.0295" lon="2.46234">
        <ele>625.24934</ele>
        <time>2022-06-03T19:58:22.430Z</time>
      </trkpt>
      <trkpt lat="43.02904" lon="2.46208">
        <ele>622.811224</ele>
        <time>2022-06-03T19:58:33.736Z</time>
      </trkpt>
      <trkpt lat="43.02891" lon="2.4619">
        <ele>621.875432</ele>
        <time>2022-06-03T19:58:38.005Z</time>
      </trkpt>
      <trkpt lat="43.02889" lon="2.46169">
        <ele>621.111894</ele>
        <time>2022-06-03T19:58:41.453Z</time>
      </trkpt>
      <trkpt lat="43.02902" lon="2.46039">
        <ele>616.140001</ele>
        <time>2022-06-03T19:59:03.064Z</time>
      </trkpt>
      <trkpt lat="43.02887" lon="2.45957">
        <ele>612.723398</ele>
        <time>2022-06-03T19:59:16.793Z</time>
      </trkpt>
      <trkpt lat="43.02889" lon="2.45927">
        <ele>611.467096</ele>
        <time>2022-06-03T19:59:21.932Z</time>
      </trkpt>
      <trkpt lat="43.0288" lon="2.45779">
        <ele>606.562455</ele>
        <time>2022-06-03T19:59:47.004Z</time>
      </trkpt>
      <trkpt lat="43.02875" lon="2.45756">
        <ele>605.98948</ele>
        <time>2022-06-03T19:59:51.160Z</time>
      </trkpt>
      <trkpt lat="43.02856" lon="2.45723">
        <ele>604.974846</ele>
        <time>2022-06-03T19:59:58.763Z</time>
      </trkpt>
      <trkpt lat="43.02851" lon="2.45703">
        <ele>604.455831</ele>
        <time>2022-06-03T20:00:02.681Z</time>
      </trkpt>
      <trkpt lat="43.02849" lon="2.4566">
        <ele>603.427599</ele>
        <time>2022-06-03T20:00:10.483Z</time>
      </trkpt>
      <trkpt lat="43.02856" lon="2.45593">
        <ele>602.229069</ele>
        <time>2022-06-03T20:00:23.409Z</time>
      </trkpt>
      <trkpt lat="43.02852" lon="2.45504">
        <ele>602.085077</ele>
        <time>2022-06-03T20:00:41.207Z</time>
      </trkpt>
      <trkpt lat="43.02845" lon="2.455">
        <ele>602.068248</ele>
        <time>2022-06-03T20:00:43.377Z</time>
      </trkpt>
      <trkpt lat="43.02836" lon="2.45504">
        <ele>602.046741</ele>
        <time>2022-06-03T20:00:46.072Z</time>
      </trkpt>
      <trkpt lat="43.02812" lon="2.45582">
        <ele>601.909127</ele>
        <time>2022-06-03T20:01:06.359Z</time>
      </trkpt>
      <trkpt lat="43.02784" lon="2.45607">
        <ele>602.046721</ele>
        <time>2022-06-03T20:01:18.020Z</time>
      </trkpt>
      <trkpt lat="43.02767" lon="2.45615">
        <ele>602.319615</ele>
        <time>2022-06-03T20:01:23.770Z</time>
      </trkpt>
      <trkpt lat="43.02759" lon="2.45611">
        <ele>602.453691</ele>
        <time>2022-06-03T20:01:26.445Z</time>
      </trkpt>
      <trkpt lat="43.02754" lon="2.45609">
        <ele>602.537295</ele>
        <time>2022-06-03T20:01:29.505Z</time>
      </trkpt>
      <trkpt lat="43.02716" lon="2.45509">
        <ele>603.820299</ele>
        <time>2022-06-03T20:01:59.599Z</time>
      </trkpt>
      <trkpt lat="43.02684" lon="2.45449">
        <ele>604.662486</ele>
        <time>2022-06-03T20:02:18.996Z</time>
      </trkpt>
      <trkpt lat="43.02649" lon="2.45406">
        <ele>605.257859</ele>
        <time>2022-06-03T20:02:36.296Z</time>
      </trkpt>
      <trkpt lat="43.02622" lon="2.45316">
        <ele>606.14924</ele>
        <time>2022-06-03T20:02:59.536Z</time>
      </trkpt>
      <trkpt lat="43.02611" lon="2.45312">
        <ele>606.294891</ele>
        <time>2022-06-03T20:03:03.285Z</time>
      </trkpt>
      <trkpt lat="43.02588" lon="2.45322">
        <ele>606.593415</ele>
        <time>2022-06-03T20:03:11.217Z</time>
      </trkpt>
      <trkpt lat="43.02505" lon="2.45387">
        <ele>608.660325</ele>
        <time>2022-06-03T20:03:45.980Z</time>
      </trkpt>
      <trkpt lat="43.02478" lon="2.45437">
        <ele>609.796235</ele>
        <time>2022-06-03T20:03:57.930Z</time>
      </trkpt>
      <trkpt lat="43.02435" lon="2.45449">
        <ele>610.905403</ele>
        <time>2022-06-03T20:04:17.006Z</time>
      </trkpt>
      <trkpt lat="43.02413" lon="2.45464">
        <ele>611.593354</ele>
        <time>2022-06-03T20:04:27.628Z</time>
      </trkpt>
      <trkpt lat="43.0239" lon="2.45498">
        <ele>612.973993</ele>
        <time>2022-06-03T20:04:43.857Z</time>
      </trkpt>
      <trkpt lat="43.02373" lon="2.45549">
        <ele>614.667426</ele>
        <time>2022-06-03T20:05:05.211Z</time>
      </trkpt>
      <trkpt lat="43.02355" lon="2.45656">
        <ele>617.965756</ele>
        <time>2022-06-03T20:05:41.382Z</time>
      </trkpt>
      <trkpt lat="43.02345" lon="2.45664">
        <ele>618.431335</ele>
        <time>2022-06-03T20:05:46.329Z</time>
      </trkpt>
      <trkpt lat="43.02305" lon="2.45659">
        <ele>620.226936</ele>
        <time>2022-06-03T20:06:04.122Z</time>
      </trkpt>
      <trkpt lat="43.02288" lon="2.45663">
        <ele>621.018208</ele>
        <time>2022-06-03T20:06:11.705Z</time>
      </trkpt>
      <trkpt lat="43.02279" lon="2.45672">
        <ele>621.553414</ele>
        <time>2022-06-03T20:06:16.755Z</time>
      </trkpt>
      <trkpt lat="43.02251" lon="2.4573">
        <ele>623.898255</ele>
        <time>2022-06-03T20:06:38.607Z</time>
      </trkpt>
      <trkpt lat="43.02217" lon="2.45836">
        <ele>628.838781</ele>
        <time>2022-06-03T20:07:23.224Z</time>
      </trkpt>
      <trkpt lat="43.02193" lon="2.45885">
        <ele>633.821764</ele>
        <time>2022-06-03T20:07:49.285Z</time>
      </trkpt>
      <trkpt lat="43.02184" lon="2.45887">
        <ele>634.886376</ele>
        <time>2022-06-03T20:07:54.835Z</time>
      </trkpt>
      <trkpt lat="43.02156" lon="2.45861">
        <ele>638.81297</ele>
        <time>2022-06-03T20:08:19.099Z</time>
      </trkpt>
      <trkpt lat="43.02129" lon="2.45851">
        <ele>642.077456</ele>
        <time>2022-06-03T20:08:45.210Z</time>
      </trkpt>
      <trkpt lat="43.02102" lon="2.4585">
        <ele>645.249205</ele>
        <time>2022-06-03T20:09:10.016Z</time>
      </trkpt>
      <trkpt lat="43.02016" lon="2.45881">
        <ele>657.161248</ele>
        <time>2022-06-03T20:10:38.328Z</time>
      </trkpt>
      <trkpt lat="43.02004" lon="2.45893">
        <ele>659.200514</ele>
        <time>2022-06-03T20:10:50.038Z</time>
      </trkpt>
      <trkpt lat="43.02002" lon="2.4591">
        <ele>660.958477</ele>
        <time>2022-06-03T20:11:04.860Z</time>
      </trkpt>
      <trkpt lat="43.01986" lon="2.45915">
        <ele>663.279153</ele>
        <time>2022-06-03T20:11:18.762Z</time>
      </trkpt>
      <trkpt lat="43.01974" lon="2.45896">
        <ele>665.846532</ele>
        <time>2022-06-03T20:11:32.584Z</time>
      </trkpt>
      <trkpt lat="43.01939" lon="2.45907">
        <ele>670.877598</ele>
        <time>2022-06-03T20:11:59.155Z</time>
      </trkpt>
      <trkpt lat="43.01918" lon="2.45919">
        <ele>673.531838</ele>
        <time>2022-06-03T20:12:13.705Z</time>
      </trkpt>
      <trkpt lat="43.01902" lon="2.45938">
        <ele>674.892395</ele>
        <time>2022-06-03T20:12:30.382Z</time>
      </trkpt>
      <trkpt lat="43.01892" lon="2.45958">
        <ele>676.011688</ele>
        <time>2022-06-03T20:12:39.727Z</time>
      </trkpt>
      <trkpt lat="43.01867" lon="2.4597">
        <ele>677.662646</ele>
        <time>2022-06-03T20:12:58.434Z</time>
      </trkpt>
      <trkpt lat="43.01835" lon="2.45999">
        <ele>680.039646</ele>
        <time>2022-06-03T20:13:13.428Z</time>
      </trkpt>
      <trkpt lat="43.01801" lon="2.4594">
        <ele>683.46577</ele>
        <time>2022-06-03T20:13:38.164Z</time>
      </trkpt>
      <trkpt lat="43.01781" lon="2.45854">
        <ele>688.392045</ele>
        <time>2022-06-03T20:14:11.866Z</time>
      </trkpt>
      <trkpt lat="43.01781" lon="2.45821">
        <ele>690.251858</ele>
        <time>2022-06-03T20:14:24.699Z</time>
      </trkpt>
      <trkpt lat="43.0176" lon="2.45778">
        <ele>693.219598</ele>
        <time>2022-06-03T20:14:49.183Z</time>
      </trkpt>
      <trkpt lat="43.01747" lon="2.45728">
        <ele>696.257598</ele>
        <time>2022-06-03T20:15:15.441Z</time>
      </trkpt>
      <trkpt lat="43.01726" lon="2.4568">
        <ele>699.971303</ele>
        <time>2022-06-03T20:15:43.724Z</time>
      </trkpt>
      <trkpt lat="43.01709" lon="2.45551">
        <ele>711.253999</ele>
        <time>2022-06-03T20:17:00.379Z</time>
      </trkpt>
      <trkpt lat="43.01698" lon="2.45534">
        <ele>713.191831</ele>
        <time>2022-06-03T20:17:12.506Z</time>
      </trkpt>
      <trkpt lat="43.01686" lon="2.45524">
        <ele>714.829818</ele>
        <time>2022-06-03T20:17:22.243Z</time>
      </trkpt>
      <trkpt lat="43.01651" lon="2.45512">
        <ele>719.158056</ele>
        <time>2022-06-03T20:17:51.027Z</time>
      </trkpt>
      <trkpt lat="43.01627" lon="2.45477">
        <ele>723.208706</ele>
        <time>2022-06-03T20:18:18.167Z</time>
      </trkpt>
      <trkpt lat="43.0162" lon="2.45475">
        <ele>724.037458</ele>
        <time>2022-06-03T20:18:26.467Z</time>
      </trkpt>
      <trkpt lat="43.01522" lon="2.45417">
        <ele>736.308628</ele>
        <time>2022-06-03T20:19:47.765Z</time>
      </trkpt>
      <trkpt lat="43.01459" lon="2.45389">
        <ele>741.923323</ele>
        <time>2022-06-03T20:20:36.076Z</time>
      </trkpt>
      <trkpt lat="43.01429" lon="2.45382">
        <ele>743.415389</ele>
        <time>2022-06-03T20:20:55.464Z</time>
      </trkpt>
      <trkpt lat="43.01367" lon="2.45387">
        <ele>746.489711</ele>
        <time>2022-06-03T20:21:24.585Z</time>
      </trkpt>
      <trkpt lat="43.0134" lon="2.45403">
        <ele>747.945142</ele>
        <time>2022-06-03T20:21:35.209Z</time>
      </trkpt>
      <trkpt lat="43.01295" lon="2.45459">
        <ele>747.820843</ele>
        <time>2022-06-03T20:21:52.817Z</time>
      </trkpt>
      <trkpt lat="43.01307" lon="2.45405">
        <ele>746.126166</ele>
        <time>2022-06-03T20:22:02.981Z</time>
      </trkpt>
      <trkpt lat="43.01307" lon="2.45346">
        <ele>744.357944</ele>
        <time>2022-06-03T20:22:12.482Z</time>
      </trkpt>
      <trkpt lat="43.01316" lon="2.45305">
        <ele>743.084972</ele>
        <time>2022-06-03T20:22:19.257Z</time>
      </trkpt>
      <trkpt lat="43.01315" lon="2.45289">
        <ele>742.587937</ele>
        <time>2022-06-03T20:22:21.893Z</time>
      </trkpt>
      <trkpt lat="43.0129" lon="2.452">
        <ele>740.602091</ele>
        <time>2022-06-03T20:22:37.528Z</time>
      </trkpt>
      <trkpt lat="43.01294" lon="2.45138">
        <ele>739.491601</ele>
        <time>2022-06-03T20:22:49.154Z</time>
      </trkpt>
      <trkpt lat="43.01285" lon="2.45139">
        <ele>739.269252</ele>
        <time>2022-06-03T20:22:53.020Z</time>
      </trkpt>
      <trkpt lat="43.01271" lon="2.45176">
        <ele>738.533383</ele>
        <time>2022-06-03T20:23:01.512Z</time>
      </trkpt>
      <trkpt lat="43.01229" lon="2.45336">
        <ele>734.809116</ele>
        <time>2022-06-03T20:23:38.184Z</time>
      </trkpt>
      <trkpt lat="43.01217" lon="2.45339">
        <ele>734.405278</ele>
        <time>2022-06-03T20:23:41.952Z</time>
      </trkpt>
      <trkpt lat="43.01199" lon="2.45223">
        <ele>731.555444</ele>
        <time>2022-06-03T20:24:01.904Z</time>
      </trkpt>
      <trkpt lat="43.01109" lon="2.44895">
        <ele>702.965545</ele>
        <time>2022-06-03T20:24:52.994Z</time>
      </trkpt>
      <trkpt lat="43.01108" lon="2.44813">
        <ele>696.518795</ele>
        <time>2022-06-03T20:25:05.286Z</time>
      </trkpt>
      <trkpt lat="43.01104" lon="2.44793">
        <ele>694.931783</ele>
        <time>2022-06-03T20:25:08.358Z</time>
      </trkpt>
      <trkpt lat="43.01092" lon="2.44782">
        <ele>693.354336</ele>
        <time>2022-06-03T20:25:11.425Z</time>
      </trkpt>
      <trkpt lat="43.01057" lon="2.44766">
        <ele>689.773375</ele>
        <time>2022-06-03T20:25:19.223Z</time>
      </trkpt>
      <trkpt lat="43.0102" lon="2.4473">
        <ele>685.705054</ele>
        <time>2022-06-03T20:25:28.871Z</time>
      </trkpt>
      <trkpt lat="43.01011" lon="2.44712">
        <ele>684.270406</ele>
        <time>2022-06-03T20:25:32.264Z</time>
      </trkpt>
      <trkpt lat="43.00994" lon="2.44625">
        <ele>678.295255</ele>
        <time>2022-06-03T20:25:46.237Z</time>
      </trkpt>
      <trkpt lat="43.00975" lon="2.44553">
        <ele>672.024495</ele>
        <time>2022-06-03T20:25:57.736Z</time>
      </trkpt>
      <trkpt lat="43.00972" lon="2.44454">
        <ele>662.01401</ele>
        <time>2022-06-03T20:26:12.028Z</time>
      </trkpt>
      <trkpt lat="43.0099" lon="2.44336">
        <ele>650.079199</ele>
        <time>2022-06-03T20:26:28.917Z</time>
      </trkpt>
      <trkpt lat="43.00991" lon="2.44302">
        <ele>647.306297</ele>
        <time>2022-06-03T20:26:33.688Z</time>
      </trkpt>
      <trkpt lat="43.00983" lon="2.44264">
        <ele>643.989128</ele>
        <time>2022-06-03T20:26:39.350Z</time>
      </trkpt>
      <trkpt lat="43.00974" lon="2.44247">
        <ele>642.242818</ele>
        <time>2022-06-03T20:26:42.432Z</time>
      </trkpt>
      <trkpt lat="43.00948" lon="2.44221">
        <ele>638.50857</ele>
        <time>2022-06-03T20:26:48.873Z</time>
      </trkpt>
      <trkpt lat="43.00941" lon="2.44207">
        <ele>637.104868</ele>
        <time>2022-06-03T20:26:51.555Z</time>
      </trkpt>
      <trkpt lat="43.00942" lon="2.44178">
        <ele>634.675076</ele>
        <time>2022-06-03T20:26:55.841Z</time>
      </trkpt>
      <trkpt lat="43.00954" lon="2.4412">
        <ele>630.594819</ele>
        <time>2022-06-03T20:27:05.429Z</time>
      </trkpt>
      <trkpt lat="43.00965" lon="2.44083">
        <ele>631.224276</ele>
        <time>2022-06-03T20:27:11.873Z</time>
      </trkpt>
      <trkpt lat="43.00981" lon="2.44056">
        <ele>631.774076</ele>
        <time>2022-06-03T20:27:22.167Z</time>
      </trkpt>
      <trkpt lat="43.00974" lon="2.44046">
        <ele>631.984406</ele>
        <time>2022-06-03T20:27:24.368Z</time>
      </trkpt>
      <trkpt lat="43.00959" lon="2.4405">
        <ele>632.332417</ele>
        <time>2022-06-03T20:27:32.180Z</time>
      </trkpt>
      <trkpt lat="43.009" lon="2.44101">
        <ele>633.83871</ele>
        <time>2022-06-03T20:27:59.576Z</time>
      </trkpt>
      <trkpt lat="43.00868" lon="2.44107">
        <ele>635.208664</ele>
        <time>2022-06-03T20:28:15.219Z</time>
      </trkpt>
      <trkpt lat="43.00841" lon="2.44094">
        <ele>637.913735</ele>
        <time>2022-06-03T20:28:29.772Z</time>
      </trkpt>
      <trkpt lat="43.00793" lon="2.44048">
        <ele>643.425029</ele>
        <time>2022-06-03T20:29:06.801Z</time>
      </trkpt>
      <trkpt lat="43.00769" lon="2.44032">
        <ele>645.931389</ele>
        <time>2022-06-03T20:29:22.627Z</time>
      </trkpt>
      <trkpt lat="43.00718" lon="2.44006">
        <ele>651.052897</ele>
        <time>2022-06-03T20:29:55.161Z</time>
      </trkpt>
      <trkpt lat="43.00669" lon="2.43992">
        <ele>653.781134</ele>
        <time>2022-06-03T20:30:22.900Z</time>
      </trkpt>
      <trkpt lat="43.00572" lon="2.43907">
        <ele>659.871588</ele>
        <time>2022-06-03T20:31:03.127Z</time>
      </trkpt>
      <trkpt lat="43.00558" lon="2.43904">
        <ele>660.623158</ele>
        <time>2022-06-03T20:31:06.419Z</time>
      </trkpt>
      <trkpt lat="43.0053" lon="2.43874">
        <ele>661.273462</ele>
        <time>2022-06-03T20:31:15.385Z</time>
      </trkpt>
      <trkpt lat="43.0048" lon="2.43867">
        <ele>662.056235</ele>
        <time>2022-06-03T20:31:27.777Z</time>
      </trkpt>
      <trkpt lat="43.00458" lon="2.43873">
        <ele>662.402643</ele>
        <time>2022-06-03T20:31:31.560Z</time>
      </trkpt>
      <trkpt lat="43.00412" lon="2.43898">
        <ele>663.171689</ele>
        <time>2022-06-03T20:31:44.824Z</time>
      </trkpt>
      <trkpt lat="43.00375" lon="2.43904">
        <ele>663.830457</ele>
        <time>2022-06-03T20:31:53.997Z</time>
      </trkpt>
      <trkpt lat="43.00364" lon="2.43917">
        <ele>664.159539</ele>
        <time>2022-06-03T20:31:56.786Z</time>
      </trkpt>
      <trkpt lat="43.00354" lon="2.43972">
        <ele>665.057304</ele>
        <time>2022-06-03T20:32:07.631Z</time>
      </trkpt>
      <trkpt lat="43.0034" lon="2.4399">
        <ele>665.476816</ele>
        <time>2022-06-03T20:32:13.764Z</time>
      </trkpt>
      <trkpt lat="43.00325" lon="2.43994">
        <ele>665.823211</ele>
        <time>2022-06-03T20:32:18.376Z</time>
      </trkpt>
      <trkpt lat="43.00315" lon="2.43987">
        <ele>666.067358</ele>
        <time>2022-06-03T20:32:22.092Z</time>
      </trkpt>
      <trkpt lat="43.00285" lon="2.43894">
        <ele>667.728988</ele>
        <time>2022-06-03T20:32:42.360Z</time>
      </trkpt>
      <trkpt lat="43.00273" lon="2.43881">
        <ele>668.115553</ele>
        <time>2022-06-03T20:32:46.593Z</time>
      </trkpt>
      <trkpt lat="43.00241" lon="2.43883">
        <ele>668.910864</ele>
        <time>2022-06-03T20:32:55.294Z</time>
      </trkpt>
      <trkpt lat="43.0018" lon="2.43901">
        <ele>670.496811</ele>
        <time>2022-06-03T20:33:11.818Z</time>
      </trkpt>
      <trkpt lat="43.00116" lon="2.43889">
        <ele>672.232911</ele>
        <time>2022-06-03T20:33:29.819Z</time>
      </trkpt>
      <trkpt lat="43.00059" lon="2.43897">
        <ele>675.52844</ele>
        <time>2022-06-03T20:33:52.239Z</time>
      </trkpt>
      <trkpt lat="42.99996" lon="2.4389">
        <ele>679.15579</ele>
        <time>2022-06-03T20:34:20.306Z</time>
      </trkpt>
      <trkpt lat="42.99868" lon="2.43744">
        <ele>689.07745</ele>
        <time>2022-06-03T20:35:37.201Z</time>
      </trkpt>
      <trkpt lat="42.99847" lon="2.43709">
        <ele>691.097056</ele>
        <time>2022-06-03T20:35:50.971Z</time>
      </trkpt>
      <trkpt lat="42.99795" lon="2.43647">
        <ele>694.353206</ele>
        <time>2022-06-03T20:36:16.283Z</time>
      </trkpt>
      <trkpt lat="42.99738" lon="2.43608">
        <ele>696.420512</ele>
        <time>2022-06-03T20:36:35.399Z</time>
      </trkpt>
      <trkpt lat="42.99711" lon="2.43598">
        <ele>697.338694</ele>
        <time>2022-06-03T20:36:43.796Z</time>
      </trkpt>
      <trkpt lat="42.99584" lon="2.43598">
        <ele>699.73219</ele>
        <time>2022-06-03T20:37:20.764Z</time>
      </trkpt>
      <trkpt lat="42.99552" lon="2.43592">
        <ele>699.993785</ele>
        <time>2022-06-03T20:37:27.863Z</time>
      </trkpt>
      <trkpt lat="42.99545" lon="2.43576">
        <ele>700.102737</ele>
        <time>2022-06-03T20:37:30.654Z</time>
      </trkpt>
      <trkpt lat="42.99548" lon="2.43557">
        <ele>700.221608</ele>
        <time>2022-06-03T20:37:33.069Z</time>
      </trkpt>
      <trkpt lat="42.99637" lon="2.43507">
        <ele>701.10015</ele>
        <time>2022-06-03T20:37:48.451Z</time>
      </trkpt>
      <trkpt lat="42.99675" lon="2.43498">
        <ele>701.505522</ele>
        <time>2022-06-03T20:37:56.315Z</time>
      </trkpt>
      <trkpt lat="42.99688" lon="2.43488">
        <ele>701.659611</ele>
        <time>2022-06-03T20:37:58.658Z</time>
      </trkpt>
      <trkpt lat="42.99723" lon="2.43433">
        <ele>702.212657</ele>
        <time>2022-06-03T20:38:13.600Z</time>
      </trkpt>
      <trkpt lat="42.99761" lon="2.43411">
        <ele>703.664147</ele>
        <time>2022-06-03T20:38:26.134Z</time>
      </trkpt>
      <trkpt lat="42.99761" lon="2.43393">
        <ele>704.587513</ele>
        <time>2022-06-03T20:38:29.556Z</time>
      </trkpt>
      <trkpt lat="42.99749" lon="2.43386">
        <ele>705.497266</ele>
        <time>2022-06-03T20:38:36.724Z</time>
      </trkpt>
      <trkpt lat="42.9964" lon="2.43446">
        <ele>714.120148</ele>
        <time>2022-06-03T20:39:37.510Z</time>
      </trkpt>
      <trkpt lat="42.99545" lon="2.43477">
        <ele>722.309204</ele>
        <time>2022-06-03T20:40:32.875Z</time>
      </trkpt>
      <trkpt lat="42.99478" lon="2.43472">
        <ele>728.095489</ele>
        <time>2022-06-03T20:41:08.085Z</time>
      </trkpt>
      <trkpt lat="42.99448" lon="2.43465">
        <ele>730.685879</ele>
        <time>2022-06-03T20:41:23.065Z</time>
      </trkpt>
      <trkpt lat="42.99418" lon="2.43446">
        <ele>733.129984</ele>
        <time>2022-06-03T20:41:39.899Z</time>
      </trkpt>
      <trkpt lat="42.9941" lon="2.434">
        <ele>735.559387</ele>
        <time>2022-06-03T20:41:56.531Z</time>
      </trkpt>
      <trkpt lat="42.99383" lon="2.43338">
        <ele>739.19897</ele>
        <time>2022-06-03T20:42:21.234Z</time>
      </trkpt>
      <trkpt lat="42.99362" lon="2.43325">
        <ele>740.7839</ele>
        <time>2022-06-03T20:42:31.667Z</time>
      </trkpt>
      <trkpt lat="42.99331" lon="2.43338">
        <ele>743.063671</ele>
        <time>2022-06-03T20:42:46.688Z</time>
      </trkpt>
      <trkpt lat="42.99314" lon="2.43357">
        <ele>744.225075</ele>
        <time>2022-06-03T20:42:55.744Z</time>
      </trkpt>
      <trkpt lat="42.99303" lon="2.43383">
        <ele>745.110386</ele>
        <time>2022-06-03T20:43:03.701Z</time>
      </trkpt>
      <trkpt lat="42.99284" lon="2.43399">
        <ele>746.015375</ele>
        <time>2022-06-03T20:43:12.265Z</time>
      </trkpt>
      <trkpt lat="42.99214" lon="2.434">
        <ele>748.90732</ele>
        <time>2022-06-03T20:43:37.572Z</time>
      </trkpt>
      <trkpt lat="42.99188" lon="2.4341">
        <ele>749.981448</ele>
        <time>2022-06-03T20:43:46.291Z</time>
      </trkpt>
      <trkpt lat="42.99172" lon="2.43438">
        <ele>751.040677</ele>
        <time>2022-06-03T20:43:54.274Z</time>
      </trkpt>
      <trkpt lat="42.99155" lon="2.43486">
        <ele>750.608778</ele>
        <time>2022-06-03T20:44:03.534Z</time>
      </trkpt>
      <trkpt lat="42.99145" lon="2.43498">
        <ele>750.462831</ele>
        <time>2022-06-03T20:44:05.896Z</time>
      </trkpt>
      <trkpt lat="42.99116" lon="2.43513">
        <ele>750.119522</ele>
        <time>2022-06-03T20:44:11.106Z</time>
      </trkpt>
      <trkpt lat="42.99095" lon="2.43515">
        <ele>749.890388</ele>
        <time>2022-06-03T20:44:14.671Z</time>
      </trkpt>
      <trkpt lat="42.99014" lon="2.43505">
        <ele>748.718628</ele>
        <time>2022-06-03T20:44:26.452Z</time>
      </trkpt>
      <trkpt lat="42.98914" lon="2.43514">
        <ele>743.353257</ele>
        <time>2022-06-03T20:44:39.925Z</time>
      </trkpt>
      <trkpt lat="42.98881" lon="2.4351">
        <ele>741.549066</ele>
        <time>2022-06-03T20:44:44.223Z</time>
      </trkpt>
      <trkpt lat="42.98827" lon="2.43523">
        <ele>738.247383</ele>
        <time>2022-06-03T20:44:51.082Z</time>
      </trkpt>
      <trkpt lat="42.98784" lon="2.43548">
        <ele>734.605832</ele>
        <time>2022-06-03T20:44:56.874Z</time>
      </trkpt>
      <trkpt lat="42.98734" lon="2.43559">
        <ele>730.620806</ele>
        <time>2022-06-03T20:45:03.123Z</time>
      </trkpt>
      <trkpt lat="42.98644" lon="2.43617">
        <ele>722.767712</ele>
        <time>2022-06-03T20:45:15.324Z</time>
      </trkpt>
      <trkpt lat="42.98544" lon="2.43654">
        <ele>714.476848</ele>
        <time>2022-06-03T20:45:28.005Z</time>
      </trkpt>
      <trkpt lat="42.98511" lon="2.4368">
        <ele>711.457487</ele>
        <time>2022-06-03T20:45:32.725Z</time>
      </trkpt>
      <trkpt lat="42.98501" lon="2.43652">
        <ele>709.799751</ele>
        <time>2022-06-03T20:45:35.410Z</time>
      </trkpt>
      <trkpt lat="42.98494" lon="2.43613">
        <ele>707.704258</ele>
        <time>2022-06-03T20:45:38.991Z</time>
      </trkpt>
      <trkpt lat="42.98481" lon="2.43361">
        <ele>697.13696</ele>
        <time>2022-06-03T20:46:01.038Z</time>
      </trkpt>
      <trkpt lat="42.98496" lon="2.43319">
        <ele>696.384283</ele>
        <time>2022-06-03T20:46:06.101Z</time>
      </trkpt>
      <trkpt lat="42.98511" lon="2.43296">
        <ele>695.883011</ele>
        <time>2022-06-03T20:46:09.450Z</time>
      </trkpt>
      <trkpt lat="42.98582" lon="2.43223">
        <ele>694.575541</ele>
        <time>2022-06-03T20:46:28.818Z</time>
      </trkpt>
      <trkpt lat="42.98599" lon="2.43215">
        <ele>694.87909</ele>
        <time>2022-06-03T20:46:32.787Z</time>
      </trkpt>
      <trkpt lat="42.98609" lon="2.43222">
        <ele>695.07421</ele>
        <time>2022-06-03T20:46:37.352Z</time>
      </trkpt>
      <trkpt lat="42.98632" lon="2.43289">
        <ele>695.999415</ele>
        <time>2022-06-03T20:46:51.918Z</time>
      </trkpt>
      <trkpt lat="42.98639" lon="2.43295">
        <ele>696.138248</ele>
        <time>2022-06-03T20:46:54.357Z</time>
      </trkpt>
      <trkpt lat="42.98653" lon="2.43293">
        <ele>696.378785</ele>
        <time>2022-06-03T20:46:58.644Z</time>
      </trkpt>
      <trkpt lat="42.98659" lon="2.43275">
        <ele>696.615123</ele>
        <time>2022-06-03T20:47:01.499Z</time>
      </trkpt>
      <trkpt lat="42.98651" lon="2.43222">
        <ele>697.290296</ele>
        <time>2022-06-03T20:47:11.755Z</time>
      </trkpt>
      <trkpt lat="42.98658" lon="2.43152">
        <ele>697.348672</ele>
        <time>2022-06-03T20:47:20.978Z</time>
      </trkpt>
      <trkpt lat="42.98646" lon="2.43128">
        <ele>697.341592</ele>
        <time>2022-06-03T20:47:23.997Z</time>
      </trkpt>
      <trkpt lat="42.98622" lon="2.43104">
        <ele>697.331493</ele>
        <time>2022-06-03T20:47:28.458Z</time>
      </trkpt>
      <trkpt lat="42.98617" lon="2.43092">
        <ele>697.328086</ele>
        <time>2022-06-03T20:47:30.176Z</time>
      </trkpt>
      <trkpt lat="42.98616" lon="2.43065">
        <ele>697.321205</ele>
        <time>2022-06-03T20:47:33.874Z</time>
      </trkpt>
      <trkpt lat="42.98636" lon="2.43003">
        <ele>697.304222</ele>
        <time>2022-06-03T20:47:45.035Z</time>
      </trkpt>
      <trkpt lat="42.98638" lon="2.42989">
        <ele>697.325693</ele>
        <time>2022-06-03T20:47:46.676Z</time>
      </trkpt>
      <trkpt lat="42.98631" lon="2.42958">
        <ele>697.38764</ele>
        <time>2022-06-03T20:47:51.633Z</time>
      </trkpt>
      <trkpt lat="42.98618" lon="2.42934">
        <ele>697.446367</ele>
        <time>2022-06-03T20:47:55.256Z</time>
      </trkpt>
      <trkpt lat="42.98582" lon="2.42908">
        <ele>697.55164</ele>
        <time>2022-06-03T20:48:03.975Z</time>
      </trkpt>
      <trkpt lat="42.98558" lon="2.42894">
        <ele>697.621976</ele>
        <time>2022-06-03T20:48:09.506Z</time>
      </trkpt>
      <trkpt lat="42.98548" lon="2.42869">
        <ele>697.677081</ele>
        <time>2022-06-03T20:48:14.526Z</time>
      </trkpt>
      <trkpt lat="42.98544" lon="2.42796">
        <ele>697.125392</ele>
        <time>2022-06-03T20:48:23.759Z</time>
      </trkpt>
      <trkpt lat="42.98526" lon="2.42699">
        <ele>694.104706</ele>
        <time>2022-06-03T20:48:34.118Z</time>
      </trkpt>
      <trkpt lat="42.98532" lon="2.42643">
        <ele>692.369853</ele>
        <time>2022-06-03T20:48:39.334Z</time>
      </trkpt>
      <trkpt lat="42.98555" lon="2.42547">
        <ele>688.825166</ele>
        <time>2022-06-03T20:48:48.031Z</time>
      </trkpt>
      <trkpt lat="42.98558" lon="2.42429">
        <ele>683.352574</ele>
        <time>2022-06-03T20:48:58.452Z</time>
      </trkpt>
      <trkpt lat="42.98555" lon="2.42371">
        <ele>680.672152</ele>
        <time>2022-06-03T20:49:03.689Z</time>
      </trkpt>
      <trkpt lat="42.98555" lon="2.42352">
        <ele>679.787027</ele>
        <time>2022-06-03T20:49:05.499Z</time>
      </trkpt>
      <trkpt lat="42.98568" lon="2.42312">
        <ele>678.676493</ele>
        <time>2022-06-03T20:49:09.534Z</time>
      </trkpt>
      <trkpt lat="42.98583" lon="2.42289">
        <ele>678.296858</ele>
        <time>2022-06-03T20:49:12.513Z</time>
      </trkpt>
      <trkpt lat="42.98609" lon="2.4227">
        <ele>677.807985</ele>
        <time>2022-06-03T20:49:16.466Z</time>
      </trkpt>
      <trkpt lat="42.98612" lon="2.42246">
        <ele>677.508093</ele>
        <time>2022-06-03T20:49:18.859Z</time>
      </trkpt>
      <trkpt lat="42.98605" lon="2.42224">
        <ele>677.216917</ele>
        <time>2022-06-03T20:49:21.424Z</time>
      </trkpt>
      <trkpt lat="42.98578" lon="2.42187">
        <ele>676.572716</ele>
        <time>2022-06-03T20:49:28.364Z</time>
      </trkpt>
      <trkpt lat="42.98571" lon="2.42169">
        <ele>676.325223</ele>
        <time>2022-06-03T20:49:31.859Z</time>
      </trkpt>
      <trkpt lat="42.98585" lon="2.42096">
        <ele>677.312484</ele>
        <time>2022-06-03T20:49:47.318Z</time>
      </trkpt>
      <trkpt lat="42.98582" lon="2.4208">
        <ele>677.773685</ele>
        <time>2022-06-03T20:49:50.343Z</time>
      </trkpt>
      <trkpt lat="42.98528" lon="2.42016">
        <ele>680.531576</ele>
        <time>2022-06-03T20:50:13.315Z</time>
      </trkpt>
      <trkpt lat="42.98518" lon="2.41997">
        <ele>681.208884</ele>
        <time>2022-06-03T20:50:20.250Z</time>
      </trkpt>
      <trkpt lat="42.98518" lon="2.41973">
        <ele>681.881373</ele>
        <time>2022-06-03T20:50:26.632Z</time>
      </trkpt>
      <trkpt lat="42.98529" lon="2.41901">
        <ele>684.354444</ele>
        <time>2022-06-03T20:50:48.975Z</time>
      </trkpt>
      <trkpt lat="42.98522" lon="2.41861">
        <ele>685.981001</ele>
        <time>2022-06-03T20:51:02.444Z</time>
      </trkpt>
      <trkpt lat="42.98498" lon="2.41841">
        <ele>687.44189</ele>
        <time>2022-06-03T20:51:14.564Z</time>
      </trkpt>
      <trkpt lat="42.98477" lon="2.4184">
        <ele>688.589905</ele>
        <time>2022-06-03T20:51:23.961Z</time>
      </trkpt>
      <trkpt lat="42.98444" lon="2.41849">
        <ele>690.358351</ele>
        <time>2022-06-03T20:51:36.921Z</time>
      </trkpt>
      <trkpt lat="42.9841" lon="2.41832">
        <ele>692.30419</ele>
        <time>2022-06-03T20:51:50.149Z</time>
      </trkpt>
      <trkpt lat="42.98391" lon="2.41833">
        <ele>692.691024</ele>
        <time>2022-06-03T20:51:56.441Z</time>
      </trkpt>
      <trkpt lat="42.98373" lon="2.41849">
        <ele>692.929662</ele>
        <time>2022-06-03T20:52:02.238Z</time>
      </trkpt>
      <trkpt lat="42.98367" lon="2.41861">
        <ele>693.055326</ele>
        <time>2022-06-03T20:52:04.426Z</time>
      </trkpt>
      <trkpt lat="42.98356" lon="2.41918">
        <ele>693.544955</ele>
        <time>2022-06-03T20:52:12.056Z</time>
      </trkpt>
      <trkpt lat="42.98347" lon="2.41937">
        <ele>693.730916</ele>
        <time>2022-06-03T20:52:14.911Z</time>
      </trkpt>
      <trkpt lat="42.98319" lon="2.41972">
        <ele>694.16142</ele>
        <time>2022-06-03T20:52:22.433Z</time>
      </trkpt>
      <trkpt lat="42.9831" lon="2.41971">
        <ele>694.268826</ele>
        <time>2022-06-03T20:52:24.306Z</time>
      </trkpt>
      <trkpt lat="42.98297" lon="2.41957">
        <ele>694.461574</ele>
        <time>2022-06-03T20:52:27.379Z</time>
      </trkpt>
      <trkpt lat="42.98288" lon="2.41905">
        <ele>695.599947</ele>
        <time>2022-06-03T20:52:33.974Z</time>
      </trkpt>
      <trkpt lat="42.98287" lon="2.41893">
        <ele>695.88349</ele>
        <time>2022-06-03T20:52:35.750Z</time>
      </trkpt>
      <trkpt lat="42.98265" lon="2.41792">
        <ele>698.53251</ele>
        <time>2022-06-03T20:52:57.510Z</time>
      </trkpt>
      <trkpt lat="42.98262" lon="2.41711">
        <ele>700.591264</ele>
        <time>2022-06-03T20:53:20.747Z</time>
      </trkpt>
      <trkpt lat="42.98271" lon="2.41665">
        <ele>702.963182</ele>
        <time>2022-06-03T20:53:39.492Z</time>
      </trkpt>
      <trkpt lat="42.98302" lon="2.41613">
        <ele>706.592546</ele>
        <time>2022-06-03T20:54:05.544Z</time>
      </trkpt>
      <trkpt lat="42.98343" lon="2.41519">
        <ele>712.507636</ele>
        <time>2022-06-03T20:54:43.998Z</time>
      </trkpt>
      <trkpt lat="42.98347" lon="2.41507">
        <ele>713.242761</ele>
        <time>2022-06-03T20:54:48.515Z</time>
      </trkpt>
      <trkpt lat="42.98345" lon="2.41479">
        <ele>714.303927</ele>
        <time>2022-06-03T20:54:57.798Z</time>
      </trkpt>
      <trkpt lat="42.98335" lon="2.41453">
        <ele>714.863791</ele>
        <time>2022-06-03T20:55:06.319Z</time>
      </trkpt>
      <trkpt lat="42.98311" lon="2.41428">
        <ele>715.645069</ele>
        <time>2022-06-03T20:55:17.214Z</time>
      </trkpt>
      <trkpt lat="42.98285" lon="2.4142">
        <ele>716.330632</ele>
        <time>2022-06-03T20:55:25.833Z</time>
      </trkpt>
      <trkpt lat="42.98261" lon="2.41425">
        <ele>716.95491</ele>
        <time>2022-06-03T20:55:30.415Z</time>
      </trkpt>
      <trkpt lat="42.98238" lon="2.41416">
        <ele>717.58496</ele>
        <time>2022-06-03T20:55:35.642Z</time>
      </trkpt>
      <trkpt lat="42.98217" lon="2.41426">
        <ele>718.160447</ele>
        <time>2022-06-03T20:55:40.463Z</time>
      </trkpt>
      <trkpt lat="42.98194" lon="2.41474">
        <ele>718.375612</ele>
        <time>2022-06-03T20:55:47.479Z</time>
      </trkpt>
      <trkpt lat="42.98172" lon="2.41488">
        <ele>717.944744</ele>
        <time>2022-06-03T20:55:50.941Z</time>
      </trkpt>
      <trkpt lat="42.98164" lon="2.41487">
        <ele>717.790249</ele>
        <time>2022-06-03T20:55:52.844Z</time>
      </trkpt>
      <trkpt lat="42.9816" lon="2.41511">
        <ele>717.462042</ele>
        <time>2022-06-03T20:55:57.201Z</time>
      </trkpt>
      <trkpt lat="42.98112" lon="2.41594">
        <ele>716.046746</ele>
        <time>2022-06-03T20:56:17.500Z</time>
      </trkpt>
      <trkpt lat="42.98097" lon="2.4161">
        <ele>715.692581</ele>
        <time>2022-06-03T20:56:22.710Z</time>
      </trkpt>
      <trkpt lat="42.98062" lon="2.41629">
        <ele>714.279995</ele>
        <time>2022-06-03T20:56:31.726Z</time>
      </trkpt>
      <trkpt lat="42.98014" lon="2.41704">
        <ele>710.702992</ele>
        <time>2022-06-03T20:56:48.978Z</time>
      </trkpt>
      <trkpt lat="42.97983" lon="2.41737">
        <ele>708.78241</ele>
        <time>2022-06-03T20:56:57.890Z</time>
      </trkpt>
      <trkpt lat="42.97872" lon="2.41899">
        <ele>698.552966</ele>
        <time>2022-06-03T20:57:33.515Z</time>
      </trkpt>
      <trkpt lat="42.97806" lon="2.41981">
        <ele>693.011263</ele>
        <time>2022-06-03T20:57:52.927Z</time>
      </trkpt>
      <trkpt lat="42.97769" lon="2.42011">
        <ele>690.89207</ele>
        <time>2022-06-03T20:58:02.732Z</time>
      </trkpt>
      <trkpt lat="42.97744" lon="2.42043">
        <ele>689.247584</ele>
        <time>2022-06-03T20:58:10.603Z</time>
      </trkpt>
      <trkpt lat="42.97685" lon="2.4209">
        <ele>685.872795</ele>
        <time>2022-06-03T20:58:27.175Z</time>
      </trkpt>
      <trkpt lat="42.97649" lon="2.42101">
        <ele>683.475997</ele>
        <time>2022-06-03T20:58:36.240Z</time>
      </trkpt>
      <trkpt lat="42.97568" lon="2.42103">
        <ele>677.913078</ele>
        <time>2022-06-03T20:58:54.810Z</time>
      </trkpt>
      <trkpt lat="42.97505" lon="2.42143">
        <ele>673.02392</ele>
        <time>2022-06-03T20:59:09.422Z</time>
      </trkpt>
      <trkpt lat="42.97332" lon="2.42228">
        <ele>648.911904</ele>
        <time>2022-06-03T20:59:45.273Z</time>
      </trkpt>
      <trkpt lat="42.97298" lon="2.4222">
        <ele>645.676116</ele>
        <time>2022-06-03T20:59:52.106Z</time>
      </trkpt>
      <trkpt lat="42.97243" lon="2.42175">
        <ele>639.777634</ele>
        <time>2022-06-03T21:00:05.061Z</time>
      </trkpt>
      <trkpt lat="42.9721" lon="2.42159">
        <ele>636.513269</ele>
        <time>2022-06-03T21:00:12.571Z</time>
      </trkpt>
      <trkpt lat="42.97166" lon="2.42148">
        <ele>632.657807</ele>
        <time>2022-06-03T21:00:22.901Z</time>
      </trkpt>
      <trkpt lat="42.97153" lon="2.42151">
        <ele>632.505935</ele>
        <time>2022-06-03T21:00:26.044Z</time>
      </trkpt>
      <trkpt lat="42.97139" lon="2.42163">
        <ele>632.306351</ele>
        <time>2022-06-03T21:00:30.421Z</time>
      </trkpt>
      <trkpt lat="42.97106" lon="2.42221">
        <ele>631.678526</ele>
        <time>2022-06-03T21:00:44.552Z</time>
      </trkpt>
      <trkpt lat="42.97049" lon="2.42291">
        <ele>630.784041</ele>
        <time>2022-06-03T21:01:07.178Z</time>
      </trkpt>
      <trkpt lat="42.97017" lon="2.42319">
        <ele>631.194735</ele>
        <time>2022-06-03T21:01:19.948Z</time>
      </trkpt>
      <trkpt lat="42.96974" lon="2.42344">
        <ele>632.459659</ele>
        <time>2022-06-03T21:01:39.264Z</time>
      </trkpt>
      <trkpt lat="42.96921" lon="2.42362">
        <ele>633.962191</ele>
        <time>2022-06-03T21:02:03.357Z</time>
      </trkpt>
      <trkpt lat="42.96881" lon="2.42399">
        <ele>635.307278</ele>
        <time>2022-06-03T21:02:23.815Z</time>
      </trkpt>
      <trkpt lat="42.96844" lon="2.42438">
        <ele>636.562574</ele>
        <time>2022-06-03T21:02:44.091Z</time>
      </trkpt>
      <trkpt lat="42.96801" lon="2.42447">
        <ele>637.724478</ele>
        <time>2022-06-03T21:03:01.900Z</time>
      </trkpt>
      <trkpt lat="42.96783" lon="2.4246">
        <ele>638.269027</ele>
        <time>2022-06-03T21:03:10.013Z</time>
      </trkpt>
      <trkpt lat="42.96754" lon="2.42498">
        <ele>639.366602</ele>
        <time>2022-06-03T21:03:27.153Z</time>
      </trkpt>
      <trkpt lat="42.96688" lon="2.42623">
        <ele>641.289586</ele>
        <time>2022-06-03T21:04:07.941Z</time>
      </trkpt>
      <trkpt lat="42.96665" lon="2.42657">
        <ele>641.696707</ele>
        <time>2022-06-03T21:04:19.352Z</time>
      </trkpt>
      <trkpt lat="42.96641" lon="2.4272">
        <ele>642.331698</ele>
        <time>2022-06-03T21:04:36.018Z</time>
      </trkpt>
      <trkpt lat="42.96575" lon="2.42859">
        <ele>643.965629</ele>
        <time>2022-06-03T21:05:15.598Z</time>
      </trkpt>
      <trkpt lat="42.96492" lon="2.42969">
        <ele>646.003024</ele>
        <time>2022-06-03T21:05:59.635Z</time>
      </trkpt>
      <trkpt lat="42.96434" lon="2.43017">
        <ele>647.750948</ele>
        <time>2022-06-03T21:06:27.672Z</time>
      </trkpt>
      <trkpt lat="42.96411" lon="2.43015">
        <ele>648.348479</ele>
        <time>2022-06-03T21:06:35.583Z</time>
      </trkpt>
      <trkpt lat="42.96353" lon="2.43046">
        <ele>649.625148</ele>
        <time>2022-06-03T21:06:53.166Z</time>
      </trkpt>
      <trkpt lat="42.96298" lon="2.43042">
        <ele>649.487029</ele>
        <time>2022-06-03T21:07:06.776Z</time>
      </trkpt>
      <trkpt lat="42.96262" lon="2.43049">
        <ele>649.396817</ele>
        <time>2022-06-03T21:07:14.598Z</time>
      </trkpt>
      <trkpt lat="42.96193" lon="2.43103">
        <ele>649.100359</ele>
        <time>2022-06-03T21:07:26.714Z</time>
      </trkpt>
      <trkpt lat="42.96145" lon="2.43117">
        <ele>647.151266</ele>
        <time>2022-06-03T21:07:33.570Z</time>
      </trkpt>
      <trkpt lat="42.96109" lon="2.43139">
        <ele>645.611495</ele>
        <time>2022-06-03T21:07:38.788Z</time>
      </trkpt>
      <trkpt lat="42.9606" lon="2.43151">
        <ele>643.641549</ele>
        <time>2022-06-03T21:07:45.538Z</time>
      </trkpt>
      <trkpt lat="42.95998" lon="2.43158">
        <ele>641.614511</ele>
        <time>2022-06-03T21:07:54.235Z</time>
      </trkpt>
      <trkpt lat="42.95958" lon="2.43171">
        <ele>640.733054</ele>
        <time>2022-06-03T21:08:00.151Z</time>
      </trkpt>
      <trkpt lat="42.95942" lon="2.43183">
        <ele>640.341687</ele>
        <time>2022-06-03T21:08:02.905Z</time>
      </trkpt>
      <trkpt lat="42.95861" lon="2.43289">
        <ele>638.169493</ele>
        <time>2022-06-03T21:08:21.034Z</time>
      </trkpt>
      <trkpt lat="42.95834" lon="2.43293">
        <ele>638.018002</ele>
        <time>2022-06-03T21:08:25.957Z</time>
      </trkpt>
      <trkpt lat="42.9579" lon="2.43246">
        <ele>637.708708</ele>
        <time>2022-06-03T21:08:35.276Z</time>
      </trkpt>
      <trkpt lat="42.95715" lon="2.432">
        <ele>637.253303</ele>
        <time>2022-06-03T21:08:50.284Z</time>
      </trkpt>
      <trkpt lat="42.95672" lon="2.43144">
        <ele>638.162362</ele>
        <time>2022-06-03T21:09:00.734Z</time>
      </trkpt>
      <trkpt lat="42.95658" lon="2.43119">
        <ele>638.511067</ele>
        <time>2022-06-03T21:09:05.932Z</time>
      </trkpt>
      <trkpt lat="42.95611" lon="2.43082">
        <ele>639.338764</ele>
        <time>2022-06-03T21:09:19.815Z</time>
      </trkpt>
      <trkpt lat="42.95566" lon="2.43027">
        <ele>640.762494</ele>
        <time>2022-06-03T21:09:38.919Z</time>
      </trkpt>
      <trkpt lat="42.95481" lon="2.42866">
        <ele>647.329945</ele>
        <time>2022-06-03T21:10:36.058Z</time>
      </trkpt>
      <trkpt lat="42.95422" lon="2.42809">
        <ele>648.928103</ele>
        <time>2022-06-03T21:11:00.514Z</time>
      </trkpt>
      <trkpt lat="42.95384" lon="2.4279">
        <ele>649.513551</ele>
        <time>2022-06-03T21:11:11.100Z</time>
      </trkpt>
      <trkpt lat="42.95325" lon="2.42789">
        <ele>650.383555</ele>
        <time>2022-06-03T21:11:23.381Z</time>
      </trkpt>
      <trkpt lat="42.95295" lon="2.42803">
        <ele>650.578301</ele>
        <time>2022-06-03T21:11:28.552Z</time>
      </trkpt>
      <trkpt lat="42.95264" lon="2.42836">
        <ele>649.467594</ele>
        <time>2022-06-03T21:11:34.399Z</time>
      </trkpt>
      <trkpt lat="42.95243" lon="2.4285">
        <ele>648.815479</ele>
        <time>2022-06-03T21:11:37.757Z</time>
      </trkpt>
      <trkpt lat="42.95186" lon="2.42849">
        <ele>647.236298</ele>
        <time>2022-06-03T21:11:45.984Z</time>
      </trkpt>
      <trkpt lat="42.95156" lon="2.42862">
        <ele>646.360084</ele>
        <time>2022-06-03T21:11:50.494Z</time>
      </trkpt>
      <trkpt lat="42.9511" lon="2.42895">
        <ele>644.821907</ele>
        <time>2022-06-03T21:11:57.724Z</time>
      </trkpt>
      <trkpt lat="42.95" lon="2.42927">
        <ele>641.304618</ele>
        <time>2022-06-03T21:12:13.685Z</time>
      </trkpt>
      <trkpt lat="42.94986" lon="2.42947">
        <ele>640.676769</ele>
        <time>2022-06-03T21:12:16.586Z</time>
      </trkpt>
      <trkpt lat="42.95003" lon="2.43015">
        <ele>639.739551</ele>
        <time>2022-06-03T21:12:24.592Z</time>
      </trkpt>
      <trkpt lat="42.94995" lon="2.43052">
        <ele>639.42802</ele>
        <time>2022-06-03T21:12:29.007Z</time>
      </trkpt>
      <trkpt lat="42.94986" lon="2.43065">
        <ele>639.287501</ele>
        <time>2022-06-03T21:12:31.083Z</time>
      </trkpt>
      <trkpt lat="42.94962" lon="2.43078">
        <ele>638.999684</ele>
        <time>2022-06-03T21:12:35.329Z</time>
      </trkpt>
      <trkpt lat="42.94929" lon="2.43081">
        <ele>638.636336</ele>
        <time>2022-06-03T21:12:40.933Z</time>
      </trkpt>
      <trkpt lat="42.94899" lon="2.43092">
        <ele>638.299965</ele>
        <time>2022-06-03T21:12:46.621Z</time>
      </trkpt>
      <trkpt lat="42.94845" lon="2.43131">
        <ele>638.496143</ele>
        <time>2022-06-03T21:12:59.431Z</time>
      </trkpt>
      <trkpt lat="42.94812" lon="2.43164">
        <ele>638.801604</ele>
        <time>2022-06-03T21:13:08.969Z</time>
      </trkpt>
      <trkpt lat="42.94719" lon="2.43178">
        <ele>639.468781</ele>
        <time>2022-06-03T21:13:30.008Z</time>
      </trkpt>
      <trkpt lat="42.94659" lon="2.43161">
        <ele>639.35644</ele>
        <time>2022-06-03T21:13:42.015Z</time>
      </trkpt>
      <trkpt lat="42.94614" lon="2.43161">
        <ele>639.273989</ele>
        <time>2022-06-03T21:13:49.827Z</time>
      </trkpt>
      <trkpt lat="42.94488" lon="2.43189">
        <ele>639.959186</ele>
        <time>2022-06-03T21:14:11.899Z</time>
      </trkpt>
      <trkpt lat="42.94477" lon="2.43187">
        <ele>640.112613</ele>
        <time>2022-06-03T21:14:13.614Z</time>
      </trkpt>
      <trkpt lat="42.94461" lon="2.43147">
        <ele>640.60246</ele>
        <time>2022-06-03T21:14:20.221Z</time>
      </trkpt>
      <trkpt lat="42.94475" lon="2.43105">
        <ele>641.09452</ele>
        <time>2022-06-03T21:14:29.099Z</time>
      </trkpt>
      <trkpt lat="42.94444" lon="2.43089">
        <ele>641.576283</ele>
        <time>2022-06-03T21:14:40.720Z</time>
      </trkpt>
      <trkpt lat="42.94403" lon="2.43055">
        <ele>643.986469</ele>
        <time>2022-06-03T21:14:59.634Z</time>
      </trkpt>
      <trkpt lat="42.94389" lon="2.43051">
        <ele>644.880571</ele>
        <time>2022-06-03T21:15:05.023Z</time>
      </trkpt>
      <trkpt lat="42.94343" lon="2.43058">
        <ele>647.819231</ele>
        <time>2022-06-03T21:15:25.057Z</time>
      </trkpt>
      <trkpt lat="42.94329" lon="2.43058">
        <ele>648.711087</ele>
        <time>2022-06-03T21:15:32.315Z</time>
      </trkpt>
      <trkpt lat="42.94295" lon="2.43017">
        <ele>651.568439</ele>
        <time>2022-06-03T21:15:51.897Z</time>
      </trkpt>
      <trkpt lat="42.9428" lon="2.43007">
        <ele>652.608794</ele>
        <time>2022-06-03T21:15:59.679Z</time>
      </trkpt>
      <trkpt lat="42.94256" lon="2.43003">
        <ele>654.807412</ele>
        <time>2022-06-03T21:16:11.226Z</time>
      </trkpt>
      <trkpt lat="42.94182" lon="2.42971">
        <ele>662.899792</ele>
        <time>2022-06-03T21:16:57.593Z</time>
      </trkpt>
      <trkpt lat="42.94155" lon="2.42977">
        <ele>665.702311</ele>
        <time>2022-06-03T21:17:14.749Z</time>
      </trkpt>
      <trkpt lat="42.94117" lon="2.43005">
        <ele>670.219491</ele>
        <time>2022-06-03T21:17:44.028Z</time>
      </trkpt>
      <trkpt lat="42.9407" lon="2.43023">
        <ele>674.888866</ele>
        <time>2022-06-03T21:18:16.916Z</time>
      </trkpt>
      <trkpt lat="42.94005" lon="2.43063">
        <ele>681.531655</ele>
        <time>2022-06-03T21:19:01.485Z</time>
      </trkpt>
      <trkpt lat="42.93974" lon="2.43067">
        <ele>684.457301</ele>
        <time>2022-06-03T21:19:18.834Z</time>
      </trkpt>
      <trkpt lat="42.93957" lon="2.43064">
        <ele>685.99788</ele>
        <time>2022-06-03T21:19:27.159Z</time>
      </trkpt>
      <trkpt lat="42.93944" lon="2.43054">
        <ele>687.394554</ele>
        <time>2022-06-03T21:19:33.926Z</time>
      </trkpt>
      <trkpt lat="42.9393" lon="2.43033">
        <ele>688.507019</ele>
        <time>2022-06-03T21:19:42.348Z</time>
      </trkpt>
      <trkpt lat="42.93884" lon="2.42929">
        <ele>689.061783</ele>
        <time>2022-06-03T21:20:03.905Z</time>
      </trkpt>
      <trkpt lat="42.93866" lon="2.42867">
        <ele>689.367114</ele>
        <time>2022-06-03T21:20:11.492Z</time>
      </trkpt>
      <trkpt lat="42.93819" lon="2.4276">
        <ele>688.293861</ele>
        <time>2022-06-03T21:20:24.926Z</time>
      </trkpt>
      <trkpt lat="42.9379" lon="2.42678">
        <ele>686.830484</ele>
        <time>2022-06-03T21:20:34.985Z</time>
      </trkpt>
      <trkpt lat="42.93774" lon="2.4266">
        <ele>686.391879</ele>
        <time>2022-06-03T21:20:38.300Z</time>
      </trkpt>
      <trkpt lat="42.93764" lon="2.42668">
        <ele>686.142459</ele>
        <time>2022-06-03T21:20:39.913Z</time>
      </trkpt>
      <trkpt lat="42.93764" lon="2.42682">
        <ele>685.913946</ele>
        <time>2022-06-03T21:20:41.784Z</time>
      </trkpt>
      <trkpt lat="42.93783" lon="2.42757">
        <ele>684.424555</ele>
        <time>2022-06-03T21:20:51.122Z</time>
      </trkpt>
      <trkpt lat="42.93794" lon="2.4278">
        <ele>683.902669</ele>
        <time>2022-06-03T21:20:54.183Z</time>
      </trkpt>
      <trkpt lat="42.93825" lon="2.42818">
        <ele>682.786193</ele>
        <time>2022-06-03T21:21:00.210Z</time>
      </trkpt>
      <trkpt lat="42.93841" lon="2.42852">
        <ele>682.009963</ele>
        <time>2022-06-03T21:21:04.253Z</time>
      </trkpt>
      <trkpt lat="42.93845" lon="2.42908">
        <ele>680.903115</ele>
        <time>2022-06-03T21:21:10.256Z</time>
      </trkpt>
      <trkpt lat="42.93845" lon="2.42948">
        <ele>680.801891</ele>
        <time>2022-06-03T21:21:14.387Z</time>
      </trkpt>
      <trkpt lat="42.93835" lon="2.42971">
        <ele>680.756668</ele>
        <time>2022-06-03T21:21:17.254Z</time>
      </trkpt>
      <trkpt lat="42.9376" lon="2.43008">
        <ele>680.577534</ele>
        <time>2022-06-03T21:21:30.809Z</time>
      </trkpt>
      <trkpt lat="42.93744" lon="2.43028">
        <ele>680.529544</ele>
        <time>2022-06-03T21:21:36.624Z</time>
      </trkpt>
      <trkpt lat="42.93738" lon="2.43047">
        <ele>680.495173</ele>
        <time>2022-06-03T21:21:40.227Z</time>
      </trkpt>
      <trkpt lat="42.93737" lon="2.43087">
        <ele>681.248895</ele>
        <time>2022-06-03T21:21:49.293Z</time>
      </trkpt>
      <trkpt lat="42.9372" lon="2.43132">
        <ele>683.446762</ele>
        <time>2022-06-03T21:22:04.600Z</time>
      </trkpt>
      <trkpt lat="42.93723" lon="2.43203">
        <ele>686.583137</ele>
        <time>2022-06-03T21:22:29.453Z</time>
      </trkpt>
      <trkpt lat="42.93741" lon="2.43239">
        <ele>688.465361</ele>
        <time>2022-06-03T21:22:44.189Z</time>
      </trkpt>
      <trkpt lat="42.93742" lon="2.43256">
        <ele>689.212677</ele>
        <time>2022-06-03T21:22:49.649Z</time>
      </trkpt>
      <trkpt lat="42.9373" lon="2.43282">
        <ele>690.522289</ele>
        <time>2022-06-03T21:23:00.140Z</time>
      </trkpt>
      <trkpt lat="42.93735" lon="2.43334">
        <ele>692.308409</ele>
        <time>2022-06-03T21:23:17.934Z</time>
      </trkpt>
      <trkpt lat="42.93734" lon="2.43348">
        <ele>692.754491</ele>
        <time>2022-06-03T21:23:22.819Z</time>
      </trkpt>
      <trkpt lat="42.93728" lon="2.43357">
        <ele>693.124554</ele>
        <time>2022-06-03T21:23:26.521Z</time>
      </trkpt>
      <trkpt lat="42.93717" lon="2.43354">
        <ele>693.573878</ele>
        <time>2022-06-03T21:23:31.510Z</time>
      </trkpt>
      <trkpt lat="42.93654" lon="2.43282">
        <ele>696.986067</ele>
        <time>2022-06-03T21:23:57.057Z</time>
      </trkpt>
      <trkpt lat="42.93638" lon="2.43275">
        <ele>697.663216</ele>
        <time>2022-06-03T21:24:00.936Z</time>
      </trkpt>
      <trkpt lat="42.93603" lon="2.43287">
        <ele>699.154274</ele>
        <time>2022-06-03T21:24:10.931Z</time>
      </trkpt>
      <trkpt lat="42.93599" lon="2.43283">
        <ele>699.368779</ele>
        <time>2022-06-03T21:24:12.401Z</time>
      </trkpt>
      <trkpt lat="42.93595" lon="2.43271">
        <ele>699.739592</ele>
        <time>2022-06-03T21:24:14.940Z</time>
      </trkpt>
      <trkpt lat="42.93602" lon="2.43222">
        <ele>701.218644</ele>
        <time>2022-06-03T21:24:26.355Z</time>
      </trkpt>
      <trkpt lat="42.93597" lon="2.43205">
        <ele>701.767428</ele>
        <time>2022-06-03T21:24:31.163Z</time>
      </trkpt>
      <trkpt lat="42.93565" lon="2.43152">
        <ele>703.759812</ele>
        <time>2022-06-03T21:24:50.466Z</time>
      </trkpt>
      <trkpt lat="42.93535" lon="2.43124">
        <ele>705.2475</ele>
        <time>2022-06-03T21:25:05.185Z</time>
      </trkpt>
      <trkpt lat="42.93525" lon="2.43096">
        <ele>706.183482</ele>
        <time>2022-06-03T21:25:12.892Z</time>
      </trkpt>
      <trkpt lat="42.93506" lon="2.43066">
        <ele>707.433426</ele>
        <time>2022-06-03T21:25:23.589Z</time>
      </trkpt>
      <trkpt lat="42.9348" lon="2.43058">
        <ele>708.625942</ele>
        <time>2022-06-03T21:25:34.159Z</time>
      </trkpt>
      <trkpt lat="42.93443" lon="2.43085">
        <ele>710.438476</ele>
        <time>2022-06-03T21:25:50.497Z</time>
      </trkpt>
      <trkpt lat="42.93425" lon="2.43077">
        <ele>711.275767</ele>
        <time>2022-06-03T21:25:58.456Z</time>
      </trkpt>
      <trkpt lat="42.93418" lon="2.43064">
        <ele>711.790109</ele>
        <time>2022-06-03T21:26:02.606Z</time>
      </trkpt>
      <trkpt lat="42.93404" lon="2.42978">
        <ele>713.576051</ele>
        <time>2022-06-03T21:26:23.097Z</time>
      </trkpt>
      <trkpt lat="42.93396" lon="2.42968">
        <ele>713.549989</ele>
        <time>2022-06-03T21:26:25.725Z</time>
      </trkpt>
      <trkpt lat="42.93369" lon="2.42959">
        <ele>713.483692</ele>
        <time>2022-06-03T21:26:32.159Z</time>
      </trkpt>
      <trkpt lat="42.93362" lon="2.4295">
        <ele>713.460236</ele>
        <time>2022-06-03T21:26:33.928Z</time>
      </trkpt>
      <trkpt lat="42.93352" lon="2.42898">
        <ele>713.365168</ele>
        <time>2022-06-03T21:26:40.878Z</time>
      </trkpt>
      <trkpt lat="42.93321" lon="2.42794">
        <ele>712.781354</ele>
        <time>2022-06-03T21:26:53.686Z</time>
      </trkpt>
      <trkpt lat="42.93256" lon="2.42695">
        <ele>709.447021</ele>
        <time>2022-06-03T21:27:06.633Z</time>
      </trkpt>
      <trkpt lat="42.93238" lon="2.42682">
        <ele>708.760044</ele>
        <time>2022-06-03T21:27:09.233Z</time>
      </trkpt>
      <trkpt lat="42.9322" lon="2.42682">
        <ele>708.123925</ele>
        <time>2022-06-03T21:27:11.696Z</time>
      </trkpt>
      <trkpt lat="42.93126" lon="2.42729">
        <ele>707.691594</ele>
        <time>2022-06-03T21:27:29.374Z</time>
      </trkpt>
      <trkpt lat="42.93102" lon="2.42736">
        <ele>707.928035</ele>
        <time>2022-06-03T21:27:35.399Z</time>
      </trkpt>
      <trkpt lat="42.93082" lon="2.42733">
        <ele>708.129904</ele>
        <time>2022-06-03T21:27:39.970Z</time>
      </trkpt>
      <trkpt lat="42.93036" lon="2.42709">
        <ele>708.622795</ele>
        <time>2022-06-03T21:27:53.989Z</time>
      </trkpt>
      <trkpt lat="42.93007" lon="2.42686">
        <ele>708.923981</ele>
        <time>2022-06-03T21:28:03.917Z</time>
      </trkpt>
      <trkpt lat="42.92963" lon="2.42666">
        <ele>709.304094</ele>
        <time>2022-06-03T21:28:19.460Z</time>
      </trkpt>
      <trkpt lat="42.92948" lon="2.42649">
        <ele>709.459855</ele>
        <time>2022-06-03T21:28:26.198Z</time>
      </trkpt>
      <trkpt lat="42.9294" lon="2.42619">
        <ele>709.652591</ele>
        <time>2022-06-03T21:28:33.556Z</time>
      </trkpt>
      <trkpt lat="42.9293" lon="2.42531">
        <ele>710.177847</ele>
        <time>2022-06-03T21:28:43.767Z</time>
      </trkpt>
      <trkpt lat="42.92921" lon="2.4252">
        <ele>710.145895</ele>
        <time>2022-06-03T21:28:45.454Z</time>
      </trkpt>
      <trkpt lat="42.92912" lon="2.42521">
        <ele>709.643612</ele>
        <time>2022-06-03T21:28:46.783Z</time>
      </trkpt>
      <trkpt lat="42.9285" lon="2.42565">
        <ele>705.973651</ele>
        <time>2022-06-03T21:28:56.218Z</time>
      </trkpt>
      <trkpt lat="42.92808" lon="2.42577">
        <ele>703.712454</ele>
        <time>2022-06-03T21:29:01.634Z</time>
      </trkpt>
      <trkpt lat="42.92777" lon="2.4256">
        <ele>701.946069</ele>
        <time>2022-06-03T21:29:05.847Z</time>
      </trkpt>
      <trkpt lat="42.92731" lon="2.42507">
        <ele>699.77316</ele>
        <time>2022-06-03T21:29:13.583Z</time>
      </trkpt>
      <trkpt lat="42.92711" lon="2.425">
        <ele>699.246332</ele>
        <time>2022-06-03T21:29:16.502Z</time>
      </trkpt>
      <trkpt lat="42.92693" lon="2.42503">
        <ele>698.763554</ele>
        <time>2022-06-03T21:29:18.799Z</time>
      </trkpt>
      <trkpt lat="42.92664" lon="2.42511">
        <ele>697.979388</ele>
        <time>2022-06-03T21:29:23.259Z</time>
      </trkpt>
      <trkpt lat="42.92653" lon="2.42516">
        <ele>697.66466</ele>
        <time>2022-06-03T21:29:25.093Z</time>
      </trkpt>
      <trkpt lat="42.92535" lon="2.42567">
        <ele>697.59763</ele>
        <time>2022-06-03T21:29:52.883Z</time>
      </trkpt>
      <trkpt lat="42.92417" lon="2.42687">
        <ele>701.223963</ele>
        <time>2022-06-03T21:30:41.013Z</time>
      </trkpt>
      <trkpt lat="42.92365" lon="2.4268">
        <ele>702.388334</ele>
        <time>2022-06-03T21:30:54.945Z</time>
      </trkpt>
      <trkpt lat="42.92304" lon="2.42762">
        <ele>704.303641</ele>
        <time>2022-06-03T21:31:16.005Z</time>
      </trkpt>
      <trkpt lat="42.92285" lon="2.42771">
        <ele>705.134334</ele>
        <time>2022-06-03T21:31:20.255Z</time>
      </trkpt>
      <trkpt lat="42.92234" lon="2.42774">
        <ele>709.281818</ele>
        <time>2022-06-03T21:31:34.909Z</time>
      </trkpt>
      <trkpt lat="42.92208" lon="2.42785">
        <ele>711.445077</ele>
        <time>2022-06-03T21:31:48.492Z</time>
      </trkpt>
      <trkpt lat="42.92173" lon="2.42825">
        <ele>715.157702</ele>
        <time>2022-06-03T21:32:14.994Z</time>
      </trkpt>
      <trkpt lat="42.92147" lon="2.42842">
        <ele>717.427833</ele>
        <time>2022-06-03T21:32:33.699Z</time>
      </trkpt>
      <trkpt lat="42.92113" lon="2.42878">
        <ele>722.485868</ele>
        <time>2022-06-03T21:33:06.031Z</time>
      </trkpt>
      <trkpt lat="42.92083" lon="2.42923">
        <ele>729.03837</ele>
        <time>2022-06-03T21:33:43.411Z</time>
      </trkpt>
      <trkpt lat="42.92056" lon="2.42946">
        <ele>733.863056</ele>
        <time>2022-06-03T21:34:09.923Z</time>
      </trkpt>
      <trkpt lat="42.91973" lon="2.42966">
        <ele>746.066349</ele>
        <time>2022-06-03T21:35:21.264Z</time>
      </trkpt>
      <trkpt lat="42.91852" lon="2.42971">
        <ele>756.341937</ele>
        <time>2022-06-03T21:36:28.284Z</time>
      </trkpt>
      <trkpt lat="42.91843" lon="2.42965">
        <ele>757.144183</ele>
        <time>2022-06-03T21:36:32.234Z</time>
      </trkpt>
      <trkpt lat="42.91841" lon="2.42953">
        <ele>757.89789</ele>
        <time>2022-06-03T21:36:35.822Z</time>
      </trkpt>
      <trkpt lat="42.91851" lon="2.42931">
        <ele>759.514129</ele>
        <time>2022-06-03T21:36:42.878Z</time>
      </trkpt>
      <trkpt lat="42.91861" lon="2.42884">
        <ele>761.34428</ele>
        <time>2022-06-03T21:36:54.587Z</time>
      </trkpt>
      <trkpt lat="42.91867" lon="2.42787">
        <ele>762.671462</ele>
        <time>2022-06-03T21:37:14.046Z</time>
      </trkpt>
      <trkpt lat="42.91852" lon="2.42741">
        <ele>763.361712</ele>
        <time>2022-06-03T21:37:22.061Z</time>
      </trkpt>
      <trkpt lat="42.9181" lon="2.42685">
        <ele>764.256575</ele>
        <time>2022-06-03T21:37:35.224Z</time>
      </trkpt>
      <trkpt lat="42.91802" lon="2.42644">
        <ele>763.600006</ele>
        <time>2022-06-03T21:37:41.515Z</time>
      </trkpt>
      <trkpt lat="42.91804" lon="2.42593">
        <ele>762.801642</ele>
        <time>2022-06-03T21:37:47.856Z</time>
      </trkpt>
      <trkpt lat="42.91837" lon="2.42454">
        <ele>760.519265</ele>
        <time>2022-06-03T21:38:03.015Z</time>
      </trkpt>
      <trkpt lat="42.91843" lon="2.42307">
        <ele>756.337717</ele>
        <time>2022-06-03T21:38:17.803Z</time>
      </trkpt>
      <trkpt lat="42.91845" lon="2.42287">
        <ele>755.783918</ele>
        <time>2022-06-03T21:38:19.716Z</time>
      </trkpt>
      <trkpt lat="42.9183" lon="2.42243">
        <ele>754.414293</ele>
        <time>2022-06-03T21:38:24.609Z</time>
      </trkpt>
      <trkpt lat="42.91784" lon="2.42153">
        <ele>752.990704</ele>
        <time>2022-06-03T21:38:36.354Z</time>
      </trkpt>
      <trkpt lat="42.91768" lon="2.42128">
        <ele>752.743451</ele>
        <time>2022-06-03T21:38:40.197Z</time>
      </trkpt>
      <trkpt lat="42.91754" lon="2.42118">
        <ele>752.579747</ele>
        <time>2022-06-03T21:38:42.987Z</time>
      </trkpt>
      <trkpt lat="42.91727" lon="2.42135">
        <ele>752.269505</ele>
        <time>2022-06-03T21:38:48.774Z</time>
      </trkpt>
      <trkpt lat="42.91709" lon="2.42134">
        <ele>752.090475</ele>
        <time>2022-06-03T21:38:52.393Z</time>
      </trkpt>
      <trkpt lat="42.917" lon="2.42126">
        <ele>751.977119</ele>
        <time>2022-06-03T21:38:54.616Z</time>
      </trkpt>
      <trkpt lat="42.91683" lon="2.42093">
        <ele>751.942792</ele>
        <time>2022-06-03T21:39:01.091Z</time>
      </trkpt>
      <trkpt lat="42.91666" lon="2.42017">
        <ele>753.127459</ele>
        <time>2022-06-03T21:39:15.300Z</time>
      </trkpt>
      <trkpt lat="42.91654" lon="2.41997">
        <ele>753.521818</ele>
        <time>2022-06-03T21:39:20.836Z</time>
      </trkpt>
      <trkpt lat="42.91635" lon="2.41998">
        <ele>753.912761</ele>
        <time>2022-06-03T21:39:26.621Z</time>
      </trkpt>
      <trkpt lat="42.91565" lon="2.42061">
        <ele>755.399089</ele>
        <time>2022-06-03T21:39:51.530Z</time>
      </trkpt>
      <trkpt lat="42.91521" lon="2.42069">
        <ele>755.063854</ele>
        <time>2022-06-03T21:40:03.523Z</time>
      </trkpt>
      <trkpt lat="42.91453" lon="2.4209">
        <ele>754.548357</ele>
        <time>2022-06-03T21:40:16.775Z</time>
      </trkpt>
      <trkpt lat="42.91428" lon="2.42113">
        <ele>754.326101</ele>
        <time>2022-06-03T21:40:21.563Z</time>
      </trkpt>
      <trkpt lat="42.91313" lon="2.42329">
        <ele>742.644892</ele>
        <time>2022-06-03T21:40:46.588Z</time>
      </trkpt>
      <trkpt lat="42.91272" lon="2.42411">
        <ele>735.213507</ele>
        <time>2022-06-03T21:40:55.155Z</time>
      </trkpt>
      <trkpt lat="42.91253" lon="2.42435">
        <ele>732.386947</ele>
        <time>2022-06-03T21:40:58.201Z</time>
      </trkpt>
      <trkpt lat="42.91155" lon="2.42509">
        <ele>720.580521</ele>
        <time>2022-06-03T21:41:11.097Z</time>
      </trkpt>
      <trkpt lat="42.9105" lon="2.42561">
        <ele>709.905356</ele>
        <time>2022-06-03T21:41:24.523Z</time>
      </trkpt>
      <trkpt lat="42.91034" lon="2.4259">
        <ele>707.393021</ele>
        <time>2022-06-03T21:41:27.750Z</time>
      </trkpt>
      <trkpt lat="42.91009" lon="2.4266">
        <ele>702.741958</ele>
        <time>2022-06-03T21:41:34.913Z</time>
      </trkpt>
      <trkpt lat="42.90981" lon="2.42696">
        <ele>699.946943</ele>
        <time>2022-06-03T21:41:39.685Z</time>
      </trkpt>
      <trkpt lat="42.90973" lon="2.42698">
        <ele>699.403331</ele>
        <time>2022-06-03T21:41:40.605Z</time>
      </trkpt>
      <trkpt lat="42.90964" lon="2.42695">
        <ele>698.709382</ele>
        <time>2022-06-03T21:41:41.801Z</time>
      </trkpt>
      <trkpt lat="42.90919" lon="2.42624">
        <ele>693.681424</ele>
        <time>2022-06-03T21:41:50.425Z</time>
      </trkpt>
      <trkpt lat="42.90823" lon="2.42582">
        <ele>688.272595</ele>
        <time>2022-06-03T21:42:03.265Z</time>
      </trkpt>
      <trkpt lat="42.90769" lon="2.4259">
        <ele>685.627106</ele>
        <time>2022-06-03T21:42:10.499Z</time>
      </trkpt>
      <trkpt lat="42.90768" lon="2.42583">
        <ele>685.36626</ele>
        <time>2022-06-03T21:42:11.228Z</time>
      </trkpt>
      <trkpt lat="42.90758" lon="2.42502">
        <ele>683.754625</ele>
        <time>2022-06-03T21:42:19.623Z</time>
      </trkpt>
      <trkpt lat="42.90755" lon="2.42474">
        <ele>684.128752</ele>
        <time>2022-06-03T21:42:23.042Z</time>
      </trkpt>
      <trkpt lat="42.90745" lon="2.4244">
        <ele>684.599829</ele>
        <time>2022-06-03T21:42:28.384Z</time>
      </trkpt>
      <trkpt lat="42.90694" lon="2.42321">
        <ele>686.395368</ele>
        <time>2022-06-03T21:43:00.509Z</time>
      </trkpt>
      <trkpt lat="42.90687" lon="2.42239">
        <ele>689.108493</ele>
        <time>2022-06-03T21:43:22.941Z</time>
      </trkpt>
      <trkpt lat="42.90669" lon="2.42119">
        <ele>693.689437</ele>
        <time>2022-06-03T21:43:58.206Z</time>
      </trkpt>
      <trkpt lat="42.90659" lon="2.42094">
        <ele>694.758642</ele>
        <time>2022-06-03T21:44:06.727Z</time>
      </trkpt>
      <trkpt lat="42.90621" lon="2.42047">
        <ele>697.487149</ele>
        <time>2022-06-03T21:44:27.026Z</time>
      </trkpt>
      <trkpt lat="42.90615" lon="2.42029">
        <ele>698.275484</ele>
        <time>2022-06-03T21:44:32.738Z</time>
      </trkpt>
      <trkpt lat="42.90609" lon="2.41981">
        <ele>700.263648</ele>
        <time>2022-06-03T21:44:46.761Z</time>
      </trkpt>
      <trkpt lat="42.90611" lon="2.41958">
        <ele>701.194268</ele>
        <time>2022-06-03T21:44:53.074Z</time>
      </trkpt>
      <trkpt lat="42.90635" lon="2.4189">
        <ele>704.205859</ele>
        <time>2022-06-03T21:45:14.626Z</time>
      </trkpt>
      <trkpt lat="42.90646" lon="2.41871">
        <ele>705.187412</ele>
        <time>2022-06-03T21:45:21.686Z</time>
      </trkpt>
      <trkpt lat="42.90658" lon="2.41862">
        <ele>705.947216</ele>
        <time>2022-06-03T21:45:27.531Z</time>
      </trkpt>
      <trkpt lat="42.90703" lon="2.41865">
        <ele>708.517894</ele>
        <time>2022-06-03T21:45:47.214Z</time>
      </trkpt>
      <trkpt lat="42.90724" lon="2.41853">
        <ele>709.803906</ele>
        <time>2022-06-03T21:45:56.723Z</time>
      </trkpt>
      <trkpt lat="42.90779" lon="2.41748">
        <ele>715.143526</ele>
        <time>2022-06-03T21:46:36.159Z</time>
      </trkpt>
      <trkpt lat="42.90781" lon="2.41733">
        <ele>715.789053</ele>
        <time>2022-06-03T21:46:39.941Z</time>
      </trkpt>
      <trkpt lat="42.90778" lon="2.41719">
        <ele>716.157244</ele>
        <time>2022-06-03T21:46:44.158Z</time>
      </trkpt>
      <trkpt lat="42.90769" lon="2.41705">
        <ele>716.587724</ele>
        <time>2022-06-03T21:46:49.003Z</time>
      </trkpt>
      <trkpt lat="42.90662" lon="2.41623">
        <ele>720.510049</ele>
        <time>2022-06-03T21:47:25.921Z</time>
      </trkpt>
      <trkpt lat="42.90634" lon="2.41622">
        <ele>721.396407</ele>
        <time>2022-06-03T21:47:33.043Z</time>
      </trkpt>
      <trkpt lat="42.90563" lon="2.41639">
        <ele>723.941554</ele>
        <time>2022-06-03T21:47:50.394Z</time>
      </trkpt>
      <trkpt lat="42.90507" lon="2.41634">
        <ele>725.900525</ele>
        <time>2022-06-03T21:48:05.356Z</time>
      </trkpt>
      <trkpt lat="42.90493" lon="2.41623">
        <ele>726.495655</ele>
        <time>2022-06-03T21:48:11.025Z</time>
      </trkpt>
      <trkpt lat="42.90461" lon="2.41574">
        <ele>728.558097</ele>
        <time>2022-06-03T21:48:32.550Z</time>
      </trkpt>
      <trkpt lat="42.90446" lon="2.41559">
        <ele>730.267629</ele>
        <time>2022-06-03T21:48:41.077Z</time>
      </trkpt>
      <trkpt lat="42.90416" lon="2.41545">
        <ele>733.151756</ele>
        <time>2022-06-03T21:48:56.954Z</time>
      </trkpt>
      <trkpt lat="42.90375" lon="2.41541">
        <ele>736.888642</ele>
        <time>2022-06-03T21:49:18.576Z</time>
      </trkpt>
      <trkpt lat="42.90362" lon="2.41533">
        <ele>738.201217</ele>
        <time>2022-06-03T21:49:27.421Z</time>
      </trkpt>
      <trkpt lat="42.90332" lon="2.41501">
        <ele>741.751232</ele>
        <time>2022-06-03T21:49:52.271Z</time>
      </trkpt>
      <trkpt lat="42.90271" lon="2.41464">
        <ele>746.887896</ele>
        <time>2022-06-03T21:50:32.708Z</time>
      </trkpt>
      <trkpt lat="42.90244" lon="2.41437">
        <ele>749.075486</ele>
        <time>2022-06-03T21:50:50.925Z</time>
      </trkpt>
      <trkpt lat="42.9023" lon="2.41404">
        <ele>750.923381</ele>
        <time>2022-06-03T21:51:04.926Z</time>
      </trkpt>
      <trkpt lat="42.9022" lon="2.41399">
        <ele>751.672177</ele>
        <time>2022-06-03T21:51:11.580Z</time>
      </trkpt>
      <trkpt lat="42.9017" lon="2.4134">
        <ele>756.06742</ele>
        <time>2022-06-03T21:51:41.404Z</time>
      </trkpt>
      <trkpt lat="42.90046" lon="2.41156">
        <ele>756.074009</ele>
        <time>2022-06-03T21:52:33.026Z</time>
      </trkpt>
      <trkpt lat="42.90044" lon="2.4114">
        <ele>756.229907</ele>
        <time>2022-06-03T21:52:36.336Z</time>
      </trkpt>
      <trkpt lat="42.90052" lon="2.41128">
        <ele>756.396639</ele>
        <time>2022-06-03T21:52:39.417Z</time>
      </trkpt>
      <trkpt lat="42.90102" lon="2.41086">
        <ele>757.253005</ele>
        <time>2022-06-03T21:52:56.234Z</time>
      </trkpt>
      <trkpt lat="42.90125" lon="2.41089">
        <ele>757.582579</ele>
        <time>2022-06-03T21:53:03.396Z</time>
      </trkpt>
      <trkpt lat="42.90134" lon="2.411">
        <ele>757.756275</ele>
        <time>2022-06-03T21:53:07.541Z</time>
      </trkpt>
      <trkpt lat="42.90141" lon="2.41122">
        <ele>758.012657</ele>
        <time>2022-06-03T21:53:14.440Z</time>
      </trkpt>
      <trkpt lat="42.9015" lon="2.41122">
        <ele>758.139813</ele>
        <time>2022-06-03T21:53:18.114Z</time>
      </trkpt>
      <trkpt lat="42.90152" lon="2.41112">
        <ele>758.253167</ele>
        <time>2022-06-03T21:53:21.481Z</time>
      </trkpt>
      <trkpt lat="42.90123" lon="2.41048">
        <ele>760.853957</ele>
        <time>2022-06-03T21:53:49.158Z</time>
      </trkpt>
      <trkpt lat="42.90078" lon="2.41009">
        <ele>765.248853</ele>
        <time>2022-06-03T21:54:21.131Z</time>
      </trkpt>
      <trkpt lat="42.89999" lon="2.41001">
        <ele>771.79544</ele>
        <time>2022-06-03T21:55:15.791Z</time>
      </trkpt>
      <trkpt lat="42.89951" lon="2.40944">
        <ele>777.824993</ele>
        <time>2022-06-03T21:56:00.872Z</time>
      </trkpt>
      <trkpt lat="42.89881" lon="2.40916">
        <ele>785.30459</ele>
        <time>2022-06-03T21:56:53.415Z</time>
      </trkpt>
      <trkpt lat="42.89837" lon="2.40909">
        <ele>789.812093</ele>
        <time>2022-06-03T21:57:25.747Z</time>
      </trkpt>
      <trkpt lat="42.8983" lon="2.40895">
        <ele>791.071613</ele>
        <time>2022-06-03T21:57:33.875Z</time>
      </trkpt>
      <trkpt lat="42.89828" lon="2.40832">
        <ele>794.951776</ele>
        <time>2022-06-03T21:58:05.663Z</time>
      </trkpt>
      <trkpt lat="42.89837" lon="2.40803">
        <ele>796.738343</ele>
        <time>2022-06-03T21:58:17.810Z</time>
      </trkpt>
      <trkpt lat="42.89831" lon="2.40795">
        <ele>797.413353</ele>
        <time>2022-06-03T21:58:24.964Z</time>
      </trkpt>
      <trkpt lat="42.89816" lon="2.40819">
        <ele>799.287381</ele>
        <time>2022-06-03T21:58:37.909Z</time>
      </trkpt>
      <trkpt lat="42.89807" lon="2.40861">
        <ele>801.81828</ele>
        <time>2022-06-03T21:58:56.954Z</time>
      </trkpt>
      <trkpt lat="42.89792" lon="2.40887">
        <ele>803.731811</ele>
        <time>2022-06-03T21:59:11.465Z</time>
      </trkpt>
      <trkpt lat="42.89765" lon="2.40958">
        <ele>807.450038</ele>
        <time>2022-06-03T21:59:45.805Z</time>
      </trkpt>
      <trkpt lat="42.89779" lon="2.41013">
        <ele>809.349904</ele>
        <time>2022-06-03T22:00:09.724Z</time>
      </trkpt>
      <trkpt lat="42.89779" lon="2.41075">
        <ele>811.371285</ele>
        <time>2022-06-03T22:00:29.065Z</time>
      </trkpt>
      <trkpt lat="42.89772" lon="2.41152">
        <ele>813.92853</ele>
        <time>2022-06-03T22:00:52.220Z</time>
      </trkpt>
      <trkpt lat="42.89748" lon="2.41226">
        <ele>814.986289</ele>
        <time>2022-06-03T22:01:15.024Z</time>
      </trkpt>
      <trkpt lat="42.8972" lon="2.41293">
        <ele>815.793161</ele>
        <time>2022-06-03T22:01:35.747Z</time>
      </trkpt>
      <trkpt lat="42.89711" lon="2.41306">
        <ele>815.984517</ele>
        <time>2022-06-03T22:01:40.281Z</time>
      </trkpt>
      <trkpt lat="42.89667" lon="2.41329">
        <ele>816.662689</ele>
        <time>2022-06-03T22:01:55.606Z</time>
      </trkpt>
      <trkpt lat="42.89657" lon="2.41324">
        <ele>816.806606</ele>
        <time>2022-06-03T22:01:58.855Z</time>
      </trkpt>
      <trkpt lat="42.89592" lon="2.41241">
        <ele>815.618663</ele>
        <time>2022-06-03T22:02:24.656Z</time>
      </trkpt>
      <trkpt lat="42.89573" lon="2.41207">
        <ele>815.198982</ele>
        <time>2022-06-03T22:02:32.494Z</time>
      </trkpt>
      <trkpt lat="42.89545" lon="2.41172">
        <ele>814.680436</ele>
        <time>2022-06-03T22:02:42.268Z</time>
      </trkpt>
      <trkpt lat="42.89515" lon="2.41115">
        <ele>813.895508</ele>
        <time>2022-06-03T22:02:55.358Z</time>
      </trkpt>
      <trkpt lat="42.89502" lon="2.4106">
        <ele>813.188059</ele>
        <time>2022-06-03T22:03:06.024Z</time>
      </trkpt>
      <trkpt lat="42.89496" lon="2.4105">
        <ele>813.044742</ele>
        <time>2022-06-03T22:03:07.888Z</time>
      </trkpt>
      <trkpt lat="42.89482" lon="2.41042">
        <ele>812.78199</ele>
        <time>2022-06-03T22:03:12.135Z</time>
      </trkpt>
      <trkpt lat="42.89422" lon="2.41034">
        <ele>811.781053</ele>
        <time>2022-06-03T22:03:28.085Z</time>
      </trkpt>
      <trkpt lat="42.89388" lon="2.4102">
        <ele>811.919645</ele>
        <time>2022-06-03T22:03:38.986Z</time>
      </trkpt>
      <trkpt lat="42.8938" lon="2.41028">
        <ele>812.321238</ele>
        <time>2022-06-03T22:03:43.778Z</time>
      </trkpt>
      <trkpt lat="42.89361" lon="2.41074">
        <ele>813.844513</ele>
        <time>2022-06-03T22:03:58.909Z</time>
      </trkpt>
      <trkpt lat="42.89323" lon="2.41103">
        <ele>815.582477</ele>
        <time>2022-06-03T22:04:19.704Z</time>
      </trkpt>
      <trkpt lat="42.89302" lon="2.41119">
        <ele>816.54146</ele>
        <time>2022-06-03T22:04:31.770Z</time>
      </trkpt>
      <trkpt lat="42.89288" lon="2.41146">
        <ele>817.512717</ele>
        <time>2022-06-03T22:04:45.042Z</time>
      </trkpt>
      <trkpt lat="42.89268" lon="2.41141">
        <ele>818.311379</ele>
        <time>2022-06-03T22:04:58.979Z</time>
      </trkpt>
      <trkpt lat="42.89229" lon="2.41068">
        <ele>821.461449</ele>
        <time>2022-06-03T22:05:45.260Z</time>
      </trkpt>
      <trkpt lat="42.89205" lon="2.41038">
        <ele>823.031796</ele>
        <time>2022-06-03T22:06:07.943Z</time>
      </trkpt>
      <trkpt lat="42.89188" lon="2.41026">
        <ele>823.955291</ele>
        <time>2022-06-03T22:06:21.237Z</time>
      </trkpt>
      <trkpt lat="42.89175" lon="2.41013">
        <ele>824.736937</ele>
        <time>2022-06-03T22:06:27.845Z</time>
      </trkpt>
      <trkpt lat="42.89122" lon="2.40998">
        <ele>827.262</ele>
        <time>2022-06-03T22:06:51.430Z</time>
      </trkpt>
      <trkpt lat="42.89087" lon="2.40982">
        <ele>827.673746</ele>
        <time>2022-06-03T22:07:05.593Z</time>
      </trkpt>
      <trkpt lat="42.89069" lon="2.40938">
        <ele>828.090332</ele>
        <time>2022-06-03T22:07:19.687Z</time>
      </trkpt>
      <trkpt lat="42.89033" lon="2.40722">
        <ele>828.89413</ele>
        <time>2022-06-03T22:08:08.211Z</time>
      </trkpt>
      <trkpt lat="42.89042" lon="2.4064">
        <ele>828.492176</ele>
        <time>2022-06-03T22:08:25.189Z</time>
      </trkpt>
      <trkpt lat="42.89043" lon="2.40587">
        <ele>828.23125</ele>
        <time>2022-06-03T22:08:36.056Z</time>
      </trkpt>
      <trkpt lat="42.89028" lon="2.40565">
        <ele>828.08604</ele>
        <time>2022-06-03T22:08:41.941Z</time>
      </trkpt>
      <trkpt lat="42.88975" lon="2.40608">
        <ele>826.833164</ele>
        <time>2022-06-03T22:08:51.700Z</time>
      </trkpt>
      <trkpt lat="42.88957" lon="2.40612">
        <ele>826.459969</ele>
        <time>2022-06-03T22:08:54.536Z</time>
      </trkpt>
      <trkpt lat="42.88934" lon="2.40607">
        <ele>825.991968</ele>
        <time>2022-06-03T22:08:58.010Z</time>
      </trkpt>
      <trkpt lat="42.8891" lon="2.40585">
        <ele>825.410281</ele>
        <time>2022-06-03T22:09:02.278Z</time>
      </trkpt>
      <trkpt lat="42.88869" lon="2.40496">
        <ele>823.266426</ele>
        <time>2022-06-03T22:09:13.768Z</time>
      </trkpt>
      <trkpt lat="42.8883" lon="2.4047">
        <ele>821.502195</ele>
        <time>2022-06-03T22:09:20.078Z</time>
      </trkpt>
      <trkpt lat="42.88822" lon="2.40431">
        <ele>820.304361</ele>
        <time>2022-06-03T22:09:24.192Z</time>
      </trkpt>
      <trkpt lat="42.88795" lon="2.40348">
        <ele>817.560236</ele>
        <time>2022-06-03T22:09:33.232Z</time>
      </trkpt>
      <trkpt lat="42.88774" lon="2.40306">
        <ele>815.158887</ele>
        <time>2022-06-03T22:09:37.978Z</time>
      </trkpt>
      <trkpt lat="42.88717" lon="2.40223">
        <ele>808.852261</ele>
        <time>2022-06-03T22:09:48.353Z</time>
      </trkpt>
      <trkpt lat="42.88647" lon="2.40087">
        <ele>799.115915</ele>
        <time>2022-06-03T22:10:03.103Z</time>
      </trkpt>
      <trkpt lat="42.88593" lon="2.40011">
        <ele>792.338292</ele>
        <time>2022-06-03T22:10:12.586Z</time>
      </trkpt>
      <trkpt lat="42.8854" lon="2.39832">
        <ele>779.539592</ele>
        <time>2022-06-03T22:10:29.806Z</time>
      </trkpt>
      <trkpt lat="42.88528" lon="2.39693">
        <ele>769.740688</ele>
        <time>2022-06-03T22:10:41.980Z</time>
      </trkpt>
      <trkpt lat="42.88496" lon="2.39582">
        <ele>759.518917</ele>
        <time>2022-06-03T22:10:52.265Z</time>
      </trkpt>
      <trkpt lat="42.88421" lon="2.39473">
        <ele>746.346825</ele>
        <time>2022-06-03T22:11:04.891Z</time>
      </trkpt>
      <trkpt lat="42.88375" lon="2.39468">
        <ele>740.613198</ele>
        <time>2022-06-03T22:11:10.068Z</time>
      </trkpt>
      <trkpt lat="42.88267" lon="2.39389">
        <ele>725.625973</ele>
        <time>2022-06-03T22:11:24.243Z</time>
      </trkpt>
      <trkpt lat="42.88241" lon="2.39391">
        <ele>723.154135</ele>
        <time>2022-06-03T22:11:27.266Z</time>
      </trkpt>
      <trkpt lat="42.88227" lon="2.39418">
        <ele>720.877304</ele>
        <time>2022-06-03T22:11:30.092Z</time>
      </trkpt>
      <trkpt lat="42.88207" lon="2.39417">
        <ele>718.941349</ele>
        <time>2022-06-03T22:11:32.497Z</time>
      </trkpt>
      <trkpt lat="42.882" lon="2.39407">
        <ele>717.941803</ele>
        <time>2022-06-03T22:11:33.759Z</time>
      </trkpt>
      <trkpt lat="42.88139" lon="2.39222">
        <ele>705.823083</ele>
        <time>2022-06-03T22:11:52.222Z</time>
      </trkpt>
      <trkpt lat="42.88133" lon="2.39192">
        <ele>704.357485</ele>
        <time>2022-06-03T22:11:55.104Z</time>
      </trkpt>
      <trkpt lat="42.88139" lon="2.39147">
        <ele>702.218731</ele>
        <time>2022-06-03T22:11:59.410Z</time>
      </trkpt>
      <trkpt lat="42.88144" lon="2.39121">
        <ele>700.936882</ele>
        <time>2022-06-03T22:12:02.048Z</time>
      </trkpt>
      <trkpt lat="42.88166" lon="2.39076">
        <ele>698.350365</ele>
        <time>2022-06-03T22:12:07.293Z</time>
      </trkpt>
      <trkpt lat="42.88168" lon="2.39064">
        <ele>697.623383</ele>
        <time>2022-06-03T22:12:08.546Z</time>
      </trkpt>
      <trkpt lat="42.88167" lon="2.39048">
        <ele>696.721465</ele>
        <time>2022-06-03T22:12:10.144Z</time>
      </trkpt>
      <trkpt lat="42.8816" lon="2.39035">
        <ele>695.83604</ele>
        <time>2022-06-03T22:12:11.627Z</time>
      </trkpt>
      <trkpt lat="42.88147" lon="2.39032">
        <ele>694.788463</ele>
        <time>2022-06-03T22:12:13.365Z</time>
      </trkpt>
      <trkpt lat="42.88038" lon="2.39099">
        <ele>685.65422</ele>
        <time>2022-06-03T22:12:28.015Z</time>
      </trkpt>
      <trkpt lat="42.87995" lon="2.39151">
        <ele>680.533586</ele>
        <time>2022-06-03T22:12:34.742Z</time>
      </trkpt>
      <trkpt lat="42.87975" lon="2.3915">
        <ele>678.652309</ele>
        <time>2022-06-03T22:12:37.154Z</time>
      </trkpt>
      <trkpt lat="42.87959" lon="2.39139">
        <ele>677.035863</ele>
        <time>2022-06-03T22:12:39.154Z</time>
      </trkpt>
      <trkpt lat="42.87883" lon="2.39089">
        <ele>669.189103</ele>
        <time>2022-06-03T22:12:49.218Z</time>
      </trkpt>
      <trkpt lat="42.87851" lon="2.39067">
        <ele>667.597542</ele>
        <time>2022-06-03T22:12:53.911Z</time>
      </trkpt>
      <trkpt lat="42.87821" lon="2.39046">
        <ele>667.055506</ele>
        <time>2022-06-03T22:12:58.402Z</time>
      </trkpt>
      <trkpt lat="42.87806" lon="2.39035">
        <ele>666.772797</ele>
        <time>2022-06-03T22:13:00.978Z</time>
      </trkpt>
      <trkpt lat="42.87794" lon="2.39007">
        <ele>666.384909</ele>
        <time>2022-06-03T22:13:05.210Z</time>
      </trkpt>
      <trkpt lat="42.87787" lon="2.38979">
        <ele>666.029837</ele>
        <time>2022-06-03T22:13:09.152Z</time>
      </trkpt>
      <trkpt lat="42.87771" lon="2.38875">
        <ele>665.559192</ele>
        <time>2022-06-03T22:13:29.065Z</time>
      </trkpt>
      <trkpt lat="42.87755" lon="2.38841">
        <ele>666.457304</ele>
        <time>2022-06-03T22:13:38.855Z</time>
      </trkpt>
      <trkpt lat="42.87737" lon="2.3882">
        <ele>667.155609</ele>
        <time>2022-06-03T22:13:47.640Z</time>
      </trkpt>
      <trkpt lat="42.87788" lon="2.38693">
        <ele>670.363643</ele>
        <time>2022-06-03T22:14:22.413Z</time>
      </trkpt>
      <trkpt lat="42.87842" lon="2.38539">
        <ele>670.615522</ele>
        <time>2022-06-03T22:14:51.613Z</time>
      </trkpt>
      <trkpt lat="42.87853" lon="2.38519">
        <ele>670.638494</ele>
        <time>2022-06-03T22:14:54.358Z</time>
      </trkpt>
      <trkpt lat="42.87858" lon="2.38524">
        <ele>670.645541</ele>
        <time>2022-06-03T22:14:55.935Z</time>
      </trkpt>
      <trkpt lat="42.87869" lon="2.38469">
        <ele>670.349065</ele>
        <time>2022-06-03T22:15:06.509Z</time>
      </trkpt>
      <trkpt lat="42.87868" lon="2.38451">
        <ele>669.754092</ele>
        <time>2022-06-03T22:15:08.228Z</time>
      </trkpt>
      <trkpt lat="42.87874" lon="2.3844">
        <ele>669.29004</ele>
        <time>2022-06-03T22:15:09.573Z</time>
      </trkpt>
      <trkpt lat="42.87918" lon="2.38423">
        <ele>667.201632</ele>
        <time>2022-06-03T22:15:15.704Z</time>
      </trkpt>
      <trkpt lat="42.87925" lon="2.38409">
        <ele>666.634319</ele>
        <time>2022-06-03T22:15:17.335Z</time>
      </trkpt>
      <trkpt lat="42.87922" lon="2.38387">
        <ele>665.903407</ele>
        <time>2022-06-03T22:15:19.323Z</time>
      </trkpt>
      <trkpt lat="42.87874" lon="2.3816">
        <ele>657.272484</ele>
        <time>2022-06-03T22:15:40.723Z</time>
      </trkpt>
      <trkpt lat="42.87872" lon="2.38122">
        <ele>655.798302</ele>
        <time>2022-06-03T22:15:44.291Z</time>
      </trkpt>
      <trkpt lat="42.87884" lon="2.38108">
        <ele>654.946787</ele>
        <time>2022-06-03T22:15:46.361Z</time>
      </trkpt>
      <trkpt lat="42.87907" lon="2.38102">
        <ele>653.706967</ele>
        <time>2022-06-03T22:15:49.400Z</time>
      </trkpt>
      <trkpt lat="42.87912" lon="2.38095">
        <ele>653.341538</ele>
        <time>2022-06-03T22:15:50.307Z</time>
      </trkpt>
      <trkpt lat="42.8792" lon="2.38048">
        <ele>651.606326</ele>
        <time>2022-06-03T22:15:54.806Z</time>
      </trkpt>
      <trkpt lat="42.87943" lon="2.38014">
        <ele>649.956128</ele>
        <time>2022-06-03T22:15:59.137Z</time>
      </trkpt>
      <trkpt lat="42.87925" lon="2.37904">
        <ele>645.934463</ele>
        <time>2022-06-03T22:16:09.728Z</time>
      </trkpt>
      <trkpt lat="42.8789" lon="2.37781">
        <ele>641.695627</ele>
        <time>2022-06-03T22:16:21.822Z</time>
      </trkpt>
      <trkpt lat="42.87871" lon="2.37638">
        <ele>637.291056</ele>
        <time>2022-06-03T22:16:35.888Z</time>
      </trkpt>
      <trkpt lat="42.87855" lon="2.37545">
        <ele>635.721901</ele>
        <time>2022-06-03T22:16:46.094Z</time>
      </trkpt>
      <trkpt lat="42.87854" lon="2.37516">
        <ele>635.347816</ele>
        <time>2022-06-03T22:16:49.244Z</time>
      </trkpt>
      <trkpt lat="42.87858" lon="2.37497">
        <ele>635.087788</ele>
        <time>2022-06-03T22:16:51.437Z</time>
      </trkpt>
      <trkpt lat="42.87878" lon="2.37461">
        <ele>634.489286</ele>
        <time>2022-06-03T22:16:56.601Z</time>
      </trkpt>
      <trkpt lat="42.87879" lon="2.37444">
        <ele>634.263937</ele>
        <time>2022-06-03T22:16:58.603Z</time>
      </trkpt>
      <trkpt lat="42.87866" lon="2.37354">
        <ele>632.401924</ele>
        <time>2022-06-03T22:17:09.097Z</time>
      </trkpt>
      <trkpt lat="42.87869" lon="2.37283">
        <ele>630.119919</ele>
        <time>2022-06-03T22:17:16.518Z</time>
      </trkpt>
      <trkpt lat="42.87865" lon="2.37167">
        <ele>626.449132</ele>
        <time>2022-06-03T22:17:27.073Z</time>
      </trkpt>
      <trkpt lat="42.87857" lon="2.37134">
        <ele>625.042718</ele>
        <time>2022-06-03T22:17:30.153Z</time>
      </trkpt>
      <trkpt lat="42.87842" lon="2.37106">
        <ele>623.220056</ele>
        <time>2022-06-03T22:17:33.105Z</time>
      </trkpt>
      <trkpt lat="42.87845" lon="2.37078">
        <ele>621.662276</ele>
        <time>2022-06-03T22:17:35.620Z</time>
      </trkpt>
      <trkpt lat="42.87868" lon="2.37033">
        <ele>618.686455</ele>
        <time>2022-06-03T22:17:40.346Z</time>
      </trkpt>
      <trkpt lat="42.87885" lon="2.36891">
        <ele>611.484824</ele>
        <time>2022-06-03T22:17:52.813Z</time>
      </trkpt>
      <trkpt lat="42.87896" lon="2.36845">
        <ele>609.754221</ele>
        <time>2022-06-03T22:17:57.174Z</time>
      </trkpt>
      <trkpt lat="42.87894" lon="2.36833">
        <ele>609.33168</ele>
        <time>2022-06-03T22:17:58.299Z</time>
      </trkpt>
      <trkpt lat="42.87877" lon="2.36816">
        <ele>608.312172</ele>
        <time>2022-06-03T22:18:01.137Z</time>
      </trkpt>
      <trkpt lat="42.8784" lon="2.36805">
        <ele>606.50833</ele>
        <time>2022-06-03T22:18:06.251Z</time>
      </trkpt>
      <trkpt lat="42.8783" lon="2.36812">
        <ele>605.928279</ele>
        <time>2022-06-03T22:18:07.933Z</time>
      </trkpt>
      <trkpt lat="42.87814" lon="2.36834">
        <ele>604.853864</ele>
        <time>2022-06-03T22:18:10.991Z</time>
      </trkpt>
      <trkpt lat="42.878" lon="2.36831">
        <ele>604.148019</ele>
        <time>2022-06-03T22:18:12.919Z</time>
      </trkpt>
      <trkpt lat="42.87793" lon="2.36795">
        <ele>602.621049</ele>
        <time>2022-06-03T22:18:16.464Z</time>
      </trkpt>
      <trkpt lat="42.87795" lon="2.36733">
        <ele>599.942315</ele>
        <time>2022-06-03T22:18:22.163Z</time>
      </trkpt>
      <trkpt lat="42.87787" lon="2.36667">
        <ele>597.044645</ele>
        <time>2022-06-03T22:18:28.117Z</time>
      </trkpt>
      <trkpt lat="42.87745" lon="2.36512">
        <ele>589.311673</ele>
        <time>2022-06-03T22:18:42.792Z</time>
      </trkpt>
      <trkpt lat="42.87718" lon="2.36484">
        <ele>586.964774</ele>
        <time>2022-06-03T22:18:46.779Z</time>
      </trkpt>
      <trkpt lat="42.87677" lon="2.3649">
        <ele>584.106011</ele>
        <time>2022-06-03T22:18:51.699Z</time>
      </trkpt>
      <trkpt lat="42.87669" lon="2.36488">
        <ele>583.535763</ele>
        <time>2022-06-03T22:18:52.685Z</time>
      </trkpt>
      <trkpt lat="42.87664" lon="2.36476">
        <ele>582.859816</ele>
        <time>2022-06-03T22:18:53.847Z</time>
      </trkpt>
      <trkpt lat="42.87672" lon="2.36456">
        <ele>581.703147</ele>
        <time>2022-06-03T22:18:55.826Z</time>
      </trkpt>
      <trkpt lat="42.87709" lon="2.36444">
        <ele>579.291848</ele>
        <time>2022-06-03T22:19:00.480Z</time>
      </trkpt>
      <trkpt lat="42.87737" lon="2.36427">
        <ele>577.470514</ele>
        <time>2022-06-03T22:19:04.284Z</time>
      </trkpt>
      <trkpt lat="42.87759" lon="2.36393">
        <ele>575.51087</ele>
        <time>2022-06-03T22:19:08.494Z</time>
      </trkpt>
      <trkpt lat="42.87769" lon="2.36327">
        <ele>572.525403</ele>
        <time>2022-06-03T22:19:14.783Z</time>
      </trkpt>
      <trkpt lat="42.87771" lon="2.36271">
        <ele>570.073945</ele>
        <time>2022-06-03T22:19:19.821Z</time>
      </trkpt>
      <trkpt lat="42.87768" lon="2.36258">
        <ele>569.420958</ele>
        <time>2022-06-03T22:19:21.001Z</time>
      </trkpt>
      <trkpt lat="42.87756" lon="2.3625">
        <ele>568.539061</ele>
        <time>2022-06-03T22:19:22.479Z</time>
      </trkpt>
      <trkpt lat="42.87717" lon="2.36266">
        <ele>565.74584</ele>
        <time>2022-06-03T22:19:27.359Z</time>
      </trkpt>
      <trkpt lat="42.87697" lon="2.36268">
        <ele>564.38416</ele>
        <time>2022-06-03T22:19:29.816Z</time>
      </trkpt>
      <trkpt lat="42.87654" lon="2.3623">
        <ele>560.892763</ele>
        <time>2022-06-03T22:19:35.996Z</time>
      </trkpt>
      <trkpt lat="42.87652" lon="2.36211">
        <ele>559.905539</ele>
        <time>2022-06-03T22:19:37.843Z</time>
      </trkpt>
      <trkpt lat="42.87657" lon="2.36202">
        <ele>559.35914</ele>
        <time>2022-06-03T22:19:38.826Z</time>
      </trkpt>
      <trkpt lat="42.87676" lon="2.36198">
        <ele>558.016878</ele>
        <time>2022-06-03T22:19:41.170Z</time>
      </trkpt>
      <trkpt lat="42.87695" lon="2.36207">
        <ele>556.6764</ele>
        <time>2022-06-03T22:19:43.614Z</time>
      </trkpt>
      <trkpt lat="42.87703" lon="2.36205">
        <ele>556.146949</ele>
        <time>2022-06-03T22:19:44.521Z</time>
      </trkpt>
      <trkpt lat="42.87743" lon="2.36129">
        <ele>551.391749</ele>
        <time>2022-06-03T22:19:52.795Z</time>
      </trkpt>
      <trkpt lat="42.87793" lon="2.36055">
        <ele>546.359603</ele>
        <time>2022-06-03T22:20:01.649Z</time>
      </trkpt>
      <trkpt lat="42.87808" lon="2.36043">
        <ele>545.187499</ele>
        <time>2022-06-03T22:20:03.797Z</time>
      </trkpt>
      <trkpt lat="42.87827" lon="2.3605">
        <ele>543.922456</ele>
        <time>2022-06-03T22:20:06.249Z</time>
      </trkpt>
      <trkpt lat="42.87879" lon="2.36091">
        <ele>540.050771</ele>
        <time>2022-06-03T22:20:13.398Z</time>
      </trkpt>
      <trkpt lat="42.87886" lon="2.36102">
        <ele>539.369379</ele>
        <time>2022-06-03T22:20:14.941Z</time>
      </trkpt>
      <trkpt lat="42.879" lon="2.36107">
        <ele>538.471658</ele>
        <time>2022-06-03T22:20:16.683Z</time>
      </trkpt>
      <trkpt lat="42.87907" lon="2.36103">
        <ele>537.965746</ele>
        <time>2022-06-03T22:20:17.512Z</time>
      </trkpt>
      <trkpt lat="42.87911" lon="2.36091">
        <ele>537.32421</ele>
        <time>2022-06-03T22:20:19.110Z</time>
      </trkpt>
      <trkpt lat="42.8791" lon="2.36046">
        <ele>535.20502</ele>
        <time>2022-06-03T22:20:23.106Z</time>
      </trkpt>
      <trkpt lat="42.87918" lon="2.36022">
        <ele>534.00127</ele>
        <time>2022-06-03T22:20:25.832Z</time>
      </trkpt>
      <trkpt lat="42.87938" lon="2.35985">
        <ele>532.159512</ele>
        <time>2022-06-03T22:20:30.080Z</time>
      </trkpt>
      <trkpt lat="42.87934" lon="2.35971">
        <ele>531.566773</ele>
        <time>2022-06-03T22:20:31.249Z</time>
      </trkpt>
      <trkpt lat="42.87918" lon="2.35974">
        <ele>530.68971</ele>
        <time>2022-06-03T22:20:33.785Z</time>
      </trkpt>
      <trkpt lat="42.87893" lon="2.36006">
        <ele>528.833842</ele>
        <time>2022-06-03T22:20:37.945Z</time>
      </trkpt>
      <trkpt lat="42.87883" lon="2.36007">
        <ele>528.252163</ele>
        <time>2022-06-03T22:20:39.528Z</time>
      </trkpt>
      <trkpt lat="42.87873" lon="2.36">
        <ele>527.648057</ele>
        <time>2022-06-03T22:20:40.778Z</time>
      </trkpt>
      <trkpt lat="42.87841" lon="2.35899">
        <ele>523.57111</ele>
        <time>2022-06-03T22:20:51.083Z</time>
      </trkpt>
      <trkpt lat="42.87822" lon="2.35878">
        <ele>522.702378</ele>
        <time>2022-06-03T22:20:54.523Z</time>
      </trkpt>
      <trkpt lat="42.87811" lon="2.35876">
        <ele>522.289173</ele>
        <time>2022-06-03T22:20:56.189Z</time>
      </trkpt>
      <trkpt lat="42.87775" lon="2.35903">
        <ele>520.797898</ele>
        <time>2022-06-03T22:21:01.967Z</time>
      </trkpt>
      <trkpt lat="42.87729" lon="2.35893">
        <ele>519.108298</ele>
        <time>2022-06-03T22:21:08.343Z</time>
      </trkpt>
      <trkpt lat="42.87699" lon="2.359">
        <ele>518.041967</ele>
        <time>2022-06-03T22:21:12.273Z</time>
      </trkpt>
      <trkpt lat="42.87689" lon="2.35896">
        <ele>517.613212</ele>
        <time>2022-06-03T22:21:13.748Z</time>
      </trkpt>
      <trkpt lat="42.87644" lon="2.35817">
        <ele>513.544175</ele>
        <time>2022-06-03T22:21:23.191Z</time>
      </trkpt>
      <trkpt lat="42.87623" lon="2.35691">
        <ele>508.264371</ele>
        <time>2022-06-03T22:21:34.998Z</time>
      </trkpt>
      <trkpt lat="42.87607" lon="2.35589">
        <ele>502.129239</ele>
        <time>2022-06-03T22:21:43.834Z</time>
      </trkpt>
      <trkpt lat="42.87611" lon="2.3552">
        <ele>497.832848</ele>
        <time>2022-06-03T22:21:49.786Z</time>
      </trkpt>
      <trkpt lat="42.87605" lon="2.35487">
        <ele>495.734469</ele>
        <time>2022-06-03T22:21:52.603Z</time>
      </trkpt>
      <trkpt lat="42.87572" lon="2.35439">
        <ele>491.722273</ele>
        <time>2022-06-03T22:21:58.215Z</time>
      </trkpt>
      <trkpt lat="42.8754" lon="2.35418">
        <ele>488.99189</ele>
        <time>2022-06-03T22:22:02.329Z</time>
      </trkpt>
      <trkpt lat="42.87524" lon="2.35401">
        <ele>487.430321</ele>
        <time>2022-06-03T22:22:04.649Z</time>
      </trkpt>
      <trkpt lat="42.87513" lon="2.35371">
        <ele>485.549592</ele>
        <time>2022-06-03T22:22:07.492Z</time>
      </trkpt>
      <trkpt lat="42.87552" lon="2.35334">
        <ele>481.883922</ele>
        <time>2022-06-03T22:22:13.485Z</time>
      </trkpt>
      <trkpt lat="42.87562" lon="2.35299">
        <ele>479.793649</ele>
        <time>2022-06-03T22:22:17.009Z</time>
      </trkpt>
      <trkpt lat="42.87562" lon="2.35295">
        <ele>479.533348</ele>
        <time>2022-06-03T22:22:17.461Z</time>
      </trkpt>
      <trkpt lat="42.87573" lon="2.35249">
        <ele>477.684862</ele>
        <time>2022-06-03T22:22:22.052Z</time>
      </trkpt>
      <trkpt lat="42.87634" lon="2.35182">
        <ele>474.425768</ele>
        <time>2022-06-03T22:22:32.328Z</time>
      </trkpt>
      <trkpt lat="42.876" lon="2.35149">
        <ele>472.686404</ele>
        <time>2022-06-03T22:22:38.307Z</time>
      </trkpt>
      <trkpt lat="42.87593" lon="2.35154">
        <ele>472.363739</ele>
        <time>2022-06-03T22:22:39.456Z</time>
      </trkpt>
      <trkpt lat="42.87559" lon="2.35125">
        <ele>471.390147</ele>
        <time>2022-06-03T22:22:45.861Z</time>
      </trkpt>
      <trkpt lat="42.87579" lon="2.35096">
        <ele>471.763432</ele>
        <time>2022-06-03T22:22:51.041Z</time>
      </trkpt>
      <trkpt lat="42.87584" lon="2.35088">
        <ele>471.868083</ele>
        <time>2022-06-03T22:22:52.242Z</time>
      </trkpt>
      <trkpt lat="42.87579" lon="2.35096">
        <ele>471.972734</ele>
        <time>2022-06-03T22:22:54.267Z</time>
      </trkpt>
      <trkpt lat="42.87559" lon="2.35125">
        <ele>472.346019</ele>
        <time>2022-06-03T22:22:59.371Z</time>
      </trkpt>
      <trkpt lat="42.87593" lon="2.35154">
        <ele>472.865306</ele>
        <time>2022-06-03T22:23:09.203Z</time>
      </trkpt>
      <trkpt lat="42.876" lon="2.35149">
        <ele>472.965946</ele>
        <time>2022-06-03T22:23:11.462Z</time>
      </trkpt>
      <trkpt lat="42.87634" lon="2.35182">
        <ele>473.508461</ele>
        <time>2022-06-03T22:23:24.803Z</time>
      </trkpt>
      <trkpt lat="42.87573" lon="2.35249">
        <ele>477.979805</ele>
        <time>2022-06-03T22:23:56.752Z</time>
      </trkpt>
      <trkpt lat="42.87562" lon="2.35295">
        <ele>480.064316</ele>
        <time>2022-06-03T22:24:11.328Z</time>
      </trkpt>
      <trkpt lat="42.87562" lon="2.35299">
        <ele>480.264937</ele>
        <time>2022-06-03T22:24:12.597Z</time>
      </trkpt>
      <trkpt lat="42.87552" lon="2.35334">
        <ele>481.875957</ele>
        <time>2022-06-03T22:24:24.255Z</time>
      </trkpt>
      <trkpt lat="42.87513" lon="2.35371">
        <ele>484.932136</ele>
        <time>2022-06-03T22:24:46.763Z</time>
      </trkpt>
      <trkpt lat="42.87524" lon="2.35401">
        <ele>487.035798</ele>
        <time>2022-06-03T22:24:59.612Z</time>
      </trkpt>
      <trkpt lat="42.8754" lon="2.35418">
        <ele>488.782469</ele>
        <time>2022-06-03T22:25:10.943Z</time>
      </trkpt>
      <trkpt lat="42.87572" lon="2.35439">
        <ele>491.836498</ele>
        <time>2022-06-03T22:25:30.005Z</time>
      </trkpt>
      <trkpt lat="42.87605" lon="2.35487">
        <ele>495.992011</ele>
        <time>2022-06-03T22:25:55.518Z</time>
      </trkpt>
      <trkpt lat="42.87611" lon="2.3552">
        <ele>498.124047</ele>
        <time>2022-06-03T22:26:10.010Z</time>
      </trkpt>
      <trkpt lat="42.87607" lon="2.35589">
        <ele>502.093418</ele>
        <time>2022-06-03T22:26:35.876Z</time>
      </trkpt>
      <trkpt lat="42.87623" lon="2.35691">
        <ele>507.730651</ele>
        <time>2022-06-03T22:27:15.851Z</time>
      </trkpt>
      <trkpt lat="42.87644" lon="2.35817">
        <ele>513.980199</ele>
        <time>2022-06-03T22:27:54.288Z</time>
      </trkpt>
      <trkpt lat="42.87689" lon="2.35896">
        <ele>517.110018</ele>
        <time>2022-06-03T22:28:20.559Z</time>
      </trkpt>
      <trkpt lat="42.87699" lon="2.359">
        <ele>517.588028</ele>
        <time>2022-06-03T22:28:24.286Z</time>
      </trkpt>
      <trkpt lat="42.87729" lon="2.35893">
        <ele>518.853444</ele>
        <time>2022-06-03T22:28:34.052Z</time>
      </trkpt>
      <trkpt lat="42.87775" lon="2.35903">
        <ele>520.854305</ele>
        <time>2022-06-03T22:28:48.672Z</time>
      </trkpt>
      <trkpt lat="42.87811" lon="2.35876">
        <ele>522.592992</ele>
        <time>2022-06-03T22:29:00.638Z</time>
      </trkpt>
      <trkpt lat="42.87822" lon="2.35878">
        <ele>523.07475</ele>
        <time>2022-06-03T22:29:03.661Z</time>
      </trkpt>
      <trkpt lat="42.87841" lon="2.35899">
        <ele>524.087612</ele>
        <time>2022-06-03T22:29:10.255Z</time>
      </trkpt>
      <trkpt lat="42.87873" lon="2.36">
        <ele>527.485283</ele>
        <time>2022-06-03T22:29:40.460Z</time>
      </trkpt>
      <trkpt lat="42.87883" lon="2.36007">
        <ele>527.954004</ele>
        <time>2022-06-03T22:29:47.376Z</time>
      </trkpt>
      <trkpt lat="42.87893" lon="2.36006">
        <ele>528.498341</ele>
        <time>2022-06-03T22:29:50.162Z</time>
      </trkpt>
      <trkpt lat="42.87918" lon="2.35974">
        <ele>530.534206</ele>
        <time>2022-06-03T22:30:05.110Z</time>
      </trkpt>
      <trkpt lat="42.87934" lon="2.35971">
        <ele>531.496333</ele>
        <time>2022-06-03T22:30:08.715Z</time>
      </trkpt>
      <trkpt lat="42.87938" lon="2.35985">
        <ele>532.14656</ele>
        <time>2022-06-03T22:30:17.670Z</time>
      </trkpt>
      <trkpt lat="42.87918" lon="2.36022">
        <ele>534.152681</ele>
        <time>2022-06-03T22:30:30.736Z</time>
      </trkpt>
      <trkpt lat="42.8791" lon="2.36046">
        <ele>535.269039</ele>
        <time>2022-06-03T22:30:35.756Z</time>
      </trkpt>
      <trkpt lat="42.87911" lon="2.36091">
        <ele>537.234377</ele>
        <time>2022-06-03T22:30:50.455Z</time>
      </trkpt>
      <trkpt lat="42.87907" lon="2.36103">
        <ele>537.829338</ele>
        <time>2022-06-03T22:30:52.622Z</time>
      </trkpt>
      <trkpt lat="42.879" lon="2.36107">
        <ele>538.298521</ele>
        <time>2022-06-03T22:31:00.116Z</time>
      </trkpt>
      <trkpt lat="42.87886" lon="2.36102">
        <ele>539.165508</ele>
        <time>2022-06-03T22:31:05.853Z</time>
      </trkpt>
      <trkpt lat="42.87879" lon="2.36091">
        <ele>539.881034</ele>
        <time>2022-06-03T22:31:08.672Z</time>
      </trkpt>
      <trkpt lat="42.87827" lon="2.3605">
        <ele>543.946668</ele>
        <time>2022-06-03T22:31:37.826Z</time>
      </trkpt>
      <trkpt lat="42.87808" lon="2.36043">
        <ele>545.275082</ele>
        <time>2022-06-03T22:31:45.836Z</time>
      </trkpt>
      <trkpt lat="42.87793" lon="2.36055">
        <ele>546.443665</ele>
        <time>2022-06-03T22:31:53.036Z</time>
      </trkpt>
      <trkpt lat="42.87743" lon="2.36129">
        <ele>551.389967</ele>
        <time>2022-06-03T22:32:26.161Z</time>
      </trkpt>
      <trkpt lat="42.87703" lon="2.36205">
        <ele>556.107917</ele>
        <time>2022-06-03T22:32:58.779Z</time>
      </trkpt>
      <trkpt lat="42.87695" lon="2.36207">
        <ele>556.63322</ele>
        <time>2022-06-03T22:33:02.673Z</time>
      </trkpt>
      <trkpt lat="42.87676" lon="2.36198">
        <ele>557.96521</ele>
        <time>2022-06-03T22:33:10.419Z</time>
      </trkpt>
      <trkpt lat="42.87657" lon="2.36202">
        <ele>559.307865</ele>
        <time>2022-06-03T22:33:19.885Z</time>
      </trkpt>
      <trkpt lat="42.87652" lon="2.36211">
        <ele>559.854425</ele>
        <time>2022-06-03T22:33:23.297Z</time>
      </trkpt>
      <trkpt lat="42.87654" lon="2.3623">
        <ele>560.841939</ele>
        <time>2022-06-03T22:33:28.771Z</time>
      </trkpt>
      <trkpt lat="42.87697" lon="2.36268">
        <ele>564.288215</ele>
        <time>2022-06-03T22:33:52.011Z</time>
      </trkpt>
      <trkpt lat="42.87717" lon="2.36266">
        <ele>565.594704</ele>
        <time>2022-06-03T22:34:00.642Z</time>
      </trkpt>
      <trkpt lat="42.87756" lon="2.3625">
        <ele>568.274711</ele>
        <time>2022-06-03T22:34:20.184Z</time>
      </trkpt>
      <trkpt lat="42.87768" lon="2.36258">
        <ele>569.120862</ele>
        <time>2022-06-03T22:34:27.597Z</time>
      </trkpt>
      <trkpt lat="42.87771" lon="2.36271">
        <ele>569.758037</ele>
        <time>2022-06-03T22:34:31.929Z</time>
      </trkpt>
      <trkpt lat="42.87769" lon="2.36327">
        <ele>572.437352</ele>
        <time>2022-06-03T22:34:49.410Z</time>
      </trkpt>
      <trkpt lat="42.87759" lon="2.36393">
        <ele>575.67211</ele>
        <time>2022-06-03T22:35:08.958Z</time>
      </trkpt>
      <trkpt lat="42.87737" lon="2.36427">
        <ele>577.735171</ele>
        <time>2022-06-03T22:35:21.014Z</time>
      </trkpt>
      <trkpt lat="42.87709" lon="2.36444">
        <ele>579.652623</ele>
        <time>2022-06-03T22:35:33.207Z</time>
      </trkpt>
      <trkpt lat="42.87672" lon="2.36456">
        <ele>582.047646</ele>
        <time>2022-06-03T22:35:49.669Z</time>
      </trkpt>
      <trkpt lat="42.87664" lon="2.36476">
        <ele>583.095456</ele>
        <time>2022-06-03T22:35:57.573Z</time>
      </trkpt>
      <trkpt lat="42.87669" lon="2.36488">
        <ele>583.707786</ele>
        <time>2022-06-03T22:36:02.150Z</time>
      </trkpt>
      <trkpt lat="42.87677" lon="2.3649">
        <ele>584.224365</ele>
        <time>2022-06-03T22:36:05.901Z</time>
      </trkpt>
      <trkpt lat="42.87718" lon="2.36484">
        <ele>586.863439</ele>
        <time>2022-06-03T22:36:25.092Z</time>
      </trkpt>
      <trkpt lat="42.87745" lon="2.36512">
        <ele>589.169556</ele>
        <time>2022-06-03T22:36:41.690Z</time>
      </trkpt>
      <trkpt lat="42.87787" lon="2.36667">
        <ele>597.435026</ele>
        <time>2022-06-03T22:37:35.812Z</time>
      </trkpt>
      <trkpt lat="42.87795" lon="2.36733">
        <ele>600.10539</ele>
        <time>2022-06-03T22:37:57.575Z</time>
      </trkpt>
      <trkpt lat="42.87793" lon="2.36795">
        <ele>602.286605</ele>
        <time>2022-06-03T22:38:15.453Z</time>
      </trkpt>
      <trkpt lat="42.878" lon="2.36831">
        <ele>603.59278</ele>
        <time>2022-06-03T22:38:24.966Z</time>
      </trkpt>
      <trkpt lat="42.87814" lon="2.36834">
        <ele>604.294781</ele>
        <time>2022-06-03T22:38:29.797Z</time>
      </trkpt>
      <trkpt lat="42.8783" lon="2.36812">
        <ele>605.363345</ele>
        <time>2022-06-03T22:38:36.567Z</time>
      </trkpt>
      <trkpt lat="42.8784" lon="2.36805">
        <ele>605.940237</ele>
        <time>2022-06-03T22:38:40.099Z</time>
      </trkpt>
      <trkpt lat="42.87877" lon="2.36816">
        <ele>607.924102</ele>
        <time>2022-06-03T22:38:51.504Z</time>
      </trkpt>
      <trkpt lat="42.87894" lon="2.36833">
        <ele>609.25104</ele>
        <time>2022-06-03T22:38:58.284Z</time>
      </trkpt>
      <trkpt lat="42.87896" lon="2.36845">
        <ele>609.800997</ele>
        <time>2022-06-03T22:39:01.460Z</time>
      </trkpt>
      <trkpt lat="42.87885" lon="2.36891">
        <ele>612.053458</ele>
        <time>2022-06-03T22:39:17.170Z</time>
      </trkpt>
      <trkpt lat="42.87868" lon="2.37033">
        <ele>618.659658</ele>
        <time>2022-06-03T22:40:07.188Z</time>
      </trkpt>
      <trkpt lat="42.87845" lon="2.37078">
        <ele>621.355418</ele>
        <time>2022-06-03T22:40:27.762Z</time>
      </trkpt>
      <trkpt lat="42.87842" lon="2.37106">
        <ele>622.766591</ele>
        <time>2022-06-03T22:40:37.736Z</time>
      </trkpt>
      <trkpt lat="42.87857" lon="2.37134">
        <ele>624.417719</ele>
        <time>2022-06-03T22:40:49.341Z</time>
      </trkpt>
      <trkpt lat="42.87865" lon="2.37167">
        <ele>626.154551</ele>
        <time>2022-06-03T22:41:02.068Z</time>
      </trkpt>
      <trkpt lat="42.87869" lon="2.37283">
        <ele>630.908272</ele>
        <time>2022-06-03T22:41:35.943Z</time>
      </trkpt>
      <trkpt lat="42.87866" lon="2.37354">
        <ele>632.172917</ele>
        <time>2022-06-03T22:41:50.876Z</time>
      </trkpt>
      <trkpt lat="42.87879" lon="2.37444">
        <ele>633.783873</ele>
        <time>2022-06-03T22:42:05.943Z</time>
      </trkpt>
      <trkpt lat="42.87878" lon="2.37461">
        <ele>634.083429</ele>
        <time>2022-06-03T22:42:08.573Z</time>
      </trkpt>
      <trkpt lat="42.87858" lon="2.37497">
        <ele>634.896725</ele>
        <time>2022-06-03T22:42:16.061Z</time>
      </trkpt>
      <trkpt lat="42.87854" lon="2.37516">
        <ele>635.283551</ele>
        <time>2022-06-03T22:42:19.474Z</time>
      </trkpt>
      <trkpt lat="42.87855" lon="2.37545">
        <ele>635.840053</ele>
        <time>2022-06-03T22:42:24.424Z</time>
      </trkpt>
      <trkpt lat="42.87871" lon="2.37638">
        <ele>637.737164</ele>
        <time>2022-06-03T22:42:43.180Z</time>
      </trkpt>
      <trkpt lat="42.8789" lon="2.37781">
        <ele>641.420129</ele>
        <time>2022-06-03T22:43:18.967Z</time>
      </trkpt>
      <trkpt lat="42.87925" lon="2.37904">
        <ele>646.067303</ele>
        <time>2022-06-03T22:43:56.612Z</time>
      </trkpt>
      <trkpt lat="42.87943" lon="2.38014">
        <ele>650.067145</ele>
        <time>2022-06-03T22:44:27.333Z</time>
      </trkpt>
      <trkpt lat="42.8792" lon="2.38048">
        <ele>651.709404</ele>
        <time>2022-06-03T22:44:40.038Z</time>
      </trkpt>
      <trkpt lat="42.87912" lon="2.38095">
        <ele>653.402788</ele>
        <time>2022-06-03T22:44:52.756Z</time>
      </trkpt>
      <trkpt lat="42.87907" lon="2.38102">
        <ele>653.735691</ele>
        <time>2022-06-03T22:44:55.148Z</time>
      </trkpt>
      <trkpt lat="42.87884" lon="2.38108">
        <ele>654.865154</ele>
        <time>2022-06-03T22:45:03.325Z</time>
      </trkpt>
      <trkpt lat="42.87872" lon="2.38122">
        <ele>655.640876</ele>
        <time>2022-06-03T22:45:09.114Z</time>
      </trkpt>
      <trkpt lat="42.87874" lon="2.3816">
        <ele>656.990071</ele>
        <time>2022-06-03T22:45:19.281Z</time>
      </trkpt>
      <trkpt lat="42.87922" lon="2.38387">
        <ele>666.535053</ele>
        <time>2022-06-03T22:46:30.843Z</time>
      </trkpt>
      <trkpt lat="42.87925" lon="2.38409">
        <ele>667.137154</ele>
        <time>2022-06-03T22:46:37.420Z</time>
      </trkpt>
      <trkpt lat="42.87918" lon="2.38423">
        <ele>667.483581</ele>
        <time>2022-06-03T22:46:41.675Z</time>
      </trkpt>
      <trkpt lat="42.87874" lon="2.3844">
        <ele>668.758859</ele>
        <time>2022-06-03T22:46:56.543Z</time>
      </trkpt>
      <trkpt lat="42.87868" lon="2.38451">
        <ele>669.04223</ele>
        <time>2022-06-03T22:46:59.905Z</time>
      </trkpt>
      <trkpt lat="42.87869" lon="2.38469">
        <ele>669.405548</ele>
        <time>2022-06-03T22:47:04.347Z</time>
      </trkpt>
      <trkpt lat="42.87858" lon="2.38524">
        <ele>670.559848</ele>
        <time>2022-06-03T22:47:20.591Z</time>
      </trkpt>
      <trkpt lat="42.87853" lon="2.38519">
        <ele>670.718933</ele>
        <time>2022-06-03T22:47:22.521Z</time>
      </trkpt>
      <trkpt lat="42.87842" lon="2.38539">
        <ele>671.237573</ele>
        <time>2022-06-03T22:47:27.936Z</time>
      </trkpt>
      <trkpt lat="42.87788" lon="2.38693">
        <ele>670.80249</ele>
        <time>2022-06-03T22:47:49.260Z</time>
      </trkpt>
      <trkpt lat="42.87737" lon="2.3882">
        <ele>669.615268</ele>
        <time>2022-06-03T22:48:05.586Z</time>
      </trkpt>
      <trkpt lat="42.87731" lon="2.38825">
        <ele>669.515098</ele>
        <time>2022-06-03T22:48:07.560Z</time>
      </trkpt>
      <trkpt lat="42.87726" lon="2.38828">
        <ele>669.43917</ele>
        <time>2022-06-03T22:48:09.061Z</time>
      </trkpt>
      <trkpt lat="42.87685" lon="2.389">
        <ele>668.542972</ele>
        <time>2022-06-03T22:48:26.763Z</time>
      </trkpt>
      <trkpt lat="42.87564" lon="2.3901">
        <ele>667.897699</ele>
        <time>2022-06-03T22:49:07.499Z</time>
      </trkpt>
      <trkpt lat="42.87519" lon="2.3907">
        <ele>668.166348</ele>
        <time>2022-06-03T22:49:28.933Z</time>
      </trkpt>
      <trkpt lat="42.87436" lon="2.3915">
        <ele>668.862863</ele>
        <time>2022-06-03T22:50:05.171Z</time>
      </trkpt>
      <trkpt lat="42.87395" lon="2.39198">
        <ele>669.337159</ele>
        <time>2022-06-03T22:50:24.163Z</time>
      </trkpt>
      <trkpt lat="42.87302" lon="2.39259">
        <ele>668.150212</ele>
        <time>2022-06-03T22:50:55.549Z</time>
      </trkpt>
      <trkpt lat="42.87272" lon="2.39244">
        <ele>666.540576</ele>
        <time>2022-06-03T22:51:04.385Z</time>
      </trkpt>
      <trkpt lat="42.87239" lon="2.39216">
        <ele>664.631158</ele>
        <time>2022-06-03T22:51:13.598Z</time>
      </trkpt>
      <trkpt lat="42.87233" lon="2.39215">
        <ele>664.307864</ele>
        <time>2022-06-03T22:51:15.087Z</time>
      </trkpt>
      <trkpt lat="42.87225" lon="2.39224">
        <ele>663.809026</ele>
        <time>2022-06-03T22:51:17.252Z</time>
      </trkpt>
      <trkpt lat="42.87208" lon="2.39247">
        <ele>662.636871</ele>
        <time>2022-06-03T22:51:22.368Z</time>
      </trkpt>
      <trkpt lat="42.87167" lon="2.39331">
        <ele>655.389338</ele>
        <time>2022-06-03T22:51:37.287Z</time>
      </trkpt>
      <trkpt lat="42.87087" lon="2.39508">
        <ele>635.141492</ele>
        <time>2022-06-03T22:52:06.856Z</time>
      </trkpt>
      <trkpt lat="42.87078" lon="2.39531">
        <ele>633.295914</ele>
        <time>2022-06-03T22:52:10.595Z</time>
      </trkpt>
      <trkpt lat="42.87073" lon="2.39569">
        <ele>630.616054</ele>
        <time>2022-06-03T22:52:16.081Z</time>
      </trkpt>
      <trkpt lat="42.87039" lon="2.39596">
        <ele>626.816043</ele>
        <time>2022-06-03T22:52:24.171Z</time>
      </trkpt>
      <trkpt lat="42.87029" lon="2.39597">
        <ele>625.874605</ele>
        <time>2022-06-03T22:52:26.114Z</time>
      </trkpt>
      <trkpt lat="42.87013" lon="2.39578">
        <ele>623.856219</ele>
        <time>2022-06-03T22:52:30.773Z</time>
      </trkpt>
      <trkpt lat="42.8698" lon="2.39518">
        <ele>619.257373</ele>
        <time>2022-06-03T22:52:43.470Z</time>
      </trkpt>
      <trkpt lat="42.86958" lon="2.39495">
        <ele>619.395945</ele>
        <time>2022-06-03T22:52:50.763Z</time>
      </trkpt>
      <trkpt lat="42.86936" lon="2.39449">
        <ele>619.596071</ele>
        <time>2022-06-03T22:53:01.625Z</time>
      </trkpt>
      <trkpt lat="42.86927" lon="2.39441">
        <ele>619.650198</ele>
        <time>2022-06-03T22:53:05.360Z</time>
      </trkpt>
      <trkpt lat="42.86891" lon="2.39444">
        <ele>619.829875</ele>
        <time>2022-06-03T22:53:20.124Z</time>
      </trkpt>
      <trkpt lat="42.8685" lon="2.39435">
        <ele>620.03349</ele>
        <time>2022-06-03T22:53:40.033Z</time>
      </trkpt>
      <trkpt lat="42.8681" lon="2.39441">
        <ele>619.86528</ele>
        <time>2022-06-03T22:53:56.791Z</time>
      </trkpt>
      <trkpt lat="42.86789" lon="2.39455">
        <ele>619.620141</ele>
        <time>2022-06-03T22:54:00.933Z</time>
      </trkpt>
      <trkpt lat="42.86757" lon="2.39425">
        <ele>619.190579</ele>
        <time>2022-06-03T22:54:09.481Z</time>
      </trkpt>
      <trkpt lat="42.8675" lon="2.39425">
        <ele>619.119871</ele>
        <time>2022-06-03T22:54:12.255Z</time>
      </trkpt>
      <trkpt lat="42.86747" lon="2.39429">
        <ele>619.072427</ele>
        <time>2022-06-03T22:54:12.951Z</time>
      </trkpt>
      <trkpt lat="42.86753" lon="2.39498">
        <ele>618.521496</ele>
        <time>2022-06-03T22:54:20.351Z</time>
      </trkpt>
      <trkpt lat="42.86741" lon="2.39572">
        <ele>616.41734</ele>
        <time>2022-06-03T22:54:27.787Z</time>
      </trkpt>
      <trkpt lat="42.8673" lon="2.39599">
        <ele>614.710484</ele>
        <time>2022-06-03T22:54:30.543Z</time>
      </trkpt>
      <trkpt lat="42.86679" lon="2.39691">
        <ele>608.381868</ele>
        <time>2022-06-03T22:54:40.775Z</time>
      </trkpt>
      <trkpt lat="42.86638" lon="2.39741">
        <ele>604.314617</ele>
        <time>2022-06-03T22:54:47.554Z</time>
      </trkpt>
      <trkpt lat="42.86609" lon="2.39819">
        <ele>600.121575</ele>
        <time>2022-06-03T22:54:55.669Z</time>
      </trkpt>
      <trkpt lat="42.86602" lon="2.39825">
        <ele>599.556274</ele>
        <time>2022-06-03T22:54:56.801Z</time>
      </trkpt>
      <trkpt lat="42.86562" lon="2.39825">
        <ele>596.996629</ele>
        <time>2022-06-03T22:55:01.852Z</time>
      </trkpt>
      <trkpt lat="42.86543" lon="2.39878">
        <ele>594.176835</ele>
        <time>2022-06-03T22:55:07.475Z</time>
      </trkpt>
      <trkpt lat="42.86493" lon="2.39928">
        <ele>589.290553</ele>
        <time>2022-06-03T22:55:15.518Z</time>
      </trkpt>
      <trkpt lat="42.86478" lon="2.39968">
        <ele>586.545794</ele>
        <time>2022-06-03T22:55:19.556Z</time>
      </trkpt>
      <trkpt lat="42.8646" lon="2.40006">
        <ele>583.74268</ele>
        <time>2022-06-03T22:55:23.613Z</time>
      </trkpt>
      <trkpt lat="42.86434" lon="2.40044">
        <ele>580.568848</ele>
        <time>2022-06-03T22:55:28.121Z</time>
      </trkpt>
      <trkpt lat="42.86425" lon="2.40069">
        <ele>578.85595</ele>
        <time>2022-06-03T22:55:30.509Z</time>
      </trkpt>
      <trkpt lat="42.864" lon="2.40291">
        <ele>562.757808</ele>
        <time>2022-06-03T22:55:50.072Z</time>
      </trkpt>
      <trkpt lat="42.86402" lon="2.40458">
        <ele>552.865017</ele>
        <time>2022-06-03T22:56:04.947Z</time>
      </trkpt>
      <trkpt lat="42.86399" lon="2.40541">
        <ele>548.192539</ele>
        <time>2022-06-03T22:56:12.721Z</time>
      </trkpt>
      <trkpt lat="42.86394" lon="2.40672">
        <ele>542.394041</ele>
        <time>2022-06-03T22:56:25.149Z</time>
      </trkpt>
      <trkpt lat="42.86401" lon="2.40755">
        <ele>539.040101</ele>
        <time>2022-06-03T22:56:33.104Z</time>
      </trkpt>
      <trkpt lat="42.86407" lon="2.40774">
        <ele>538.167198</ele>
        <time>2022-06-03T22:56:35.210Z</time>
      </trkpt>
      <trkpt lat="42.86387" lon="2.40826">
        <ele>535.893741</ele>
        <time>2022-06-03T22:56:40.973Z</time>
      </trkpt>
      <trkpt lat="42.86398" lon="2.40835">
        <ele>535.2581</ele>
        <time>2022-06-03T22:56:42.764Z</time>
      </trkpt>
      <trkpt lat="42.86411" lon="2.40848">
        <ele>534.514681</ele>
        <time>2022-06-03T22:56:44.851Z</time>
      </trkpt>
      <trkpt lat="42.86439" lon="2.40871">
        <ele>532.933986</ele>
        <time>2022-06-03T22:56:49.325Z</time>
      </trkpt>
      <trkpt lat="42.86471" lon="2.40942">
        <ele>530.02117</ele>
        <time>2022-06-03T22:56:57.560Z</time>
      </trkpt>
      <trkpt lat="42.86494" lon="2.41105">
        <ele>523.873692</ele>
        <time>2022-06-03T22:57:13.527Z</time>
      </trkpt>
      <trkpt lat="42.86495" lon="2.41168">
        <ele>521.452579</ele>
        <time>2022-06-03T22:57:19.660Z</time>
      </trkpt>
      <trkpt lat="42.86488" lon="2.413">
        <ele>516.92468</ele>
        <time>2022-06-03T22:57:32.545Z</time>
      </trkpt>
      <trkpt lat="42.86493" lon="2.41525">
        <ele>510.637721</ele>
        <time>2022-06-03T22:57:55.809Z</time>
      </trkpt>
      <trkpt lat="42.86487" lon="2.41586">
        <ele>509.14122</ele>
        <time>2022-06-03T22:58:02.343Z</time>
      </trkpt>
      <trkpt lat="42.86488" lon="2.41597">
        <ele>508.873578</ele>
        <time>2022-06-03T22:58:03.511Z</time>
      </trkpt>
      <trkpt lat="42.86501" lon="2.41687">
        <ele>506.630084</ele>
        <time>2022-06-03T22:58:13.112Z</time>
      </trkpt>
      <trkpt lat="42.86494" lon="2.41754">
        <ele>504.978532</ele>
        <time>2022-06-03T22:58:20.208Z</time>
      </trkpt>
      <trkpt lat="42.8648" lon="2.41872">
        <ele>502.047827</ele>
        <time>2022-06-03T22:58:32.570Z</time>
      </trkpt>
      <trkpt lat="42.86478" lon="2.4193">
        <ele>500.625674</ele>
        <time>2022-06-03T22:58:38.481Z</time>
      </trkpt>
      <trkpt lat="42.86432" lon="2.42015">
        <ele>498.548243</ele>
        <time>2022-06-03T22:58:49.782Z</time>
      </trkpt>
      <trkpt lat="42.86379" lon="2.42087">
        <ele>496.968749</ele>
        <time>2022-06-03T22:59:01.418Z</time>
      </trkpt>
      <trkpt lat="42.86353" lon="2.42135">
        <ele>496.035587</ele>
        <time>2022-06-03T22:59:08.203Z</time>
      </trkpt>
      <trkpt lat="42.86338" lon="2.42181">
        <ele>495.35148</ele>
        <time>2022-06-03T22:59:13.911Z</time>
      </trkpt>
      <trkpt lat="42.86334" lon="2.42194">
        <ele>495.188948</ele>
        <time>2022-06-03T22:59:15.527Z</time>
      </trkpt>
      <trkpt lat="42.86312" lon="2.423">
        <ele>493.904039</ele>
        <time>2022-06-03T22:59:28.566Z</time>
      </trkpt>
      <trkpt lat="42.86312" lon="2.42368">
        <ele>493.114347</ele>
        <time>2022-06-03T22:59:36.725Z</time>
      </trkpt>
      <trkpt lat="42.86307" lon="2.42405">
        <ele>492.660538</ele>
        <time>2022-06-03T22:59:40.882Z</time>
      </trkpt>
      <trkpt lat="42.86315" lon="2.42521">
        <ele>490.97946</ele>
        <time>2022-06-03T22:59:53.977Z</time>
      </trkpt>
      <trkpt lat="42.86321" lon="2.42637">
        <ele>489.309557</ele>
        <time>2022-06-03T23:00:07.111Z</time>
      </trkpt>
      <trkpt lat="42.86326" lon="2.42683">
        <ele>488.640649</ele>
        <time>2022-06-03T23:00:12.437Z</time>
      </trkpt>
      <trkpt lat="42.86321" lon="2.42718">
        <ele>488.128918</ele>
        <time>2022-06-03T23:00:16.237Z</time>
      </trkpt>
      <trkpt lat="42.86322" lon="2.42761">
        <ele>487.519441</ele>
        <time>2022-06-03T23:00:20.776Z</time>
      </trkpt>
      <trkpt lat="42.86335" lon="2.4278">
        <ele>487.153026</ele>
        <time>2022-06-03T23:00:23.573Z</time>
      </trkpt>
      <trkpt lat="42.86375" lon="2.42788">
        <ele>486.367087</ele>
        <time>2022-06-03T23:00:29.556Z</time>
      </trkpt>
      <trkpt lat="42.86382" lon="2.42811">
        <ele>486.016877</ele>
        <time>2022-06-03T23:00:32.129Z</time>
      </trkpt>
      <trkpt lat="42.86368" lon="2.42841">
        <ele>485.582073</ele>
        <time>2022-06-03T23:00:36.043Z</time>
      </trkpt>
      <trkpt lat="42.86322" lon="2.42865">
        <ele>484.926736</ele>
        <time>2022-06-03T23:00:43.556Z</time>
      </trkpt>
      <trkpt lat="42.86299" lon="2.42884">
        <ele>484.557989</ele>
        <time>2022-06-03T23:00:47.905Z</time>
      </trkpt>
      <trkpt lat="42.86281" lon="2.42904">
        <ele>484.257501</ele>
        <time>2022-06-03T23:00:51.492Z</time>
      </trkpt>
      <trkpt lat="42.86271" lon="2.42927">
        <ele>483.991292</ele>
        <time>2022-06-03T23:00:54.509Z</time>
      </trkpt>
      <trkpt lat="42.86261" lon="2.42979">
        <ele>483.463089</ele>
        <time>2022-06-03T23:01:00.662Z</time>
      </trkpt>
      <trkpt lat="42.86254" lon="2.43131">
        <ele>482.055418</ele>
        <time>2022-06-03T23:01:18.220Z</time>
      </trkpt>
      <trkpt lat="42.86257" lon="2.43281">
        <ele>480.373296</ele>
        <time>2022-06-03T23:01:35.182Z</time>
      </trkpt>
      <trkpt lat="42.86259" lon="2.43311">
        <ele>479.897107</ele>
        <time>2022-06-03T23:01:38.446Z</time>
      </trkpt>
      <trkpt lat="42.86251" lon="2.43482">
        <ele>477.16312</ele>
        <time>2022-06-03T23:01:56.438Z</time>
      </trkpt>
      <trkpt lat="42.86216" lon="2.43605">
        <ele>474.618938</ele>
        <time>2022-06-03T23:02:09.837Z</time>
      </trkpt>
      <trkpt lat="42.86201" lon="2.43684">
        <ele>473.046239</ele>
        <time>2022-06-03T23:02:18.265Z</time>
      </trkpt>
      <trkpt lat="42.86192" lon="2.43768">
        <ele>471.89976</ele>
        <time>2022-06-03T23:02:27.264Z</time>
      </trkpt>
      <trkpt lat="42.86199" lon="2.43898">
        <ele>470.56499</ele>
        <time>2022-06-03T23:02:41.958Z</time>
      </trkpt>
      <trkpt lat="42.86226" lon="2.44003">
        <ele>469.968087</ele>
        <time>2022-06-03T23:02:55.308Z</time>
      </trkpt>
      <trkpt lat="42.86186" lon="2.44068">
        <ele>470.02855</ele>
        <time>2022-06-03T23:03:05.771Z</time>
      </trkpt>
      <trkpt lat="42.86176" lon="2.44093">
        <ele>470.049329</ele>
        <time>2022-06-03T23:03:09.866Z</time>
      </trkpt>
      <trkpt lat="42.86168" lon="2.44221">
        <ele>470.628912</ele>
        <time>2022-06-03T23:03:29.724Z</time>
      </trkpt>
      <trkpt lat="42.86165" lon="2.44284">
        <ele>471.370071</ele>
        <time>2022-06-03T23:03:41.247Z</time>
      </trkpt>
      <trkpt lat="42.86147" lon="2.44387">
        <ele>472.604304</ele>
        <time>2022-06-03T23:04:00.940Z</time>
      </trkpt>
      <trkpt lat="42.86149" lon="2.44407">
        <ele>472.8329</ele>
        <time>2022-06-03T23:04:04.709Z</time>
      </trkpt>
      <trkpt lat="42.86156" lon="2.44419">
        <ele>473.04813</ele>
        <time>2022-06-03T23:04:07.831Z</time>
      </trkpt>
      <trkpt lat="42.86167" lon="2.44424">
        <ele>473.320789</ele>
        <time>2022-06-03T23:04:10.896Z</time>
      </trkpt>
      <trkpt lat="42.86229" lon="2.44418">
        <ele>474.76643</ele>
        <time>2022-06-03T23:04:26.072Z</time>
      </trkpt>
      <trkpt lat="42.86239" lon="2.44429">
        <ele>475.059424</ele>
        <time>2022-06-03T23:04:28.861Z</time>
      </trkpt>
      <trkpt lat="42.86244" lon="2.44445">
        <ele>475.356738</ele>
        <time>2022-06-03T23:04:32.487Z</time>
      </trkpt>
      <trkpt lat="42.86238" lon="2.4447">
        <ele>475.80412</ele>
        <time>2022-06-03T23:04:37.275Z</time>
      </trkpt>
      <trkpt lat="42.86166" lon="2.44553">
        <ele>479.003037</ele>
        <time>2022-06-03T23:05:05.381Z</time>
      </trkpt>
      <trkpt lat="42.86162" lon="2.44577">
        <ele>479.944136</ele>
        <time>2022-06-03T23:05:11.430Z</time>
      </trkpt>
      <trkpt lat="42.86169" lon="2.44597">
        <ele>480.777962</ele>
        <time>2022-06-03T23:05:17.892Z</time>
      </trkpt>
      <trkpt lat="42.86246" lon="2.44686">
        <ele>486.000155</ele>
        <time>2022-06-03T23:05:59.856Z</time>
      </trkpt>
      <trkpt lat="42.86281" lon="2.44727">
        <ele>488.267384</ele>
        <time>2022-06-03T23:06:21.631Z</time>
      </trkpt>
      <trkpt lat="42.86296" lon="2.44768">
        <ele>489.865107</ele>
        <time>2022-06-03T23:06:36.519Z</time>
      </trkpt>
      <trkpt lat="42.86319" lon="2.44942">
        <ele>494.988555</ele>
        <time>2022-06-03T23:07:19.945Z</time>
      </trkpt>
      <trkpt lat="42.8632" lon="2.45023">
        <ele>494.626819</ele>
        <time>2022-06-03T23:07:31.636Z</time>
      </trkpt>
      <trkpt lat="42.86315" lon="2.45057">
        <ele>494.474402</ele>
        <time>2022-06-03T23:07:35.735Z</time>
      </trkpt>
      <trkpt lat="42.86205" lon="2.45213">
        <ele>490.348263</ele>
        <time>2022-06-03T23:07:57.401Z</time>
      </trkpt>
      <trkpt lat="42.862" lon="2.45231">
        <ele>489.751801</ele>
        <time>2022-06-03T23:07:59.151Z</time>
      </trkpt>
      <trkpt lat="42.86199" lon="2.45251">
        <ele>489.105278</ele>
        <time>2022-06-03T23:08:01.039Z</time>
      </trkpt>
      <trkpt lat="42.86213" lon="2.45336">
        <ele>486.282424</ele>
        <time>2022-06-03T23:08:09.075Z</time>
      </trkpt>
      <trkpt lat="42.86207" lon="2.45421">
        <ele>481.64945</ele>
        <time>2022-06-03T23:08:16.724Z</time>
      </trkpt>
      <trkpt lat="42.86226" lon="2.45491">
        <ele>477.500943</ele>
        <time>2022-06-03T23:08:23.172Z</time>
      </trkpt>
      <trkpt lat="42.86227" lon="2.45534">
        <ele>475.08708</ele>
        <time>2022-06-03T23:08:26.887Z</time>
      </trkpt>
      <trkpt lat="42.86237" lon="2.45604">
        <ele>470.981565</ele>
        <time>2022-06-03T23:08:32.901Z</time>
      </trkpt>
      <trkpt lat="42.86235" lon="2.45638">
        <ele>468.849753</ele>
        <time>2022-06-03T23:08:35.760Z</time>
      </trkpt>
      <trkpt lat="42.8623" lon="2.45672">
        <ele>466.640906</ele>
        <time>2022-06-03T23:08:38.706Z</time>
      </trkpt>
      <trkpt lat="42.86173" lon="2.45828">
        <ele>456.489853</ele>
        <time>2022-06-03T23:08:53.530Z</time>
      </trkpt>
      <trkpt lat="42.8617" lon="2.45853">
        <ele>455.686407</ele>
        <time>2022-06-03T23:08:55.840Z</time>
      </trkpt>
      <trkpt lat="42.86173" lon="2.45913">
        <ele>453.839785</ele>
        <time>2022-06-03T23:09:01.388Z</time>
      </trkpt>
      <trkpt lat="42.86176" lon="2.45929">
        <ele>453.326356</ele>
        <time>2022-06-03T23:09:02.976Z</time>
      </trkpt>
      <trkpt lat="42.86181" lon="2.45946">
        <ele>452.751266</ele>
        <time>2022-06-03T23:09:04.748Z</time>
      </trkpt>
      <trkpt lat="42.86182" lon="2.45952">
        <ele>452.564916</ele>
        <time>2022-06-03T23:09:05.338Z</time>
      </trkpt>
      <trkpt lat="42.86183" lon="2.45961">
        <ele>452.274475</ele>
        <time>2022-06-03T23:09:06.272Z</time>
      </trkpt>
      <trkpt lat="42.86186" lon="2.45974">
        <ele>451.867871</ele>
        <time>2022-06-03T23:09:07.599Z</time>
      </trkpt>
      <trkpt lat="42.86193" lon="2.46005">
        <ele>450.859377</ele>
        <time>2022-06-03T23:09:10.922Z</time>
      </trkpt>
      <trkpt lat="42.86163" lon="2.46011">
        <ele>449.592429</ele>
        <time>2022-06-03T23:09:15.418Z</time>
      </trkpt>
      <trkpt lat="42.86149" lon="2.46016">
        <ele>449.434928</ele>
        <time>2022-06-03T23:09:17.763Z</time>
      </trkpt>
      <trkpt lat="42.86138" lon="2.46017">
        <ele>449.339818</ele>
        <time>2022-06-03T23:09:19.723Z</time>
      </trkpt>
      <trkpt lat="42.86083" lon="2.46017">
        <ele>448.870172</ele>
        <time>2022-06-03T23:09:29.504Z</time>
      </trkpt>
      <trkpt lat="42.86069" lon="2.46016">
        <ele>448.753991</ele>
        <time>2022-06-03T23:09:32.003Z</time>
      </trkpt>
      <trkpt lat="42.86061" lon="2.46018">
        <ele>448.688824</ele>
        <time>2022-06-03T23:09:33.318Z</time>
      </trkpt>
      <trkpt lat="42.86051" lon="2.46037">
        <ele>448.545425</ele>
        <time>2022-06-03T23:09:35.993Z</time>
      </trkpt>
      <trkpt lat="42.86048" lon="2.46045">
        <ele>448.483211</ele>
        <time>2022-06-03T23:09:37.166Z</time>
      </trkpt>
      <trkpt lat="42.86038" lon="2.46056">
        <ele>448.375088</ele>
        <time>2022-06-03T23:09:39.171Z</time>
      </trkpt>
      <trkpt lat="42.85984" lon="2.46064">
        <ele>447.784718</ele>
        <time>2022-06-03T23:09:47.415Z</time>
      </trkpt>
      <trkpt lat="42.85939" lon="2.46086">
        <ele>446.810876</ele>
        <time>2022-06-03T23:09:55.199Z</time>
      </trkpt>
      <trkpt lat="42.85916" lon="2.461">
        <ele>446.310587</ele>
        <time>2022-06-03T23:09:59.103Z</time>
      </trkpt>
      <trkpt lat="42.85839" lon="2.4617">
        <ele>444.455716</ele>
        <time>2022-06-03T23:10:12.299Z</time>
      </trkpt>
      <trkpt lat="42.85777" lon="2.46195">
        <ele>442.010746</ele>
        <time>2022-06-03T23:10:20.840Z</time>
      </trkpt>
      <trkpt lat="42.85745" lon="2.46205">
        <ele>440.741556</ele>
        <time>2022-06-03T23:10:25.150Z</time>
      </trkpt>
      <trkpt lat="42.85707" lon="2.46238">
        <ele>439.021642</ele>
        <time>2022-06-03T23:10:31.049Z</time>
      </trkpt>
      <trkpt lat="42.85659" lon="2.46328">
        <ele>436.120105</ele>
        <time>2022-06-03T23:10:41.718Z</time>
      </trkpt>
      <trkpt lat="42.85603" lon="2.46434">
        <ele>432.995314</ele>
        <time>2022-06-03T23:10:54.729Z</time>
      </trkpt>
      <trkpt lat="42.85583" lon="2.46453">
        <ele>432.192877</ele>
        <time>2022-06-03T23:10:58.135Z</time>
      </trkpt>
      <trkpt lat="42.85553" lon="2.46458">
        <ele>431.207547</ele>
        <time>2022-06-03T23:11:02.544Z</time>
      </trkpt>
      <trkpt lat="42.85536" lon="2.46469">
        <ele>430.654029</ele>
        <time>2022-06-03T23:11:05.220Z</time>
      </trkpt>
      <trkpt lat="42.85483" lon="2.46518">
        <ele>428.70873</ele>
        <time>2022-06-03T23:11:14.376Z</time>
      </trkpt>
      <trkpt lat="42.85382" lon="2.46636">
        <ele>424.959484</ele>
        <time>2022-06-03T23:11:32.215Z</time>
      </trkpt>
      <trkpt lat="42.85362" lon="2.46645">
        <ele>424.462394</ele>
        <time>2022-06-03T23:11:34.972Z</time>
      </trkpt>
      <trkpt lat="42.85327" lon="2.46646">
        <ele>423.605703</ele>
        <time>2022-06-03T23:11:39.715Z</time>
      </trkpt>
      <trkpt lat="42.85316" lon="2.46659">
        <ele>423.257157</ele>
        <time>2022-06-03T23:11:41.631Z</time>
      </trkpt>
      <trkpt lat="42.85301" lon="2.46702">
        <ele>422.420358</ele>
        <time>2022-06-03T23:11:46.305Z</time>
      </trkpt>
      <trkpt lat="42.85256" lon="2.46945">
        <ele>431.483127</ele>
        <time>2022-06-03T23:12:38.112Z</time>
      </trkpt>
      <trkpt lat="42.85241" lon="2.47013">
        <ele>439.815965</ele>
        <time>2022-06-03T23:13:33.492Z</time>
      </trkpt>
      <trkpt lat="42.85262" lon="2.47041">
        <ele>446.7315</ele>
        <time>2022-06-03T23:14:09.481Z</time>
      </trkpt>
      <trkpt lat="42.85305" lon="2.47053">
        <ele>456.890956</ele>
        <time>2022-06-03T23:15:02.582Z</time>
      </trkpt>
      <trkpt lat="42.85308" lon="2.47057">
        <ele>457.88979</ele>
        <time>2022-06-03T23:15:07.851Z</time>
      </trkpt>
      <trkpt lat="42.853" lon="2.47064">
        <ele>460.01041</ele>
        <time>2022-06-03T23:15:18.752Z</time>
      </trkpt>
      <trkpt lat="42.85286" lon="2.47095">
        <ele>466.221531</ele>
        <time>2022-06-03T23:15:51.395Z</time>
      </trkpt>
      <trkpt lat="42.85268" lon="2.47109">
        <ele>471.19578</ele>
        <time>2022-06-03T23:16:17.434Z</time>
      </trkpt>
      <trkpt lat="42.8525" lon="2.4711">
        <ele>475.336667</ele>
        <time>2022-06-03T23:16:39.397Z</time>
      </trkpt>
      <trkpt lat="42.85241" lon="2.47119">
        <ele>477.451724</ele>
        <time>2022-06-03T23:16:52.048Z</time>
      </trkpt>
      <trkpt lat="42.85262" lon="2.47136">
        <ele>482.341565</ele>
        <time>2022-06-03T23:17:21.392Z</time>
      </trkpt>
      <trkpt lat="42.8525" lon="2.4714">
        <ele>484.883455</ele>
        <time>2022-06-03T23:17:36.446Z</time>
      </trkpt>
      <trkpt lat="42.85268" lon="2.47156">
        <ele>489.216526</ele>
        <time>2022-06-03T23:18:02.456Z</time>
      </trkpt>
      <trkpt lat="42.85257" lon="2.47162">
        <ele>491.607753</ele>
        <time>2022-06-03T23:18:15.560Z</time>
      </trkpt>
      <trkpt lat="42.85272" lon="2.47178">
        <ele>495.435165</ele>
        <time>2022-06-03T23:18:38.512Z</time>
      </trkpt>
      <trkpt lat="42.8526" lon="2.47183">
        <ele>498.065282</ele>
        <time>2022-06-03T23:18:49.269Z</time>
      </trkpt>
      <trkpt lat="42.8527" lon="2.47192">
        <ele>500.613111</ele>
        <time>2022-06-03T23:18:58.549Z</time>
      </trkpt>
      <trkpt lat="42.8528" lon="2.47227">
        <ele>506.002561</ele>
        <time>2022-06-03T23:19:13.223Z</time>
      </trkpt>
      <trkpt lat="42.8525" lon="2.47231">
        <ele>512.256535</ele>
        <time>2022-06-03T23:19:45.043Z</time>
      </trkpt>
      <trkpt lat="42.85234" lon="2.47251">
        <ele>517.750033</ele>
        <time>2022-06-03T23:20:11.139Z</time>
      </trkpt>
      <trkpt lat="42.85208" lon="2.4726">
        <ele>524.654987</ele>
        <time>2022-06-03T23:20:44.244Z</time>
      </trkpt>
      <trkpt lat="42.85208" lon="2.4727">
        <ele>526.455349</ele>
        <time>2022-06-03T23:20:51.950Z</time>
      </trkpt>
      <trkpt lat="42.85239" lon="2.473">
        <ele>536.141235</ele>
        <time>2022-06-03T23:21:38.053Z</time>
      </trkpt>
      <trkpt lat="42.85263" lon="2.47337">
        <ele>545.41398</ele>
        <time>2022-06-03T23:22:22.399Z</time>
      </trkpt>
      <trkpt lat="42.85271" lon="2.47362">
        <ele>550.488601</ele>
        <time>2022-06-03T23:22:46.922Z</time>
      </trkpt>
      <trkpt lat="42.85275" lon="2.47385">
        <ele>555.051892</ele>
        <time>2022-06-03T23:23:08.575Z</time>
      </trkpt>
      <trkpt lat="42.85262" lon="2.47384">
        <ele>558.353131</ele>
        <time>2022-06-03T23:23:24.164Z</time>
      </trkpt>
      <trkpt lat="42.8526" lon="2.47391">
        <ele>559.924891</ele>
        <time>2022-06-03T23:23:31.256Z</time>
      </trkpt>
      <trkpt lat="42.8527" lon="2.47461">
        <ele>574.135348</ele>
        <time>2022-06-03T23:24:35.753Z</time>
      </trkpt>
      <trkpt lat="42.85263" lon="2.47466">
        <ele>576.217046</ele>
        <time>2022-06-03T23:24:45.621Z</time>
      </trkpt>
      <trkpt lat="42.85267" lon="2.47504">
        <ele>583.951681</ele>
        <time>2022-06-03T23:25:21.028Z</time>
      </trkpt>
      <trkpt lat="42.85258" lon="2.47536">
        <ele>590.631613</ele>
        <time>2022-06-03T23:25:51.757Z</time>
      </trkpt>
      <trkpt lat="42.85258" lon="2.47573">
        <ele>597.983949</ele>
        <time>2022-06-03T23:26:24.641Z</time>
      </trkpt>
      <trkpt lat="42.85254" lon="2.47588">
        <ele>601.196583</ele>
        <time>2022-06-03T23:26:31.044Z</time>
      </trkpt>
      <trkpt lat="42.85246" lon="2.4759">
        <ele>603.188231</ele>
        <time>2022-06-03T23:26:38.205Z</time>
      </trkpt>
      <trkpt lat="42.85246" lon="2.47623">
        <ele>607.201477</ele>
        <time>2022-06-03T23:26:56.796Z</time>
      </trkpt>
      <trkpt lat="42.85237" lon="2.47659">
        <ele>609.719417</ele>
        <time>2022-06-03T23:27:22.742Z</time>
      </trkpt>
      <trkpt lat="42.85228" lon="2.47655">
        <ele>610.558778</ele>
        <time>2022-06-03T23:27:25.259Z</time>
      </trkpt>
      <trkpt lat="42.8519" lon="2.47603">
        <ele>615.567215</ele>
        <time>2022-06-03T23:27:57.857Z</time>
      </trkpt>
      <trkpt lat="42.85115" lon="2.47641">
        <ele>622.835511</ele>
        <time>2022-06-03T23:28:50.124Z</time>
      </trkpt>
      <trkpt lat="42.85104" lon="2.47654">
        <ele>623.931804</ele>
        <time>2022-06-03T23:28:53.019Z</time>
      </trkpt>
      <trkpt lat="42.851" lon="2.47673">
        <ele>625.023837</ele>
        <time>2022-06-03T23:29:03.890Z</time>
      </trkpt>
      <trkpt lat="42.85091" lon="2.47678">
        <ele>625.781457</ele>
        <time>2022-06-03T23:29:10.190Z</time>
      </trkpt>
      <trkpt lat="42.85086" lon="2.4769">
        <ele>626.516937</ele>
        <time>2022-06-03T23:29:12.066Z</time>
      </trkpt>
      <trkpt lat="42.8515" lon="2.47667">
        <ele>631.500088</ele>
        <time>2022-06-03T23:29:45.967Z</time>
      </trkpt>
      <trkpt lat="42.85164" lon="2.47668">
        <ele>632.565303</ele>
        <time>2022-06-03T23:29:51.711Z</time>
      </trkpt>
      <trkpt lat="42.85197" lon="2.4771">
        <ele>635.923051</ele>
        <time>2022-06-03T23:30:20.272Z</time>
      </trkpt>
      <trkpt lat="42.85214" lon="2.47748">
        <ele>640.66959</ele>
        <time>2022-06-03T23:30:40.498Z</time>
      </trkpt>
      <trkpt lat="42.8522" lon="2.47772">
        <ele>643.403226</ele>
        <time>2022-06-03T23:30:59.297Z</time>
      </trkpt>
      <trkpt lat="42.85229" lon="2.47858">
        <ele>652.634173</ele>
        <time>2022-06-03T23:31:53.109Z</time>
      </trkpt>
      <trkpt lat="42.85214" lon="2.4797">
        <ele>664.395642</ele>
        <time>2022-06-03T23:32:57.321Z</time>
      </trkpt>
      <trkpt lat="42.85223" lon="2.48043">
        <ele>670.800142</ele>
        <time>2022-06-03T23:33:37.657Z</time>
      </trkpt>
      <trkpt lat="42.85234" lon="2.4809">
        <ele>675.007269</ele>
        <time>2022-06-03T23:34:01.653Z</time>
      </trkpt>
      <trkpt lat="42.85268" lon="2.48155">
        <ele>681.952665</ele>
        <time>2022-06-03T23:34:38.335Z</time>
      </trkpt>
      <trkpt lat="42.85285" lon="2.48224">
        <ele>684.986741</ele>
        <time>2022-06-03T23:35:03.497Z</time>
      </trkpt>
      <trkpt lat="42.85303" lon="2.48271">
        <ele>686.455289</ele>
        <time>2022-06-03T23:35:18.784Z</time>
      </trkpt>
      <trkpt lat="42.85319" lon="2.48298">
        <ele>687.410861</ele>
        <time>2022-06-03T23:35:26.470Z</time>
      </trkpt>
      <trkpt lat="42.85337" lon="2.48316">
        <ele>688.272141</ele>
        <time>2022-06-03T23:35:33.910Z</time>
      </trkpt>
      <trkpt lat="42.85353" lon="2.48318">
        <ele>688.859673</ele>
        <time>2022-06-03T23:35:36.687Z</time>
      </trkpt>
      <trkpt lat="42.85369" lon="2.4833">
        <ele>689.548182</ele>
        <time>2022-06-03T23:35:41.606Z</time>
      </trkpt>
      <trkpt lat="42.85387" lon="2.48364">
        <ele>689.956863</ele>
        <time>2022-06-03T23:35:47.010Z</time>
      </trkpt>
      <trkpt lat="42.85398" lon="2.48403">
        <ele>689.178047</ele>
        <time>2022-06-03T23:35:51.551Z</time>
      </trkpt>
      <trkpt lat="42.85512" lon="2.48592">
        <ele>683.166539</ele>
        <time>2022-06-03T23:36:17.247Z</time>
      </trkpt>
      <trkpt lat="42.8553" lon="2.48632">
        <ele>681.221252</ele>
        <time>2022-06-03T23:36:21.814Z</time>
      </trkpt>
      <trkpt lat="42.85546" lon="2.48653">
        <ele>679.926882</ele>
        <time>2022-06-03T23:36:24.777Z</time>
      </trkpt>
      <trkpt lat="42.85558" lon="2.48688">
        <ele>678.322673</ele>
        <time>2022-06-03T23:36:28.386Z</time>
      </trkpt>
      <trkpt lat="42.85598" lon="2.48729">
        <ele>675.459265</ele>
        <time>2022-06-03T23:36:34.625Z</time>
      </trkpt>
      <trkpt lat="42.85633" lon="2.4879">
        <ele>671.145873</ele>
        <time>2022-06-03T23:36:41.531Z</time>
      </trkpt>
      <trkpt lat="42.85654" lon="2.48816">
        <ele>668.919405</ele>
        <time>2022-06-03T23:36:45.068Z</time>
      </trkpt>
      <trkpt lat="42.85671" lon="2.48864">
        <ele>665.918553</ele>
        <time>2022-06-03T23:36:49.851Z</time>
      </trkpt>
      <trkpt lat="42.85694" lon="2.48973">
        <ele>659.649967</ele>
        <time>2022-06-03T23:37:00.303Z</time>
      </trkpt>
      <trkpt lat="42.85698" lon="2.4902">
        <ele>657.213683</ele>
        <time>2022-06-03T23:37:04.606Z</time>
      </trkpt>
      <trkpt lat="42.85749" lon="2.49063">
        <ele>653.002216</ele>
        <time>2022-06-03T23:37:12.212Z</time>
      </trkpt>
      <trkpt lat="42.85783" lon="2.49084">
        <ele>650.390636</ele>
        <time>2022-06-03T23:37:16.993Z</time>
      </trkpt>
      <trkpt lat="42.858" lon="2.49107">
        <ele>648.734051</ele>
        <time>2022-06-03T23:37:19.826Z</time>
      </trkpt>
      <trkpt lat="42.85812" lon="2.49145">
        <ele>647.25332</ele>
        <time>2022-06-03T23:37:23.713Z</time>
      </trkpt>
      <trkpt lat="42.85822" lon="2.49279">
        <ele>642.548351</ele>
        <time>2022-06-03T23:37:36.624Z</time>
      </trkpt>
      <trkpt lat="42.85831" lon="2.49303">
        <ele>641.606771</ele>
        <time>2022-06-03T23:37:39.133Z</time>
      </trkpt>
      <trkpt lat="42.85814" lon="2.49341">
        <ele>640.247412</ele>
        <time>2022-06-03T23:37:44.414Z</time>
      </trkpt>
      <trkpt lat="42.85795" lon="2.49401">
        <ele>641.576338</ele>
        <time>2022-06-03T23:37:55.434Z</time>
      </trkpt>
      <trkpt lat="42.85724" lon="2.49498">
        <ele>644.406686</ele>
        <time>2022-06-03T23:38:30.116Z</time>
      </trkpt>
      <trkpt lat="42.85682" lon="2.4957">
        <ele>646.408459</ele>
        <time>2022-06-03T23:38:57.818Z</time>
      </trkpt>
      <trkpt lat="42.85639" lon="2.49671">
        <ele>649.122727</ele>
        <time>2022-06-03T23:39:26.723Z</time>
      </trkpt>
      <trkpt lat="42.85614" lon="2.49703">
        <ele>650.20609</ele>
        <time>2022-06-03T23:39:35.380Z</time>
      </trkpt>
      <trkpt lat="42.85607" lon="2.49726">
        <ele>650.768592</ele>
        <time>2022-06-03T23:39:39.602Z</time>
      </trkpt>
      <trkpt lat="42.85598" lon="2.49776">
        <ele>650.244273</ele>
        <time>2022-06-03T23:39:46.779Z</time>
      </trkpt>
      <trkpt lat="42.85591" lon="2.49911">
        <ele>648.435916</ele>
        <time>2022-06-03T23:40:02.238Z</time>
      </trkpt>
      <trkpt lat="42.85584" lon="2.49946">
        <ele>647.942935</ele>
        <time>2022-06-03T23:40:05.995Z</time>
      </trkpt>
      <trkpt lat="42.85609" lon="2.50013">
        <ele>646.658033</ele>
        <time>2022-06-03T23:40:13.424Z</time>
      </trkpt>
      <trkpt lat="42.85622" lon="2.50096">
        <ele>645.033931</ele>
        <time>2022-06-03T23:40:22.118Z</time>
      </trkpt>
      <trkpt lat="42.85626" lon="2.50169">
        <ele>643.637698</ele>
        <time>2022-06-03T23:40:29.904Z</time>
      </trkpt>
      <trkpt lat="42.85605" lon="2.50268">
        <ele>644.762927</ele>
        <time>2022-06-03T23:40:45.776Z</time>
      </trkpt>
      <trkpt lat="42.85569" lon="2.5035">
        <ele>647.556789</ele>
        <time>2022-06-03T23:41:10.982Z</time>
      </trkpt>
      <trkpt lat="42.85524" lon="2.50406">
        <ele>649.939667</ele>
        <time>2022-06-03T23:41:39.320Z</time>
      </trkpt>
      <trkpt lat="42.85527" lon="2.50466">
        <ele>652.588615</ele>
        <time>2022-06-03T23:41:59.529Z</time>
      </trkpt>
      <trkpt lat="42.85522" lon="2.50577">
        <ele>657.493393</ele>
        <time>2022-06-03T23:42:35.201Z</time>
      </trkpt>
      <trkpt lat="42.8549" lon="2.507">
        <ele>662.57056</ele>
        <time>2022-06-03T23:43:12.630Z</time>
      </trkpt>
      <trkpt lat="42.85441" lon="2.5076">
        <ele>665.344097</ele>
        <time>2022-06-03T23:43:36.822Z</time>
      </trkpt>
      <trkpt lat="42.85433" lon="2.50852">
        <ele>668.222834</ele>
        <time>2022-06-03T23:43:59.482Z</time>
      </trkpt>
      <trkpt lat="42.8541" lon="2.50913">
        <ele>668.575861</ele>
        <time>2022-06-03T23:44:15.217Z</time>
      </trkpt>
      <trkpt lat="42.85393" lon="2.50992">
        <ele>668.681711</ele>
        <time>2022-06-03T23:44:29.710Z</time>
      </trkpt>
      <trkpt lat="42.85363" lon="2.51081">
        <ele>668.806199</ele>
        <time>2022-06-03T23:44:40.712Z</time>
      </trkpt>
      <trkpt lat="42.85344" lon="2.51182">
        <ele>665.502575</ele>
        <time>2022-06-03T23:44:51.115Z</time>
      </trkpt>
      <trkpt lat="42.85318" lon="2.51278">
        <ele>662.066609</ele>
        <time>2022-06-03T23:45:01.033Z</time>
      </trkpt>
      <trkpt lat="42.85288" lon="2.51355">
        <ele>659.039422</ele>
        <time>2022-06-03T23:45:09.537Z</time>
      </trkpt>
      <trkpt lat="42.85225" lon="2.51606">
        <ele>649.512454</ele>
        <time>2022-06-03T23:45:35.715Z</time>
      </trkpt>
      <trkpt lat="42.85197" lon="2.51734">
        <ele>644.536824</ele>
        <time>2022-06-03T23:45:48.685Z</time>
      </trkpt>
      <trkpt lat="42.85192" lon="2.51787">
        <ele>642.45708</ele>
        <time>2022-06-03T23:45:53.915Z</time>
      </trkpt>
      <trkpt lat="42.85156" lon="2.51967">
        <ele>632.943989</ele>
        <time>2022-06-03T23:46:11.438Z</time>
      </trkpt>
      <trkpt lat="42.85151" lon="2.52167">
        <ele>619.565163</ele>
        <time>2022-06-03T23:46:28.930Z</time>
      </trkpt>
      <trkpt lat="42.85155" lon="2.52223">
        <ele>615.44614</ele>
        <time>2022-06-03T23:46:33.791Z</time>
      </trkpt>
      <trkpt lat="42.8515" lon="2.52303">
        <ele>610.729155</ele>
        <time>2022-06-03T23:46:40.819Z</time>
      </trkpt>
      <trkpt lat="42.85136" lon="2.52368">
        <ele>607.857415</ele>
        <time>2022-06-03T23:46:46.864Z</time>
      </trkpt>
      <trkpt lat="42.85127" lon="2.52391">
        <ele>606.778684</ele>
        <time>2022-06-03T23:46:49.198Z</time>
      </trkpt>
      <trkpt lat="42.85057" lon="2.52497">
        <ele>601.861079</ele>
        <time>2022-06-03T23:47:04.999Z</time>
      </trkpt>
      <trkpt lat="42.85033" lon="2.52562">
        <ele>601.715388</ele>
        <time>2022-06-03T23:47:14.947Z</time>
      </trkpt>
      <trkpt lat="42.85011" lon="2.52597">
        <ele>601.623101</ele>
        <time>2022-06-03T23:47:21.528Z</time>
      </trkpt>
      <trkpt lat="42.85014" lon="2.52623">
        <ele>601.571459</ele>
        <time>2022-06-03T23:47:24.529Z</time>
      </trkpt>
      <trkpt lat="42.8503" lon="2.52639">
        <ele>601.518628</ele>
        <time>2022-06-03T23:47:27.900Z</time>
      </trkpt>
      <trkpt lat="42.85058" lon="2.52655">
        <ele>601.435319</ele>
        <time>2022-06-03T23:47:34.474Z</time>
      </trkpt>
      <trkpt lat="42.85103" lon="2.52648">
        <ele>602.735354</ele>
        <time>2022-06-03T23:47:45.521Z</time>
      </trkpt>
      <trkpt lat="42.85133" lon="2.52687">
        <ele>604.032905</ele>
        <time>2022-06-03T23:47:57.652Z</time>
      </trkpt>
      <trkpt lat="42.85143" lon="2.52722">
        <ele>604.875009</ele>
        <time>2022-06-03T23:48:05.183Z</time>
      </trkpt>
      <trkpt lat="42.85192" lon="2.5285">
        <ele>607.908307</ele>
        <time>2022-06-03T23:48:46.538Z</time>
      </trkpt>
      <trkpt lat="42.8521" lon="2.5293">
        <ele>609.406141</ele>
        <time>2022-06-03T23:49:12.818Z</time>
      </trkpt>
      <trkpt lat="42.85238" lon="2.53">
        <ele>610.831245</ele>
        <time>2022-06-03T23:49:24.810Z</time>
      </trkpt>
      <trkpt lat="42.85262" lon="2.5302">
        <ele>610.970083</ele>
        <time>2022-06-03T23:49:28.902Z</time>
      </trkpt>
      <trkpt lat="42.85278" lon="2.53024">
        <ele>609.911157</ele>
        <time>2022-06-03T23:49:31.249Z</time>
      </trkpt>
      <trkpt lat="42.85299" lon="2.53049">
        <ele>608.031188</ele>
        <time>2022-06-03T23:49:35.107Z</time>
      </trkpt>
      <trkpt lat="42.85328" lon="2.53055">
        <ele>606.102908</ele>
        <time>2022-06-03T23:49:38.764Z</time>
      </trkpt>
      <trkpt lat="42.8536" lon="2.53031">
        <ele>603.684641</ele>
        <time>2022-06-03T23:49:43.222Z</time>
      </trkpt>
      <trkpt lat="42.85391" lon="2.53025">
        <ele>601.594618</ele>
        <time>2022-06-03T23:49:47.070Z</time>
      </trkpt>
      <trkpt lat="42.85442" lon="2.53066">
        <ele>598.253984</ele>
        <time>2022-06-03T23:49:54.104Z</time>
      </trkpt>
      <trkpt lat="42.85469" lon="2.5308">
        <ele>596.90157</ele>
        <time>2022-06-03T23:49:57.668Z</time>
      </trkpt>
      <trkpt lat="42.85484" lon="2.53097">
        <ele>596.014904</ele>
        <time>2022-06-03T23:50:00.172Z</time>
      </trkpt>
      <trkpt lat="42.85494" lon="2.53097">
        <ele>595.543603</ele>
        <time>2022-06-03T23:50:01.539Z</time>
      </trkpt>
      <trkpt lat="42.85498" lon="2.53073">
        <ele>594.704114</ele>
        <time>2022-06-03T23:50:04.434Z</time>
      </trkpt>
      <trkpt lat="42.85497" lon="2.53001">
        <ele>592.29641</ele>
        <time>2022-06-03T23:50:12.917Z</time>
      </trkpt>
      <trkpt lat="42.8552" lon="2.52929">
        <ele>589.936658</ele>
        <time>2022-06-03T23:50:21.867Z</time>
      </trkpt>
      <trkpt lat="42.85525" lon="2.52826">
        <ele>587.144886</ele>
        <time>2022-06-03T23:50:32.434Z</time>
      </trkpt>
      <trkpt lat="42.85531" lon="2.52789">
        <ele>586.129219</ele>
        <time>2022-06-03T23:50:36.206Z</time>
      </trkpt>
      <trkpt lat="42.8558" lon="2.52665">
        <ele>580.723839</ele>
        <time>2022-06-03T23:50:50.202Z</time>
      </trkpt>
      <trkpt lat="42.85609" lon="2.52632">
        <ele>578.373196</ele>
        <time>2022-06-03T23:50:54.807Z</time>
      </trkpt>
      <trkpt lat="42.85654" lon="2.52626">
        <ele>575.54867</ele>
        <time>2022-06-03T23:51:00.317Z</time>
      </trkpt>
      <trkpt lat="42.85665" lon="2.52632">
        <ele>574.812175</ele>
        <time>2022-06-03T23:51:01.802Z</time>
      </trkpt>
      <trkpt lat="42.85675" lon="2.52646">
        <ele>573.88831</ele>
        <time>2022-06-03T23:51:03.637Z</time>
      </trkpt>
      <trkpt lat="42.85705" lon="2.52699">
        <ele>571.570735</ele>
        <time>2022-06-03T23:51:10.195Z</time>
      </trkpt>
      <trkpt lat="42.85712" lon="2.52731">
        <ele>570.515105</ele>
        <time>2022-06-03T23:51:15.979Z</time>
      </trkpt>
      <trkpt lat="42.85747" lon="2.52815">
        <ele>567.491711</ele>
        <time>2022-06-03T23:51:32.556Z</time>
      </trkpt>
      <trkpt lat="42.85779" lon="2.52931">
        <ele>565.027577</ele>
        <time>2022-06-03T23:51:55.081Z</time>
      </trkpt>
      <trkpt lat="42.85818" lon="2.53029">
        <ele>564.157159</ele>
        <time>2022-06-03T23:52:18.752Z</time>
      </trkpt>
      <trkpt lat="42.8583" lon="2.53048">
        <ele>563.963222</ele>
        <time>2022-06-03T23:52:24.130Z</time>
      </trkpt>
      <trkpt lat="42.85843" lon="2.53058">
        <ele>563.804283</ele>
        <time>2022-06-03T23:52:28.473Z</time>
      </trkpt>
      <trkpt lat="42.85842" lon="2.53081">
        <ele>563.628517</ele>
        <time>2022-06-03T23:52:33.504Z</time>
      </trkpt>
      <trkpt lat="42.85823" lon="2.53105">
        <ele>563.659981</ele>
        <time>2022-06-03T23:52:40.970Z</time>
      </trkpt>
      <trkpt lat="42.85819" lon="2.53119">
        <ele>563.691053</ele>
        <time>2022-06-03T23:52:44.412Z</time>
      </trkpt>
      <trkpt lat="42.85823" lon="2.5314">
        <ele>563.737533</ele>
        <time>2022-06-03T23:52:49.214Z</time>
      </trkpt>
      <trkpt lat="42.85933" lon="2.53295">
        <ele>564.102221</ele>
        <time>2022-06-03T23:53:38.446Z</time>
      </trkpt>
      <trkpt lat="42.85984" lon="2.53337">
        <ele>564.105681</ele>
        <time>2022-06-03T23:53:58.072Z</time>
      </trkpt>
      <trkpt lat="42.86014" lon="2.53389">
        <ele>564.108502</ele>
        <time>2022-06-03T23:54:13.034Z</time>
      </trkpt>
      <trkpt lat="42.86006" lon="2.53427">
        <ele>564.110188</ele>
        <time>2022-06-03T23:54:21.202Z</time>
      </trkpt>
      <trkpt lat="42.85986" lon="2.53477">
        <ele>563.440284</ele>
        <time>2022-06-03T23:54:32.353Z</time>
      </trkpt>
      <trkpt lat="42.85982" lon="2.53503">
        <ele>562.950208</ele>
        <time>2022-06-03T23:54:37.515Z</time>
      </trkpt>
      <trkpt lat="42.85988" lon="2.53565">
        <ele>561.807441</ele>
        <time>2022-06-03T23:54:49.265Z</time>
      </trkpt>
      <trkpt lat="42.85986" lon="2.53611">
        <ele>560.966375</ele>
        <time>2022-06-03T23:54:57.598Z</time>
      </trkpt>
      <trkpt lat="42.85994" lon="2.53658">
        <ele>560.093501</ele>
        <time>2022-06-03T23:55:06.079Z</time>
      </trkpt>
      <trkpt lat="42.86042" lon="2.53745">
        <ele>558.170108</ele>
        <time>2022-06-03T23:55:25.345Z</time>
      </trkpt>
      <trkpt lat="42.86062" lon="2.53809">
        <ele>556.959513</ele>
        <time>2022-06-03T23:55:38.108Z</time>
      </trkpt>
      <trkpt lat="42.86089" lon="2.53865">
        <ele>555.771413</ele>
        <time>2022-06-03T23:55:51.597Z</time>
      </trkpt>
      <trkpt lat="42.86108" lon="2.53879">
        <ele>555.289219</ele>
        <time>2022-06-03T23:55:57.499Z</time>
      </trkpt>
      <trkpt lat="42.86116" lon="2.53909">
        <ele>554.952457</ele>
        <time>2022-06-03T23:56:04.096Z</time>
      </trkpt>
      <trkpt lat="42.86155" lon="2.53923">
        <ele>554.384157</ele>
        <time>2022-06-03T23:56:15.191Z</time>
      </trkpt>
      <trkpt lat="42.86162" lon="2.53953">
        <ele>554.046468</ele>
        <time>2022-06-03T23:56:21.652Z</time>
      </trkpt>
      <trkpt lat="42.86181" lon="2.53967">
        <ele>553.750264</ele>
        <time>2022-06-03T23:56:27.132Z</time>
      </trkpt>
      <trkpt lat="42.86188" lon="2.53986">
        <ele>553.522965</ele>
        <time>2022-06-03T23:56:31.297Z</time>
      </trkpt>
      <trkpt lat="42.86192" lon="2.54032">
        <ele>553.047891</ele>
        <time>2022-06-03T23:56:40.008Z</time>
      </trkpt>
      <trkpt lat="42.86204" lon="2.5406">
        <ele>552.711402</ele>
        <time>2022-06-03T23:56:46.419Z</time>
      </trkpt>
      <trkpt lat="42.8624" lon="2.54106">
        <ele>552.119624</ele>
        <time>2022-06-03T23:56:59.360Z</time>
      </trkpt>
      <trkpt lat="42.86245" lon="2.5413">
        <ele>551.892674</ele>
        <time>2022-06-03T23:57:04.294Z</time>
      </trkpt>
      <trkpt lat="42.86253" lon="2.5414">
        <ele>551.767367</ele>
        <time>2022-06-03T23:57:07.015Z</time>
      </trkpt>
      <trkpt lat="42.86272" lon="2.54166">
        <ele>551.438948</ele>
        <time>2022-06-03T23:57:14.248Z</time>
      </trkpt>
      <trkpt lat="42.8629" lon="2.54203">
        <ele>551.050206</ele>
        <time>2022-06-03T23:57:22.945Z</time>
      </trkpt>
      <trkpt lat="42.86323" lon="2.54297">
        <ele>551.329413</ele>
        <time>2022-06-03T23:57:45.254Z</time>
      </trkpt>
      <trkpt lat="42.86345" lon="2.54319">
        <ele>551.867941</ele>
        <time>2022-06-03T23:57:55.352Z</time>
      </trkpt>
      <trkpt lat="42.86363" lon="2.54348">
        <ele>552.393025</ele>
        <time>2022-06-03T23:58:06.041Z</time>
      </trkpt>
      <trkpt lat="42.86372" lon="2.54433">
        <ele>553.609012</ele>
        <time>2022-06-03T23:58:32.278Z</time>
      </trkpt>
      <trkpt lat="42.86393" lon="2.5447">
        <ele>554.202109</ele>
        <time>2022-06-03T23:58:47.245Z</time>
      </trkpt>
      <trkpt lat="42.86407" lon="2.54537">
        <ele>554.832938</ele>
        <time>2022-06-03T23:59:08.599Z</time>
      </trkpt>
      <trkpt lat="42.86443" lon="2.54627">
        <ele>555.77872</ele>
        <time>2022-06-03T23:59:36.239Z</time>
      </trkpt>
      <trkpt lat="42.86454" lon="2.54637">
        <ele>555.939699</ele>
        <time>2022-06-03T23:59:40.051Z</time>
      </trkpt>
      <trkpt lat="42.86471" lon="2.54632">
        <ele>556.166401</ele>
        <time>2022-06-03T23:59:45.201Z</time>
      </trkpt>
      <trkpt lat="42.86484" lon="2.54637">
        <ele>556.213863</ele>
        <time>2022-06-03T23:59:48.763Z</time>
      </trkpt>
      <trkpt lat="42.8651" lon="2.54659">
        <ele>554.161454</ele>
        <time>2022-06-03T23:59:56.560Z</time>
      </trkpt>
      <trkpt lat="42.86526" lon="2.54688">
        <ele>552.416606</ele>
        <time>2022-06-04T00:00:02.776Z</time>
      </trkpt>
      <trkpt lat="42.86544" lon="2.54778">
        <ele>547.822238</ele>
        <time>2022-06-04T00:00:17.552Z</time>
      </trkpt>
      <trkpt lat="42.86541" lon="2.54877">
        <ele>542.057239</ele>
        <time>2022-06-04T00:00:32.405Z</time>
      </trkpt>
      <trkpt lat="42.86528" lon="2.54944">
        <ele>536.285168</ele>
        <time>2022-06-04T00:00:42.682Z</time>
      </trkpt>
      <trkpt lat="42.86526" lon="2.55024">
        <ele>529.562528</ele>
        <time>2022-06-04T00:00:49.592Z</time>
      </trkpt>
      <trkpt lat="42.86491" lon="2.55155">
        <ele>517.82235</ele>
        <time>2022-06-04T00:01:01.321Z</time>
      </trkpt>
      <trkpt lat="42.86456" lon="2.55386">
        <ele>498.827684</ele>
        <time>2022-06-04T00:01:21.558Z</time>
      </trkpt>
      <trkpt lat="42.8646" lon="2.55436">
        <ele>495.44327</ele>
        <time>2022-06-04T00:01:25.924Z</time>
      </trkpt>
      <trkpt lat="42.86504" lon="2.55503">
        <ele>489.452819</ele>
        <time>2022-06-04T00:01:33.954Z</time>
      </trkpt>
      <trkpt lat="42.86503" lon="2.55523">
        <ele>488.119084</ele>
        <time>2022-06-04T00:01:35.865Z</time>
      </trkpt>
      <trkpt lat="42.86478" lon="2.55563">
        <ele>485.038413</ele>
        <time>2022-06-04T00:01:40.658Z</time>
      </trkpt>
      <trkpt lat="42.86436" lon="2.55629">
        <ele>480.543282</ele>
        <time>2022-06-04T00:01:48.757Z</time>
      </trkpt>
      <trkpt lat="42.86424" lon="2.55637">
        <ele>479.543797</ele>
        <time>2022-06-04T00:01:50.518Z</time>
      </trkpt>
      <trkpt lat="42.86395" lon="2.55636">
        <ele>477.527214</ele>
        <time>2022-06-04T00:01:54.114Z</time>
      </trkpt>
      <trkpt lat="42.86377" lon="2.55657">
        <ele>475.866148</ele>
        <time>2022-06-04T00:01:56.962Z</time>
      </trkpt>
      <trkpt lat="42.86368" lon="2.55692">
        <ele>473.929345</ele>
        <time>2022-06-04T00:02:00.478Z</time>
      </trkpt>
      <trkpt lat="42.86349" lon="2.55723">
        <ele>472.081636</ele>
        <time>2022-06-04T00:02:04.275Z</time>
      </trkpt>
      <trkpt lat="42.86336" lon="2.55766">
        <ele>469.96355</ele>
        <time>2022-06-04T00:02:08.667Z</time>
      </trkpt>
      <trkpt lat="42.86269" lon="2.55806">
        <ele>465.456927</ele>
        <time>2022-06-04T00:02:18.106Z</time>
      </trkpt>
      <trkpt lat="42.86247" lon="2.55832">
        <ele>463.630164</ele>
        <time>2022-06-04T00:02:21.963Z</time>
      </trkpt>
      <trkpt lat="42.86245" lon="2.55845">
        <ele>463.015433</ele>
        <time>2022-06-04T00:02:23.205Z</time>
      </trkpt>
      <trkpt lat="42.86257" lon="2.55854">
        <ele>462.015913</ele>
        <time>2022-06-04T00:02:24.916Z</time>
      </trkpt>
      <trkpt lat="42.86277" lon="2.55838">
        <ele>460.084141</ele>
        <time>2022-06-04T00:02:27.758Z</time>
      </trkpt>
      <trkpt lat="42.86321" lon="2.55842">
        <ele>456.363622</ele>
        <time>2022-06-04T00:02:33.385Z</time>
      </trkpt>
      <trkpt lat="42.86332" lon="2.5585">
        <ele>455.26209</ele>
        <time>2022-06-04T00:02:35.057Z</time>
      </trkpt>
      <trkpt lat="42.86392" lon="2.55932">
        <ele>448.097637</ele>
        <time>2022-06-04T00:02:45.288Z</time>
      </trkpt>
      <trkpt lat="42.86453" lon="2.55933">
        <ele>441.397886</ele>
        <time>2022-06-04T00:02:52.245Z</time>
      </trkpt>
      <trkpt lat="42.86461" lon="2.55939">
        <ele>440.308758</ele>
        <time>2022-06-04T00:02:53.345Z</time>
      </trkpt>
      <trkpt lat="42.86465" lon="2.55948">
        <ele>439.416051</ele>
        <time>2022-06-04T00:02:54.245Z</time>
      </trkpt>
      <trkpt lat="42.86467" lon="2.55988">
        <ele>436.084081</ele>
        <time>2022-06-04T00:02:57.602Z</time>
      </trkpt>
      <trkpt lat="42.86466" lon="2.55998">
        <ele>435.22464</ele>
        <time>2022-06-04T00:02:58.488Z</time>
      </trkpt>
      <trkpt lat="42.86441" lon="2.56057">
        <ele>429.459729</ele>
        <time>2022-06-04T00:03:04.124Z</time>
      </trkpt>
      <trkpt lat="42.86415" lon="2.56096">
        <ele>425.234798</ele>
        <time>2022-06-04T00:03:08.453Z</time>
      </trkpt>
      <trkpt lat="42.86377" lon="2.56106">
        <ele>421.173171</ele>
        <time>2022-06-04T00:03:12.749Z</time>
      </trkpt>
      <trkpt lat="42.86332" lon="2.56105">
        <ele>416.488879</ele>
        <time>2022-06-04T00:03:17.715Z</time>
      </trkpt>
      <trkpt lat="42.8632" lon="2.56117">
        <ele>414.917068</ele>
        <time>2022-06-04T00:03:19.417Z</time>
      </trkpt>
      <trkpt lat="42.86317" lon="2.5614">
        <ele>413.114272</ele>
        <time>2022-06-04T00:03:21.348Z</time>
      </trkpt>
      <trkpt lat="42.86323" lon="2.56156">
        <ele>411.732864</ele>
        <time>2022-06-04T00:03:22.940Z</time>
      </trkpt>
      <trkpt lat="42.8637" lon="2.56201">
        <ele>405.794907</ele>
        <time>2022-06-04T00:03:29.608Z</time>
      </trkpt>
      <trkpt lat="42.86419" lon="2.56228">
        <ele>400.436106</ele>
        <time>2022-06-04T00:03:35.686Z</time>
      </trkpt>
      <trkpt lat="42.86442" lon="2.56251">
        <ele>397.537785</ele>
        <time>2022-06-04T00:03:38.992Z</time>
      </trkpt>
      <trkpt lat="42.86443" lon="2.56272">
        <ele>395.939661</ele>
        <time>2022-06-04T00:03:40.834Z</time>
      </trkpt>
      <trkpt lat="42.86431" lon="2.56291">
        <ele>393.982817</ele>
        <time>2022-06-04T00:03:43.073Z</time>
      </trkpt>
      <trkpt lat="42.86392" lon="2.56321">
        <ele>389.457894</ele>
        <time>2022-06-04T00:03:48.364Z</time>
      </trkpt>
      <trkpt lat="42.86379" lon="2.56336">
        <ele>387.583372</ele>
        <time>2022-06-04T00:03:50.396Z</time>
      </trkpt>
      <trkpt lat="42.86377" lon="2.56341">
        <ele>387.182079</ele>
        <time>2022-06-04T00:03:50.871Z</time>
      </trkpt>
      <trkpt lat="42.86348" lon="2.56416">
        <ele>380.525201</ele>
        <time>2022-06-04T00:03:58.139Z</time>
      </trkpt>
      <trkpt lat="42.86311" lon="2.56457">
        <ele>375.345915</ele>
        <time>2022-06-04T00:04:03.877Z</time>
      </trkpt>
      <trkpt lat="42.86291" lon="2.56465">
        <ele>373.120028</ele>
        <time>2022-06-04T00:04:06.238Z</time>
      </trkpt>
      <trkpt lat="42.86294" lon="2.56533">
        <ele>368.734222</ele>
        <time>2022-06-04T00:04:12.055Z</time>
      </trkpt>
      <trkpt lat="42.86299" lon="2.56596">
        <ele>365.559323</ele>
        <time>2022-06-04T00:04:17.763Z</time>
      </trkpt>
      <trkpt lat="42.86325" lon="2.56616">
        <ele>363.541433</ele>
        <time>2022-06-04T00:04:21.610Z</time>
      </trkpt>
      <trkpt lat="42.86326" lon="2.56626">
        <ele>363.056751</ele>
        <time>2022-06-04T00:04:22.493Z</time>
      </trkpt>
      <trkpt lat="42.86329" lon="2.56648">
        <ele>361.930146</ele>
        <time>2022-06-04T00:04:24.658Z</time>
      </trkpt>
      <trkpt lat="42.86336" lon="2.56673">
        <ele>360.603296</ele>
        <time>2022-06-04T00:04:27.272Z</time>
      </trkpt>
      <trkpt lat="42.86341" lon="2.56692">
        <ele>359.575809</ele>
        <time>2022-06-04T00:04:29.432Z</time>
      </trkpt>
      <trkpt lat="42.86345" lon="2.56702">
        <ele>359.035383</ele>
        <time>2022-06-04T00:04:30.559Z</time>
      </trkpt>
      <trkpt lat="42.86353" lon="2.56704">
        <ele>358.441272</ele>
        <time>2022-06-04T00:04:31.746Z</time>
      </trkpt>
      <trkpt lat="42.86365" lon="2.5669">
        <ele>357.888648</ele>
        <time>2022-06-04T00:04:34.016Z</time>
      </trkpt>
      <trkpt lat="42.86369" lon="2.56682">
        <ele>357.707848</ele>
        <time>2022-06-04T00:04:35.151Z</time>
      </trkpt>
      <trkpt lat="42.86378" lon="2.56666">
        <ele>357.338886</ele>
        <time>2022-06-04T00:04:37.268Z</time>
      </trkpt>
      <trkpt lat="42.86385" lon="2.56642">
        <ele>356.862527</ele>
        <time>2022-06-04T00:04:40.259Z</time>
      </trkpt>
      <trkpt lat="42.86399" lon="2.56588">
        <ele>355.810292</ele>
        <time>2022-06-04T00:04:46.648Z</time>
      </trkpt>
      <trkpt lat="42.86414" lon="2.56583">
        <ele>355.41155</ele>
        <time>2022-06-04T00:04:49.004Z</time>
      </trkpt>
      <trkpt lat="42.86423" lon="2.5654">
        <ele>354.587253</ele>
        <time>2022-06-04T00:04:54.312Z</time>
      </trkpt>
      <trkpt lat="42.86431" lon="2.56535">
        <ele>354.362904</ele>
        <time>2022-06-04T00:04:55.777Z</time>
      </trkpt>
      <trkpt lat="42.86448" lon="2.56538">
        <ele>353.94822</ele>
        <time>2022-06-04T00:04:58.552Z</time>
      </trkpt>
      <trkpt lat="42.86537" lon="2.56641">
        <ele>351.002191</ele>
        <time>2022-06-04T00:05:13.711Z</time>
      </trkpt>
      <trkpt lat="42.8658" lon="2.56671">
        <ele>349.795803</ele>
        <time>2022-06-04T00:05:20.845Z</time>
      </trkpt>
      <trkpt lat="42.86587" lon="2.56704">
        <ele>349.153223</ele>
        <time>2022-06-04T00:05:25.858Z</time>
      </trkpt>
      <trkpt lat="42.86598" lon="2.56722">
        <ele>349.669348</ele>
        <time>2022-06-04T00:05:28.629Z</time>
      </trkpt>
      <trkpt lat="42.86635" lon="2.56729">
        <ele>350.871281</ele>
        <time>2022-06-04T00:05:36.879Z</time>
      </trkpt>
      <trkpt lat="42.86669" lon="2.56755">
        <ele>352.086964</ele>
        <time>2022-06-04T00:05:47.568Z</time>
      </trkpt>
      <trkpt lat="42.86708" lon="2.56781">
        <ele>353.465714</ele>
        <time>2022-06-04T00:06:03.284Z</time>
      </trkpt>
      <trkpt lat="42.86727" lon="2.56803">
        <ele>354.24138</ele>
        <time>2022-06-04T00:06:12.600Z</time>
      </trkpt>
      <trkpt lat="42.86757" lon="2.56817">
        <ele>355.752898</ele>
        <time>2022-06-04T00:06:26.054Z</time>
      </trkpt>
      <trkpt lat="42.86766" lon="2.5683">
        <ele>356.698181</ele>
        <time>2022-06-04T00:06:32.336Z</time>
      </trkpt>
      <trkpt lat="42.86777" lon="2.56861">
        <ele>358.545487</ele>
        <time>2022-06-04T00:06:44.662Z</time>
      </trkpt>
      <trkpt lat="42.86788" lon="2.56921">
        <ele>361.79277</ele>
        <time>2022-06-04T00:07:07.528Z</time>
      </trkpt>
      <trkpt lat="42.86815" lon="2.57006">
        <ele>366.591095</ele>
        <time>2022-06-04T00:07:37.873Z</time>
      </trkpt>
      <trkpt lat="42.86824" lon="2.57063">
        <ele>370.257834</ele>
        <time>2022-06-04T00:07:57.769Z</time>
      </trkpt>
      <trkpt lat="42.86838" lon="2.57098">
        <ele>372.980117</ele>
        <time>2022-06-04T00:08:12.399Z</time>
      </trkpt>
      <trkpt lat="42.86862" lon="2.5713">
        <ele>376.105283</ele>
        <time>2022-06-04T00:08:31.256Z</time>
      </trkpt>
      <trkpt lat="42.86875" lon="2.57139">
        <ele>377.458819</ele>
        <time>2022-06-04T00:08:40.238Z</time>
      </trkpt>
      <trkpt lat="42.86911" lon="2.57146">
        <ele>380.90013</ele>
        <time>2022-06-04T00:09:03.886Z</time>
      </trkpt>
      <trkpt lat="42.86929" lon="2.57156">
        <ele>382.64724</ele>
        <time>2022-06-04T00:09:15.193Z</time>
      </trkpt>
      <trkpt lat="42.86952" lon="2.57187">
        <ele>385.25298</ele>
        <time>2022-06-04T00:09:34.219Z</time>
      </trkpt>
      <trkpt lat="42.87005" lon="2.57234">
        <ele>389.102702</ele>
        <time>2022-06-04T00:10:06.936Z</time>
      </trkpt>
      <trkpt lat="42.87011" lon="2.57244">
        <ele>389.713677</ele>
        <time>2022-06-04T00:10:10.613Z</time>
      </trkpt>
      <trkpt lat="42.87022" lon="2.5726">
        <ele>390.665853</ele>
        <time>2022-06-04T00:10:18.197Z</time>
      </trkpt>
      <trkpt lat="42.87041" lon="2.57271">
        <ele>391.967825</ele>
        <time>2022-06-04T00:10:25.587Z</time>
      </trkpt>
      <trkpt lat="42.87137" lon="2.57276">
        <ele>394.096699</ele>
        <time>2022-06-04T00:10:54.546Z</time>
      </trkpt>
      <trkpt lat="42.87175" lon="2.5729">
        <ele>392.759629</ele>
        <time>2022-06-04T00:11:00.321Z</time>
      </trkpt>
      <trkpt lat="42.87198" lon="2.57288">
        <ele>391.949426</ele>
        <time>2022-06-04T00:11:03.531Z</time>
      </trkpt>
      <trkpt lat="42.87223" lon="2.57269">
        <ele>390.984325</ele>
        <time>2022-06-04T00:11:07.269Z</time>
      </trkpt>
      <trkpt lat="42.87243" lon="2.57238">
        <ele>389.931014</ele>
        <time>2022-06-04T00:11:11.181Z</time>
      </trkpt>
      <trkpt lat="42.8726" lon="2.57226">
        <ele>389.27332</ele>
        <time>2022-06-04T00:11:13.544Z</time>
      </trkpt>
      <trkpt lat="42.87292" lon="2.57219">
        <ele>385.645084</ele>
        <time>2022-06-04T00:11:17.381Z</time>
      </trkpt>
      <trkpt lat="42.87308" lon="2.57225">
        <ele>383.77759</ele>
        <time>2022-06-04T00:11:19.331Z</time>
      </trkpt>
      <trkpt lat="42.87372" lon="2.57222">
        <ele>376.573845</ele>
        <time>2022-06-04T00:11:26.818Z</time>
      </trkpt>
      <trkpt lat="42.87457" lon="2.57248">
        <ele>366.900559</ele>
        <time>2022-06-04T00:11:36.802Z</time>
      </trkpt>
      <trkpt lat="42.87472" lon="2.57245">
        <ele>365.270792</ele>
        <time>2022-06-04T00:11:38.627Z</time>
      </trkpt>
      <trkpt lat="42.87475" lon="2.57268">
        <ele>363.429613</ele>
        <time>2022-06-04T00:11:41.847Z</time>
      </trkpt>
      <trkpt lat="42.87504" lon="2.57307">
        <ele>358.895516</ele>
        <time>2022-06-04T00:11:50.179Z</time>
      </trkpt>
      <trkpt lat="42.87511" lon="2.57323">
        <ele>357.462834</ele>
        <time>2022-06-04T00:11:53.028Z</time>
      </trkpt>
      <trkpt lat="42.87524" lon="2.57331">
        <ele>355.836968</ele>
        <time>2022-06-04T00:11:55.935Z</time>
      </trkpt>
      <trkpt lat="42.87519" lon="2.57344">
        <ele>354.627115</ele>
        <time>2022-06-04T00:11:57.305Z</time>
      </trkpt>
      <trkpt lat="42.87498" lon="2.57361">
        <ele>351.95832</ele>
        <time>2022-06-04T00:12:00.285Z</time>
      </trkpt>
      <trkpt lat="42.87491" lon="2.57378">
        <ele>350.395691</ele>
        <time>2022-06-04T00:12:01.933Z</time>
      </trkpt>
      <trkpt lat="42.87508" lon="2.57421">
        <ele>347.297737</ele>
        <time>2022-06-04T00:12:06.244Z</time>
      </trkpt>
      <trkpt lat="42.87549" lon="2.57449">
        <ele>343.795191</ele>
        <time>2022-06-04T00:12:11.924Z</time>
      </trkpt>
      <trkpt lat="42.87598" lon="2.57441">
        <ele>339.935189</ele>
        <time>2022-06-04T00:12:18.302Z</time>
      </trkpt>
      <trkpt lat="42.87612" lon="2.57433">
        <ele>338.747418</ele>
        <time>2022-06-04T00:12:20.041Z</time>
      </trkpt>
      <trkpt lat="42.87643" lon="2.57422">
        <ele>336.223399</ele>
        <time>2022-06-04T00:12:24.122Z</time>
      </trkpt>
      <trkpt lat="42.87652" lon="2.57428">
        <ele>335.447453</ele>
        <time>2022-06-04T00:12:25.384Z</time>
      </trkpt>
      <trkpt lat="42.87661" lon="2.57458">
        <ele>333.785946</ele>
        <time>2022-06-04T00:12:28.415Z</time>
      </trkpt>
      <trkpt lat="42.87662" lon="2.57521">
        <ele>330.533219</ele>
        <time>2022-06-04T00:12:34.321Z</time>
      </trkpt>
      <trkpt lat="42.87667" lon="2.57535">
        <ele>329.76218</ele>
        <time>2022-06-04T00:12:35.829Z</time>
      </trkpt>
      <trkpt lat="42.87673" lon="2.57535">
        <ele>329.327602</ele>
        <time>2022-06-04T00:12:36.619Z</time>
      </trkpt>
      <trkpt lat="42.87688" lon="2.57519">
        <ele>328.000636</ele>
        <time>2022-06-04T00:12:38.808Z</time>
      </trkpt>
      <trkpt lat="42.877" lon="2.57526">
        <ele>327.111601</ele>
        <time>2022-06-04T00:12:40.505Z</time>
      </trkpt>
      <trkpt lat="42.87706" lon="2.57603">
        <ele>323.135628</ele>
        <time>2022-06-04T00:12:48.076Z</time>
      </trkpt>
      <trkpt lat="42.87703" lon="2.57624">
        <ele>321.945462</ele>
        <time>2022-06-04T00:12:49.946Z</time>
      </trkpt>
      <trkpt lat="42.87701" lon="2.57647">
        <ele>320.575952</ele>
        <time>2022-06-04T00:12:52.032Z</time>
      </trkpt>
      <trkpt lat="42.87712" lon="2.57653">
        <ele>319.617222</ele>
        <time>2022-06-04T00:12:53.426Z</time>
      </trkpt>
      <trkpt lat="42.87735" lon="2.57624">
        <ele>317.031103</ele>
        <time>2022-06-04T00:12:57.254Z</time>
      </trkpt>
      <trkpt lat="42.87796" lon="2.57595">
        <ele>311.858781</ele>
        <time>2022-06-04T00:13:05.207Z</time>
      </trkpt>
      <trkpt lat="42.87809" lon="2.57595">
        <ele>310.773477</ele>
        <time>2022-06-04T00:13:06.802Z</time>
      </trkpt>
      <trkpt lat="42.87827" lon="2.57621">
        <ele>308.667228</ele>
        <time>2022-06-04T00:13:09.973Z</time>
      </trkpt>
      <trkpt lat="42.87841" lon="2.57655">
        <ele>306.87668</ele>
        <time>2022-06-04T00:13:13.468Z</time>
      </trkpt>
      <trkpt lat="42.87842" lon="2.57735">
        <ele>303.483282</ele>
        <time>2022-06-04T00:13:20.767Z</time>
      </trkpt>
      <trkpt lat="42.87846" lon="2.57751">
        <ele>302.787874</ele>
        <time>2022-06-04T00:13:22.383Z</time>
      </trkpt>
      <trkpt lat="42.87871" lon="2.57784">
        <ele>300.78073</ele>
        <time>2022-06-04T00:13:26.764Z</time>
      </trkpt>
      <trkpt lat="42.87896" lon="2.57773">
        <ele>299.255792</ele>
        <time>2022-06-04T00:13:30.364Z</time>
      </trkpt>
      <trkpt lat="42.87934" lon="2.57751">
        <ele>297.965842</ele>
        <time>2022-06-04T00:13:37.255Z</time>
      </trkpt>
      <trkpt lat="42.87937" lon="2.57754">
        <ele>297.996411</ele>
        <time>2022-06-04T00:13:38.038Z</time>
      </trkpt>
      <trkpt lat="42.87953" lon="2.57783">
        <ele>298.191263</ele>
        <time>2022-06-04T00:13:42.095Z</time>
      </trkpt>
      <trkpt lat="42.87941" lon="2.57872">
        <ele>298.683645</ele>
        <time>2022-06-04T00:13:54.387Z</time>
      </trkpt>
      <trkpt lat="42.87931" lon="2.57903">
        <ele>298.86486</ele>
        <time>2022-06-04T00:14:02.130Z</time>
      </trkpt>
      <trkpt lat="42.87914" lon="2.57918">
        <ele>299.016817</ele>
        <time>2022-06-04T00:14:08.304Z</time>
      </trkpt>
      <trkpt lat="42.87887" lon="2.57959">
        <ele>300.411503</ele>
        <time>2022-06-04T00:14:21.141Z</time>
      </trkpt>
      <trkpt lat="42.87875" lon="2.57982">
        <ele>301.715364</ele>
        <time>2022-06-04T00:14:29.368Z</time>
      </trkpt>
      <trkpt lat="42.87875" lon="2.57995">
        <ele>302.312346</ele>
        <time>2022-06-04T00:14:33.543Z</time>
      </trkpt>
      <trkpt lat="42.87915" lon="2.57982">
        <ele>304.896607</ele>
        <time>2022-06-04T00:14:57.798Z</time>
      </trkpt>
      <trkpt lat="42.87923" lon="2.57979">
        <ele>305.425189</ele>
        <time>2022-06-04T00:15:02.172Z</time>
      </trkpt>
      <trkpt lat="42.87943" lon="2.58012">
        <ele>307.36948</ele>
        <time>2022-06-04T00:15:16.547Z</time>
      </trkpt>
      <trkpt lat="42.8798" lon="2.58083">
        <ele>311.324096</ele>
        <time>2022-06-04T00:15:47.024Z</time>
      </trkpt>
      <trkpt lat="42.87995" lon="2.58136">
        <ele>313.691726</ele>
        <time>2022-06-04T00:16:11.854Z</time>
      </trkpt>
      <trkpt lat="42.88014" lon="2.58259">
        <ele>318.985151</ele>
        <time>2022-06-04T00:17:00.700Z</time>
      </trkpt>
      <trkpt lat="42.88036" lon="2.58324">
        <ele>321.449179</ele>
        <time>2022-06-04T00:17:24.024Z</time>
      </trkpt>
      <trkpt lat="42.88037" lon="2.5843">
        <ele>324.01089</ele>
        <time>2022-06-04T00:17:52.995Z</time>
      </trkpt>
      <trkpt lat="42.8806" lon="2.58483">
        <ele>325.502733</ele>
        <time>2022-06-04T00:18:11.637Z</time>
      </trkpt>
      <trkpt lat="42.88065" lon="2.58517">
        <ele>326.339261</ele>
        <time>2022-06-04T00:18:23.310Z</time>
      </trkpt>
      <trkpt lat="42.88073" lon="2.58525">
        <ele>326.701085</ele>
        <time>2022-06-04T00:18:28.336Z</time>
      </trkpt>
      <trkpt lat="42.88087" lon="2.58522">
        <ele>327.51174</ele>
        <time>2022-06-04T00:18:35.122Z</time>
      </trkpt>
      <trkpt lat="42.8816" lon="2.58474">
        <ele>332.246824</ele>
        <time>2022-06-04T00:19:18.228Z</time>
      </trkpt>
      <trkpt lat="42.88173" lon="2.5847">
        <ele>333.04458</ele>
        <time>2022-06-04T00:19:24.898Z</time>
      </trkpt>
      <trkpt lat="42.88232" lon="2.58489">
        <ele>336.557815</ele>
        <time>2022-06-04T00:19:58.403Z</time>
      </trkpt>
      <trkpt lat="42.88241" lon="2.58503">
        <ele>337.346542</ele>
        <time>2022-06-04T00:20:05.569Z</time>
      </trkpt>
      <trkpt lat="42.8824" lon="2.58524">
        <ele>338.286446</ele>
        <time>2022-06-04T00:20:16.006Z</time>
      </trkpt>
      <trkpt lat="42.88234" lon="2.58548">
        <ele>339.370034</ele>
        <time>2022-06-04T00:20:25.706Z</time>
      </trkpt>
      <trkpt lat="42.88231" lon="2.58605">
        <ele>341.826386</ele>
        <time>2022-06-04T00:20:50.651Z</time>
      </trkpt>
      <trkpt lat="42.8824" lon="2.5861">
        <ele>342.375449</ele>
        <time>2022-06-04T00:20:57.122Z</time>
      </trkpt>
      <trkpt lat="42.88286" lon="2.58602">
        <ele>345.141912</ele>
        <time>2022-06-04T00:21:21.645Z</time>
      </trkpt>
      <trkpt lat="42.88334" lon="2.58583">
        <ele>347.984916</ele>
        <time>2022-06-04T00:21:44.049Z</time>
      </trkpt>
      <trkpt lat="42.88358" lon="2.58618">
        <ele>349.275954</ele>
        <time>2022-06-04T00:21:59.025Z</time>
      </trkpt>
      <trkpt lat="42.88373" lon="2.58678">
        <ele>350.989732</ele>
        <time>2022-06-04T00:22:19.436Z</time>
      </trkpt>
      <trkpt lat="42.88388" lon="2.58709">
        <ele>351.992842</ele>
        <time>2022-06-04T00:22:31.435Z</time>
      </trkpt>
      <trkpt lat="42.88416" lon="2.58725">
        <ele>353.121523</ele>
        <time>2022-06-04T00:22:44.945Z</time>
      </trkpt>
      <trkpt lat="42.88433" lon="2.58728">
        <ele>353.768467</ele>
        <time>2022-06-04T00:22:52.728Z</time>
      </trkpt>
      <trkpt lat="42.88453" lon="2.58757">
        <ele>354.97983</ele>
        <time>2022-06-04T00:23:05.758Z</time>
      </trkpt>
      <trkpt lat="42.88472" lon="2.5877">
        <ele>355.977347</ele>
        <time>2022-06-04T00:23:14.760Z</time>
      </trkpt>
      <trkpt lat="42.88475" lon="2.58782">
        <ele>356.426943</ele>
        <time>2022-06-04T00:23:19.116Z</time>
      </trkpt>
      <trkpt lat="42.88463" lon="2.58792">
        <ele>357.094539</ele>
        <time>2022-06-04T00:23:25.520Z</time>
      </trkpt>
      <trkpt lat="42.88462" lon="2.58804">
        <ele>357.502833</ele>
        <time>2022-06-04T00:23:29.682Z</time>
      </trkpt>
      <trkpt lat="42.88497" lon="2.5884">
        <ele>359.601751</ele>
        <time>2022-06-04T00:23:53.053Z</time>
      </trkpt>
      <trkpt lat="42.88568" lon="2.5893">
        <ele>363.759294</ele>
        <time>2022-06-04T00:24:41.752Z</time>
      </trkpt>
      <trkpt lat="42.88586" lon="2.58962">
        <ele>364.640559</ele>
        <time>2022-06-04T00:24:56.353Z</time>
      </trkpt>
      <trkpt lat="42.88591" lon="2.58978">
        <ele>365.021618</ele>
        <time>2022-06-04T00:25:01.246Z</time>
      </trkpt>
      <trkpt lat="42.88583" lon="2.58978">
        <ele>365.246812</ele>
        <time>2022-06-04T00:25:04.887Z</time>
      </trkpt>
      <trkpt lat="42.88555" lon="2.58941">
        <ele>366.416559</ele>
        <time>2022-06-04T00:25:21.260Z</time>
      </trkpt>
      <trkpt lat="42.88503" lon="2.58916">
        <ele>368.079827</ele>
        <time>2022-06-04T00:25:41.717Z</time>
      </trkpt>
      <trkpt lat="42.88471" lon="2.58881">
        <ele>369.371168</ele>
        <time>2022-06-04T00:25:54.714Z</time>
      </trkpt>
      <trkpt lat="42.88455" lon="2.58872">
        <ele>369.925842</ele>
        <time>2022-06-04T00:25:59.510Z</time>
      </trkpt>
      <trkpt lat="42.88435" lon="2.58868">
        <ele>370.557866</ele>
        <time>2022-06-04T00:26:05.084Z</time>
      </trkpt>
      <trkpt lat="42.88421" lon="2.58874">
        <ele>371.039087</ele>
        <time>2022-06-04T00:26:09.317Z</time>
      </trkpt>
      <trkpt lat="42.88407" lon="2.58905">
        <ele>371.877591</ele>
        <time>2022-06-04T00:26:17.518Z</time>
      </trkpt>
      <trkpt lat="42.88385" lon="2.58912">
        <ele>372.623621</ele>
        <time>2022-06-04T00:26:29.235Z</time>
      </trkpt>
      <trkpt lat="42.88377" lon="2.58939">
        <ele>373.299682</ele>
        <time>2022-06-04T00:26:41.025Z</time>
      </trkpt>
      <trkpt lat="42.88385" lon="2.58987">
        <ele>375.180009</ele>
        <time>2022-06-04T00:27:03.918Z</time>
      </trkpt>
      <trkpt lat="42.88415" lon="2.59046">
        <ele>380.948122</ele>
        <time>2022-06-04T00:27:40.885Z</time>
      </trkpt>
      <trkpt lat="42.88418" lon="2.5907">
        <ele>382.86833</ele>
        <time>2022-06-04T00:27:53.332Z</time>
      </trkpt>
      <trkpt lat="42.88411" lon="2.59093">
        <ele>384.894986</ele>
        <time>2022-06-04T00:28:07.992Z</time>
      </trkpt>
      <trkpt lat="42.88408" lon="2.59097">
        <ele>385.384157</ele>
        <time>2022-06-04T00:28:10.837Z</time>
      </trkpt>
      <trkpt lat="42.88416" lon="2.59117">
        <ele>387.227564</ele>
        <time>2022-06-04T00:28:24.384Z</time>
      </trkpt>
      <trkpt lat="42.88442" lon="2.59146">
        <ele>390.971025</ele>
        <time>2022-06-04T00:28:51.117Z</time>
      </trkpt>
      <trkpt lat="42.88496" lon="2.59179">
        <ele>397.196453</ele>
        <time>2022-06-04T00:29:39.164Z</time>
      </trkpt>
      <trkpt lat="42.885" lon="2.59202">
        <ele>398.963867</ele>
        <time>2022-06-04T00:29:54.402Z</time>
      </trkpt>
      <trkpt lat="42.8849" lon="2.59258">
        <ele>403.236893</ele>
        <time>2022-06-04T00:30:25.826Z</time>
      </trkpt>
      <trkpt lat="42.88505" lon="2.59304">
        <ele>406.939095</ele>
        <time>2022-06-04T00:30:47.965Z</time>
      </trkpt>
      <trkpt lat="42.8854" lon="2.59314">
        <ele>410.607416</ele>
        <time>2022-06-04T00:31:09.877Z</time>
      </trkpt>
      <trkpt lat="42.88553" lon="2.59345">
        <ele>413.110227</ele>
        <time>2022-06-04T00:31:26.016Z</time>
      </trkpt>
      <trkpt lat="42.88579" lon="2.59358">
        <ele>415.543512</ele>
        <time>2022-06-04T00:31:43.077Z</time>
      </trkpt>
      <trkpt lat="42.88615" lon="2.59392">
        <ele>419.465478</ele>
        <time>2022-06-04T00:32:11.036Z</time>
      </trkpt>
      <trkpt lat="42.88647" lon="2.59439">
        <ele>423.580128</ele>
        <time>2022-06-04T00:32:40.974Z</time>
      </trkpt>
      <trkpt lat="42.88665" lon="2.59484">
        <ele>426.969997</ele>
        <time>2022-06-04T00:33:06.732Z</time>
      </trkpt>
      <trkpt lat="42.88663" lon="2.59527">
        <ele>430.181302</ele>
        <time>2022-06-04T00:33:28.872Z</time>
      </trkpt>
      <trkpt lat="42.88675" lon="2.59584">
        <ele>435.04017</ele>
        <time>2022-06-04T00:34:01.088Z</time>
      </trkpt>
      <trkpt lat="42.88689" lon="2.59619">
        <ele>438.276215</ele>
        <time>2022-06-04T00:34:24.044Z</time>
      </trkpt>
      <trkpt lat="42.88721" lon="2.59671">
        <ele>443.779644</ele>
        <time>2022-06-04T00:35:02.325Z</time>
      </trkpt>
      <trkpt lat="42.88746" lon="2.59744">
        <ele>450.201518</ele>
        <time>2022-06-04T00:35:46.542Z</time>
      </trkpt>
      <trkpt lat="42.88753" lon="2.59789">
        <ele>453.556798</ele>
        <time>2022-06-04T00:36:10.125Z</time>
      </trkpt>
      <trkpt lat="42.88765" lon="2.59822">
        <ele>456.304921</ele>
        <time>2022-06-04T00:36:28.750Z</time>
      </trkpt>
      <trkpt lat="42.88767" lon="2.59839">
        <ele>457.591917</ele>
        <time>2022-06-04T00:36:37.582Z</time>
      </trkpt>
      <trkpt lat="42.88767" lon="2.5988">
        <ele>460.636633</ele>
        <time>2022-06-04T00:36:58.113Z</time>
      </trkpt>
      <trkpt lat="42.88755" lon="2.5991">
        <ele>463.140002</ele>
        <time>2022-06-04T00:37:14.856Z</time>
      </trkpt>
      <trkpt lat="42.88749" lon="2.59951">
        <ele>466.242318</ele>
        <time>2022-06-04T00:37:36.287Z</time>
      </trkpt>
      <trkpt lat="42.88756" lon="2.59956">
        <ele>467.131111</ele>
        <time>2022-06-04T00:37:42.169Z</time>
      </trkpt>
      <trkpt lat="42.8878" lon="2.59955">
        <ele>469.740319</ele>
        <time>2022-06-04T00:37:58.797Z</time>
      </trkpt>
      <trkpt lat="42.88789" lon="2.59975">
        <ele>471.602253</ele>
        <time>2022-06-04T00:38:10.979Z</time>
      </trkpt>
      <trkpt lat="42.88785" lon="2.60046">
        <ele>477.224082</ele>
        <time>2022-06-04T00:38:46.986Z</time>
      </trkpt>
      <trkpt lat="42.88797" lon="2.60176">
        <ele>487.992329</ele>
        <time>2022-06-04T00:39:58.196Z</time>
      </trkpt>
      <trkpt lat="42.88793" lon="2.60222">
        <ele>492.513086</ele>
        <time>2022-06-04T00:40:29.482Z</time>
      </trkpt>
      <trkpt lat="42.88779" lon="2.60299">
        <ele>500.334384</ele>
        <time>2022-06-04T00:41:21.552Z</time>
      </trkpt>
      <trkpt lat="42.88781" lon="2.60378">
        <ele>508.082509</ele>
        <time>2022-06-04T00:42:08.910Z</time>
      </trkpt>
      <trkpt lat="42.88784" lon="2.60411">
        <ele>511.152662</ele>
        <time>2022-06-04T00:42:29.263Z</time>
      </trkpt>
      <trkpt lat="42.88808" lon="2.60474">
        <ele>517.391348</ele>
        <time>2022-06-04T00:43:07.624Z</time>
      </trkpt>
      <trkpt lat="42.88824" lon="2.60498">
        <ele>520.203215</ele>
        <time>2022-06-04T00:43:26.394Z</time>
      </trkpt>
      <trkpt lat="42.88844" lon="2.60547">
        <ele>525.064418</ele>
        <time>2022-06-04T00:43:57.917Z</time>
      </trkpt>
      <trkpt lat="42.8885" lon="2.6057">
        <ele>527.239182</ele>
        <time>2022-06-04T00:44:13.184Z</time>
      </trkpt>
      <trkpt lat="42.88855" lon="2.60596">
        <ele>529.577852</ele>
        <time>2022-06-04T00:44:28.483Z</time>
      </trkpt>
      <trkpt lat="42.88888" lon="2.60645">
        <ele>534.91702</ele>
        <time>2022-06-04T00:45:03.665Z</time>
      </trkpt>
      <trkpt lat="42.88904" lon="2.60684">
        <ele>538.402742</ele>
        <time>2022-06-04T00:45:28.490Z</time>
      </trkpt>
      <trkpt lat="42.88937" lon="2.60737">
        <ele>543.846467</ele>
        <time>2022-06-04T00:46:06.669Z</time>
      </trkpt>
      <trkpt lat="42.88971" lon="2.60829">
        <ele>551.102733</ele>
        <time>2022-06-04T00:46:58.649Z</time>
      </trkpt>
      <trkpt lat="42.88993" lon="2.60847">
        <ele>552.321288</ele>
        <time>2022-06-04T00:47:15.859Z</time>
      </trkpt>
      <trkpt lat="42.89" lon="2.60896">
        <ele>554.107954</ele>
        <time>2022-06-04T00:47:36.813Z</time>
      </trkpt>
      <trkpt lat="42.8905" lon="2.60925">
        <ele>556.76156</ele>
        <time>2022-06-04T00:48:01.517Z</time>
      </trkpt>
      <trkpt lat="42.89079" lon="2.60902">
        <ele>558.366661</ele>
        <time>2022-06-04T00:48:13.906Z</time>
      </trkpt>
      <trkpt lat="42.89102" lon="2.60919">
        <ele>559.107006</ele>
        <time>2022-06-04T00:48:21.985Z</time>
      </trkpt>
      <trkpt lat="42.89123" lon="2.60936">
        <ele>558.914115</ele>
        <time>2022-06-04T00:48:28.370Z</time>
      </trkpt>
      <trkpt lat="42.89156" lon="2.60938">
        <ele>558.647715</ele>
        <time>2022-06-04T00:48:37.758Z</time>
      </trkpt>
      <trkpt lat="42.89182" lon="2.60948">
        <ele>558.439878</ele>
        <time>2022-06-04T00:48:45.307Z</time>
      </trkpt>
      <trkpt lat="42.89211" lon="2.60975">
        <ele>558.156749</ele>
        <time>2022-06-04T00:48:55.069Z</time>
      </trkpt>
      <trkpt lat="42.89224" lon="2.6098">
        <ele>558.049149</ele>
        <time>2022-06-04T00:48:58.489Z</time>
      </trkpt>
      <trkpt lat="42.89259" lon="2.60976">
        <ele>557.775956</ele>
        <time>2022-06-04T00:49:07.452Z</time>
      </trkpt>
      <trkpt lat="42.89284" lon="2.60983">
        <ele>557.897341</ele>
        <time>2022-06-04T00:49:14.821Z</time>
      </trkpt>
      <trkpt lat="42.8931" lon="2.60969">
        <ele>558.062377</ele>
        <time>2022-06-04T00:49:22.394Z</time>
      </trkpt>
      <trkpt lat="42.89346" lon="2.60977">
        <ele>558.280579</ele>
        <time>2022-06-04T00:49:32.203Z</time>
      </trkpt>
      <trkpt lat="42.89375" lon="2.60994">
        <ele>558.465366</ele>
        <time>2022-06-04T00:49:42.384Z</time>
      </trkpt>
      <trkpt lat="42.89383" lon="2.6103">
        <ele>558.629964</ele>
        <time>2022-06-04T00:49:53.245Z</time>
      </trkpt>
      <trkpt lat="42.89379" lon="2.61039">
        <ele>558.679178</ele>
        <time>2022-06-04T00:49:56.368Z</time>
      </trkpt>
      <trkpt lat="42.89358" lon="2.61052">
        <ele>558.818473</ele>
        <time>2022-06-04T00:50:05.753Z</time>
      </trkpt>
      <trkpt lat="42.89347" lon="2.61066">
        <ele>559.511188</ele>
        <time>2022-06-04T00:50:11.942Z</time>
      </trkpt>
      <trkpt lat="42.89346" lon="2.61084">
        <ele>560.193029</ele>
        <time>2022-06-04T00:50:18.960Z</time>
      </trkpt>
      <trkpt lat="42.89351" lon="2.61107">
        <ele>561.145124</ele>
        <time>2022-06-04T00:50:26.601Z</time>
      </trkpt>
      <trkpt lat="42.89365" lon="2.61152">
        <ele>563.074495</ele>
        <time>2022-06-04T00:50:45.685Z</time>
      </trkpt>
      <trkpt lat="42.89394" lon="2.61195">
        <ele>565.392247</ele>
        <time>2022-06-04T00:51:09.654Z</time>
      </trkpt>
      <trkpt lat="42.89407" lon="2.61204">
        <ele>566.183399</ele>
        <time>2022-06-04T00:51:18.044Z</time>
      </trkpt>
      <trkpt lat="42.89419" lon="2.61204">
        <ele>566.829288</ele>
        <time>2022-06-04T00:51:23.260Z</time>
      </trkpt>
      <trkpt lat="42.89426" lon="2.61227">
        <ele>567.811374</ele>
        <time>2022-06-04T00:51:34.596Z</time>
      </trkpt>
      <trkpt lat="42.89408" lon="2.61256">
        <ele>568.951795</ele>
        <time>2022-06-04T00:51:48.867Z</time>
      </trkpt>
      <trkpt lat="42.89405" lon="2.6127">
        <ele>569.279862</ele>
        <time>2022-06-04T00:51:55.295Z</time>
      </trkpt>
      <trkpt lat="42.89424" lon="2.61305">
        <ele>570.234183</ele>
        <time>2022-06-04T00:52:11.980Z</time>
      </trkpt>
      <trkpt lat="42.89452" lon="2.6132">
        <ele>571.129158</ele>
        <time>2022-06-04T00:52:25.114Z</time>
      </trkpt>
      <trkpt lat="42.89563" lon="2.61343">
        <ele>573.3663</ele>
        <time>2022-06-04T00:53:04.985Z</time>
      </trkpt>
      <trkpt lat="42.89614" lon="2.61404">
        <ele>571.418417</ele>
        <time>2022-06-04T00:53:21.962Z</time>
      </trkpt>
      <trkpt lat="42.89659" lon="2.61433">
        <ele>569.968024</ele>
        <time>2022-06-04T00:53:34.215Z</time>
      </trkpt>
      <trkpt lat="42.89673" lon="2.61436">
        <ele>569.56593</ele>
        <time>2022-06-04T00:53:37.515Z</time>
      </trkpt>
      <trkpt lat="42.89706" lon="2.61462">
        <ele>567.927114</ele>
        <time>2022-06-04T00:53:46.440Z</time>
      </trkpt>
      <trkpt lat="42.8978" lon="2.61501">
        <ele>560.808267</ele>
        <time>2022-06-04T00:54:03.526Z</time>
      </trkpt>
      <trkpt lat="42.89794" lon="2.61515">
        <ele>559.230536</ele>
        <time>2022-06-04T00:54:07.265Z</time>
      </trkpt>
      <trkpt lat="42.898" lon="2.61553">
        <ele>556.71718</ele>
        <time>2022-06-04T00:54:13.010Z</time>
      </trkpt>
      <trkpt lat="42.89809" lon="2.61574">
        <ele>555.099255</ele>
        <time>2022-06-04T00:54:16.637Z</time>
      </trkpt>
      <trkpt lat="42.89818" lon="2.61579">
        <ele>554.239811</ele>
        <time>2022-06-04T00:54:18.599Z</time>
      </trkpt>
      <trkpt lat="42.89837" lon="2.61577">
        <ele>552.487507</ele>
        <time>2022-06-04T00:54:22.339Z</time>
      </trkpt>
      <trkpt lat="42.89857" lon="2.61597">
        <ele>549.195378</ele>
        <time>2022-06-04T00:54:27.364Z</time>
      </trkpt>
      <trkpt lat="42.89867" lon="2.61596">
        <ele>547.896388</ele>
        <time>2022-06-04T00:54:29.339Z</time>
      </trkpt>
      <trkpt lat="42.89869" lon="2.61587">
        <ele>547.058831</ele>
        <time>2022-06-04T00:54:30.624Z</time>
      </trkpt>
      <trkpt lat="42.89846" lon="2.61557">
        <ele>542.870761</ele>
        <time>2022-06-04T00:54:36.954Z</time>
      </trkpt>
      <trkpt lat="42.89841" lon="2.61536">
        <ele>540.813975</ele>
        <time>2022-06-04T00:54:40.103Z</time>
      </trkpt>
      <trkpt lat="42.89844" lon="2.61505">
        <ele>537.780201</ele>
        <time>2022-06-04T00:54:44.586Z</time>
      </trkpt>
      <trkpt lat="42.89865" lon="2.6149">
        <ele>534.662783</ele>
        <time>2022-06-04T00:54:49.202Z</time>
      </trkpt>
      <trkpt lat="42.89887" lon="2.61464">
        <ele>530.855041</ele>
        <time>2022-06-04T00:54:54.829Z</time>
      </trkpt>
      <trkpt lat="42.89939" lon="2.61365">
        <ele>521.01885</ele>
        <time>2022-06-04T00:55:12.684Z</time>
      </trkpt>
      <trkpt lat="42.89987" lon="2.61337">
        <ele>515.489064</ele>
        <time>2022-06-04T00:55:23.316Z</time>
      </trkpt>
      <trkpt lat="42.90007" lon="2.613">
        <ele>511.8386</ele>
        <time>2022-06-04T00:55:30.400Z</time>
      </trkpt>
      <trkpt lat="42.90024" lon="2.61279">
        <ele>509.481832</ele>
        <time>2022-06-04T00:55:35.248Z</time>
      </trkpt>
      <trkpt lat="42.90063" lon="2.61277">
        <ele>506.038054</ele>
        <time>2022-06-04T00:55:43.587Z</time>
      </trkpt>
      <trkpt lat="42.90079" lon="2.61248">
        <ele>503.751446</ele>
        <time>2022-06-04T00:55:49.106Z</time>
      </trkpt>
      <trkpt lat="42.90127" lon="2.61121">
        <ele>494.554259</ele>
        <time>2022-06-04T00:56:11.776Z</time>
      </trkpt>
      <trkpt lat="42.90144" lon="2.61098">
        <ele>492.115145</ele>
        <time>2022-06-04T00:56:16.453Z</time>
      </trkpt>
      <trkpt lat="42.90173" lon="2.61081">
        <ele>488.781306</ele>
        <time>2022-06-04T00:56:22.774Z</time>
      </trkpt>
      <trkpt lat="42.90234" lon="2.60987">
        <ele>479.130545</ele>
        <time>2022-06-04T00:56:41.730Z</time>
      </trkpt>
      <trkpt lat="42.90241" lon="2.60967">
        <ele>477.393118</ele>
        <time>2022-06-04T00:56:44.875Z</time>
      </trkpt>
      <trkpt lat="42.90253" lon="2.60964">
        <ele>476.098316</ele>
        <time>2022-06-04T00:56:47.388Z</time>
      </trkpt>
      <trkpt lat="42.90274" lon="2.60985">
        <ele>474.136198</ele>
        <time>2022-06-04T00:56:52.554Z</time>
      </trkpt>
      <trkpt lat="42.90354" lon="2.61046">
        <ele>468.270768</ele>
        <time>2022-06-04T00:57:12.462Z</time>
      </trkpt>
      <trkpt lat="42.90361" lon="2.61047">
        <ele>467.801667</ele>
        <time>2022-06-04T00:57:14.216Z</time>
      </trkpt>
      <trkpt lat="42.9037" lon="2.61039">
        <ele>467.175736</ele>
        <time>2022-06-04T00:57:16.069Z</time>
      </trkpt>
      <trkpt lat="42.90436" lon="2.6099">
        <ele>463.963174</ele>
        <time>2022-06-04T00:57:36.928Z</time>
      </trkpt>
      <trkpt lat="42.90501" lon="2.60929">
        <ele>464.579561</ele>
        <time>2022-06-04T00:58:01.105Z</time>
      </trkpt>
      <trkpt lat="42.90574" lon="2.60909">
        <ele>465.155258</ele>
        <time>2022-06-04T00:58:30.862Z</time>
      </trkpt>
      <trkpt lat="42.90609" lon="2.60912">
        <ele>465.967272</ele>
        <time>2022-06-04T00:58:44.279Z</time>
      </trkpt>
      <trkpt lat="42.90651" lon="2.60929">
        <ele>467.066984</ele>
        <time>2022-06-04T00:59:02.008Z</time>
      </trkpt>
      <trkpt lat="42.90675" lon="2.60922">
        <ele>467.680611</ele>
        <time>2022-06-04T00:59:12.009Z</time>
      </trkpt>
      <trkpt lat="42.90697" lon="2.60894">
        <ele>468.454836</ele>
        <time>2022-06-04T00:59:24.484Z</time>
      </trkpt>
      <trkpt lat="42.90712" lon="2.60853">
        <ele>469.294048</ele>
        <time>2022-06-04T00:59:37.902Z</time>
      </trkpt>
      <trkpt lat="42.90726" lon="2.60838">
        <ele>469.728035</ele>
        <time>2022-06-04T00:59:44.811Z</time>
      </trkpt>
      <trkpt lat="42.90738" lon="2.60807">
        <ele>470.072097</ele>
        <time>2022-06-04T00:59:54.401Z</time>
      </trkpt>
      <trkpt lat="42.90765" lon="2.60764">
        <ele>470.643002</ele>
        <time>2022-06-04T01:00:09.560Z</time>
      </trkpt>
      <trkpt lat="42.90797" lon="2.60673">
        <ele>471.656152</ele>
        <time>2022-06-04T01:00:35.538Z</time>
      </trkpt>
      <trkpt lat="42.90804" lon="2.60677">
        <ele>471.752246</ele>
        <time>2022-06-04T01:00:37.682Z</time>
      </trkpt>
      <trkpt lat="42.90804" lon="2.60684">
        <ele>471.821071</ele>
        <time>2022-06-04T01:00:39.350Z</time>
      </trkpt>
      <trkpt lat="42.9079" lon="2.60767">
        <ele>472.275496</ele>
        <time>2022-06-04T01:00:59.443Z</time>
      </trkpt>
      <trkpt lat="42.90767" lon="2.60864">
        <ele>472.502231</ele>
        <time>2022-06-04T01:01:20.837Z</time>
      </trkpt>
      <trkpt lat="42.90765" lon="2.60911">
        <ele>472.609199</ele>
        <time>2022-06-04T01:01:31.056Z</time>
      </trkpt>
      <trkpt lat="42.90771" lon="2.60937">
        <ele>472.668703</ele>
        <time>2022-06-04T01:01:37.165Z</time>
      </trkpt>
      <trkpt lat="42.90778" lon="2.60943">
        <ele>472.694744</ele>
        <time>2022-06-04T01:01:39.863Z</time>
      </trkpt>
      <trkpt lat="42.90814" lon="2.60924">
        <ele>474.083347</ele>
        <time>2022-06-04T01:01:53.323Z</time>
      </trkpt>
      <trkpt lat="42.9085" lon="2.60897">
        <ele>475.714301</ele>
        <time>2022-06-04T01:02:04.304Z</time>
      </trkpt>
      <trkpt lat="42.90894" lon="2.60891">
        <ele>477.537967</ele>
        <time>2022-06-04T01:02:20.370Z</time>
      </trkpt>
      <trkpt lat="42.90912" lon="2.60876">
        <ele>478.391815</ele>
        <time>2022-06-04T01:02:29.049Z</time>
      </trkpt>
      <trkpt lat="42.90949" lon="2.60785">
        <ele>482.856503</ele>
        <time>2022-06-04T01:03:04.489Z</time>
      </trkpt>
      <trkpt lat="42.9097" lon="2.60672">
        <ele>489.464769</ele>
        <time>2022-06-04T01:03:46.522Z</time>
      </trkpt>
      <trkpt lat="42.90977" lon="2.60658">
        <ele>490.434649</ele>
        <time>2022-06-04T01:03:53.834Z</time>
      </trkpt>
      <trkpt lat="42.91001" lon="2.60626">
        <ele>493.041369</ele>
        <time>2022-06-04T01:04:15.075Z</time>
      </trkpt>
      <trkpt lat="42.91046" lon="2.60594">
        <ele>496.0296</ele>
        <time>2022-06-04T01:04:46.734Z</time>
      </trkpt>
      <trkpt lat="42.91076" lon="2.60483">
        <ele>500.597811</ele>
        <time>2022-06-04T01:05:31.899Z</time>
      </trkpt>
      <trkpt lat="42.91102" lon="2.60458">
        <ele>502.281489</ele>
        <time>2022-06-04T01:05:45.095Z</time>
      </trkpt>
      <trkpt lat="42.91119" lon="2.60422">
        <ele>503.632392</ele>
        <time>2022-06-04T01:05:57.714Z</time>
      </trkpt>
      <trkpt lat="42.91151" lon="2.60409">
        <ele>504.228762</ele>
        <time>2022-06-04T01:06:10.395Z</time>
      </trkpt>
      <trkpt lat="42.91166" lon="2.60385">
        <ele>504.652551</ele>
        <time>2022-06-04T01:06:18.240Z</time>
      </trkpt>
      <trkpt lat="42.91175" lon="2.60337">
        <ele>505.314864</ele>
        <time>2022-06-04T01:06:31.542Z</time>
      </trkpt>
      <trkpt lat="42.9117" lon="2.60285">
        <ele>506.005674</ele>
        <time>2022-06-04T01:06:44.881Z</time>
      </trkpt>
      <trkpt lat="42.91139" lon="2.60214">
        <ele>507.658694</ele>
        <time>2022-06-04T01:07:05.900Z</time>
      </trkpt>
      <trkpt lat="42.91136" lon="2.60184">
        <ele>508.61904</ele>
        <time>2022-06-04T01:07:14.039Z</time>
      </trkpt>
      <trkpt lat="42.9114" lon="2.60168">
        <ele>509.164025</ele>
        <time>2022-06-04T01:07:19.313Z</time>
      </trkpt>
      <trkpt lat="42.91191" lon="2.601">
        <ele>512.281174</ele>
        <time>2022-06-04T01:07:54.213Z</time>
      </trkpt>
      <trkpt lat="42.912" lon="2.6008">
        <ele>513.046536</ele>
        <time>2022-06-04T01:08:03.687Z</time>
      </trkpt>
      <trkpt lat="42.91201" lon="2.60041">
        <ele>514.279662</ele>
        <time>2022-06-04T01:08:19.230Z</time>
      </trkpt>
      <trkpt lat="42.91196" lon="2.60004">
        <ele>516.069245</ele>
        <time>2022-06-04T01:08:35.796Z</time>
      </trkpt>
      <trkpt lat="42.91206" lon="2.59951">
        <ele>518.902617</ele>
        <time>2022-06-04T01:08:58.315Z</time>
      </trkpt>
      <trkpt lat="42.91207" lon="2.59906">
        <ele>521.255806</ele>
        <time>2022-06-04T01:09:16.912Z</time>
      </trkpt>
      <trkpt lat="42.91191" lon="2.59867">
        <ele>523.582133</ele>
        <time>2022-06-04T01:09:36.184Z</time>
      </trkpt>
      <trkpt lat="42.91191" lon="2.59844">
        <ele>524.761937</ele>
        <time>2022-06-04T01:09:45.951Z</time>
      </trkpt>
      <trkpt lat="42.91202" lon="2.5981">
        <ele>526.743975</ele>
        <time>2022-06-04T01:10:02.884Z</time>
      </trkpt>
      <trkpt lat="42.91251" lon="2.59754">
        <ele>530.992798</ele>
        <time>2022-06-04T01:10:42.478Z</time>
      </trkpt>
      <trkpt lat="42.91302" lon="2.59661">
        <ele>536.611553</ele>
        <time>2022-06-04T01:11:30.639Z</time>
      </trkpt>
      <trkpt lat="42.91339" lon="2.59634">
        <ele>539.310359</ele>
        <time>2022-06-04T01:11:52.520Z</time>
      </trkpt>
      <trkpt lat="42.9138" lon="2.59621">
        <ele>539.639127</ele>
        <time>2022-06-04T01:12:12.552Z</time>
      </trkpt>
      <trkpt lat="42.9144" lon="2.59655">
        <ele>540.154533</ele>
        <time>2022-06-04T01:12:37.871Z</time>
      </trkpt>
      <trkpt lat="42.91467" lon="2.59656">
        <ele>540.370637</ele>
        <time>2022-06-04T01:12:45.326Z</time>
      </trkpt>
      <trkpt lat="42.91488" lon="2.59667">
        <ele>540.54592</ele>
        <time>2022-06-04T01:12:50.786Z</time>
      </trkpt>
      <trkpt lat="42.91496" lon="2.59666">
        <ele>540.609559</ele>
        <time>2022-06-04T01:12:52.680Z</time>
      </trkpt>
      <trkpt lat="42.91499" lon="2.59654">
        <ele>540.681158</ele>
        <time>2022-06-04T01:12:54.731Z</time>
      </trkpt>
      <trkpt lat="42.91485" lon="2.5963">
        <ele>539.633046</ele>
        <time>2022-06-04T01:13:00.037Z</time>
      </trkpt>
      <trkpt lat="42.91481" lon="2.59612">
        <ele>538.800945</ele>
        <time>2022-06-04T01:13:03.159Z</time>
      </trkpt>
      <trkpt lat="42.91485" lon="2.59569">
        <ele>536.852311</ele>
        <time>2022-06-04T01:13:10.500Z</time>
      </trkpt>
      <trkpt lat="42.91547" lon="2.59532">
        <ele>532.746529</ele>
        <time>2022-06-04T01:13:25.662Z</time>
      </trkpt>
      <trkpt lat="42.91557" lon="2.59531">
        <ele>532.16257</ele>
        <time>2022-06-04T01:13:27.694Z</time>
      </trkpt>
      <trkpt lat="42.91609" lon="2.59548">
        <ele>528.61663</ele>
        <time>2022-06-04T01:13:39.222Z</time>
      </trkpt>
      <trkpt lat="42.91645" lon="2.59576">
        <ele>525.354744</ele>
        <time>2022-06-04T01:13:47.816Z</time>
      </trkpt>
      <trkpt lat="42.91668" lon="2.59582">
        <ele>523.484951</ele>
        <time>2022-06-04T01:13:52.735Z</time>
      </trkpt>
      <trkpt lat="42.91679" lon="2.59591">
        <ele>522.450352</ele>
        <time>2022-06-04T01:13:55.506Z</time>
      </trkpt>
      <trkpt lat="42.91714" lon="2.59734">
        <ele>513.803782</ele>
        <time>2022-06-04T01:14:19.226Z</time>
      </trkpt>
      <trkpt lat="42.91716" lon="2.59774">
        <ele>511.636144</ele>
        <time>2022-06-04T01:14:25.781Z</time>
      </trkpt>
      <trkpt lat="42.9174" lon="2.5981">
        <ele>509.0009</ele>
        <time>2022-06-04T01:14:33.930Z</time>
      </trkpt>
      <trkpt lat="42.91732" lon="2.59838">
        <ele>507.376573</ele>
        <time>2022-06-04T01:14:38.833Z</time>
      </trkpt>
      <trkpt lat="42.91734" lon="2.59848">
        <ele>506.794391</ele>
        <time>2022-06-04T01:14:40.382Z</time>
      </trkpt>
      <trkpt lat="42.91742" lon="2.59844">
        <ele>506.1725</ele>
        <time>2022-06-04T01:14:42.124Z</time>
      </trkpt>
      <trkpt lat="42.91766" lon="2.59801">
        <ele>503.267938</ele>
        <time>2022-06-04T01:14:50.414Z</time>
      </trkpt>
      <trkpt lat="42.91745" lon="2.59734">
        <ele>498.63004</ele>
        <time>2022-06-04T01:15:02.096Z</time>
      </trkpt>
      <trkpt lat="42.91755" lon="2.59731">
        <ele>497.693022</ele>
        <time>2022-06-04T01:15:04.189Z</time>
      </trkpt>
      <trkpt lat="42.91769" lon="2.59751">
        <ele>495.875348</ele>
        <time>2022-06-04T01:15:08.925Z</time>
      </trkpt>
      <trkpt lat="42.91784" lon="2.59757">
        <ele>494.457833</ele>
        <time>2022-06-04T01:15:12.033Z</time>
      </trkpt>
      <trkpt lat="42.91808" lon="2.59764">
        <ele>492.216081</ele>
        <time>2022-06-04T01:15:17.409Z</time>
      </trkpt>
      <trkpt lat="42.91823" lon="2.5978">
        <ele>490.444022</ele>
        <time>2022-06-04T01:15:21.408Z</time>
      </trkpt>
      <trkpt lat="42.91825" lon="2.59794">
        <ele>489.484657</ele>
        <time>2022-06-04T01:15:23.726Z</time>
      </trkpt>
      <trkpt lat="42.91817" lon="2.59825">
        <ele>487.318037</ele>
        <time>2022-06-04T01:15:28.475Z</time>
      </trkpt>
      <trkpt lat="42.91827" lon="2.59841">
        <ele>485.91046</ele>
        <time>2022-06-04T01:15:31.653Z</time>
      </trkpt>
      <trkpt lat="42.9186" lon="2.59849">
        <ele>482.258787</ele>
        <time>2022-06-04T01:15:38.208Z</time>
      </trkpt>
      <trkpt lat="42.9195" lon="2.59895">
        <ele>471.737436</ele>
        <time>2022-06-04T01:15:57.606Z</time>
      </trkpt>
      <trkpt lat="42.9201" lon="2.59897">
        <ele>465.276538</ele>
        <time>2022-06-04T01:16:09.866Z</time>
      </trkpt>
      <trkpt lat="42.92044" lon="2.59948">
        <ele>460.358611</ele>
        <time>2022-06-04T01:16:20.293Z</time>
      </trkpt>
      <trkpt lat="42.92063" lon="2.59955">
        <ele>458.444756</ele>
        <time>2022-06-04T01:16:24.346Z</time>
      </trkpt>
      <trkpt lat="42.9212" lon="2.59925">
        <ele>452.530582</ele>
        <time>2022-06-04T01:16:36.861Z</time>
      </trkpt>
      <trkpt lat="42.92176" lon="2.59912">
        <ele>447.119446</ele>
        <time>2022-06-04T01:16:48.801Z</time>
      </trkpt>
      <trkpt lat="42.92201" lon="2.59919">
        <ele>444.85526</ele>
        <time>2022-06-04T01:16:54.063Z</time>
      </trkpt>
      <trkpt lat="42.92248" lon="2.59846">
        <ele>438.473173</ele>
        <time>2022-06-04T01:17:09.259Z</time>
      </trkpt>
      <trkpt lat="42.92259" lon="2.59816">
        <ele>436.270341</ele>
        <time>2022-06-04T01:17:14.507Z</time>
      </trkpt>
      <trkpt lat="42.92295" lon="2.59764">
        <ele>431.579715</ele>
        <time>2022-06-04T01:17:25.233Z</time>
      </trkpt>
      <trkpt lat="42.92308" lon="2.59767">
        <ele>430.343095</ele>
        <time>2022-06-04T01:17:28.007Z</time>
      </trkpt>
      <trkpt lat="42.92342" lon="2.59806">
        <ele>426.360176</ele>
        <time>2022-06-04T01:17:36.890Z</time>
      </trkpt>
      <trkpt lat="42.92348" lon="2.59804">
        <ele>425.769243</ele>
        <time>2022-06-04T01:17:38.245Z</time>
      </trkpt>
      <trkpt lat="42.92348" lon="2.59792">
        <ele>424.918519</ele>
        <time>2022-06-04T01:17:40.235Z</time>
      </trkpt>
      <trkpt lat="42.92317" lon="2.59707">
        <ele>418.672085</ele>
        <time>2022-06-04T01:17:54.869Z</time>
      </trkpt>
      <trkpt lat="42.92329" lon="2.59678">
        <ele>416.476009</ele>
        <time>2022-06-04T01:18:00.072Z</time>
      </trkpt>
      <trkpt lat="42.92331" lon="2.5964">
        <ele>414.192079</ele>
        <time>2022-06-04T01:18:06.080Z</time>
      </trkpt>
      <trkpt lat="42.92334" lon="2.59636">
        <ele>413.86393</ele>
        <time>2022-06-04T01:18:06.956Z</time>
      </trkpt>
      <trkpt lat="42.92345" lon="2.59623">
        <ele>412.674475</ele>
        <time>2022-06-04T01:18:10.246Z</time>
      </trkpt>
      <trkpt lat="42.92367" lon="2.5964">
        <ele>410.669423</ele>
        <time>2022-06-04T01:18:15.420Z</time>
      </trkpt>
      <trkpt lat="42.92391" lon="2.59623">
        <ele>408.451916</ele>
        <time>2022-06-04T01:18:21.248Z</time>
      </trkpt>
      <trkpt lat="42.92431" lon="2.59629">
        <ele>405.26384</ele>
        <time>2022-06-04T01:18:29.747Z</time>
      </trkpt>
      <trkpt lat="42.92466" lon="2.59609">
        <ele>402.178356</ele>
        <time>2022-06-04T01:18:38.021Z</time>
      </trkpt>
      <trkpt lat="42.92482" lon="2.59609">
        <ele>400.66496</ele>
        <time>2022-06-04T01:18:41.461Z</time>
      </trkpt>
      <trkpt lat="42.92532" lon="2.59587">
        <ele>395.084389</ele>
        <time>2022-06-04T01:18:52.483Z</time>
      </trkpt>
      <trkpt lat="42.92554" lon="2.59589">
        <ele>392.807206</ele>
        <time>2022-06-04T01:18:56.923Z</time>
      </trkpt>
      <trkpt lat="42.9258" lon="2.59602">
        <ele>389.864896</ele>
        <time>2022-06-04T01:19:02.609Z</time>
      </trkpt>
      <trkpt lat="42.92632" lon="2.59607">
        <ele>384.347723</ele>
        <time>2022-06-04T01:19:13.051Z</time>
      </trkpt>
      <trkpt lat="42.92663" lon="2.59668">
        <ele>377.677589</ele>
        <time>2022-06-04T01:19:23.727Z</time>
      </trkpt>
      <trkpt lat="42.92671" lon="2.59727">
        <ele>372.040098</ele>
        <time>2022-06-04T01:19:32.193Z</time>
      </trkpt>
      <trkpt lat="42.92676" lon="2.59734">
        <ele>371.093071</ele>
        <time>2022-06-04T01:19:33.642Z</time>
      </trkpt>
      <trkpt lat="42.92701" lon="2.59724">
        <ele>367.699054</ele>
        <time>2022-06-04T01:19:38.724Z</time>
      </trkpt>
      <trkpt lat="42.92712" lon="2.5974">
        <ele>365.706621</ele>
        <time>2022-06-04T01:19:41.802Z</time>
      </trkpt>
      <trkpt lat="42.92721" lon="2.59743">
        <ele>364.494955</ele>
        <time>2022-06-04T01:19:43.520Z</time>
      </trkpt>
      <trkpt lat="42.92736" lon="2.59715">
        <ele>361.139553</ele>
        <time>2022-06-04T01:19:49.053Z</time>
      </trkpt>
      <trkpt lat="42.92745" lon="2.59717">
        <ele>360.069426</ele>
        <time>2022-06-04T01:19:50.586Z</time>
      </trkpt>
      <trkpt lat="42.92739" lon="2.59743">
        <ele>358.705001</ele>
        <time>2022-06-04T01:19:53.190Z</time>
      </trkpt>
      <trkpt lat="42.92749" lon="2.59756">
        <ele>358.088071</ele>
        <time>2022-06-04T01:19:54.682Z</time>
      </trkpt>
      <trkpt lat="42.92761" lon="2.59746">
        <ele>357.436158</ele>
        <time>2022-06-04T01:19:56.447Z</time>
      </trkpt>
      <trkpt lat="42.92765" lon="2.59744">
        <ele>357.232082</ele>
        <time>2022-06-04T01:19:57.038Z</time>
      </trkpt>
      <trkpt lat="42.92772" lon="2.59743">
        <ele>356.91919</ele>
        <time>2022-06-04T01:19:57.934Z</time>
      </trkpt>
      <trkpt lat="42.92776" lon="2.59741">
        <ele>356.695788</ele>
        <time>2022-06-04T01:19:58.581Z</time>
      </trkpt>
      <trkpt lat="42.92775" lon="2.59736">
        <ele>356.501963</ele>
        <time>2022-06-04T01:19:59.032Z</time>
      </trkpt>
      <trkpt lat="42.92772" lon="2.59724">
        <ele>356.069815</ele>
        <time>2022-06-04T01:20:00.142Z</time>
      </trkpt>
      <trkpt lat="42.92775" lon="2.59736">
        <ele>355.637667</ele>
        <time>2022-06-04T01:20:01.509Z</time>
      </trkpt>
      <trkpt lat="42.92776" lon="2.59741">
        <ele>355.443842</ele>
        <time>2022-06-04T01:20:02.167Z</time>
      </trkpt>
      <trkpt lat="42.92779" lon="2.59749">
        <ele>355.168241</ele>
        <time>2022-06-04T01:20:03.054Z</time>
      </trkpt>
      <trkpt lat="42.92791" lon="2.59761">
        <ele>354.468043</ele>
        <time>2022-06-04T01:20:04.790Z</time>
      </trkpt>
      <trkpt lat="42.92798" lon="2.59769">
        <ele>354.054666</ele>
        <time>2022-06-04T01:20:06.384Z</time>
      </trkpt>
      <trkpt lat="42.92806" lon="2.59777">
        <ele>353.579425</ele>
        <time>2022-06-04T01:20:08.759Z</time>
      </trkpt>
      <trkpt lat="42.9281" lon="2.59787">
        <ele>353.168301</ele>
        <time>2022-06-04T01:20:09.871Z</time>
      </trkpt>
      <trkpt lat="42.92809" lon="2.59799">
        <ele>352.780729</ele>
        <time>2022-06-04T01:20:10.884Z</time>
      </trkpt>
      <trkpt lat="42.92823" lon="2.59808">
        <ele>352.041067</ele>
        <time>2022-06-04T01:20:15.280Z</time>
      </trkpt>
      <trkpt lat="42.9287" lon="2.59836">
        <ele>353.832468</ele>
        <time>2022-06-04T01:20:34.881Z</time>
      </trkpt>
      <trkpt lat="42.92874" lon="2.5984">
        <ele>354.313604</ele>
        <time>2022-06-04T01:20:37.519Z</time>
      </trkpt>
      <trkpt lat="42.92906" lon="2.59881">
        <ele>358.620389</ele>
        <time>2022-06-04T01:20:56.761Z</time>
      </trkpt>
      <trkpt lat="42.92905" lon="2.59906">
        <ele>360.380409</ele>
        <time>2022-06-04T01:21:07.958Z</time>
      </trkpt>
      <trkpt lat="42.92899" lon="2.59916">
        <ele>361.261692</ele>
        <time>2022-06-04T01:21:13.518Z</time>
      </trkpt>
      <trkpt lat="42.92892" lon="2.59927">
        <ele>362.377168</ele>
        <time>2022-06-04T01:21:20.954Z</time>
      </trkpt>
      <trkpt lat="42.92916" lon="2.59954">
        <ele>365.392134</ele>
        <time>2022-06-04T01:21:47.676Z</time>
      </trkpt>
      <trkpt lat="42.9293" lon="2.60004">
        <ele>369.531318</ele>
        <time>2022-06-04T01:22:23.916Z</time>
      </trkpt>
      <trkpt lat="42.92956" lon="2.6004">
        <ele>375.019104</ele>
        <time>2022-06-04T01:22:58.225Z</time>
      </trkpt>
      <trkpt lat="42.92957" lon="2.60113">
        <ele>382.828217</ele>
        <time>2022-06-04T01:23:46.973Z</time>
      </trkpt>
      <trkpt lat="42.92959" lon="2.60189">
        <ele>391.03675</ele>
        <time>2022-06-04T01:24:34.033Z</time>
      </trkpt>
      <trkpt lat="42.92971" lon="2.60247">
        <ele>396.763799</ele>
        <time>2022-06-04T01:25:13.371Z</time>
      </trkpt>
      <trkpt lat="42.92995" lon="2.6029">
        <ele>400.57524</ele>
        <time>2022-06-04T01:25:48.183Z</time>
      </trkpt>
      <trkpt lat="42.93034" lon="2.60338">
        <ele>405.704299</ele>
        <time>2022-06-04T01:26:28.196Z</time>
      </trkpt>
      <trkpt lat="42.93072" lon="2.60423">
        <ele>412.553293</ele>
        <time>2022-06-04T01:27:08.340Z</time>
      </trkpt>
      <trkpt lat="42.93077" lon="2.60476">
        <ele>412.438156</ele>
        <time>2022-06-04T01:27:21.021Z</time>
      </trkpt>
      <trkpt lat="42.93084" lon="2.60481">
        <ele>412.414059</ele>
        <time>2022-06-04T01:27:23.803Z</time>
      </trkpt>
      <trkpt lat="42.93095" lon="2.60528">
        <ele>412.307219</ele>
        <time>2022-06-04T01:27:33.818Z</time>
      </trkpt>
      <trkpt lat="42.93095" lon="2.60578">
        <ele>412.199947</ele>
        <time>2022-06-04T01:27:43.490Z</time>
      </trkpt>
      <trkpt lat="42.93087" lon="2.60639">
        <ele>412.065358</ele>
        <time>2022-06-04T01:27:54.999Z</time>
      </trkpt>
      <trkpt lat="42.93101" lon="2.6066">
        <ele>412.082166</ele>
        <time>2022-06-04T01:27:57.832Z</time>
      </trkpt>
      <trkpt lat="42.93105" lon="2.60729">
        <ele>412.435147</ele>
        <time>2022-06-04T01:28:05.144Z</time>
      </trkpt>
      <trkpt lat="42.93117" lon="2.60771">
        <ele>412.667759</ele>
        <time>2022-06-04T01:28:10.162Z</time>
      </trkpt>
      <trkpt lat="42.93132" lon="2.60793">
        <ele>412.823964</ele>
        <time>2022-06-04T01:28:13.404Z</time>
      </trkpt>
      <trkpt lat="42.932" lon="2.60829">
        <ele>413.666403</ele>
        <time>2022-06-04T01:28:40.203Z</time>
      </trkpt>
      <trkpt lat="42.93218" lon="2.60859">
        <ele>415.36994</ele>
        <time>2022-06-04T01:28:53.902Z</time>
      </trkpt>
      <trkpt lat="42.93234" lon="2.60917">
        <ele>418.131315</ele>
        <time>2022-06-04T01:29:12.842Z</time>
      </trkpt>
      <trkpt lat="42.93249" lon="2.60923">
        <ele>419.087609</ele>
        <time>2022-06-04T01:29:21.523Z</time>
      </trkpt>
      <trkpt lat="42.93327" lon="2.60859">
        <ele>424.63696</ele>
        <time>2022-06-04T01:29:56.546Z</time>
      </trkpt>
      <trkpt lat="42.93367" lon="2.60842">
        <ele>427.546335</ele>
        <time>2022-06-04T01:30:15.371Z</time>
      </trkpt>
      <trkpt lat="42.93385" lon="2.60842">
        <ele>428.82187</ele>
        <time>2022-06-04T01:30:25.652Z</time>
      </trkpt>
      <trkpt lat="42.93395" lon="2.60848">
        <ele>429.633997</ele>
        <time>2022-06-04T01:30:30.480Z</time>
      </trkpt>
      <trkpt lat="42.93423" lon="2.60893">
        <ele>432.643472</ele>
        <time>2022-06-04T01:30:49.618Z</time>
      </trkpt>
      <trkpt lat="42.93438" lon="2.60907">
        <ele>433.888739</ele>
        <time>2022-06-04T01:30:58.227Z</time>
      </trkpt>
      <trkpt lat="42.93459" lon="2.60902">
        <ele>435.420619</ele>
        <time>2022-06-04T01:31:08.146Z</time>
      </trkpt>
      <trkpt lat="42.93486" lon="2.60856">
        <ele>438.297063</ele>
        <time>2022-06-04T01:31:29.246Z</time>
      </trkpt>
      <trkpt lat="42.93546" lon="2.60805">
        <ele>442.848844</ele>
        <time>2022-06-04T01:32:04.123Z</time>
      </trkpt>
      <trkpt lat="42.93558" lon="2.60783">
        <ele>444.184106</ele>
        <time>2022-06-04T01:32:14.614Z</time>
      </trkpt>
      <trkpt lat="42.93566" lon="2.60753">
        <ele>445.651165</ele>
        <time>2022-06-04T01:32:26.682Z</time>
      </trkpt>
      <trkpt lat="42.93568" lon="2.60721">
        <ele>447.17984</ele>
        <time>2022-06-04T01:32:37.367Z</time>
      </trkpt>
      <trkpt lat="42.93576" lon="2.60705">
        <ele>448.069516</ele>
        <time>2022-06-04T01:32:43.550Z</time>
      </trkpt>
      <trkpt lat="42.93604" lon="2.6067">
        <ele>447.472355</ele>
        <time>2022-06-04T01:32:49.763Z</time>
      </trkpt>
      <trkpt lat="42.93621" lon="2.60626">
        <ele>446.492585</ele>
        <time>2022-06-04T01:32:54.599Z</time>
      </trkpt>
      <trkpt lat="42.9364" lon="2.60603">
        <ele>445.790094</ele>
        <time>2022-06-04T01:32:57.969Z</time>
      </trkpt>
      <trkpt lat="42.93663" lon="2.60556">
        <ele>444.688016</ele>
        <time>2022-06-04T01:33:03.134Z</time>
      </trkpt>
      <trkpt lat="42.93671" lon="2.60552">
        <ele>444.456081</ele>
        <time>2022-06-04T01:33:04.269Z</time>
      </trkpt>
      <trkpt lat="42.93682" lon="2.60557">
        <ele>444.14421</ele>
        <time>2022-06-04T01:33:05.730Z</time>
      </trkpt>
      <trkpt lat="42.93689" lon="2.60594">
        <ele>443.450069</ele>
        <time>2022-06-04T01:33:09.260Z</time>
      </trkpt>
      <trkpt lat="42.93711" lon="2.60645">
        <ele>442.855801</ele>
        <time>2022-06-04T01:33:15.035Z</time>
      </trkpt>
      <trkpt lat="42.93732" lon="2.60714">
        <ele>442.093234</ele>
        <time>2022-06-04T01:33:22.421Z</time>
      </trkpt>
      <trkpt lat="42.93746" lon="2.60729">
        <ele>441.845583</ele>
        <time>2022-06-04T01:33:24.916Z</time>
      </trkpt>
      <trkpt lat="42.93773" lon="2.60734">
        <ele>441.475803</ele>
        <time>2022-06-04T01:33:28.462Z</time>
      </trkpt>
      <trkpt lat="42.93797" lon="2.60722">
        <ele>441.125954</ele>
        <time>2022-06-04T01:33:40.655Z</time>
      </trkpt>
      <trkpt lat="42.93826" lon="2.60671">
        <ele>443.131822</ele>
        <time>2022-06-04T01:34:01.449Z</time>
      </trkpt>
      <trkpt lat="42.93874" lon="2.60624">
        <ele>446.180026</ele>
        <time>2022-06-04T01:34:27.119Z</time>
      </trkpt>
      <trkpt lat="42.93876" lon="2.60597">
        <ele>447.183863</ele>
        <time>2022-06-04T01:34:33.505Z</time>
      </trkpt>
      <trkpt lat="42.93866" lon="2.6055">
        <ele>449.023885</ele>
        <time>2022-06-04T01:34:46.271Z</time>
      </trkpt>
      <trkpt lat="42.9387" lon="2.60538">
        <ele>449.54342</ele>
        <time>2022-06-04T01:34:51.324Z</time>
      </trkpt>
      <trkpt lat="42.93889" lon="2.60526">
        <ele>450.494458</ele>
        <time>2022-06-04T01:34:55.318Z</time>
      </trkpt>
      <trkpt lat="42.93943" lon="2.60546">
        <ele>452.470928</ele>
        <time>2022-06-04T01:35:21.433Z</time>
      </trkpt>
      <trkpt lat="42.94006" lon="2.60506">
        <ele>454.936793</ele>
        <time>2022-06-04T01:35:44.355Z</time>
      </trkpt>
      <trkpt lat="42.94022" lon="2.60488">
        <ele>455.651274</ele>
        <time>2022-06-04T01:35:46.943Z</time>
      </trkpt>
      <trkpt lat="42.94025" lon="2.60469">
        <ele>456.141379</ele>
        <time>2022-06-04T01:35:53.258Z</time>
      </trkpt>
      <trkpt lat="42.94023" lon="2.60452">
        <ele>456.593395</ele>
        <time>2022-06-04T01:35:55.842Z</time>
      </trkpt>
      <trkpt lat="42.93988" lon="2.60385">
        <ele>456.014242</ele>
        <time>2022-06-04T01:36:11.220Z</time>
      </trkpt>
      <trkpt lat="42.93978" lon="2.60373">
        <ele>455.874105</ele>
        <time>2022-06-04T01:36:13.353Z</time>
      </trkpt>
      <trkpt lat="42.93911" lon="2.60329">
        <ele>455.130989</ele>
        <time>2022-06-04T01:36:25.853Z</time>
      </trkpt>
      <trkpt lat="42.93907" lon="2.60316">
        <ele>455.026948</ele>
        <time>2022-06-04T01:36:27.141Z</time>
      </trkpt>
      <trkpt lat="42.93913" lon="2.60299">
        <ele>454.885168</ele>
        <time>2022-06-04T01:36:28.876Z</time>
      </trkpt>
      <trkpt lat="42.93928" lon="2.60289">
        <ele>454.367635</ele>
        <time>2022-06-04T01:36:30.901Z</time>
      </trkpt>
      <trkpt lat="42.93995" lon="2.60283">
        <ele>450.764834</ele>
        <time>2022-06-04T01:36:39.161Z</time>
      </trkpt>
      <trkpt lat="42.94037" lon="2.60269">
        <ele>448.431178</ele>
        <time>2022-06-04T01:36:44.489Z</time>
      </trkpt>
      <trkpt lat="42.94043" lon="2.60261">
        <ele>447.980787</ele>
        <time>2022-06-04T01:36:45.474Z</time>
      </trkpt>
      <trkpt lat="42.94051" lon="2.60228">
        <ele>446.647036</ele>
        <time>2022-06-04T01:36:48.594Z</time>
      </trkpt>
      <trkpt lat="42.9406" lon="2.6022">
        <ele>446.103472</ele>
        <time>2022-06-04T01:36:49.860Z</time>
      </trkpt>
      <trkpt lat="42.94088" lon="2.60226">
        <ele>444.58711</ele>
        <time>2022-06-04T01:36:53.671Z</time>
      </trkpt>
      <trkpt lat="42.94117" lon="2.60243">
        <ele>442.973828</ele>
        <time>2022-06-04T01:36:57.944Z</time>
      </trkpt>
      <trkpt lat="42.94144" lon="2.6024">
        <ele>441.620193</ele>
        <time>2022-06-04T01:37:01.802Z</time>
      </trkpt>
      <trkpt lat="42.94177" lon="2.60214">
        <ele>439.701144</ele>
        <time>2022-06-04T01:37:06.473Z</time>
      </trkpt>
      <trkpt lat="42.94209" lon="2.60146">
        <ele>436.678576</ele>
        <time>2022-06-04T01:37:13.707Z</time>
      </trkpt>
      <trkpt lat="42.94236" lon="2.60121">
        <ele>434.619311</ele>
        <time>2022-06-04T01:37:17.798Z</time>
      </trkpt>
      <trkpt lat="42.94247" lon="2.6012">
        <ele>433.872529</ele>
        <time>2022-06-04T01:37:19.394Z</time>
      </trkpt>
      <trkpt lat="42.94256" lon="2.60125">
        <ele>433.16604</ele>
        <time>2022-06-04T01:37:20.679Z</time>
      </trkpt>
      <trkpt lat="42.94266" lon="2.60143">
        <ele>431.988883</ele>
        <time>2022-06-04T01:37:22.578Z</time>
      </trkpt>
      <trkpt lat="42.94262" lon="2.60203">
        <ele>428.940566</ele>
        <time>2022-06-04T01:37:27.872Z</time>
      </trkpt>
      <trkpt lat="42.94262" lon="2.60282">
        <ele>424.856198</ele>
        <time>2022-06-04T01:37:34.730Z</time>
      </trkpt>
      <trkpt lat="42.94257" lon="2.60324">
        <ele>423.032319</ele>
        <time>2022-06-04T01:37:38.401Z</time>
      </trkpt>
      <trkpt lat="42.9426" lon="2.60344">
        <ele>422.470776</ele>
        <time>2022-06-04T01:37:40.067Z</time>
      </trkpt>
      <trkpt lat="42.94293" lon="2.60372">
        <ele>420.995178</ele>
        <time>2022-06-04T01:37:45.058Z</time>
      </trkpt>
      <trkpt lat="42.94323" lon="2.60378">
        <ele>419.846621</ele>
        <time>2022-06-04T01:37:49.268Z</time>
      </trkpt>
      <trkpt lat="42.94342" lon="2.60391">
        <ele>419.056169</ele>
        <time>2022-06-04T01:37:52.272Z</time>
      </trkpt>
      <trkpt lat="42.94372" lon="2.60426">
        <ele>417.559466</ele>
        <time>2022-06-04T01:37:58.052Z</time>
      </trkpt>
      <trkpt lat="42.94395" lon="2.60471">
        <ele>416.721184</ele>
        <time>2022-06-04T01:38:04.338Z</time>
      </trkpt>
      <trkpt lat="42.94424" lon="2.60474">
        <ele>416.86393</ele>
        <time>2022-06-04T01:38:09.247Z</time>
      </trkpt>
      <trkpt lat="42.94448" lon="2.6049">
        <ele>416.99396</ele>
        <time>2022-06-04T01:38:13.849Z</time>
      </trkpt>
      <trkpt lat="42.94468" lon="2.60491">
        <ele>417.089387</ele>
        <time>2022-06-04T01:38:17.461Z</time>
      </trkpt>
      <trkpt lat="42.94495" lon="2.60462">
        <ele>417.258102</ele>
        <time>2022-06-04T01:38:24.904Z</time>
      </trkpt>
      <trkpt lat="42.94604" lon="2.60449">
        <ele>418.158402</ele>
        <time>2022-06-04T01:38:53.508Z</time>
      </trkpt>
      <trkpt lat="42.94668" lon="2.60407">
        <ele>418.987441</ele>
        <time>2022-06-04T01:39:06.713Z</time>
      </trkpt>
      <trkpt lat="42.94675" lon="2.60403">
        <ele>419.072929</ele>
        <time>2022-06-04T01:39:08.469Z</time>
      </trkpt>
      <trkpt lat="42.9471" lon="2.60398">
        <ele>419.481844</ele>
        <time>2022-06-04T01:39:16.158Z</time>
      </trkpt>
      <trkpt lat="42.94725" lon="2.6041">
        <ele>419.76796</ele>
        <time>2022-06-04T01:39:19.724Z</time>
      </trkpt>
      <trkpt lat="42.94736" lon="2.60431">
        <ele>420.270298</ele>
        <time>2022-06-04T01:39:25.004Z</time>
      </trkpt>
      <trkpt lat="42.9474" lon="2.60444">
        <ele>420.552687</ele>
        <time>2022-06-04T01:39:27.228Z</time>
      </trkpt>
      <trkpt lat="42.94758" lon="2.60501">
        <ele>421.773224</ele>
        <time>2022-06-04T01:39:39.171Z</time>
      </trkpt>
      <trkpt lat="42.94765" lon="2.60569">
        <ele>423.12059</ele>
        <time>2022-06-04T01:39:52.836Z</time>
      </trkpt>
      <trkpt lat="42.9479" lon="2.60592">
        <ele>423.946918</ele>
        <time>2022-06-04T01:40:01.452Z</time>
      </trkpt>
      <trkpt lat="42.948" lon="2.60609">
        <ele>424.355856</ele>
        <time>2022-06-04T01:40:06.256Z</time>
      </trkpt>
      <trkpt lat="42.94833" lon="2.60705">
        <ele>428.877255</ele>
        <time>2022-06-04T01:40:40.107Z</time>
      </trkpt>
      <trkpt lat="42.9483" lon="2.6072">
        <ele>429.557682</ele>
        <time>2022-06-04T01:40:45.658Z</time>
      </trkpt>
      <trkpt lat="42.94815" lon="2.6075">
        <ele>431.193584</ele>
        <time>2022-06-04T01:40:58.652Z</time>
      </trkpt>
      <trkpt lat="42.94797" lon="2.60817">
        <ele>434.271639</ele>
        <time>2022-06-04T01:41:21.681Z</time>
      </trkpt>
      <trkpt lat="42.94795" lon="2.60968">
        <ele>438.283672</ele>
        <time>2022-06-04T01:42:01.897Z</time>
      </trkpt>
      <trkpt lat="42.948" lon="2.60977">
        <ele>438.527888</ele>
        <time>2022-06-04T01:42:04.059Z</time>
      </trkpt>
      <trkpt lat="42.94813" lon="2.60982">
        <ele>438.984097</ele>
        <time>2022-06-04T01:42:08.116Z</time>
      </trkpt>
      <trkpt lat="42.94832" lon="2.60979">
        <ele>439.591198</ele>
        <time>2022-06-04T01:42:12.904Z</time>
      </trkpt>
      <trkpt lat="42.94904" lon="2.60947">
        <ele>441.169327</ele>
        <time>2022-06-04T01:42:28.533Z</time>
      </trkpt>
      <trkpt lat="42.94918" lon="2.60948">
        <ele>441.234209</ele>
        <time>2022-06-04T01:42:30.952Z</time>
      </trkpt>
      <trkpt lat="42.94931" lon="2.60979">
        <ele>441.363361</ele>
        <time>2022-06-04T01:42:35.461Z</time>
      </trkpt>
      <trkpt lat="42.94932" lon="2.61074">
        <ele>441.705613</ele>
        <time>2022-06-04T01:42:49.162Z</time>
      </trkpt>
      <trkpt lat="42.94937" lon="2.61093">
        <ele>441.775918</ele>
        <time>2022-06-04T01:42:52.247Z</time>
      </trkpt>
      <trkpt lat="42.94955" lon="2.61108">
        <ele>441.883373</ele>
        <time>2022-06-04T01:42:56.730Z</time>
      </trkpt>
      <trkpt lat="42.94985" lon="2.61108">
        <ele>442.127361</ele>
        <time>2022-06-04T01:43:02.105Z</time>
      </trkpt>
      <trkpt lat="42.95031" lon="2.61097">
        <ele>442.516208</ele>
        <time>2022-06-04T01:43:11.483Z</time>
      </trkpt>
      <trkpt lat="42.95067" lon="2.61079">
        <ele>442.842036</ele>
        <time>2022-06-04T01:43:19.427Z</time>
      </trkpt>
      <trkpt lat="42.95097" lon="2.61084">
        <ele>443.092418</ele>
        <time>2022-06-04T01:43:25.978Z</time>
      </trkpt>
      <trkpt lat="42.95117" lon="2.61094">
        <ele>443.267851</ele>
        <time>2022-06-04T01:43:30.292Z</time>
      </trkpt>
      <trkpt lat="42.9513" lon="2.61114">
        <ele>443.491922</ele>
        <time>2022-06-04T01:43:35.368Z</time>
      </trkpt>
      <trkpt lat="42.95146" lon="2.61127">
        <ele>443.957688</ele>
        <time>2022-06-04T01:43:39.789Z</time>
      </trkpt>
      <trkpt lat="42.95197" lon="2.61132">
        <ele>445.190298</ele>
        <time>2022-06-04T01:43:52.683Z</time>
      </trkpt>
      <trkpt lat="42.95231" lon="2.61114">
        <ele>446.062514</ele>
        <time>2022-06-04T01:44:02.573Z</time>
      </trkpt>
      <trkpt lat="42.9529" lon="2.6102">
        <ele>448.126406</ele>
        <time>2022-06-04T01:44:30.505Z</time>
      </trkpt>
      <trkpt lat="42.95299" lon="2.61017">
        <ele>448.309966</ele>
        <time>2022-06-04T01:44:33.813Z</time>
      </trkpt>
      <trkpt lat="42.95319" lon="2.61022">
        <ele>448.678081</ele>
        <time>2022-06-04T01:44:40.071Z</time>
      </trkpt>
      <trkpt lat="42.95361" lon="2.6105">
        <ele>449.565122</ele>
        <time>2022-06-04T01:44:53.937Z</time>
      </trkpt>
      <trkpt lat="42.95383" lon="2.61056">
        <ele>449.972642</ele>
        <time>2022-06-04T01:44:59.542Z</time>
      </trkpt>
      <trkpt lat="42.9541" lon="2.61052">
        <ele>450.490243</ele>
        <time>2022-06-04T01:45:05.828Z</time>
      </trkpt>
      <trkpt lat="42.95461" lon="2.6103">
        <ele>450.276632</ele>
        <time>2022-06-04T01:45:16.128Z</time>
      </trkpt>
      <trkpt lat="42.95548" lon="2.60974">
        <ele>446.419297</ele>
        <time>2022-06-04T01:45:29.086Z</time>
      </trkpt>
      <trkpt lat="42.95576" lon="2.60968">
        <ele>445.305992</ele>
        <time>2022-06-04T01:45:32.404Z</time>
      </trkpt>
      <trkpt lat="42.95631" lon="2.60973">
        <ele>442.135549</ele>
        <time>2022-06-04T01:45:39.113Z</time>
      </trkpt>
      <trkpt lat="42.95654" lon="2.60963">
        <ele>440.068227</ele>
        <time>2022-06-04T01:45:42.027Z</time>
      </trkpt>
      <trkpt lat="42.95663" lon="2.60953">
        <ele>439.093146</ele>
        <time>2022-06-04T01:45:43.322Z</time>
      </trkpt>
      <trkpt lat="42.95671" lon="2.60952">
        <ele>438.375105</ele>
        <time>2022-06-04T01:45:44.291Z</time>
      </trkpt>
      <trkpt lat="42.95708" lon="2.6092">
        <ele>434.586177</ele>
        <time>2022-06-04T01:45:49.707Z</time>
      </trkpt>
      <trkpt lat="42.95739" lon="2.60908">
        <ele>431.832447</ele>
        <time>2022-06-04T01:45:53.502Z</time>
      </trkpt>
      <trkpt lat="42.95758" lon="2.60894">
        <ele>429.945676</ele>
        <time>2022-06-04T01:45:56.132Z</time>
      </trkpt>
      <trkpt lat="42.95768" lon="2.60874">
        <ele>428.404122</ele>
        <time>2022-06-04T01:45:58.241Z</time>
      </trkpt>
      <trkpt lat="42.95808" lon="2.60832">
        <ele>423.819279</ele>
        <time>2022-06-04T01:46:04.128Z</time>
      </trkpt>
      <trkpt lat="42.95875" lon="2.6074">
        <ele>415.088099</ele>
        <time>2022-06-04T01:46:15.664Z</time>
      </trkpt>
      <trkpt lat="42.95891" lon="2.60709">
        <ele>412.590738</ele>
        <time>2022-06-04T01:46:18.957Z</time>
      </trkpt>
      <trkpt lat="42.95902" lon="2.60703">
        <ele>411.644347</ele>
        <time>2022-06-04T01:46:20.366Z</time>
      </trkpt>
      <trkpt lat="42.95957" lon="2.60685">
        <ele>408.209016</ele>
        <time>2022-06-04T01:46:27.182Z</time>
      </trkpt>
      <trkpt lat="42.95959" lon="2.60683">
        <ele>408.020226</ele>
        <time>2022-06-04T01:46:27.558Z</time>
      </trkpt>
      <trkpt lat="42.95969" lon="2.60672">
        <ele>407.27258</ele>
        <time>2022-06-04T01:46:29.103Z</time>
      </trkpt>
      <trkpt lat="42.96029" lon="2.60619">
        <ele>402.916387</ele>
        <time>2022-06-04T01:46:38.355Z</time>
      </trkpt>
      <trkpt lat="42.96039" lon="2.60609">
        <ele>402.166095</ele>
        <time>2022-06-04T01:46:40.055Z</time>
      </trkpt>
      <trkpt lat="42.96062" lon="2.60591">
        <ele>400.628847</ele>
        <time>2022-06-04T01:46:43.739Z</time>
      </trkpt>
      <trkpt lat="42.96092" lon="2.60581">
        <ele>399.096905</ele>
        <time>2022-06-04T01:46:48.056Z</time>
      </trkpt>
      <trkpt lat="42.96117" lon="2.6059">
        <ele>397.832827</ele>
        <time>2022-06-04T01:46:51.601Z</time>
      </trkpt>
      <trkpt lat="42.96122" lon="2.60589">
        <ele>397.610927</ele>
        <time>2022-06-04T01:46:52.245Z</time>
      </trkpt>
      <trkpt lat="42.96147" lon="2.60587">
        <ele>396.37729</ele>
        <time>2022-06-04T01:46:55.624Z</time>
      </trkpt>
      <trkpt lat="42.96186" lon="2.60569">
        <ele>394.332298</ele>
        <time>2022-06-04T01:47:01.046Z</time>
      </trkpt>
      <trkpt lat="42.96251" lon="2.60494">
        <ele>390.383662</ele>
        <time>2022-06-04T01:47:12.158Z</time>
      </trkpt>
      <trkpt lat="42.9625" lon="2.60465">
        <ele>389.481217</ele>
        <time>2022-06-04T01:47:15.158Z</time>
      </trkpt>
      <trkpt lat="42.96254" lon="2.60453">
        <ele>389.070346</ele>
        <time>2022-06-04T01:47:16.362Z</time>
      </trkpt>
      <trkpt lat="42.96265" lon="2.60452">
        <ele>388.631711</ele>
        <time>2022-06-04T01:47:17.846Z</time>
      </trkpt>
      <trkpt lat="42.96319" lon="2.60482">
        <ele>386.114905</ele>
        <time>2022-06-04T01:47:25.787Z</time>
      </trkpt>
      <trkpt lat="42.96349" lon="2.60509">
        <ele>384.581304</ele>
        <time>2022-06-04T01:47:30.959Z</time>
      </trkpt>
      <trkpt lat="42.96361" lon="2.60511">
        <ele>384.220162</ele>
        <time>2022-06-04T01:47:32.749Z</time>
      </trkpt>
      <trkpt lat="42.96406" lon="2.60488">
        <ele>383.109263</ele>
        <time>2022-06-04T01:47:40.478Z</time>
      </trkpt>
      <trkpt lat="42.96423" lon="2.60474">
        <ele>382.644469</ele>
        <time>2022-06-04T01:47:43.635Z</time>
      </trkpt>
      <trkpt lat="42.96478" lon="2.60491">
        <ele>381.328894</ele>
        <time>2022-06-04T01:47:52.916Z</time>
      </trkpt>
      <trkpt lat="42.96518" lon="2.60494">
        <ele>380.395969</ele>
        <time>2022-06-04T01:47:58.690Z</time>
      </trkpt>
      <trkpt lat="42.96568" lon="2.60483">
        <ele>378.480152</ele>
        <time>2022-06-04T01:48:05.480Z</time>
      </trkpt>
      <trkpt lat="42.96655" lon="2.60454">
        <ele>374.867251</ele>
        <time>2022-06-04T01:48:18.039Z</time>
      </trkpt>
      <trkpt lat="42.9667" lon="2.60424">
        <ele>373.801349</ele>
        <time>2022-06-04T01:48:21.569Z</time>
      </trkpt>
      <trkpt lat="42.96693" lon="2.60394">
        <ele>372.63546</ele>
        <time>2022-06-04T01:48:25.885Z</time>
      </trkpt>
      <trkpt lat="42.96709" lon="2.60353">
        <ele>371.605039</ele>
        <time>2022-06-04T01:48:30.466Z</time>
      </trkpt>
      <trkpt lat="42.96718" lon="2.60341">
        <ele>371.212172</ele>
        <time>2022-06-04T01:48:32.287Z</time>
      </trkpt>
      <trkpt lat="42.96766" lon="2.60334">
        <ele>369.777755</ele>
        <time>2022-06-04T01:48:38.961Z</time>
      </trkpt>
      <trkpt lat="42.96783" lon="2.60326">
        <ele>369.219104</ele>
        <time>2022-06-04T01:48:41.571Z</time>
      </trkpt>
      <trkpt lat="42.96803" lon="2.60306">
        <ele>368.475727</ele>
        <time>2022-06-04T01:48:45.584Z</time>
      </trkpt>
      <trkpt lat="42.96821" lon="2.60279">
        <ele>367.664874</ele>
        <time>2022-06-04T01:48:49.973Z</time>
      </trkpt>
      <trkpt lat="42.9684" lon="2.60224">
        <ele>367.138526</ele>
        <time>2022-06-04T01:48:57.374Z</time>
      </trkpt>
      <trkpt lat="42.9686" lon="2.60193">
        <ele>366.837591</ele>
        <time>2022-06-04T01:49:02.330Z</time>
      </trkpt>
      <trkpt lat="42.96884" lon="2.60164">
        <ele>366.517135</ele>
        <time>2022-06-04T01:49:07.670Z</time>
      </trkpt>
      <trkpt lat="42.96978" lon="2.60086">
        <ele>365.552786</ele>
        <time>2022-06-04T01:49:26.177Z</time>
      </trkpt>
      <trkpt lat="42.97037" lon="2.60026">
        <ele>365.123862</ele>
        <time>2022-06-04T01:49:39.160Z</time>
      </trkpt>
      <trkpt lat="42.97147" lon="2.59932">
        <ele>364.435358</ele>
        <time>2022-06-04T01:50:01.634Z</time>
      </trkpt>
      <trkpt lat="42.972" lon="2.59899">
        <ele>364.162611</ele>
        <time>2022-06-04T01:50:11.739Z</time>
      </trkpt>
      <trkpt lat="42.97308" lon="2.59786">
        <ele>363.205544</ele>
        <time>2022-06-04T01:50:36.144Z</time>
      </trkpt>
      <trkpt lat="42.97398" lon="2.59731">
        <ele>362.289928</ele>
        <time>2022-06-04T01:50:52.774Z</time>
      </trkpt>
      <trkpt lat="42.97481" lon="2.59692">
        <ele>359.854199</ele>
        <time>2022-06-04T01:51:05.756Z</time>
      </trkpt>
      <trkpt lat="42.97589" lon="2.59617">
        <ele>356.653072</ele>
        <time>2022-06-04T01:51:22.457Z</time>
      </trkpt>
      <trkpt lat="42.97611" lon="2.59612">
        <ele>356.494711</ele>
        <time>2022-06-04T01:51:25.927Z</time>
      </trkpt>
      <trkpt lat="42.97642" lon="2.59619">
        <ele>356.26364</ele>
        <time>2022-06-04T01:51:31.396Z</time>
      </trkpt>
      <trkpt lat="42.97653" lon="2.59614">
        <ele>356.184119</ele>
        <time>2022-06-04T01:51:33.401Z</time>
      </trkpt>
      <trkpt lat="42.97657" lon="2.59602">
        <ele>356.11584</ele>
        <time>2022-06-04T01:51:35.382Z</time>
      </trkpt>
      <trkpt lat="42.9767" lon="2.59599">
        <ele>356.020502</ele>
        <time>2022-06-04T01:51:37.592Z</time>
      </trkpt>
      <trkpt lat="42.97686" lon="2.59611">
        <ele>355.889586</ele>
        <time>2022-06-04T01:51:41.727Z</time>
      </trkpt>
      <trkpt lat="42.97706" lon="2.59679">
        <ele>355.503801</ele>
        <time>2022-06-04T01:51:52.607Z</time>
      </trkpt>
      <trkpt lat="42.97708" lon="2.59704">
        <ele>355.405068</ele>
        <time>2022-06-04T01:51:57.292Z</time>
      </trkpt>
      <trkpt lat="42.97717" lon="2.59733">
        <ele>355.284433</ele>
        <time>2022-06-04T01:52:02.044Z</time>
      </trkpt>
      <trkpt lat="42.97772" lon="2.59803">
        <ele>354.900123</ele>
        <time>2022-06-04T01:52:17.833Z</time>
      </trkpt>
      <trkpt lat="42.97863" lon="2.59892">
        <ele>353.137224</ele>
        <time>2022-06-04T01:52:34.570Z</time>
      </trkpt>
      <trkpt lat="42.97891" lon="2.59911">
        <ele>352.186586</ele>
        <time>2022-06-04T01:52:38.949Z</time>
      </trkpt>
      <trkpt lat="42.97963" lon="2.59993">
        <ele>349.387937</ele>
        <time>2022-06-04T01:52:52.098Z</time>
      </trkpt>
      <trkpt lat="42.97972" lon="2.60004">
        <ele>349.105528</ele>
        <time>2022-06-04T01:52:54.014Z</time>
      </trkpt>
      <trkpt lat="42.97987" lon="2.60032">
        <ele>348.830901</ele>
        <time>2022-06-04T01:52:57.748Z</time>
      </trkpt>
      <trkpt lat="42.98013" lon="2.60133">
        <ele>347.96986</ele>
        <time>2022-06-04T01:53:10.672Z</time>
      </trkpt>
      <trkpt lat="42.98029" lon="2.60229">
        <ele>347.186782</ele>
        <time>2022-06-04T01:53:23.765Z</time>
      </trkpt>
      <trkpt lat="42.98031" lon="2.60281">
        <ele>347.022313</ele>
        <time>2022-06-04T01:53:30.894Z</time>
      </trkpt>
      <trkpt lat="42.98033" lon="2.60365">
        <ele>346.762485</ele>
        <time>2022-06-04T01:53:41.888Z</time>
      </trkpt>
      <trkpt lat="42.98082" lon="2.60497">
        <ele>345.954132</ele>
        <time>2022-06-04T01:54:00.769Z</time>
      </trkpt>
      <trkpt lat="42.98103" lon="2.60651">
        <ele>344.070959</ele>
        <time>2022-06-04T01:54:18.524Z</time>
      </trkpt>
      <trkpt lat="42.98145" lon="2.60829">
        <ele>341.352601</ele>
        <time>2022-06-04T01:54:39.290Z</time>
      </trkpt>
      <trkpt lat="42.98159" lon="2.60899">
        <ele>340.239566</ele>
        <time>2022-06-04T01:54:47.236Z</time>
      </trkpt>
      <trkpt lat="42.98171" lon="2.60926">
        <ele>339.753117</ele>
        <time>2022-06-04T01:54:50.777Z</time>
      </trkpt>
      <trkpt lat="42.98193" lon="2.60961">
        <ele>339.338476</ele>
        <time>2022-06-04T01:54:56.181Z</time>
      </trkpt>
      <trkpt lat="42.98211" lon="2.60982">
        <ele>339.086969</ele>
        <time>2022-06-04T01:54:59.948Z</time>
      </trkpt>
      <trkpt lat="42.98234" lon="2.60992">
        <ele>338.826186</ele>
        <time>2022-06-04T01:55:03.938Z</time>
      </trkpt>
      <trkpt lat="42.98283" lon="2.60992">
        <ele>338.295819</ele>
        <time>2022-06-04T01:55:12.221Z</time>
      </trkpt>
      <trkpt lat="42.98297" lon="2.61004">
        <ele>338.116446</ele>
        <time>2022-06-04T01:55:15.012Z</time>
      </trkpt>
      <trkpt lat="42.98333" lon="2.61079">
        <ele>337.572084</ele>
        <time>2022-06-04T01:55:26.264Z</time>
      </trkpt>
      <trkpt lat="42.98341" lon="2.61089">
        <ele>337.524541</ele>
        <time>2022-06-04T01:55:27.963Z</time>
      </trkpt>
      <trkpt lat="42.98568" lon="2.61074">
        <ele>336.229789</ele>
        <time>2022-06-04T01:56:06.613Z</time>
      </trkpt>
      <trkpt lat="42.98624" lon="2.61123">
        <ele>335.762172</ele>
        <time>2022-06-04T01:56:17.141Z</time>
      </trkpt>
      <trkpt lat="42.98678" lon="2.61168">
        <ele>335.318729</ele>
        <time>2022-06-04T01:56:27.083Z</time>
      </trkpt>
      <trkpt lat="42.98715" lon="2.61243">
        <ele>334.850544</ele>
        <time>2022-06-04T01:56:37.968Z</time>
      </trkpt>
      <trkpt lat="42.98741" lon="2.61301">
        <ele>334.503504</ele>
        <time>2022-06-04T01:56:46.129Z</time>
      </trkpt>
      <trkpt lat="42.98779" lon="2.61378">
        <ele>334.525559</ele>
        <time>2022-06-04T01:56:57.452Z</time>
      </trkpt>
      <trkpt lat="42.98797" lon="2.61405">
        <ele>334.667029</ele>
        <time>2022-06-04T01:57:02.462Z</time>
      </trkpt>
      <trkpt lat="42.9884" lon="2.61451">
        <ele>334.955082</ele>
        <time>2022-06-04T01:57:13.810Z</time>
      </trkpt>
      <trkpt lat="42.98851" lon="2.61464">
        <ele>335.032272</ele>
        <time>2022-06-04T01:57:16.863Z</time>
      </trkpt>
      <trkpt lat="42.98866" lon="2.61479">
        <ele>335.128863</ele>
        <time>2022-06-04T01:57:20.853Z</time>
      </trkpt>
      <trkpt lat="42.9887" lon="2.61484">
        <ele>335.159835</ele>
        <time>2022-06-04T01:57:21.985Z</time>
      </trkpt>
      <trkpt lat="42.98891" lon="2.61508">
        <ele>335.591531</ele>
        <time>2022-06-04T01:57:27.979Z</time>
      </trkpt>
      <trkpt lat="42.98913" lon="2.6153">
        <ele>336.748884</ele>
        <time>2022-06-04T01:57:34.716Z</time>
      </trkpt>
      <trkpt lat="42.98914" lon="2.61531">
        <ele>336.835298</ele>
        <time>2022-06-04T01:57:35.274Z</time>
      </trkpt>
      <trkpt lat="42.9892" lon="2.61538">
        <ele>337.151832</ele>
        <time>2022-06-04T01:57:37.269Z</time>
      </trkpt>
      <trkpt lat="42.98937" lon="2.61553">
        <ele>338.009389</ele>
        <time>2022-06-04T01:57:42.858Z</time>
      </trkpt>
      <trkpt lat="42.9896" lon="2.61554">
        <ele>339.012474</ele>
        <time>2022-06-04T01:57:50.248Z</time>
      </trkpt>
      <trkpt lat="42.99002" lon="2.61527">
        <ele>340.9878</ele>
        <time>2022-06-04T01:58:07.288Z</time>
      </trkpt>
      <trkpt lat="42.99027" lon="2.61521">
        <ele>342.057063</ele>
        <time>2022-06-04T01:58:17.922Z</time>
      </trkpt>
      <trkpt lat="42.99052" lon="2.61533">
        <ele>343.442793</ele>
        <time>2022-06-04T01:58:30.962Z</time>
      </trkpt>
      <trkpt lat="42.99107" lon="2.61673">
        <ele>353.132216</ele>
        <time>2022-06-04T01:59:32.746Z</time>
      </trkpt>
      <trkpt lat="42.99115" lon="2.61717">
        <ele>355.90784</ele>
        <time>2022-06-04T01:59:51.827Z</time>
      </trkpt>
      <trkpt lat="42.99131" lon="2.61896">
        <ele>363.556298</ele>
        <time>2022-06-04T02:00:52.934Z</time>
      </trkpt>
      <trkpt lat="42.9915" lon="2.61974">
        <ele>366.721413</ele>
        <time>2022-06-04T02:01:09.879Z</time>
      </trkpt>
      <trkpt lat="42.99162" lon="2.6205">
        <ele>368.188435</ele>
        <time>2022-06-04T02:01:23.415Z</time>
      </trkpt>
      <trkpt lat="42.99176" lon="2.62087">
        <ele>368.751298</ele>
        <time>2022-06-04T02:01:30.016Z</time>
      </trkpt>
      <trkpt lat="42.99193" lon="2.62113">
        <ele>369.226926</ele>
        <time>2022-06-04T02:01:35.091Z</time>
      </trkpt>
      <trkpt lat="42.99215" lon="2.62132">
        <ele>369.715787</ele>
        <time>2022-06-04T02:01:41.205Z</time>
      </trkpt>
      <trkpt lat="42.99296" lon="2.6216">
        <ele>372.054397</ele>
        <time>2022-06-04T02:02:04.006Z</time>
      </trkpt>
      <trkpt lat="42.99408" lon="2.62191">
        <ele>377.205561</ele>
        <time>2022-06-04T02:02:48.307Z</time>
      </trkpt>
      <trkpt lat="42.99461" lon="2.622">
        <ele>378.881607</ele>
        <time>2022-06-04T02:03:10.537Z</time>
      </trkpt>
      <trkpt lat="42.99533" lon="2.62189">
        <ele>379.186998</ele>
        <time>2022-06-04T02:03:32.392Z</time>
      </trkpt>
      <trkpt lat="42.99557" lon="2.62206">
        <ele>379.298758</ele>
        <time>2022-06-04T02:03:37.155Z</time>
      </trkpt>
      <trkpt lat="42.99581" lon="2.62257">
        <ele>379.484768</ele>
        <time>2022-06-04T02:03:43.681Z</time>
      </trkpt>
      <trkpt lat="42.99584" lon="2.62264">
        <ele>379.509448</ele>
        <time>2022-06-04T02:03:44.408Z</time>
      </trkpt>
      <trkpt lat="42.99604" lon="2.62313">
        <ele>377.051418</ele>
        <time>2022-06-04T02:03:49.390Z</time>
      </trkpt>
      <trkpt lat="42.99639" lon="2.62349">
        <ele>373.334891</ele>
        <time>2022-06-04T02:03:54.478Z</time>
      </trkpt>
      <trkpt lat="42.99794" lon="2.62492">
        <ele>357.334176</ele>
        <time>2022-06-04T02:04:15.623Z</time>
      </trkpt>
      <trkpt lat="42.9983" lon="2.62508">
        <ele>354.06062</ele>
        <time>2022-06-04T02:04:20.063Z</time>
      </trkpt>
      <trkpt lat="42.99861" lon="2.62507">
        <ele>351.366029</ele>
        <time>2022-06-04T02:04:23.801Z</time>
      </trkpt>
      <trkpt lat="42.99889" lon="2.62497">
        <ele>348.881266</ele>
        <time>2022-06-04T02:04:27.319Z</time>
      </trkpt>
      <trkpt lat="42.99958" lon="2.62469">
        <ele>346.601655</ele>
        <time>2022-06-04T02:04:36.270Z</time>
      </trkpt>
      <trkpt lat="43.00078" lon="2.62447">
        <ele>343.213884</ele>
        <time>2022-06-04T02:04:54.784Z</time>
      </trkpt>
      <trkpt lat="43.00111" lon="2.62454">
        <ele>343.23916</ele>
        <time>2022-06-04T02:05:00.702Z</time>
      </trkpt>
      <trkpt lat="43.00125" lon="2.62466">
        <ele>343.251927</ele>
        <time>2022-06-04T02:05:03.277Z</time>
      </trkpt>
      <trkpt lat="43.00136" lon="2.62494">
        <ele>343.269336</ele>
        <time>2022-06-04T02:05:09.399Z</time>
      </trkpt>
      <trkpt lat="43.0014" lon="2.62535">
        <ele>343.29205</ele>
        <time>2022-06-04T02:05:15.152Z</time>
      </trkpt>
      <trkpt lat="43.00146" lon="2.62544">
        <ele>343.298173</ele>
        <time>2022-06-04T02:05:16.921Z</time>
      </trkpt>
      <trkpt lat="43.00159" lon="2.62554">
        <ele>343.309522</ele>
        <time>2022-06-04T02:05:19.120Z</time>
      </trkpt>
      <trkpt lat="43.00189" lon="2.62558">
        <ele>343.331998</ele>
        <time>2022-06-04T02:05:25.324Z</time>
      </trkpt>
      <trkpt lat="43.00244" lon="2.62586">
        <ele>342.951699</ele>
        <time>2022-06-04T02:05:39.387Z</time>
      </trkpt>
      <trkpt lat="43.00295" lon="2.6256">
        <ele>342.498884</ele>
        <time>2022-06-04T02:05:47.748Z</time>
      </trkpt>
      <trkpt lat="43.00374" lon="2.62535">
        <ele>341.778232</ele>
        <time>2022-06-04T02:06:00.053Z</time>
      </trkpt>
      <trkpt lat="43.00403" lon="2.62534">
        <ele>341.10232</ele>
        <time>2022-06-04T02:06:04.309Z</time>
      </trkpt>
      <trkpt lat="43.00417" lon="2.62541">
        <ele>340.736058</ele>
        <time>2022-06-04T02:06:06.493Z</time>
      </trkpt>
      <trkpt lat="43.00446" lon="2.62572">
        <ele>339.860908</ele>
        <time>2022-06-04T02:06:11.820Z</time>
      </trkpt>
      <trkpt lat="43.00493" lon="2.62642">
        <ele>338.18411</ele>
        <time>2022-06-04T02:06:21.706Z</time>
      </trkpt>
      <trkpt lat="43.00496" lon="2.62646">
        <ele>338.090317</ele>
        <time>2022-06-04T02:06:22.240Z</time>
      </trkpt>
      <trkpt lat="43.00516" lon="2.62686">
        <ele>337.091507</ele>
        <time>2022-06-04T02:06:27.156Z</time>
      </trkpt>
      <trkpt lat="43.00524" lon="2.62694">
        <ele>336.738537</ele>
        <time>2022-06-04T02:06:28.602Z</time>
      </trkpt>
      <trkpt lat="43.00567" lon="2.62737">
        <ele>334.900113</ele>
        <time>2022-06-04T02:06:36.059Z</time>
      </trkpt>
      <trkpt lat="43.0057" lon="2.62747">
        <ele>334.623128</ele>
        <time>2022-06-04T02:06:37.167Z</time>
      </trkpt>
      <trkpt lat="43.0061" lon="2.62759">
        <ele>333.186408</ele>
        <time>2022-06-04T02:06:42.738Z</time>
      </trkpt>
      <trkpt lat="43.00625" lon="2.62756">
        <ele>332.674156</ele>
        <time>2022-06-04T02:06:44.761Z</time>
      </trkpt>
      <trkpt lat="43.00633" lon="2.62749">
        <ele>332.339429</ele>
        <time>2022-06-04T02:06:46.078Z</time>
      </trkpt>
      <trkpt lat="43.00647" lon="2.62708">
        <ele>331.272877</ele>
        <time>2022-06-04T02:06:50.695Z</time>
      </trkpt>
      <trkpt lat="43.00655" lon="2.62709">
        <ele>331.27075</ele>
        <time>2022-06-04T02:06:52.731Z</time>
      </trkpt>
      <trkpt lat="43.00659" lon="2.6271">
        <ele>331.269705</ele>
        <time>2022-06-04T02:06:53.306Z</time>
      </trkpt>
      <trkpt lat="43.00655" lon="2.62737">
        <ele>331.264386</ele>
        <time>2022-06-04T02:06:56.468Z</time>
      </trkpt>
      <trkpt lat="43.0067" lon="2.62771">
        <ele>331.256868</ele>
        <time>2022-06-04T02:07:01.198Z</time>
      </trkpt>
      <trkpt lat="43.00694" lon="2.62771">
        <ele>331.250548</ele>
        <time>2022-06-04T02:07:05.434Z</time>
      </trkpt>
      <trkpt lat="43.0073" lon="2.62768">
        <ele>331.241314</ele>
        <time>2022-06-04T02:07:13.224Z</time>
      </trkpt>
      <trkpt lat="43.00729" lon="2.62776">
        <ele>331.239863</ele>
        <time>2022-06-04T02:07:14.527Z</time>
      </trkpt>
      <trkpt lat="43.00771" lon="2.62792">
        <ele>331.228505</ele>
        <time>2022-06-04T02:07:25.955Z</time>
      </trkpt>
      <trkpt lat="43.00827" lon="2.62852">
        <ele>334.088616</ele>
        <time>2022-06-04T02:07:48.635Z</time>
      </trkpt>
      <trkpt lat="43.00831" lon="2.62859">
        <ele>334.362447</ele>
        <time>2022-06-04T02:07:51.024Z</time>
      </trkpt>
      <trkpt lat="43.00846" lon="2.62888">
        <ele>335.543364</ele>
        <time>2022-06-04T02:08:01.511Z</time>
      </trkpt>
      <trkpt lat="43.00865" lon="2.62906">
        <ele>336.547739</ele>
        <time>2022-06-04T02:08:10.996Z</time>
      </trkpt>
      <trkpt lat="43.0092" lon="2.62951">
        <ele>339.371733</ele>
        <time>2022-06-04T02:08:37.135Z</time>
      </trkpt>
      <trkpt lat="43.00938" lon="2.62991">
        <ele>340.981481</ele>
        <time>2022-06-04T02:08:50.220Z</time>
      </trkpt>
      <trkpt lat="43.00961" lon="2.63003">
        <ele>342.169868</ele>
        <time>2022-06-04T02:08:59.468Z</time>
      </trkpt>
      <trkpt lat="43.01008" lon="2.63003">
        <ele>344.381403</ele>
        <time>2022-06-04T02:09:15.996Z</time>
      </trkpt>
      <trkpt lat="43.01086" lon="2.62986">
        <ele>348.068455</ele>
        <time>2022-06-04T02:09:45.232Z</time>
      </trkpt>
      <trkpt lat="43.01154" lon="2.62992">
        <ele>351.410356</ele>
        <time>2022-06-04T02:10:10.335Z</time>
      </trkpt>
      <trkpt lat="43.01181" lon="2.63019">
        <ele>353.011437</ele>
        <time>2022-06-04T02:10:21.401Z</time>
      </trkpt>
      <trkpt lat="43.01205" lon="2.62944">
        <ele>355.904511</ele>
        <time>2022-06-04T02:10:44.128Z</time>
      </trkpt>
      <trkpt lat="43.01235" lon="2.62922">
        <ele>358.377578</ele>
        <time>2022-06-04T02:10:58.825Z</time>
      </trkpt>
      <trkpt lat="43.01254" lon="2.62896">
        <ele>360.526092</ele>
        <time>2022-06-04T02:11:12.016Z</time>
      </trkpt>
      <trkpt lat="43.01257" lon="2.6288">
        <ele>361.464972</ele>
        <time>2022-06-04T02:11:18.934Z</time>
      </trkpt>
      <trkpt lat="43.01253" lon="2.62846">
        <ele>363.470539</ele>
        <time>2022-06-04T02:11:32.732Z</time>
      </trkpt>
      <trkpt lat="43.01259" lon="2.62831">
        <ele>364.461086</ele>
        <time>2022-06-04T02:11:39.856Z</time>
      </trkpt>
      <trkpt lat="43.01275" lon="2.62815">
        <ele>366.049419</ele>
        <time>2022-06-04T02:11:50.631Z</time>
      </trkpt>
      <trkpt lat="43.01278" lon="2.62778">
        <ele>368.222301</ele>
        <time>2022-06-04T02:12:04.554Z</time>
      </trkpt>
      <trkpt lat="43.01287" lon="2.62769">
        <ele>369.137525</ele>
        <time>2022-06-04T02:12:10.380Z</time>
      </trkpt>
      <trkpt lat="43.0131" lon="2.62854">
        <ele>374.487076</ele>
        <time>2022-06-04T02:12:45.307Z</time>
      </trkpt>
      <trkpt lat="43.0135" lon="2.62881">
        <ele>378.070722</ele>
        <time>2022-06-04T02:13:08.249Z</time>
      </trkpt>
      <trkpt lat="43.01377" lon="2.62958">
        <ele>383.086981</ele>
        <time>2022-06-04T02:13:36.807Z</time>
      </trkpt>
      <trkpt lat="43.0139" lon="2.62965">
        <ele>384.215544</ele>
        <time>2022-06-04T02:13:44.042Z</time>
      </trkpt>
      <trkpt lat="43.01399" lon="2.62958">
        <ele>385.089238</ele>
        <time>2022-06-04T02:13:49.261Z</time>
      </trkpt>
      <trkpt lat="43.01404" lon="2.62945">
        <ele>386.106258</ele>
        <time>2022-06-04T02:13:55.168Z</time>
      </trkpt>
      <trkpt lat="43.01401" lon="2.6289">
        <ele>390.328087</ele>
        <time>2022-06-04T02:14:18.163Z</time>
      </trkpt>
      <trkpt lat="43.01412" lon="2.62805">
        <ele>396.83259</ele>
        <time>2022-06-04T02:14:54.157Z</time>
      </trkpt>
      <trkpt lat="43.01452" lon="2.62739">
        <ele>403.335527</ele>
        <time>2022-06-04T02:15:35.898Z</time>
      </trkpt>
      <trkpt lat="43.01467" lon="2.62736">
        <ele>405.070111</ele>
        <time>2022-06-04T02:15:48.064Z</time>
      </trkpt>
      <trkpt lat="43.01481" lon="2.62743">
        <ele>406.982716</ele>
        <time>2022-06-04T02:16:00.149Z</time>
      </trkpt>
      <trkpt lat="43.01514" lon="2.62791">
        <ele>412.811326</ele>
        <time>2022-06-04T02:16:39.498Z</time>
      </trkpt>
      <trkpt lat="43.01589" lon="2.62827">
        <ele>422.528578</ele>
        <time>2022-06-04T02:17:46.268Z</time>
      </trkpt>
      <trkpt lat="43.01614" lon="2.6286">
        <ele>426.682177</ele>
        <time>2022-06-04T02:18:09.588Z</time>
      </trkpt>
      <trkpt lat="43.01638" lon="2.62875">
        <ele>429.312644</ele>
        <time>2022-06-04T02:18:26.651Z</time>
      </trkpt>
      <trkpt lat="43.0165" lon="2.62898">
        <ele>431.390629</ele>
        <time>2022-06-04T02:18:40.857Z</time>
      </trkpt>
      <trkpt lat="43.01661" lon="2.62948">
        <ele>435.288154</ele>
        <time>2022-06-04T02:19:06.784Z</time>
      </trkpt>
      <trkpt lat="43.01682" lon="2.63004">
        <ele>439.933977</ele>
        <time>2022-06-04T02:19:38.001Z</time>
      </trkpt>
      <trkpt lat="43.01685" lon="2.63027">
        <ele>441.692295</ele>
        <time>2022-06-04T02:19:50.474Z</time>
      </trkpt>
      <trkpt lat="43.01703" lon="2.63048">
        <ele>444.082212</ele>
        <time>2022-06-04T02:20:07.510Z</time>
      </trkpt>
      <trkpt lat="43.01747" lon="2.63057">
        <ele>449.015114</ele>
        <time>2022-06-04T02:20:41.466Z</time>
      </trkpt>
      <trkpt lat="43.01946" lon="2.63029">
        <ele>468.21889</ele>
        <time>2022-06-04T02:23:10.559Z</time>
      </trkpt>
      <trkpt lat="43.02036" lon="2.63006">
        <ele>474.094626</ele>
        <time>2022-06-04T02:23:59.073Z</time>
      </trkpt>
      <trkpt lat="43.02147" lon="2.62959">
        <ele>473.221782</ele>
        <time>2022-06-04T02:24:31.704Z</time>
      </trkpt>
      <trkpt lat="43.02165" lon="2.62919">
        <ele>472.287235</ele>
        <time>2022-06-04T02:24:39.612Z</time>
      </trkpt>
      <trkpt lat="43.02162" lon="2.62905">
        <ele>471.990687</ele>
        <time>2022-06-04T02:24:42.069Z</time>
      </trkpt>
      <trkpt lat="43.02171" lon="2.62857">
        <ele>470.992289</ele>
        <time>2022-06-04T02:24:50.216Z</time>
      </trkpt>
      <trkpt lat="43.02167" lon="2.6281">
        <ele>469.739328</ele>
        <time>2022-06-04T02:24:57.754Z</time>
      </trkpt>
      <trkpt lat="43.0217" lon="2.62759">
        <ele>468.284021</ele>
        <time>2022-06-04T02:25:06.316Z</time>
      </trkpt>
      <trkpt lat="43.02187" lon="2.62723">
        <ele>467.054771</ele>
        <time>2022-06-04T02:25:13.479Z</time>
      </trkpt>
      <trkpt lat="43.02191" lon="2.62704">
        <ele>466.5126</ele>
        <time>2022-06-04T02:25:16.842Z</time>
      </trkpt>
      <trkpt lat="43.02201" lon="2.62697">
        <ele>466.068036</ele>
        <time>2022-06-04T02:25:19.429Z</time>
      </trkpt>
      <trkpt lat="43.0222" lon="2.62657">
        <ele>464.706426</ele>
        <time>2022-06-04T02:25:28.265Z</time>
      </trkpt>
      <trkpt lat="43.0223" lon="2.62598">
        <ele>464.725497</ele>
        <time>2022-06-04T02:25:40.354Z</time>
      </trkpt>
      <trkpt lat="43.02229" lon="2.6259">
        <ele>464.983538</ele>
        <time>2022-06-04T02:25:44.685Z</time>
      </trkpt>
      <trkpt lat="43.02243" lon="2.62545">
        <ele>466.547189</ele>
        <time>2022-06-04T02:25:58.194Z</time>
      </trkpt>
      <trkpt lat="43.02269" lon="2.62501">
        <ele>468.354447</ele>
        <time>2022-06-04T02:26:17.196Z</time>
      </trkpt>
      <trkpt lat="43.02296" lon="2.62399">
        <ele>471.986807</ele>
        <time>2022-06-04T02:27:04.655Z</time>
      </trkpt>
      <trkpt lat="43.02345" lon="2.62342">
        <ele>477.679492</ele>
        <time>2022-06-04T02:27:45.909Z</time>
      </trkpt>
      <trkpt lat="43.02406" lon="2.62298">
        <ele>483.734062</ele>
        <time>2022-06-04T02:28:32.768Z</time>
      </trkpt>
      <trkpt lat="43.02407" lon="2.62217">
        <ele>488.611628</ele>
        <time>2022-06-04T02:29:12.458Z</time>
      </trkpt>
      <trkpt lat="43.02381" lon="2.62162">
        <ele>491.768148</ele>
        <time>2022-06-04T02:29:42.115Z</time>
      </trkpt>
      <trkpt lat="43.02369" lon="2.62128">
        <ele>493.54471</ele>
        <time>2022-06-04T02:29:57.919Z</time>
      </trkpt>
      <trkpt lat="43.02365" lon="2.62056">
        <ele>496.988488</ele>
        <time>2022-06-04T02:30:25.638Z</time>
      </trkpt>
      <trkpt lat="43.0238" lon="2.61934">
        <ele>500.177781</ele>
        <time>2022-06-04T02:31:07.109Z</time>
      </trkpt>
      <trkpt lat="43.0238" lon="2.6189">
        <ele>500.694526</ele>
        <time>2022-06-04T02:31:19.032Z</time>
      </trkpt>
      <trkpt lat="43.02388" lon="2.61867">
        <ele>500.992952</ele>
        <time>2022-06-04T02:31:25.440Z</time>
      </trkpt>
      <trkpt lat="43.02393" lon="2.61827">
        <ele>501.47429</ele>
        <time>2022-06-04T02:31:35.198Z</time>
      </trkpt>
      <trkpt lat="43.02391" lon="2.61796">
        <ele>501.838433</ele>
        <time>2022-06-04T02:31:41.815Z</time>
      </trkpt>
      <trkpt lat="43.02403" lon="2.61748">
        <ele>501.522301</ele>
        <time>2022-06-04T02:31:52.228Z</time>
      </trkpt>
      <trkpt lat="43.02421" lon="2.61714">
        <ele>500.285407</ele>
        <time>2022-06-04T02:32:00.054Z</time>
      </trkpt>
      <trkpt lat="43.0246" lon="2.61671">
        <ele>498.225374</ele>
        <time>2022-06-04T02:32:12.431Z</time>
      </trkpt>
      <trkpt lat="43.02488" lon="2.6162">
        <ele>496.316669</ele>
        <time>2022-06-04T02:32:23.185Z</time>
      </trkpt>
      <trkpt lat="43.02504" lon="2.6161">
        <ele>495.606483</ele>
        <time>2022-06-04T02:32:27.053Z</time>
      </trkpt>
      <trkpt lat="43.02519" lon="2.6159">
        <ele>494.612201</ele>
        <time>2022-06-04T02:32:31.712Z</time>
      </trkpt>
      <trkpt lat="43.02557" lon="2.61566">
        <ele>490.732821</ele>
        <time>2022-06-04T02:32:40.596Z</time>
      </trkpt>
      <trkpt lat="43.02582" lon="2.61515">
        <ele>486.634702</ele>
        <time>2022-06-04T02:32:49.740Z</time>
      </trkpt>
      <trkpt lat="43.02591" lon="2.61505">
        <ele>485.515185</ele>
        <time>2022-06-04T02:32:52.239Z</time>
      </trkpt>
      <trkpt lat="43.02599" lon="2.61475">
        <ele>483.368216</ele>
        <time>2022-06-04T02:32:56.990Z</time>
      </trkpt>
      <trkpt lat="43.02607" lon="2.61468">
        <ele>482.494029</ele>
        <time>2022-06-04T02:32:58.937Z</time>
      </trkpt>
      <trkpt lat="43.02633" lon="2.6142">
        <ele>478.46626</ele>
        <time>2022-06-04T02:33:07.916Z</time>
      </trkpt>
      <trkpt lat="43.02636" lon="2.61386">
        <ele>476.491957</ele>
        <time>2022-06-04T02:33:13.028Z</time>
      </trkpt>
      <trkpt lat="43.02655" lon="2.61322">
        <ele>472.519494</ele>
        <time>2022-06-04T02:33:23.686Z</time>
      </trkpt>
      <trkpt lat="43.02672" lon="2.61296">
        <ele>470.545259</ele>
        <time>2022-06-04T02:33:29.002Z</time>
      </trkpt>
      <trkpt lat="43.02677" lon="2.61278">
        <ele>469.449625</ele>
        <time>2022-06-04T02:33:32.018Z</time>
      </trkpt>
      <trkpt lat="43.02676" lon="2.61268">
        <ele>468.880559</ele>
        <time>2022-06-04T02:33:33.587Z</time>
      </trkpt>
      <trkpt lat="43.02656" lon="2.61237">
        <ele>466.522969</ele>
        <time>2022-06-04T02:33:40.209Z</time>
      </trkpt>
      <trkpt lat="43.02657" lon="2.6122">
        <ele>465.550118</ele>
        <time>2022-06-04T02:33:42.978Z</time>
      </trkpt>
      <trkpt lat="43.02633" lon="2.6113">
        <ele>462.384729</ele>
        <time>2022-06-04T02:33:59.411Z</time>
      </trkpt>
      <trkpt lat="43.02632" lon="2.61112">
        <ele>461.938931</ele>
        <time>2022-06-04T02:34:02.366Z</time>
      </trkpt>
      <trkpt lat="43.0264" lon="2.61093">
        <ele>461.385471</ele>
        <time>2022-06-04T02:34:06.679Z</time>
      </trkpt>
      <trkpt lat="43.02647" lon="2.6105">
        <ele>460.289867</ele>
        <time>2022-06-04T02:34:14.580Z</time>
      </trkpt>
      <trkpt lat="43.02647" lon="2.61017">
        <ele>459.449922</ele>
        <time>2022-06-04T02:34:20.574Z</time>
      </trkpt>
      <trkpt lat="43.02642" lon="2.60991">
        <ele>458.784427</ele>
        <time>2022-06-04T02:34:25.983Z</time>
      </trkpt>
      <trkpt lat="43.02647" lon="2.60965">
        <ele>458.129312</ele>
        <time>2022-06-04T02:34:30.500Z</time>
      </trkpt>
      <trkpt lat="43.02664" lon="2.60967">
        <ele>458.169234</ele>
        <time>2022-06-04T02:34:35.207Z</time>
      </trkpt>
      <trkpt lat="43.02673" lon="2.60979">
        <ele>458.300484</ele>
        <time>2022-06-04T02:34:38.114Z</time>
      </trkpt>
      <trkpt lat="43.02691" lon="2.6098">
        <ele>458.481718</ele>
        <time>2022-06-04T02:34:45.605Z</time>
      </trkpt>
      <trkpt lat="43.0276" lon="2.60946">
        <ele>459.213151</ele>
        <time>2022-06-04T02:35:08.854Z</time>
      </trkpt>
      <trkpt lat="43.02793" lon="2.60945">
        <ele>459.546636</ele>
        <time>2022-06-04T02:35:22.141Z</time>
      </trkpt>
      <trkpt lat="43.02804" lon="2.60925">
        <ele>459.726324</ele>
        <time>2022-06-04T02:35:27.337Z</time>
      </trkpt>
      <trkpt lat="43.02803" lon="2.60915">
        <ele>459.803697</ele>
        <time>2022-06-04T02:35:33.726Z</time>
      </trkpt>
      <trkpt lat="43.02819" lon="2.60852">
        <ele>462.570762</ele>
        <time>2022-06-04T02:35:57.756Z</time>
      </trkpt>
      <trkpt lat="43.02848" lon="2.60813">
        <ele>464.944871</ele>
        <time>2022-06-04T02:36:19.003Z</time>
      </trkpt>
      <trkpt lat="43.02887" lon="2.60744">
        <ele>468.713505</ele>
        <time>2022-06-04T02:36:57.055Z</time>
      </trkpt>
      <trkpt lat="43.02879" lon="2.60716">
        <ele>469.997583</ele>
        <time>2022-06-04T02:37:09.716Z</time>
      </trkpt>
      <trkpt lat="43.02838" lon="2.60668">
        <ele>472.359202</ele>
        <time>2022-06-04T02:37:37.483Z</time>
      </trkpt>
      <trkpt lat="43.02836" lon="2.60594">
        <ele>474.629888</ele>
        <time>2022-06-04T02:38:06.127Z</time>
      </trkpt>
      <trkpt lat="43.0283" lon="2.60576">
        <ele>475.222831</ele>
        <time>2022-06-04T02:38:12.243Z</time>
      </trkpt>
      <trkpt lat="43.02831" lon="2.60565">
        <ele>475.584316</ele>
        <time>2022-06-04T02:38:16.126Z</time>
      </trkpt>
      <trkpt lat="43.02841" lon="2.60552">
        <ele>476.146939</ele>
        <time>2022-06-04T02:38:22.888Z</time>
      </trkpt>
      <trkpt lat="43.02871" lon="2.60509">
        <ele>477.942078</ele>
        <time>2022-06-04T02:38:39.164Z</time>
      </trkpt>
      <trkpt lat="43.02876" lon="2.60496">
        <ele>477.437171</ele>
        <time>2022-06-04T02:38:42.368Z</time>
      </trkpt>
      <trkpt lat="43.02877" lon="2.60467">
        <ele>476.44432</ele>
        <time>2022-06-04T02:38:48.630Z</time>
      </trkpt>
      <trkpt lat="43.02878" lon="2.60433">
        <ele>475.29514</ele>
        <time>2022-06-04T02:38:52.608Z</time>
      </trkpt>
      <trkpt lat="43.0287" lon="2.60381">
        <ele>473.48608</ele>
        <time>2022-06-04T02:38:57.915Z</time>
      </trkpt>
      <trkpt lat="43.02842" lon="2.60314">
        <ele>470.880043</ele>
        <time>2022-06-04T02:39:04.909Z</time>
      </trkpt>
      <trkpt lat="43.02834" lon="2.60291">
        <ele>469.997476</ele>
        <time>2022-06-04T02:39:07.190Z</time>
      </trkpt>
      <trkpt lat="43.0283" lon="2.60258">
        <ele>467.596368</ele>
        <time>2022-06-04T02:39:10.156Z</time>
      </trkpt>
      <trkpt lat="43.02853" lon="2.60251">
        <ele>464.595572</ele>
        <time>2022-06-04T02:39:12.879Z</time>
      </trkpt>
      <trkpt lat="43.02901" lon="2.60215">
        <ele>457.378686</ele>
        <time>2022-06-04T02:39:19.190Z</time>
      </trkpt>
      <trkpt lat="43.02936" lon="2.60215">
        <ele>452.837411</ele>
        <time>2022-06-04T02:39:23.065Z</time>
      </trkpt>
      <trkpt lat="43.02975" lon="2.60236">
        <ele>447.334818</ele>
        <time>2022-06-04T02:39:27.771Z</time>
      </trkpt>
      <trkpt lat="43.03039" lon="2.60285">
        <ele>438.36267</ele>
        <time>2022-06-04T02:39:36.112Z</time>
      </trkpt>
      <trkpt lat="43.0304" lon="2.60286">
        <ele>438.141135</ele>
        <time>2022-06-04T02:39:36.320Z</time>
      </trkpt>
      <trkpt lat="43.03072" lon="2.60304">
        <ele>433.937783</ele>
        <time>2022-06-04T02:39:40.368Z</time>
      </trkpt>
      <trkpt lat="43.03099" lon="2.60304">
        <ele>430.732552</ele>
        <time>2022-06-04T02:39:43.455Z</time>
      </trkpt>
      <trkpt lat="43.0316" lon="2.60279">
        <ele>423.371267</ele>
        <time>2022-06-04T02:39:50.900Z</time>
      </trkpt>
      <trkpt lat="43.03211" lon="2.60273">
        <ele>419.006564</ele>
        <time>2022-06-04T02:39:57.161Z</time>
      </trkpt>
      <trkpt lat="43.03244" lon="2.60187">
        <ele>413.023864</ele>
        <time>2022-06-04T02:40:06.210Z</time>
      </trkpt>
      <trkpt lat="43.03254" lon="2.60181">
        <ele>412.106122</ele>
        <time>2022-06-04T02:40:07.633Z</time>
      </trkpt>
      <trkpt lat="43.0336" lon="2.60218">
        <ele>400.121714</ele>
        <time>2022-06-04T02:40:20.758Z</time>
      </trkpt>
      <trkpt lat="43.03376" lon="2.60219">
        <ele>398.183797</ele>
        <time>2022-06-04T02:40:22.534Z</time>
      </trkpt>
      <trkpt lat="43.03384" lon="2.60263">
        <ele>394.152227</ele>
        <time>2022-06-04T02:40:26.378Z</time>
      </trkpt>
      <trkpt lat="43.03401" lon="2.60268">
        <ele>392.056183</ele>
        <time>2022-06-04T02:40:28.411Z</time>
      </trkpt>
      <trkpt lat="43.03438" lon="2.60295">
        <ele>386.83774</ele>
        <time>2022-06-04T02:40:33.279Z</time>
      </trkpt>
      <trkpt lat="43.03446" lon="2.60315">
        <ele>384.398691</ele>
        <time>2022-06-04T02:40:35.125Z</time>
      </trkpt>
      <trkpt lat="43.03451" lon="2.60349">
        <ele>380.648561</ele>
        <time>2022-06-04T02:40:37.985Z</time>
      </trkpt>
      <trkpt lat="43.03468" lon="2.60352">
        <ele>378.158313</ele>
        <time>2022-06-04T02:40:39.853Z</time>
      </trkpt>
      <trkpt lat="43.03498" lon="2.60335">
        <ele>373.39432</ele>
        <time>2022-06-04T02:40:43.517Z</time>
      </trkpt>
      <trkpt lat="43.03568" lon="2.6033">
        <ele>363.209687</ele>
        <time>2022-06-04T02:40:51.386Z</time>
      </trkpt>
      <trkpt lat="43.03601" lon="2.60342">
        <ele>358.882937</ele>
        <time>2022-06-04T02:40:55.321Z</time>
      </trkpt>
      <trkpt lat="43.03675" lon="2.60351">
        <ele>350.846761</ele>
        <time>2022-06-04T02:41:04.034Z</time>
      </trkpt>
      <trkpt lat="43.03694" lon="2.60359">
        <ele>348.715866</ele>
        <time>2022-06-04T02:41:06.334Z</time>
      </trkpt>
      <trkpt lat="43.03719" lon="2.60391">
        <ele>344.970179</ele>
        <time>2022-06-04T02:41:10.399Z</time>
      </trkpt>
      <trkpt lat="43.03735" lon="2.60402">
        <ele>342.986375</ele>
        <time>2022-06-04T02:41:12.553Z</time>
      </trkpt>
      <trkpt lat="43.03793" lon="2.60415">
        <ele>338.140439</ele>
        <time>2022-06-04T02:41:19.964Z</time>
      </trkpt>
      <trkpt lat="43.03848" lon="2.60405">
        <ele>334.012082</ele>
        <time>2022-06-04T02:41:27.075Z</time>
      </trkpt>
      <trkpt lat="43.03879" lon="2.60409">
        <ele>331.661255</ele>
        <time>2022-06-04T02:41:30.928Z</time>
      </trkpt>
      <trkpt lat="43.03892" lon="2.60403">
        <ele>330.64627</ele>
        <time>2022-06-04T02:41:32.674Z</time>
      </trkpt>
      <trkpt lat="43.03909" lon="2.60378">
        <ele>328.82296</ele>
        <time>2022-06-04T02:41:35.640Z</time>
      </trkpt>
      <trkpt lat="43.03955" lon="2.60344">
        <ele>324.533845</ele>
        <time>2022-06-04T02:41:42.258Z</time>
      </trkpt>
      <trkpt lat="43.04008" lon="2.60341">
        <ele>320.078005</ele>
        <time>2022-06-04T02:41:48.479Z</time>
      </trkpt>
      <trkpt lat="43.04023" lon="2.60348">
        <ele>318.785913</ele>
        <time>2022-06-04T02:41:50.361Z</time>
      </trkpt>
      <trkpt lat="43.04042" lon="2.60374">
        <ele>316.497672</ele>
        <time>2022-06-04T02:41:53.527Z</time>
      </trkpt>
      <trkpt lat="43.04061" lon="2.60388">
        <ele>314.764605</ele>
        <time>2022-06-04T02:41:55.949Z</time>
      </trkpt>
      <trkpt lat="43.04105" lon="2.60408">
        <ele>311.713366</ele>
        <time>2022-06-04T02:42:01.177Z</time>
      </trkpt>
      <trkpt lat="43.04118" lon="2.60425">
        <ele>310.770403</ele>
        <time>2022-06-04T02:42:03.296Z</time>
      </trkpt>
      <trkpt lat="43.04161" lon="2.60432">
        <ele>308.581658</ele>
        <time>2022-06-04T02:42:08.442Z</time>
      </trkpt>
      <trkpt lat="43.04198" lon="2.60455">
        <ele>306.46974</ele>
        <time>2022-06-04T02:42:13.915Z</time>
      </trkpt>
      <trkpt lat="43.04253" lon="2.60479">
        <ele>303.848588</ele>
        <time>2022-06-04T02:42:22.477Z</time>
      </trkpt>
      <trkpt lat="43.04294" lon="2.60473">
        <ele>304.128349</ele>
        <time>2022-06-04T02:42:31.382Z</time>
      </trkpt>
      <trkpt lat="43.04325" lon="2.60453">
        <ele>304.354945</ele>
        <time>2022-06-04T02:42:41.123Z</time>
      </trkpt>
      <trkpt lat="43.04348" lon="2.60446">
        <ele>304.518967</ele>
        <time>2022-06-04T02:42:45.745Z</time>
      </trkpt>
      <trkpt lat="43.04464" lon="2.60428">
        <ele>304.506503</ele>
        <time>2022-06-04T02:43:12.114Z</time>
      </trkpt>
      <trkpt lat="43.04489" lon="2.60422">
        <ele>304.189905</ele>
        <time>2022-06-04T02:43:16.113Z</time>
      </trkpt>
      <trkpt lat="43.04509" lon="2.60406">
        <ele>303.89562</ele>
        <time>2022-06-04T02:43:20.263Z</time>
      </trkpt>
      <trkpt lat="43.04558" lon="2.60316">
        <ele>302.859055</ele>
        <time>2022-06-04T02:43:32.720Z</time>
      </trkpt>
      <trkpt lat="43.04609" lon="2.60293">
        <ele>301.537427</ele>
        <time>2022-06-04T02:43:40.200Z</time>
      </trkpt>
      <trkpt lat="43.04627" lon="2.60298">
        <ele>301.0674</ele>
        <time>2022-06-04T02:43:42.865Z</time>
      </trkpt>
      <trkpt lat="43.04638" lon="2.60316">
        <ele>300.607057</ele>
        <time>2022-06-04T02:43:45.490Z</time>
      </trkpt>
      <trkpt lat="43.04646" lon="2.60431">
        <ele>298.363907</ele>
        <time>2022-06-04T02:43:58.347Z</time>
      </trkpt>
      <trkpt lat="43.04673" lon="2.60476">
        <ele>296.859727</ele>
        <time>2022-06-04T02:44:04.619Z</time>
      </trkpt>
      <trkpt lat="43.04683" lon="2.60482">
        <ele>296.452036</ele>
        <time>2022-06-04T02:44:06.074Z</time>
      </trkpt>
      <trkpt lat="43.04706" lon="2.60474">
        <ele>295.504802</ele>
        <time>2022-06-04T02:44:09.439Z</time>
      </trkpt>
      <trkpt lat="43.04736" lon="2.60445">
        <ele>294.03092</ele>
        <time>2022-06-04T02:44:14.600Z</time>
      </trkpt>
      <trkpt lat="43.04753" lon="2.60437">
        <ele>293.357788</ele>
        <time>2022-06-04T02:44:16.931Z</time>
      </trkpt>
      <trkpt lat="43.04802" lon="2.60429">
        <ele>291.388322</ele>
        <time>2022-06-04T02:44:23.688Z</time>
      </trkpt>
      <trkpt lat="43.04877" lon="2.60378">
        <ele>286.050394</ele>
        <time>2022-06-04T02:44:34.896Z</time>
      </trkpt>
      <trkpt lat="43.04897" lon="2.60371">
        <ele>284.663615</ele>
        <time>2022-06-04T02:44:37.522Z</time>
      </trkpt>
      <trkpt lat="43.04969" lon="2.60379">
        <ele>279.733734</ele>
        <time>2022-06-04T02:44:46.499Z</time>
      </trkpt>
      <trkpt lat="43.0498" lon="2.60383">
        <ele>278.991329</ele>
        <time>2022-06-04T02:44:47.805Z</time>
      </trkpt>
      <trkpt lat="43.05006" lon="2.60419">
        <ele>275.430179</ele>
        <time>2022-06-04T02:44:52.207Z</time>
      </trkpt>
      <trkpt lat="43.05014" lon="2.60422">
        <ele>274.570769</ele>
        <time>2022-06-04T02:44:53.205Z</time>
      </trkpt>
      <trkpt lat="43.05061" lon="2.60408">
        <ele>269.743311</ele>
        <time>2022-06-04T02:44:58.843Z</time>
      </trkpt>
      <trkpt lat="43.05072" lon="2.6041">
        <ele>268.631242</ele>
        <time>2022-06-04T02:45:00.161Z</time>
      </trkpt>
      <trkpt lat="43.051" lon="2.60468">
        <ele>263.481782</ele>
        <time>2022-06-04T02:45:06.135Z</time>
      </trkpt>
      <trkpt lat="43.0515" lon="2.60489">
        <ele>258.745848</ele>
        <time>2022-06-04T02:45:12.411Z</time>
      </trkpt>
      <trkpt lat="43.05162" lon="2.60506">
        <ele>257.458591</ele>
        <time>2022-06-04T02:45:14.407Z</time>
      </trkpt>
      <trkpt lat="43.05146" lon="2.60565">
        <ele>253.932458</ele>
        <time>2022-06-04T02:45:20.030Z</time>
      </trkpt>
      <trkpt lat="43.05126" lon="2.60606">
        <ele>251.160601</ele>
        <time>2022-06-04T02:45:24.627Z</time>
      </trkpt>
      <trkpt lat="43.05128" lon="2.60614">
        <ele>250.681903</ele>
        <time>2022-06-04T02:45:25.503Z</time>
      </trkpt>
      <trkpt lat="43.05139" lon="2.60617">
        <ele>249.82845</ele>
        <time>2022-06-04T02:45:26.961Z</time>
      </trkpt>
      <trkpt lat="43.05173" lon="2.60576">
        <ele>246.413259</ele>
        <time>2022-06-04T02:45:32.697Z</time>
      </trkpt>
      <trkpt lat="43.05188" lon="2.60574">
        <ele>245.38851</ele>
        <time>2022-06-04T02:45:34.493Z</time>
      </trkpt>
      <trkpt lat="43.05206" lon="2.60582">
        <ele>244.013131</ele>
        <time>2022-06-04T02:45:37.400Z</time>
      </trkpt>
      <trkpt lat="43.05229" lon="2.60605">
        <ele>242.078086</ele>
        <time>2022-06-04T02:45:40.942Z</time>
      </trkpt>
      <trkpt lat="43.05255" lon="2.60654">
        <ele>238.942124</ele>
        <time>2022-06-04T02:45:46.790Z</time>
      </trkpt>
      <trkpt lat="43.05276" lon="2.60656">
        <ele>237.471476</ele>
        <time>2022-06-04T02:45:49.312Z</time>
      </trkpt>
      <trkpt lat="43.05287" lon="2.60631">
        <ele>236.037577</ele>
        <time>2022-06-04T02:45:52.080Z</time>
      </trkpt>
      <trkpt lat="43.05296" lon="2.60569">
        <ele>231.814786</ele>
        <time>2022-06-04T02:45:57.655Z</time>
      </trkpt>
      <trkpt lat="43.05351" lon="2.60545">
        <ele>224.981877</ele>
        <time>2022-06-04T02:46:09.102Z</time>
      </trkpt>
      <trkpt lat="43.054" lon="2.60534">
        <ele>218.969655</ele>
        <time>2022-06-04T02:46:19.106Z</time>
      </trkpt>
      <trkpt lat="43.05469" lon="2.60491">
        <ele>209.598755</ele>
        <time>2022-06-04T02:46:33.834Z</time>
      </trkpt>
      <trkpt lat="43.0546" lon="2.60461">
        <ele>206.366772</ele>
        <time>2022-06-04T02:46:38.432Z</time>
      </trkpt>
      <trkpt lat="43.05439" lon="2.60434">
        <ele>202.430151</ele>
        <time>2022-06-04T02:46:44.096Z</time>
      </trkpt>
      <trkpt lat="43.05451" lon="2.60428">
        <ele>200.628055</ele>
        <time>2022-06-04T02:46:45.553Z</time>
      </trkpt>
      <trkpt lat="43.05465" lon="2.60399">
        <ele>197.190804</ele>
        <time>2022-06-04T02:46:48.448Z</time>
      </trkpt>
      <trkpt lat="43.05473" lon="2.60394">
        <ele>196.05456</ele>
        <time>2022-06-04T02:46:49.374Z</time>
      </trkpt>
      <trkpt lat="43.05525" lon="2.6038">
        <ele>188.823737</ele>
        <time>2022-06-04T02:46:55.519Z</time>
      </trkpt>
      <trkpt lat="43.05559" lon="2.6036">
        <ele>184.856612</ele>
        <time>2022-06-04T02:46:59.819Z</time>
      </trkpt>
      <trkpt lat="43.0562" lon="2.60305">
        <ele>177.306776</ele>
        <time>2022-06-04T02:47:08.383Z</time>
      </trkpt>
      <trkpt lat="43.05633" lon="2.60306">
        <ele>175.947464</ele>
        <time>2022-06-04T02:47:09.969Z</time>
      </trkpt>
      <trkpt lat="43.05659" lon="2.60322">
        <ele>172.94254</ele>
        <time>2022-06-04T02:47:13.444Z</time>
      </trkpt>
      <trkpt lat="43.05701" lon="2.60319">
        <ele>168.88414</ele>
        <time>2022-06-04T02:47:18.596Z</time>
      </trkpt>
      <trkpt lat="43.05729" lon="2.60311">
        <ele>166.787835</ele>
        <time>2022-06-04T02:47:22.089Z</time>
      </trkpt>
      <trkpt lat="43.0575" lon="2.60341">
        <ele>164.541287</ele>
        <time>2022-06-04T02:47:25.791Z</time>
      </trkpt>
      <trkpt lat="43.05745" lon="2.60364">
        <ele>163.275314</ele>
        <time>2022-06-04T02:47:27.885Z</time>
      </trkpt>
      <trkpt lat="43.0576" lon="2.60402">
        <ele>160.907355</ele>
        <time>2022-06-04T02:47:31.751Z</time>
      </trkpt>
      <trkpt lat="43.05787" lon="2.60416">
        <ele>158.710189</ele>
        <time>2022-06-04T02:47:35.503Z</time>
      </trkpt>
      <trkpt lat="43.05803" lon="2.60417">
        <ele>157.52806</ele>
        <time>2022-06-04T02:47:37.540Z</time>
      </trkpt>
      <trkpt lat="43.05803" lon="2.60432">
        <ele>156.69152</ele>
        <time>2022-06-04T02:47:39.014Z</time>
      </trkpt>
      <trkpt lat="43.05814" lon="2.60453">
        <ele>155.830072</ele>
        <time>2022-06-04T02:47:41.511Z</time>
      </trkpt>
      <trkpt lat="43.0583" lon="2.60467">
        <ele>155.28504</ele>
        <time>2022-06-04T02:47:43.973Z</time>
      </trkpt>
      <trkpt lat="43.0584" lon="2.60477">
        <ele>154.926164</ele>
        <time>2022-06-04T02:47:45.608Z</time>
      </trkpt>
      <trkpt lat="43.05871" lon="2.60499">
        <ele>153.894493</ele>
        <time>2022-06-04T02:47:50.261Z</time>
      </trkpt>
      <trkpt lat="43.05873" lon="2.605">
        <ele>153.824686</ele>
        <time>2022-06-04T02:47:50.574Z</time>
      </trkpt>
      <trkpt lat="43.05881" lon="2.60506">
        <ele>153.549593</ele>
        <time>2022-06-04T02:47:51.865Z</time>
      </trkpt>
      <trkpt lat="43.05893" lon="2.60514">
        <ele>153.160752</ele>
        <time>2022-06-04T02:47:53.705Z</time>
      </trkpt>
      <trkpt lat="43.05927" lon="2.60483">
        <ele>151.948014</ele>
        <time>2022-06-04T02:47:59.691Z</time>
      </trkpt>
      <trkpt lat="43.05949" lon="2.60475">
        <ele>151.285982</ele>
        <time>2022-06-04T02:48:03.257Z</time>
      </trkpt>
      <trkpt lat="43.05965" lon="2.60473">
        <ele>150.934303</ele>
        <time>2022-06-04T02:48:06.051Z</time>
      </trkpt>
      <trkpt lat="43.06005" lon="2.60442">
        <ele>151.718691</ele>
        <time>2022-06-04T02:48:15.304Z</time>
      </trkpt>
      <trkpt lat="43.0604" lon="2.60405">
        <ele>152.482483</ele>
        <time>2022-06-04T02:48:25.591Z</time>
      </trkpt>
      <trkpt lat="43.06141" lon="2.60291">
        <ele>155.54898</ele>
        <time>2022-06-04T02:49:04.667Z</time>
      </trkpt>
      <trkpt lat="43.06165" lon="2.60257">
        <ele>156.776062</ele>
        <time>2022-06-04T02:49:15.428Z</time>
      </trkpt>
      <trkpt lat="43.0619" lon="2.60241">
        <ele>157.779255</ele>
        <time>2022-06-04T02:49:24.540Z</time>
      </trkpt>
      <trkpt lat="43.06211" lon="2.60241">
        <ele>158.530861</ele>
        <time>2022-06-04T02:49:32.667Z</time>
      </trkpt>
      <trkpt lat="43.06249" lon="2.60259">
        <ele>159.964879</ele>
        <time>2022-06-04T02:49:45.727Z</time>
      </trkpt>
      <trkpt lat="43.06267" lon="2.60261">
        <ele>160.524861</ele>
        <time>2022-06-04T02:49:51.751Z</time>
      </trkpt>
      <trkpt lat="43.06293" lon="2.60248">
        <ele>160.975789</ele>
        <time>2022-06-04T02:50:00.133Z</time>
      </trkpt>
      <trkpt lat="43.06315" lon="2.60246">
        <ele>161.319837</ele>
        <time>2022-06-04T02:50:07.755Z</time>
      </trkpt>
      <trkpt lat="43.06327" lon="2.60251">
        <ele>161.531953</ele>
        <time>2022-06-04T02:50:10.951Z</time>
      </trkpt>
      <trkpt lat="43.06334" lon="2.60262">
        <ele>161.697142</ele>
        <time>2022-06-04T02:50:14.714Z</time>
      </trkpt>
      <trkpt lat="43.06477" lon="2.60499">
        <ele>162.5632</ele>
        <time>2022-06-04T02:50:55.437Z</time>
      </trkpt>
      <trkpt lat="43.06497" lon="2.60574">
        <ele>162.165178</ele>
        <time>2022-06-04T02:51:04.118Z</time>
      </trkpt>
      <trkpt lat="43.06519" lon="2.60634">
        <ele>160.687532</ele>
        <time>2022-06-04T02:51:11.188Z</time>
      </trkpt>
      <trkpt lat="43.06578" lon="2.60697">
        <ele>158.473093</ele>
        <time>2022-06-04T02:51:21.208Z</time>
      </trkpt>
      <trkpt lat="43.06596" lon="2.60737">
        <ele>157.447085</ele>
        <time>2022-06-04T02:51:25.712Z</time>
      </trkpt>
      <trkpt lat="43.06618" lon="2.6081">
        <ele>156.112422</ele>
        <time>2022-06-04T02:51:33.719Z</time>
      </trkpt>
      <trkpt lat="43.06625" lon="2.60822">
        <ele>155.911493</ele>
        <time>2022-06-04T02:51:35.238Z</time>
      </trkpt>
      <trkpt lat="43.06642" lon="2.60833">
        <ele>155.537144</ele>
        <time>2022-06-04T02:51:38.084Z</time>
      </trkpt>
      <trkpt lat="43.06663" lon="2.60846">
        <ele>155.101528</ele>
        <time>2022-06-04T02:51:41.403Z</time>
      </trkpt>
      <trkpt lat="43.06693" lon="2.60851">
        <ele>154.519504</ele>
        <time>2022-06-04T02:51:45.890Z</time>
      </trkpt>
      <trkpt lat="43.06717" lon="2.6084">
        <ele>154.046875</ele>
        <time>2022-06-04T02:51:49.740Z</time>
      </trkpt>
      <trkpt lat="43.06749" lon="2.6083">
        <ele>153.419509</ele>
        <time>2022-06-04T02:51:55.066Z</time>
      </trkpt>
      <trkpt lat="43.06796" lon="2.60835">
        <ele>153.770488</ele>
        <time>2022-06-04T02:52:03.242Z</time>
      </trkpt>
      <trkpt lat="43.06813" lon="2.60828">
        <ele>153.910073</ele>
        <time>2022-06-04T02:52:06.975Z</time>
      </trkpt>
      <trkpt lat="43.06849" lon="2.608">
        <ele>154.240106</ele>
        <time>2022-06-04T02:52:16.903Z</time>
      </trkpt>
      <trkpt lat="43.06878" lon="2.608">
        <ele>154.47484</ele>
        <time>2022-06-04T02:52:24.839Z</time>
      </trkpt>
      <trkpt lat="43.06896" lon="2.60814">
        <ele>154.640001</ele>
        <time>2022-06-04T02:52:30.035Z</time>
      </trkpt>
      <trkpt lat="43.06937" lon="2.6089">
        <ele>154.624029</ele>
        <time>2022-06-04T02:52:43.993Z</time>
      </trkpt>
      <trkpt lat="43.06996" lon="2.60948">
        <ele>154.276939</ele>
        <time>2022-06-04T02:52:57.285Z</time>
      </trkpt>
      <trkpt lat="43.07006" lon="2.60957">
        <ele>154.218585</ele>
        <time>2022-06-04T02:52:59.238Z</time>
      </trkpt>
      <trkpt lat="43.07054" lon="2.61002">
        <ele>153.708267</ele>
        <time>2022-06-04T02:53:07.878Z</time>
      </trkpt>
      <trkpt lat="43.07064" lon="2.61013">
        <ele>153.244472</ele>
        <time>2022-06-04T02:53:09.637Z</time>
      </trkpt>
      <trkpt lat="43.07112" lon="2.61058">
        <ele>151.146028</ele>
        <time>2022-06-04T02:53:17.481Z</time>
      </trkpt>
      <trkpt lat="43.07138" lon="2.61064">
        <ele>150.2136</ele>
        <time>2022-06-04T02:53:20.833Z</time>
      </trkpt>
      <trkpt lat="43.07155" lon="2.6106">
        <ele>149.595291</ele>
        <time>2022-06-04T02:53:23.056Z</time>
      </trkpt>
      <trkpt lat="43.07158" lon="2.6106">
        <ele>149.489803</ele>
        <time>2022-06-04T02:53:23.428Z</time>
      </trkpt>
      <trkpt lat="43.0717" lon="2.61057">
        <ele>149.03506</ele>
        <time>2022-06-04T02:53:25.078Z</time>
      </trkpt>
      <trkpt lat="43.07263" lon="2.61033">
        <ele>146.090143</ele>
        <time>2022-06-04T02:53:37.667Z</time>
      </trkpt>
      <trkpt lat="43.07291" lon="2.61009">
        <ele>145.193326</ele>
        <time>2022-06-04T02:53:42.092Z</time>
      </trkpt>
      <trkpt lat="43.0731" lon="2.60984">
        <ele>144.480035</ele>
        <time>2022-06-04T02:53:45.759Z</time>
      </trkpt>
      <trkpt lat="43.07337" lon="2.60929">
        <ele>143.184249</ele>
        <time>2022-06-04T02:53:52.886Z</time>
      </trkpt>
      <trkpt lat="43.07355" lon="2.60712">
        <ele>141.533096</ele>
        <time>2022-06-04T02:54:18.970Z</time>
      </trkpt>
      <trkpt lat="43.0737" lon="2.6066">
        <ele>141.2129</ele>
        <time>2022-06-04T02:54:25.773Z</time>
      </trkpt>
      <trkpt lat="43.07466" lon="2.6056">
        <ele>140.439809</ele>
        <time>2022-06-04T02:54:45.557Z</time>
      </trkpt>
      <trkpt lat="43.07627" lon="2.60422">
        <ele>140.257369</ele>
        <time>2022-06-04T02:55:17.063Z</time>
      </trkpt>
      <trkpt lat="43.07654" lon="2.60415">
        <ele>140.299428</ele>
        <time>2022-06-04T02:55:23.056Z</time>
      </trkpt>
      <trkpt lat="43.07675" lon="2.6042">
        <ele>140.331051</ele>
        <time>2022-06-04T02:55:28.091Z</time>
      </trkpt>
      <trkpt lat="43.07696" lon="2.60437">
        <ele>141.07328</ele>
        <time>2022-06-04T02:55:34.554Z</time>
      </trkpt>
      <trkpt lat="43.07713" lon="2.60459">
        <ele>141.812958</ele>
        <time>2022-06-04T02:55:41.283Z</time>
      </trkpt>
      <trkpt lat="43.07826" lon="2.60688">
        <ele>147.335798</ele>
        <time>2022-06-04T02:56:46.935Z</time>
      </trkpt>
      <trkpt lat="43.07838" lon="2.6073">
        <ele>147.992204</ele>
        <time>2022-06-04T02:56:56.067Z</time>
      </trkpt>
      <trkpt lat="43.07879" lon="2.60986">
        <ele>149.194425</ele>
        <time>2022-06-04T02:57:31.922Z</time>
      </trkpt>
      <trkpt lat="43.07899" lon="2.61038">
        <ele>149.060818</ele>
        <time>2022-06-04T02:57:38.367Z</time>
      </trkpt>
      <trkpt lat="43.07945" lon="2.61124">
        <ele>148.612263</ele>
        <time>2022-06-04T02:57:51.031Z</time>
      </trkpt>
      <trkpt lat="43.07962" lon="2.61183">
        <ele>148.296686</ele>
        <time>2022-06-04T02:57:58.334Z</time>
      </trkpt>
      <trkpt lat="43.07976" lon="2.61229">
        <ele>148.045126</ele>
        <time>2022-06-04T02:58:04.355Z</time>
      </trkpt>
      <trkpt lat="43.07996" lon="2.61248">
        <ele>147.88111</ele>
        <time>2022-06-04T02:58:08.542Z</time>
      </trkpt>
      <trkpt lat="43.08073" lon="2.61279">
        <ele>147.860556</ele>
        <time>2022-06-04T02:58:22.370Z</time>
      </trkpt>
      <trkpt lat="43.08098" lon="2.61295">
        <ele>147.909042</ele>
        <time>2022-06-04T02:58:28.633Z</time>
      </trkpt>
      <trkpt lat="43.08115" lon="2.61321">
        <ele>147.952518</ele>
        <time>2022-06-04T02:58:33.741Z</time>
      </trkpt>
      <trkpt lat="43.08135" lon="2.61384">
        <ele>148.039957</ele>
        <time>2022-06-04T02:58:42.920Z</time>
      </trkpt>
      <trkpt lat="43.08148" lon="2.61407">
        <ele>148.079393</ele>
        <time>2022-06-04T02:58:46.692Z</time>
      </trkpt>
      <trkpt lat="43.08265" lon="2.61513">
        <ele>148.388873</ele>
        <time>2022-06-04T02:59:11.638Z</time>
      </trkpt>
      <trkpt lat="43.08379" lon="2.61593">
        <ele>149.507612</ele>
        <time>2022-06-04T02:59:38.936Z</time>
      </trkpt>
      <trkpt lat="43.08492" lon="2.61741">
        <ele>150.746162</ele>
        <time>2022-06-04T03:00:16.031Z</time>
      </trkpt>
      <trkpt lat="43.08515" lon="2.61764">
        <ele>150.867907</ele>
        <time>2022-06-04T03:00:22.456Z</time>
      </trkpt>
      <trkpt lat="43.08685" lon="2.61873">
        <ele>149.777939</ele>
        <time>2022-06-04T03:00:52.963Z</time>
      </trkpt>
      <trkpt lat="43.08806" lon="2.61912">
        <ele>147.386258</ele>
        <time>2022-06-04T03:01:11.006Z</time>
      </trkpt>
      <trkpt lat="43.08902" lon="2.61985">
        <ele>144.346304</ele>
        <time>2022-06-04T03:01:25.931Z</time>
      </trkpt>
      <trkpt lat="43.08936" lon="2.62013">
        <ele>143.909114</ele>
        <time>2022-06-04T03:01:31.598Z</time>
      </trkpt>
      <trkpt lat="43.08965" lon="2.62036">
        <ele>144.00195</ele>
        <time>2022-06-04T03:01:36.421Z</time>
      </trkpt>
      <trkpt lat="43.08975" lon="2.62043">
        <ele>144.032838</ele>
        <time>2022-06-04T03:01:38.040Z</time>
      </trkpt>
      <trkpt lat="43.08969" lon="2.62126">
        <ele>144.201521</ele>
        <time>2022-06-04T03:01:50.399Z</time>
      </trkpt>
      <trkpt lat="43.08972" lon="2.62155">
        <ele>144.26095</ele>
        <time>2022-06-04T03:01:55.322Z</time>
      </trkpt>
      <trkpt lat="43.0899" lon="2.62221">
        <ele>145.651636</ele>
        <time>2022-06-04T03:02:10.975Z</time>
      </trkpt>
      <trkpt lat="43.08994" lon="2.62233">
        <ele>146.28503</ele>
        <time>2022-06-04T03:02:14.602Z</time>
      </trkpt>
      <trkpt lat="43.08999" lon="2.62253">
        <ele>147.237635</ele>
        <time>2022-06-04T03:02:20.698Z</time>
      </trkpt>
      <trkpt lat="43.09015" lon="2.62307">
        <ele>149.925406</ele>
        <time>2022-06-04T03:02:41.593Z</time>
      </trkpt>
      <trkpt lat="43.09053" lon="2.6238">
        <ele>154.101019</ele>
        <time>2022-06-04T03:03:13.187Z</time>
      </trkpt>
      <trkpt lat="43.09098" lon="2.62429">
        <ele>157.177644</ele>
        <time>2022-06-04T03:03:40.352Z</time>
      </trkpt>
      <trkpt lat="43.09106" lon="2.62442">
        <ele>157.741758</ele>
        <time>2022-06-04T03:03:46.620Z</time>
      </trkpt>
      <trkpt lat="43.09129" lon="2.62456">
        <ele>158.893403</ele>
        <time>2022-06-04T03:03:56.100Z</time>
      </trkpt>
      <trkpt lat="43.09161" lon="2.62465">
        <ele>160.403641</ele>
        <time>2022-06-04T03:04:08.042Z</time>
      </trkpt>
      <trkpt lat="43.0921" lon="2.62468">
        <ele>162.635212</ele>
        <time>2022-06-04T03:04:25.431Z</time>
      </trkpt>
      <trkpt lat="43.09296" lon="2.62423">
        <ele>164.498859</ele>
        <time>2022-06-04T03:04:47.261Z</time>
      </trkpt>
      <trkpt lat="43.09343" lon="2.62387">
        <ele>164.951275</ele>
        <time>2022-06-04T03:04:57.727Z</time>
      </trkpt>
      <trkpt lat="43.0945" lon="2.62265">
        <ele>166.930748</ele>
        <time>2022-06-04T03:05:25.511Z</time>
      </trkpt>
      <trkpt lat="43.09466" lon="2.6224">
        <ele>167.400141</ele>
        <time>2022-06-04T03:05:30.576Z</time>
      </trkpt>
      <trkpt lat="43.09521" lon="2.62146">
        <ele>169.490369</ele>
        <time>2022-06-04T03:05:58.127Z</time>
      </trkpt>
      <trkpt lat="43.09537" lon="2.62078">
        <ele>172.973578</ele>
        <time>2022-06-04T03:06:19.875Z</time>
      </trkpt>
      <trkpt lat="43.09548" lon="2.62055">
        <ele>174.299202</ele>
        <time>2022-06-04T03:06:28.747Z</time>
      </trkpt>
      <trkpt lat="43.0957" lon="2.62033">
        <ele>176.119785</ele>
        <time>2022-06-04T03:06:40.660Z</time>
      </trkpt>
      <trkpt lat="43.09576" lon="2.62032">
        <ele>176.559856</ele>
        <time>2022-06-04T03:06:44.181Z</time>
      </trkpt>
      <trkpt lat="43.09601" lon="2.62053">
        <ele>178.477847</ele>
        <time>2022-06-04T03:06:57.701Z</time>
      </trkpt>
      <trkpt lat="43.0962" lon="2.62086">
        <ele>180.538579</ele>
        <time>2022-06-04T03:07:14.407Z</time>
      </trkpt>
      <trkpt lat="43.09642" lon="2.6213">
        <ele>183.62122</ele>
        <time>2022-06-04T03:07:36.577Z</time>
      </trkpt>
      <trkpt lat="43.09647" lon="2.62153">
        <ele>185.0102</ele>
        <time>2022-06-04T03:07:46.683Z</time>
      </trkpt>
      <trkpt lat="43.09643" lon="2.62172">
        <ele>186.210846</ele>
        <time>2022-06-04T03:07:55.227Z</time>
      </trkpt>
      <trkpt lat="43.09613" lon="2.62233">
        <ele>190.576955</ele>
        <time>2022-06-04T03:08:24.674Z</time>
      </trkpt>
      <trkpt lat="43.09605" lon="2.62274">
        <ele>193.123092</ele>
        <time>2022-06-04T03:08:38.041Z</time>
      </trkpt>
      <trkpt lat="43.09591" lon="2.62354">
        <ele>197.000419</ele>
        <time>2022-06-04T03:09:03.552Z</time>
      </trkpt>
      <trkpt lat="43.09559" lon="2.62422">
        <ele>199.919369</ele>
        <time>2022-06-04T03:09:29.661Z</time>
      </trkpt>
      <trkpt lat="43.09535" lon="2.62527">
        <ele>203.89113</ele>
        <time>2022-06-04T03:09:58.548Z</time>
      </trkpt>
      <trkpt lat="43.09505" lon="2.62595">
        <ele>204.786644</ele>
        <time>2022-06-04T03:10:14.004Z</time>
      </trkpt>
      <trkpt lat="43.09507" lon="2.62614">
        <ele>204.903403</ele>
        <time>2022-06-04T03:10:17.177Z</time>
      </trkpt>
      <trkpt lat="43.09521" lon="2.62635">
        <ele>205.086604</ele>
        <time>2022-06-04T03:10:22.399Z</time>
      </trkpt>
      <trkpt lat="43.09552" lon="2.62664">
        <ele>205.411602</ele>
        <time>2022-06-04T03:10:30.416Z</time>
      </trkpt>
      <trkpt lat="43.09567" lon="2.62671">
        <ele>205.55382</ele>
        <time>2022-06-04T03:10:33.384Z</time>
      </trkpt>
      <trkpt lat="43.0957" lon="2.6267">
        <ele>205.578035</ele>
        <time>2022-06-04T03:10:33.873Z</time>
      </trkpt>
      <trkpt lat="43.096" lon="2.62654">
        <ele>205.860903</ele>
        <time>2022-06-04T03:10:39.546Z</time>
      </trkpt>
      <trkpt lat="43.09642" lon="2.62667">
        <ele>205.138348</ele>
        <time>2022-06-04T03:10:46.379Z</time>
      </trkpt>
      <trkpt lat="43.09748" lon="2.62752">
        <ele>202.32716</ele>
        <time>2022-06-04T03:11:04.719Z</time>
      </trkpt>
      <trkpt lat="43.09884" lon="2.62885">
        <ele>195.659962</ele>
        <time>2022-06-04T03:11:28.461Z</time>
      </trkpt>
      <trkpt lat="43.09971" lon="2.62949">
        <ele>189.321454</ele>
        <time>2022-06-04T03:11:40.803Z</time>
      </trkpt>
      <trkpt lat="43.1012" lon="2.63058">
        <ele>177.233831</ele>
        <time>2022-06-04T03:12:01.433Z</time>
      </trkpt>
      <trkpt lat="43.10257" lon="2.63169">
        <ele>167.865566</ele>
        <time>2022-06-04T03:12:22.676Z</time>
      </trkpt>
      <trkpt lat="43.1029" lon="2.63188">
        <ele>166.044689</ele>
        <time>2022-06-04T03:12:27.760Z</time>
      </trkpt>
      <trkpt lat="43.10319" lon="2.6318">
        <ele>164.570578</ele>
        <time>2022-06-04T03:12:31.804Z</time>
      </trkpt>
      <trkpt lat="43.10415" lon="2.63114">
        <ele>158.855156</ele>
        <time>2022-06-04T03:12:45.730Z</time>
      </trkpt>
      <trkpt lat="43.10455" lon="2.63095">
        <ele>156.286646</ele>
        <time>2022-06-04T03:12:51.224Z</time>
      </trkpt>
      <trkpt lat="43.10467" lon="2.631">
        <ele>155.528671</ele>
        <time>2022-06-04T03:12:52.789Z</time>
      </trkpt>
      <trkpt lat="43.10471" lon="2.63115">
        <ele>154.826476</ele>
        <time>2022-06-04T03:12:54.288Z</time>
      </trkpt>
      <trkpt lat="43.1041" lon="2.63319">
        <ele>145.594933</ele>
        <time>2022-06-04T03:13:15.066Z</time>
      </trkpt>
      <trkpt lat="43.10405" lon="2.63354">
        <ele>144.187994</ele>
        <time>2022-06-04T03:13:18.623Z</time>
      </trkpt>
      <trkpt lat="43.1041" lon="2.63366">
        <ele>143.623073</ele>
        <time>2022-06-04T03:13:20.005Z</time>
      </trkpt>
      <trkpt lat="43.10424" lon="2.63371">
        <ele>142.830271</ele>
        <time>2022-06-04T03:13:22.059Z</time>
      </trkpt>
      <trkpt lat="43.10449" lon="2.63361">
        <ele>141.423989</ele>
        <time>2022-06-04T03:13:25.472Z</time>
      </trkpt>
      <trkpt lat="43.10482" lon="2.63327">
        <ele>139.129443</ele>
        <time>2022-06-04T03:13:30.889Z</time>
      </trkpt>
      <trkpt lat="43.10531" lon="2.63298">
        <ele>135.839013</ele>
        <time>2022-06-04T03:13:37.927Z</time>
      </trkpt>
      <trkpt lat="43.106" lon="2.63296">
        <ele>131.637498</ele>
        <time>2022-06-04T03:13:46.590Z</time>
      </trkpt>
      <trkpt lat="43.10622" lon="2.63312">
        <ele>130.144485</ele>
        <time>2022-06-04T03:13:49.715Z</time>
      </trkpt>
      <trkpt lat="43.10642" lon="2.63351">
        <ele>127.973483</ele>
        <time>2022-06-04T03:13:54.265Z</time>
      </trkpt>
      <trkpt lat="43.10675" lon="2.63475">
        <ele>121.871352</ele>
        <time>2022-06-04T03:14:06.666Z</time>
      </trkpt>
      <trkpt lat="43.10686" lon="2.6344">
        <ele>120.097952</ele>
        <time>2022-06-04T03:14:10.280Z</time>
      </trkpt>
      <trkpt lat="43.10681" lon="2.63395">
        <ele>118.008299</ele>
        <time>2022-06-04T03:14:14.525Z</time>
      </trkpt>
      <trkpt lat="43.10702" lon="2.63379">
        <ele>116.278708</ele>
        <time>2022-06-04T03:14:17.540Z</time>
      </trkpt>
      <trkpt lat="43.10702" lon="2.63385">
        <ele>115.951666</ele>
        <time>2022-06-04T03:14:18.016Z</time>
      </trkpt>
      <trkpt lat="43.10714" lon="2.6338">
        <ele>115.004475</ele>
        <time>2022-06-04T03:14:19.438Z</time>
      </trkpt>
      <trkpt lat="43.10723" lon="2.63376">
        <ele>114.239985</ele>
        <time>2022-06-04T03:14:20.598Z</time>
      </trkpt>
      <trkpt lat="43.10718" lon="2.63363">
        <ele>113.417587</ele>
        <time>2022-06-04T03:14:21.965Z</time>
      </trkpt>
      <trkpt lat="43.10725" lon="2.63356">
        <ele>112.72133</ele>
        <time>2022-06-04T03:14:23.004Z</time>
      </trkpt>
      <trkpt lat="43.10726" lon="2.63321">
        <ele>110.686976</ele>
        <time>2022-06-04T03:14:26.183Z</time>
      </trkpt>
      <trkpt lat="43.10749" lon="2.6331">
        <ele>108.717232</ele>
        <time>2022-06-04T03:14:29.171Z</time>
      </trkpt>
      <trkpt lat="43.10745" lon="2.63293">
        <ele>107.706083</ele>
        <time>2022-06-04T03:14:30.816Z</time>
      </trkpt>
      <trkpt lat="43.10749" lon="2.63289">
        <ele>107.294555</ele>
        <time>2022-06-04T03:14:31.425Z</time>
      </trkpt>
      <trkpt lat="43.10779" lon="2.63299">
        <ele>104.855476</ele>
        <time>2022-06-04T03:14:35.170Z</time>
      </trkpt>
      <trkpt lat="43.10781" lon="2.63297">
        <ele>104.631824</ele>
        <time>2022-06-04T03:14:35.506Z</time>
      </trkpt>
      <trkpt lat="43.10806" lon="2.63275">
        <ele>102.46573</ele>
        <time>2022-06-04T03:14:39.170Z</time>
      </trkpt>
      <trkpt lat="43.10818" lon="2.63265">
        <ele>101.665777</ele>
        <time>2022-06-04T03:14:40.814Z</time>
      </trkpt>
      <trkpt lat="43.10832" lon="2.63272">
        <ele>100.798557</ele>
        <time>2022-06-04T03:14:42.652Z</time>
      </trkpt>
      <trkpt lat="43.10878" lon="2.63339">
        <ele>96.888021</ele>
        <time>2022-06-04T03:14:51.012Z</time>
      </trkpt>
      <trkpt lat="43.10973" lon="2.63406">
        <ele>92.770252</ele>
        <time>2022-06-04T03:15:06.326Z</time>
      </trkpt>
      <trkpt lat="43.1098" lon="2.63388">
        <ele>92.832176</ele>
        <time>2022-06-04T03:15:09.105Z</time>
      </trkpt>
      <trkpt lat="43.1102" lon="2.63325">
        <ele>93.083854</ele>
        <time>2022-06-04T03:15:22.859Z</time>
      </trkpt>
      <trkpt lat="43.11031" lon="2.63318">
        <ele>93.135715</ele>
        <time>2022-06-04T03:15:25.974Z</time>
      </trkpt>
      <trkpt lat="43.11075" lon="2.63315">
        <ele>93.317467</ele>
        <time>2022-06-04T03:15:38.074Z</time>
      </trkpt>
      <trkpt lat="43.11187" lon="2.6336">
        <ele>95.069055</ele>
        <time>2022-06-04T03:16:11.201Z</time>
      </trkpt>
      <trkpt lat="43.11281" lon="2.63491">
        <ele>96.353513</ele>
        <time>2022-06-04T03:16:39.838Z</time>
      </trkpt>
      <trkpt lat="43.11354" lon="2.63558">
        <ele>96.385725</ele>
        <time>2022-06-04T03:16:55.488Z</time>
      </trkpt>
      <trkpt lat="43.1147" lon="2.63647">
        <ele>96.219034</ele>
        <time>2022-06-04T03:17:19.181Z</time>
      </trkpt>
      <trkpt lat="43.11548" lon="2.63704">
        <ele>96.084837</ele>
        <time>2022-06-04T03:17:35.199Z</time>
      </trkpt>
      <trkpt lat="43.11638" lon="2.63748">
        <ele>96.308711</ele>
        <time>2022-06-04T03:17:53.886Z</time>
      </trkpt>
      <trkpt lat="43.11719" lon="2.63791">
        <ele>96.481793</ele>
        <time>2022-06-04T03:18:11.445Z</time>
      </trkpt>
      <trkpt lat="43.11739" lon="2.63808">
        <ele>96.457697</ele>
        <time>2022-06-04T03:18:16.143Z</time>
      </trkpt>
      <trkpt lat="43.11783" lon="2.63861">
        <ele>96.398416</ele>
        <time>2022-06-04T03:18:27.996Z</time>
      </trkpt>
      <trkpt lat="43.11786" lon="2.63866">
        <ele>96.393338</ele>
        <time>2022-06-04T03:18:28.965Z</time>
      </trkpt>
      <trkpt lat="43.11821" lon="2.63899">
        <ele>96.349922</ele>
        <time>2022-06-04T03:18:37.030Z</time>
      </trkpt>
      <trkpt lat="43.11916" lon="2.63938">
        <ele>94.832011</ele>
        <time>2022-06-04T03:18:53.081Z</time>
      </trkpt>
      <trkpt lat="43.11967" lon="2.63987">
        <ele>93.249452</ele>
        <time>2022-06-04T03:19:02.106Z</time>
      </trkpt>
      <trkpt lat="43.12067" lon="2.64028">
        <ele>91.056562</ele>
        <time>2022-06-04T03:19:16.792Z</time>
      </trkpt>
      <trkpt lat="43.1211" lon="2.64047">
        <ele>90.38102</ele>
        <time>2022-06-04T03:19:23.434Z</time>
      </trkpt>
      <trkpt lat="43.1212" lon="2.64056">
        <ele>90.18855</ele>
        <time>2022-06-04T03:19:25.298Z</time>
      </trkpt>
      <trkpt lat="43.12166" lon="2.64116">
        <ele>89.2352</ele>
        <time>2022-06-04T03:19:36.237Z</time>
      </trkpt>
      <trkpt lat="43.12192" lon="2.6414">
        <ele>89.513164</ele>
        <time>2022-06-04T03:19:44.113Z</time>
      </trkpt>
      <trkpt lat="43.12202" lon="2.64144">
        <ele>89.819752</ele>
        <time>2022-06-04T03:19:46.849Z</time>
      </trkpt>
      <trkpt lat="43.12254" lon="2.64143">
        <ele>91.394168</ele>
        <time>2022-06-04T03:20:02.970Z</time>
      </trkpt>
      <trkpt lat="43.12311" lon="2.64163">
        <ele>93.163741</ele>
        <time>2022-06-04T03:20:23.007Z</time>
      </trkpt>
      <trkpt lat="43.12354" lon="2.64183">
        <ele>94.546968</ele>
        <time>2022-06-04T03:20:38.112Z</time>
      </trkpt>
      <trkpt lat="43.12379" lon="2.64176">
        <ele>95.566664</ele>
        <time>2022-06-04T03:20:46.201Z</time>
      </trkpt>
      <trkpt lat="43.12444" lon="2.64175">
        <ele>98.201065</ele>
        <time>2022-06-04T03:21:07.882Z</time>
      </trkpt>
      <trkpt lat="43.12465" lon="2.64189">
        <ele>99.108322</ele>
        <time>2022-06-04T03:21:16.233Z</time>
      </trkpt>
      <trkpt lat="43.12482" lon="2.64213">
        <ele>100.118431</ele>
        <time>2022-06-04T03:21:24.231Z</time>
      </trkpt>
      <trkpt lat="43.12505" lon="2.6421">
        <ele>101.048721</ele>
        <time>2022-06-04T03:21:31.949Z</time>
      </trkpt>
      <trkpt lat="43.1254" lon="2.6419">
        <ele>102.725076</ele>
        <time>2022-06-04T03:21:44.826Z</time>
      </trkpt>
      <trkpt lat="43.12562" lon="2.64184">
        <ele>103.818484</ele>
        <time>2022-06-04T03:21:53.684Z</time>
      </trkpt>
      <trkpt lat="43.12573" lon="2.64189">
        <ele>104.369383</ele>
        <time>2022-06-04T03:21:58.022Z</time>
      </trkpt>
      <trkpt lat="43.12579" lon="2.64195">
        <ele>104.724849</ele>
        <time>2022-06-04T03:22:00.718Z</time>
      </trkpt>
      <trkpt lat="43.12593" lon="2.64227">
        <ele>105.999217</ele>
        <time>2022-06-04T03:22:11.234Z</time>
      </trkpt>
      <trkpt lat="43.12597" lon="2.64256">
        <ele>107.023115</ele>
        <time>2022-06-04T03:22:19.193Z</time>
      </trkpt>
      <trkpt lat="43.12592" lon="2.64388">
        <ele>111.539891</ele>
        <time>2022-06-04T03:22:55.383Z</time>
      </trkpt>
      <trkpt lat="43.12688" lon="2.64383">
        <ele>115.890599</ele>
        <time>2022-06-04T03:23:29.955Z</time>
      </trkpt>
      <trkpt lat="43.12727" lon="2.64389">
        <ele>117.654452</ele>
        <time>2022-06-04T03:23:43.626Z</time>
      </trkpt>
      <trkpt lat="43.12757" lon="2.6439">
        <ele>119.115013</ele>
        <time>2022-06-04T03:23:54.950Z</time>
      </trkpt>
      <trkpt lat="43.12853" lon="2.64361">
        <ele>124.239954</ele>
        <time>2022-06-04T03:24:32.804Z</time>
      </trkpt>
      <trkpt lat="43.12893" lon="2.64359">
        <ele>126.303381</ele>
        <time>2022-06-04T03:24:49.507Z</time>
      </trkpt>
      <trkpt lat="43.12996" lon="2.64364">
        <ele>131.321022</ele>
        <time>2022-06-04T03:25:32.578Z</time>
      </trkpt>
      <trkpt lat="43.13059" lon="2.64388">
        <ele>134.433172</ele>
        <time>2022-06-04T03:25:57.321Z</time>
      </trkpt>
      <trkpt lat="43.13132" lon="2.64417">
        <ele>137.076429</ele>
        <time>2022-06-04T03:26:20.371Z</time>
      </trkpt>
      <trkpt lat="43.1324" lon="2.64451">
        <ele>139.688333</ele>
        <time>2022-06-04T03:26:50.928Z</time>
      </trkpt>
      <trkpt lat="43.1325" lon="2.64462">
        <ele>139.988224</ele>
        <time>2022-06-04T03:26:53.686Z</time>
      </trkpt>
      <trkpt lat="43.13272" lon="2.64437">
        <ele>140.736844</ele>
        <time>2022-06-04T03:27:00.885Z</time>
      </trkpt>
      <trkpt lat="43.13303" lon="2.64417">
        <ele>141.718635</ele>
        <time>2022-06-04T03:27:09.169Z</time>
      </trkpt>
      <trkpt lat="43.13389" lon="2.64429">
        <ele>144.194709</ele>
        <time>2022-06-04T03:27:33.534Z</time>
      </trkpt>
      <trkpt lat="43.13429" lon="2.64439">
        <ele>145.377211</ele>
        <time>2022-06-04T03:27:46.874Z</time>
      </trkpt>
      <trkpt lat="43.13488" lon="2.64466">
        <ele>150.044258</ele>
        <time>2022-06-04T03:28:12.440Z</time>
      </trkpt>
      <trkpt lat="43.13577" lon="2.64523">
        <ele>157.952013</ele>
        <time>2022-06-04T03:29:06.038Z</time>
      </trkpt>
      <trkpt lat="43.13619" lon="2.64518">
        <ele>161.896385</ele>
        <time>2022-06-04T03:29:32.262Z</time>
      </trkpt>
      <trkpt lat="43.13639" lon="2.6449">
        <ele>165.204262</ele>
        <time>2022-06-04T03:29:50.089Z</time>
      </trkpt>
      <trkpt lat="43.13707" lon="2.64434">
        <ele>174.53067</ele>
        <time>2022-06-04T03:30:45.451Z</time>
      </trkpt>
      <trkpt lat="43.13775" lon="2.64388">
        <ele>183.693172</ele>
        <time>2022-06-04T03:31:38.130Z</time>
      </trkpt>
      <trkpt lat="43.13791" lon="2.64358">
        <ele>187.228482</ele>
        <time>2022-06-04T03:31:54.872Z</time>
      </trkpt>
      <trkpt lat="43.13803" lon="2.64318">
        <ele>191.426656</ele>
        <time>2022-06-04T03:32:14.728Z</time>
      </trkpt>
      <trkpt lat="43.13849" lon="2.64329">
        <ele>197.575506</ele>
        <time>2022-06-04T03:32:51.503Z</time>
      </trkpt>
      <trkpt lat="43.13864" lon="2.64282">
        <ele>202.515074</ele>
        <time>2022-06-04T03:33:27.872Z</time>
      </trkpt>
      <trkpt lat="43.13879" lon="2.64268">
        <ele>204.931862</ele>
        <time>2022-06-04T03:33:45.020Z</time>
      </trkpt>
      <trkpt lat="43.13894" lon="2.64245">
        <ele>208.382722</ele>
        <time>2022-06-04T03:34:07.238Z</time>
      </trkpt>
      <trkpt lat="43.13905" lon="2.64237">
        <ele>210.323271</ele>
        <time>2022-06-04T03:34:19.189Z</time>
      </trkpt>
      <trkpt lat="43.13938" lon="2.64234">
        <ele>215.314138</ele>
        <time>2022-06-04T03:34:47.959Z</time>
      </trkpt>
      <trkpt lat="43.13985" lon="2.64241">
        <ele>222.444674</ele>
        <time>2022-06-04T03:35:26.598Z</time>
      </trkpt>
      <trkpt lat="43.13999" lon="2.64241">
        <ele>224.64732</ele>
        <time>2022-06-04T03:35:37.821Z</time>
      </trkpt>
      <trkpt lat="43.14027" lon="2.64229">
        <ele>229.121943</ele>
        <time>2022-06-04T03:36:00.541Z</time>
      </trkpt>
      <trkpt lat="43.14071" lon="2.64239">
        <ele>235.21029</ele>
        <time>2022-06-04T03:36:35.437Z</time>
      </trkpt>
      <trkpt lat="43.14091" lon="2.64234">
        <ele>237.726269</ele>
        <time>2022-06-04T03:36:52.297Z</time>
      </trkpt>
      <trkpt lat="43.14117" lon="2.64256">
        <ele>241.506877</ele>
        <time>2022-06-04T03:37:14.771Z</time>
      </trkpt>
      <trkpt lat="43.14197" lon="2.64201">
        <ele>252.696636</ele>
        <time>2022-06-04T03:38:13.105Z</time>
      </trkpt>
      <trkpt lat="43.14244" lon="2.64137">
        <ele>259.855871</ele>
        <time>2022-06-04T03:38:53.509Z</time>
      </trkpt>
      <trkpt lat="43.14252" lon="2.64139">
        <ele>260.759183</ele>
        <time>2022-06-04T03:39:01.663Z</time>
      </trkpt>
      <trkpt lat="43.14274" lon="2.64159">
        <ele>263.404332</ele>
        <time>2022-06-04T03:39:14.110Z</time>
      </trkpt>
      <trkpt lat="43.14298" lon="2.6416">
        <ele>265.842062</ele>
        <time>2022-06-04T03:39:28.549Z</time>
      </trkpt>
      <trkpt lat="43.14331" lon="2.64148">
        <ele>269.30542</ele>
        <time>2022-06-04T03:39:47.856Z</time>
      </trkpt>
      <trkpt lat="43.14375" lon="2.64151">
        <ele>273.811199</ele>
        <time>2022-06-04T03:40:16.550Z</time>
      </trkpt>
      <trkpt lat="43.14451" lon="2.64172">
        <ele>281.484864</ele>
        <time>2022-06-04T03:41:04.423Z</time>
      </trkpt>
      <trkpt lat="43.14456" lon="2.64177">
        <ele>282.035087</ele>
        <time>2022-06-04T03:41:07.133Z</time>
      </trkpt>
      <trkpt lat="43.14467" lon="2.64171">
        <ele>283.270651</ele>
        <time>2022-06-04T03:41:14.457Z</time>
      </trkpt>
      <trkpt lat="43.14505" lon="2.64117">
        <ele>288.648653</ele>
        <time>2022-06-04T03:41:45.514Z</time>
      </trkpt>
      <trkpt lat="43.14511" lon="2.64114">
        <ele>289.280045</ele>
        <time>2022-06-04T03:41:48.394Z</time>
      </trkpt>
      <trkpt lat="43.14575" lon="2.64123">
        <ele>294.500026</ele>
        <time>2022-06-04T03:42:26.927Z</time>
      </trkpt>
      <trkpt lat="43.14605" lon="2.6414">
        <ele>296.894607</ele>
        <time>2022-06-04T03:42:45.989Z</time>
      </trkpt>
      <trkpt lat="43.14618" lon="2.64141">
        <ele>297.89045</ele>
        <time>2022-06-04T03:42:53.154Z</time>
      </trkpt>
      <trkpt lat="43.1465" lon="2.64159">
        <ele>300.514157</ele>
        <time>2022-06-04T03:43:10.042Z</time>
      </trkpt>
      <trkpt lat="43.14665" lon="2.64175">
        <ele>301.956114</ele>
        <time>2022-06-04T03:43:17.347Z</time>
      </trkpt>
      <trkpt lat="43.14673" lon="2.64175">
        <ele>302.536371</ele>
        <time>2022-06-04T03:43:20.210Z</time>
      </trkpt>
      <trkpt lat="43.14721" lon="2.64095">
        <ele>306.288891</ele>
        <time>2022-06-04T03:43:47.589Z</time>
      </trkpt>
      <trkpt lat="43.14769" lon="2.64078">
        <ele>308.124278</ele>
        <time>2022-06-04T03:44:05.439Z</time>
      </trkpt>
      <trkpt lat="43.14794" lon="2.64082">
        <ele>309.0846</ele>
        <time>2022-06-04T03:44:14.077Z</time>
      </trkpt>
      <trkpt lat="43.14818" lon="2.64068">
        <ele>310.048431</ele>
        <time>2022-06-04T03:44:22.109Z</time>
      </trkpt>
      <trkpt lat="43.14849" lon="2.64061">
        <ele>311.111253</ele>
        <time>2022-06-04T03:44:32.465Z</time>
      </trkpt>
      <trkpt lat="43.14884" lon="2.64045">
        <ele>311.564032</ele>
        <time>2022-06-04T03:44:43.769Z</time>
      </trkpt>
      <trkpt lat="43.149" lon="2.64046">
        <ele>311.765135</ele>
        <time>2022-06-04T03:44:49.039Z</time>
      </trkpt>
      <trkpt lat="43.14915" lon="2.64057">
        <ele>311.975335</ele>
        <time>2022-06-04T03:44:53.392Z</time>
      </trkpt>
      <trkpt lat="43.14928" lon="2.64103">
        <ele>312.418461</ele>
        <time>2022-06-04T03:45:03.059Z</time>
      </trkpt>
      <trkpt lat="43.14935" lon="2.64114">
        <ele>312.553242</ele>
        <time>2022-06-04T03:45:05.770Z</time>
      </trkpt>
      <trkpt lat="43.14948" lon="2.64119">
        <ele>312.718448</ele>
        <time>2022-06-04T03:45:09.995Z</time>
      </trkpt>
      <trkpt lat="43.14966" lon="2.64131">
        <ele>312.968616</ele>
        <time>2022-06-04T03:45:14.182Z</time>
      </trkpt>
      <trkpt lat="43.15" lon="2.64141">
        <ele>312.715235</ele>
        <time>2022-06-04T03:45:21.490Z</time>
      </trkpt>
      <trkpt lat="43.15018" lon="2.64139">
        <ele>311.661111</ele>
        <time>2022-06-04T03:45:24.206Z</time>
      </trkpt>
      <trkpt lat="43.15049" lon="2.64152">
        <ele>309.825141</ele>
        <time>2022-06-04T03:45:28.590Z</time>
      </trkpt>
      <trkpt lat="43.15082" lon="2.64158">
        <ele>307.842946</ele>
        <time>2022-06-04T03:45:33.247Z</time>
      </trkpt>
      <trkpt lat="43.15148" lon="2.64157">
        <ele>304.003985</ele>
        <time>2022-06-04T03:45:42.175Z</time>
      </trkpt>
      <trkpt lat="43.15162" lon="2.64165">
        <ele>303.121837</ele>
        <time>2022-06-04T03:45:44.115Z</time>
      </trkpt>
      <trkpt lat="43.15184" lon="2.64181">
        <ele>301.156397</ele>
        <time>2022-06-04T03:45:49.493Z</time>
      </trkpt>
      <trkpt lat="43.15245" lon="2.64166">
        <ele>295.934899</ele>
        <time>2022-06-04T03:46:02.514Z</time>
      </trkpt>
      <trkpt lat="43.1529" lon="2.64142">
        <ele>291.875337</ele>
        <time>2022-06-04T03:46:12.499Z</time>
      </trkpt>
      <trkpt lat="43.15299" lon="2.64145">
        <ele>291.096862</ele>
        <time>2022-06-04T03:46:14.357Z</time>
      </trkpt>
      <trkpt lat="43.15327" lon="2.64171">
        <ele>288.205871</ele>
        <time>2022-06-04T03:46:21.758Z</time>
      </trkpt>
      <trkpt lat="43.15464" lon="2.64264">
        <ele>277.429257</ele>
        <time>2022-06-04T03:46:55.341Z</time>
      </trkpt>
      <trkpt lat="43.15553" lon="2.64312">
        <ele>270.045171</ele>
        <time>2022-06-04T03:47:15.925Z</time>
      </trkpt>
      <trkpt lat="43.15591" lon="2.64316">
        <ele>266.9834</ele>
        <time>2022-06-04T03:47:24.185Z</time>
      </trkpt>
      <trkpt lat="43.15601" lon="2.64321">
        <ele>266.091995</ele>
        <time>2022-06-04T03:47:26.433Z</time>
      </trkpt>
      <trkpt lat="43.1563" lon="2.64355">
        <ele>263.078032</ele>
        <time>2022-06-04T03:47:34.557Z</time>
      </trkpt>
      <trkpt lat="43.15647" lon="2.64365">
        <ele>261.595831</ele>
        <time>2022-06-04T03:47:38.494Z</time>
      </trkpt>
      <trkpt lat="43.15697" lon="2.64363">
        <ele>257.68379</ele>
        <time>2022-06-04T03:47:48.870Z</time>
      </trkpt>
      <trkpt lat="43.15742" lon="2.64373">
        <ele>254.235998</ele>
        <time>2022-06-04T03:47:58.285Z</time>
      </trkpt>
      <trkpt lat="43.15764" lon="2.6437">
        <ele>252.515921</ele>
        <time>2022-06-04T03:48:03.165Z</time>
      </trkpt>
      <trkpt lat="43.15795" lon="2.64395">
        <ele>249.777837</ele>
        <time>2022-06-04T03:48:11.067Z</time>
      </trkpt>
      <trkpt lat="43.15832" lon="2.64421">
        <ele>246.65105</ele>
        <time>2022-06-04T03:48:20.422Z</time>
      </trkpt>
      <trkpt lat="43.15905" lon="2.64471">
        <ele>242.979176</ele>
        <time>2022-06-04T03:48:38.627Z</time>
      </trkpt>
      <trkpt lat="43.15942" lon="2.64496">
        <ele>241.095864</ele>
        <time>2022-06-04T03:48:48.422Z</time>
      </trkpt>
      <trkpt lat="43.15967" lon="2.64532">
        <ele>239.467866</ele>
        <time>2022-06-04T03:48:57.486Z</time>
      </trkpt>
      <trkpt lat="43.1599" lon="2.64659">
        <ele>236.126134</ele>
        <time>2022-06-04T03:49:21.730Z</time>
      </trkpt>
      <trkpt lat="43.15996" lon="2.6476">
        <ele>233.725714</ele>
        <time>2022-06-04T03:49:39.752Z</time>
      </trkpt>
      <trkpt lat="43.16" lon="2.64772">
        <ele>233.420835</ele>
        <time>2022-06-04T03:49:42.078Z</time>
      </trkpt>
      <trkpt lat="43.16031" lon="2.64808">
        <ele>231.427948</ele>
        <time>2022-06-04T03:49:52.073Z</time>
      </trkpt>
      <trkpt lat="43.16039" lon="2.64825">
        <ele>230.516003</ele>
        <time>2022-06-04T03:49:55.487Z</time>
      </trkpt>
      <trkpt lat="43.1604" lon="2.64889">
        <ele>227.578144</ele>
        <time>2022-06-04T03:50:05.905Z</time>
      </trkpt>
      <trkpt lat="43.16021" lon="2.64994">
        <ele>222.60479</ele>
        <time>2022-06-04T03:50:22.869Z</time>
      </trkpt>
      <trkpt lat="43.1603" lon="2.65013">
        <ele>221.601195</ele>
        <time>2022-06-04T03:50:26.290Z</time>
      </trkpt>
      <trkpt lat="43.16046" lon="2.65015">
        <ele>220.209148</ele>
        <time>2022-06-04T03:50:29.812Z</time>
      </trkpt>
      <trkpt lat="43.16095" lon="2.64982">
        <ele>215.387378</ele>
        <time>2022-06-04T03:50:38.853Z</time>
      </trkpt>
      <trkpt lat="43.16119" lon="2.64927">
        <ele>211.340548</ele>
        <time>2022-06-04T03:50:46.131Z</time>
      </trkpt>
      <trkpt lat="43.16135" lon="2.64914">
        <ele>209.658889</ele>
        <time>2022-06-04T03:50:49.154Z</time>
      </trkpt>
      <trkpt lat="43.16153" lon="2.64889">
        <ele>207.456332</ele>
        <time>2022-06-04T03:50:53.016Z</time>
      </trkpt>
      <trkpt lat="43.16172" lon="2.64832">
        <ele>203.662925</ele>
        <time>2022-06-04T03:51:00.213Z</time>
      </trkpt>
      <trkpt lat="43.1621" lon="2.648">
        <ele>200.11962</ele>
        <time>2022-06-04T03:51:07.477Z</time>
      </trkpt>
      <trkpt lat="43.16252" lon="2.64719">
        <ele>194.431979</ele>
        <time>2022-06-04T03:51:19.481Z</time>
      </trkpt>
      <trkpt lat="43.16262" lon="2.64603">
        <ele>187.470831</ele>
        <time>2022-06-04T03:51:33.394Z</time>
      </trkpt>
      <trkpt lat="43.16262" lon="2.64577">
        <ele>185.870561</ele>
        <time>2022-06-04T03:51:36.272Z</time>
      </trkpt>
      <trkpt lat="43.16253" lon="2.64545">
        <ele>183.785666</ele>
        <time>2022-06-04T03:51:40.360Z</time>
      </trkpt>
      <trkpt lat="43.16254" lon="2.6452">
        <ele>182.246841</ele>
        <time>2022-06-04T03:51:43.311Z</time>
      </trkpt>
      <trkpt lat="43.16246" lon="2.64485">
        <ele>180.000982</ele>
        <time>2022-06-04T03:51:47.670Z</time>
      </trkpt>
      <trkpt lat="43.16246" lon="2.64455">
        <ele>178.131267</ele>
        <time>2022-06-04T03:51:51.785Z</time>
      </trkpt>
      <trkpt lat="43.16253" lon="2.64457">
        <ele>177.456664</ele>
        <time>2022-06-04T03:51:52.928Z</time>
      </trkpt>
      <trkpt lat="43.16291" lon="2.64505">
        <ele>172.506702</ele>
        <time>2022-06-04T03:52:00.914Z</time>
      </trkpt>
      <trkpt lat="43.16335" lon="2.64505">
        <ele>168.06007</ele>
        <time>2022-06-04T03:52:07.751Z</time>
      </trkpt>
      <trkpt lat="43.16381" lon="2.64514">
        <ele>163.41999</ele>
        <time>2022-06-04T03:52:14.695Z</time>
      </trkpt>
      <trkpt lat="43.16399" lon="2.64511">
        <ele>161.544888</ele>
        <time>2022-06-04T03:52:17.477Z</time>
      </trkpt>
      <trkpt lat="43.16447" lon="2.64499">
        <ele>157.318051</ele>
        <time>2022-06-04T03:52:25.659Z</time>
      </trkpt>
      <trkpt lat="43.1647" lon="2.64505">
        <ele>156.020496</ele>
        <time>2022-06-04T03:52:29.357Z</time>
      </trkpt>
      <trkpt lat="43.16481" lon="2.64507">
        <ele>155.380493</ele>
        <time>2022-06-04T03:52:31.438Z</time>
      </trkpt>
      <trkpt lat="43.16511" lon="2.6451">
        <ele>153.685355</ele>
        <time>2022-06-04T03:52:36.370Z</time>
      </trkpt>
      <trkpt lat="43.16595" lon="2.64443">
        <ele>148.230009</ele>
        <time>2022-06-04T03:52:53.441Z</time>
      </trkpt>
      <trkpt lat="43.16601" lon="2.64442">
        <ele>148.005152</ele>
        <time>2022-06-04T03:52:54.655Z</time>
      </trkpt>
      <trkpt lat="43.16606" lon="2.64441">
        <ele>147.916519</ele>
        <time>2022-06-04T03:52:55.604Z</time>
      </trkpt>
      <trkpt lat="43.16715" lon="2.64418">
        <ele>145.849548</ele>
        <time>2022-06-04T03:53:18.289Z</time>
      </trkpt>
      <trkpt lat="43.16775" lon="2.64388">
        <ele>144.687186</ele>
        <time>2022-06-04T03:53:31.485Z</time>
      </trkpt>
      <trkpt lat="43.16835" lon="2.64382">
        <ele>144.210111</ele>
        <time>2022-06-04T03:53:44.481Z</time>
      </trkpt>
      <trkpt lat="43.16975" lon="2.64321">
        <ele>143.199106</ele>
        <time>2022-06-04T03:54:17.013Z</time>
      </trkpt>
      <trkpt lat="43.17155" lon="2.64272">
        <ele>142.045743</ele>
        <time>2022-06-04T03:54:59.034Z</time>
      </trkpt>
      <trkpt lat="43.17159" lon="2.64272">
        <ele>141.960113</ele>
        <time>2022-06-04T03:55:00.019Z</time>
      </trkpt>
      <trkpt lat="43.17216" lon="2.64273">
        <ele>140.825044</ele>
        <time>2022-06-04T03:55:09.479Z</time>
      </trkpt>
      <trkpt lat="43.17264" lon="2.64265">
        <ele>139.863346</ele>
        <time>2022-06-04T03:55:16.698Z</time>
      </trkpt>
      <trkpt lat="43.17357" lon="2.64248">
        <ele>135.816303</ele>
        <time>2022-06-04T03:55:29.544Z</time>
      </trkpt>
      <trkpt lat="43.17393" lon="2.64249">
        <ele>133.768645</ele>
        <time>2022-06-04T03:55:34.065Z</time>
      </trkpt>
      <trkpt lat="43.1744" lon="2.64266">
        <ele>130.921135</ele>
        <time>2022-06-04T03:55:40.241Z</time>
      </trkpt>
      <trkpt lat="43.17463" lon="2.64273">
        <ele>129.592773</ele>
        <time>2022-06-04T03:55:43.138Z</time>
      </trkpt>
      <trkpt lat="43.17503" lon="2.64289">
        <ele>127.343718</ele>
        <time>2022-06-04T03:55:48.536Z</time>
      </trkpt>
      <trkpt lat="43.17511" lon="2.64291">
        <ele>126.939296</ele>
        <time>2022-06-04T03:55:49.559Z</time>
      </trkpt>
      <trkpt lat="43.1752" lon="2.64298">
        <ele>126.427071</ele>
        <time>2022-06-04T03:55:50.859Z</time>
      </trkpt>
      <trkpt lat="43.17536" lon="2.64331">
        <ele>124.939279</ele>
        <time>2022-06-04T03:55:54.719Z</time>
      </trkpt>
      <trkpt lat="43.17536" lon="2.64369">
        <ele>123.526589</ele>
        <time>2022-06-04T03:55:58.444Z</time>
      </trkpt>
      <trkpt lat="43.17512" lon="2.64502">
        <ele>118.756862</ele>
        <time>2022-06-04T03:56:11.967Z</time>
      </trkpt>
      <trkpt lat="43.17511" lon="2.64523">
        <ele>118.182955</ele>
        <time>2022-06-04T03:56:14.150Z</time>
      </trkpt>
      <trkpt lat="43.17518" lon="2.64577">
        <ele>116.702656</ele>
        <time>2022-06-04T03:56:19.802Z</time>
      </trkpt>
      <trkpt lat="43.17543" lon="2.64702">
        <ele>113.186419</ele>
        <time>2022-06-04T03:56:33.156Z</time>
      </trkpt>
      <trkpt lat="43.17553" lon="2.64742">
        <ele>112.415347</ele>
        <time>2022-06-04T03:56:37.555Z</time>
      </trkpt>
      <trkpt lat="43.17567" lon="2.64772">
        <ele>111.885295</ele>
        <time>2022-06-04T03:56:41.104Z</time>
      </trkpt>
      <trkpt lat="43.17578" lon="2.64786">
        <ele>111.556362</ele>
        <time>2022-06-04T03:56:43.457Z</time>
      </trkpt>
      <trkpt lat="43.17629" lon="2.64813">
        <ele>110.405189</ele>
        <time>2022-06-04T03:56:51.789Z</time>
      </trkpt>
      <trkpt lat="43.17722" lon="2.64922">
        <ele>108.286888</ele>
        <time>2022-06-04T03:57:12.399Z</time>
      </trkpt>
      <trkpt lat="43.178" lon="2.64996">
        <ele>106.983099</ele>
        <time>2022-06-04T03:57:27.910Z</time>
      </trkpt>
      <trkpt lat="43.1802" lon="2.65207">
        <ele>99.878477</ele>
        <time>2022-06-04T03:58:07.890Z</time>
      </trkpt>
      <trkpt lat="43.18085" lon="2.65226">
        <ele>97.439247</ele>
        <time>2022-06-04T03:58:16.939Z</time>
      </trkpt>
      <trkpt lat="43.18086" lon="2.65247">
        <ele>96.863016</ele>
        <time>2022-06-04T03:58:19.048Z</time>
      </trkpt>
      <trkpt lat="43.18102" lon="2.6529">
        <ele>95.516456</ele>
        <time>2022-06-04T03:58:23.855Z</time>
      </trkpt>
      <trkpt lat="43.18109" lon="2.65296">
        <ele>95.06882</ele>
        <time>2022-06-04T03:58:24.973Z</time>
      </trkpt>
      <trkpt lat="43.1813" lon="2.65314">
        <ele>93.754647</ele>
        <time>2022-06-04T03:58:28.256Z</time>
      </trkpt>
      <trkpt lat="43.18145" lon="2.6533">
        <ele>92.737807</ele>
        <time>2022-06-04T03:58:30.767Z</time>
      </trkpt>
      <trkpt lat="43.18163" lon="2.65376">
        <ele>90.735612</ele>
        <time>2022-06-04T03:58:35.699Z</time>
      </trkpt>
      <trkpt lat="43.18178" lon="2.65438">
        <ele>88.216271</ele>
        <time>2022-06-04T03:58:41.890Z</time>
      </trkpt>
      <trkpt lat="43.18199" lon="2.65485">
        <ele>86.042485</ele>
        <time>2022-06-04T03:58:47.208Z</time>
      </trkpt>
      <trkpt lat="43.18213" lon="2.65511">
        <ele>85.129708</ele>
        <time>2022-06-04T03:58:50.201Z</time>
      </trkpt>
      <trkpt lat="43.18354" lon="2.65616">
        <ele>78.874179</ele>
        <time>2022-06-04T03:59:11.609Z</time>
      </trkpt>
      <trkpt lat="43.18385" lon="2.65631">
        <ele>78.246757</ele>
        <time>2022-06-04T03:59:16.411Z</time>
      </trkpt>
      <trkpt lat="43.18423" lon="2.65656">
        <ele>77.459885</ele>
        <time>2022-06-04T03:59:22.558Z</time>
      </trkpt>
      <trkpt lat="43.18477" lon="2.65703">
        <ele>76.255712</ele>
        <time>2022-06-04T03:59:32.312Z</time>
      </trkpt>
      <trkpt lat="43.1851" lon="2.65722">
        <ele>75.58264</ele>
        <time>2022-06-04T03:59:37.943Z</time>
      </trkpt>
      <trkpt lat="43.18541" lon="2.65727">
        <ele>75.392466</ele>
        <time>2022-06-04T03:59:42.872Z</time>
      </trkpt>
      <trkpt lat="43.18579" lon="2.65755">
        <ele>75.13953</ele>
        <time>2022-06-04T03:59:49.853Z</time>
      </trkpt>
      <trkpt lat="43.18712" lon="2.65789">
        <ele>74.632723</ele>
        <time>2022-06-04T04:00:12.967Z</time>
      </trkpt>
      <trkpt lat="43.1872" lon="2.65793">
        <ele>74.665226</ele>
        <time>2022-06-04T04:00:14.441Z</time>
      </trkpt>
      <trkpt lat="43.18764" lon="2.6581">
        <ele>74.842577</ele>
        <time>2022-06-04T04:00:22.590Z</time>
      </trkpt>
      <trkpt lat="43.1887" lon="2.65882">
        <ele>75.607662</ele>
        <time>2022-06-04T04:00:47.022Z</time>
      </trkpt>
      <trkpt lat="43.18955" lon="2.65973">
        <ele>77.567663</ele>
        <time>2022-06-04T04:01:14.444Z</time>
      </trkpt>
      <trkpt lat="43.19041" lon="2.66081">
        <ele>79.816541</ele>
        <time>2022-06-04T04:01:46.032Z</time>
      </trkpt>
      <trkpt lat="43.19062" lon="2.66096">
        <ele>80.293896</ele>
        <time>2022-06-04T04:01:52.420Z</time>
      </trkpt>
      <trkpt lat="43.19109" lon="2.66122">
        <ele>81.321975</ele>
        <time>2022-06-04T04:02:05.954Z</time>
      </trkpt>
      <trkpt lat="43.19274" lon="2.66312">
        <ele>84.502532</ele>
        <time>2022-06-04T04:02:56.285Z</time>
      </trkpt>
      <trkpt lat="43.1934" lon="2.66378">
        <ele>84.929755</ele>
        <time>2022-06-04T04:03:13.107Z</time>
      </trkpt>
      <trkpt lat="43.19348" lon="2.66385">
        <ele>84.975583</ele>
        <time>2022-06-04T04:03:14.955Z</time>
      </trkpt>
      <trkpt lat="43.19455" lon="2.66501">
        <ele>85.290975</ele>
        <time>2022-06-04T04:03:40.358Z</time>
      </trkpt>
      <trkpt lat="43.19483" lon="2.66523">
        <ele>85.194504</ele>
        <time>2022-06-04T04:03:46.010Z</time>
      </trkpt>
      <trkpt lat="43.19643" lon="2.66652">
        <ele>84.052978</ele>
        <time>2022-06-04T04:04:16.665Z</time>
      </trkpt>
      <trkpt lat="43.19689" lon="2.66691">
        <ele>83.499417</ele>
        <time>2022-06-04T04:04:25.132Z</time>
      </trkpt>
      <trkpt lat="43.19859" lon="2.66898">
        <ele>80.522931</ele>
        <time>2022-06-04T04:04:59.798Z</time>
      </trkpt>
      <trkpt lat="43.19923" lon="2.6697">
        <ele>79.825121</ele>
        <time>2022-06-04T04:05:13.091Z</time>
      </trkpt>
      <trkpt lat="43.19945" lon="2.66989">
        <ele>79.608526</ele>
        <time>2022-06-04T04:05:17.302Z</time>
      </trkpt>
      <trkpt lat="43.20005" lon="2.67006">
        <ele>79.094573</ele>
        <time>2022-06-04T04:05:27.343Z</time>
      </trkpt>
      <trkpt lat="43.20016" lon="2.67014">
        <ele>79.023376</ele>
        <time>2022-06-04T04:05:29.544Z</time>
      </trkpt>
      <trkpt lat="43.20062" lon="2.67076">
        <ele>78.857947</ele>
        <time>2022-06-04T04:05:40.329Z</time>
      </trkpt>
      <trkpt lat="43.20067" lon="2.67068">
        <ele>78.837854</ele>
        <time>2022-06-04T04:05:41.699Z</time>
      </trkpt>
      <trkpt lat="43.20081" lon="2.67053">
        <ele>78.790785</ele>
        <time>2022-06-04T04:05:44.932Z</time>
      </trkpt>
      <trkpt lat="43.20111" lon="2.67028">
        <ele>78.701194</ele>
        <time>2022-06-04T04:05:51.153Z</time>
      </trkpt>
      <trkpt lat="43.20145" lon="2.67032">
        <ele>78.612705</ele>
        <time>2022-06-04T04:05:57.388Z</time>
      </trkpt>
      <trkpt lat="43.20154" lon="2.67053">
        <ele>78.589039</ele>
        <time>2022-06-04T04:06:02.716Z</time>
      </trkpt>
      <trkpt lat="43.20175" lon="2.67077">
        <ele>78.740859</ele>
        <time>2022-06-04T04:06:11.084Z</time>
      </trkpt>
      <trkpt lat="43.20261" lon="2.6714">
        <ele>79.266991</ele>
        <time>2022-06-04T04:06:41.950Z</time>
      </trkpt>
      <trkpt lat="43.2046" lon="2.67178">
        <ele>80.48253</ele>
        <time>2022-06-04T04:07:48.317Z</time>
      </trkpt>
      <trkpt lat="43.20561" lon="2.67215">
        <ele>80.591875</ele>
        <time>2022-06-04T04:08:19.134Z</time>
      </trkpt>
      <trkpt lat="43.20605" lon="2.67223">
        <ele>80.540196</ele>
        <time>2022-06-04T04:08:31.976Z</time>
      </trkpt>
      <trkpt lat="43.20662" lon="2.67262">
        <ele>80.479385</ele>
        <time>2022-06-04T04:08:50.600Z</time>
      </trkpt>
      <trkpt lat="43.20747" lon="2.67253">
        <ele>80.894996</ele>
        <time>2022-06-04T04:09:16.339Z</time>
      </trkpt>
      <trkpt lat="43.2093" lon="2.67298">
        <ele>82.290863</ele>
        <time>2022-06-04T04:10:18.023Z</time>
      </trkpt>
      <trkpt lat="43.20935" lon="2.67306">
        <ele>82.366223</ele>
        <time>2022-06-04T04:10:20.629Z</time>
      </trkpt>
      <trkpt lat="43.20931" lon="2.67407">
        <ele>83.117359</ele>
        <time>2022-06-04T04:10:45.825Z</time>
      </trkpt>
      <trkpt lat="43.20936" lon="2.67437">
        <ele>83.380858</ele>
        <time>2022-06-04T04:10:53.428Z</time>
      </trkpt>
      <trkpt lat="43.20965" lon="2.67421">
        <ele>83.764289</ele>
        <time>2022-06-04T04:11:00.630Z</time>
      </trkpt>
      <trkpt lat="43.20975" lon="2.67405">
        <ele>83.951822</ele>
        <time>2022-06-04T04:11:04.156Z</time>
      </trkpt>
      <trkpt lat="43.2099" lon="2.67349">
        <ele>84.484041</ele>
        <time>2022-06-04T04:11:14.204Z</time>
      </trkpt>
      <trkpt lat="43.21016" lon="2.67282">
        <ele>85.169452</ele>
        <time>2022-06-04T04:11:27.159Z</time>
      </trkpt>
      <trkpt lat="43.21089" lon="2.67171">
        <ele>86.091392</ele>
        <time>2022-06-04T04:11:50.644Z</time>
      </trkpt>
      <trkpt lat="43.21204" lon="2.67054">
        <ele>87.575569</ele>
        <time>2022-06-04T04:12:18.979Z</time>
      </trkpt>
      <trkpt lat="43.21325" lon="2.66918">
        <ele>90.047295</ele>
        <time>2022-06-04T04:12:58.013Z</time>
      </trkpt>
      <trkpt lat="43.21342" lon="2.66887">
        <ele>90.638446</ele>
        <time>2022-06-04T04:13:07.221Z</time>
      </trkpt>
      <trkpt lat="43.21406" lon="2.66721">
        <ele>93.143696</ele>
        <time>2022-06-04T04:13:43.824Z</time>
      </trkpt>
      <trkpt lat="43.21501" lon="2.66536">
        <ele>93.114849</ele>
        <time>2022-06-04T04:14:11.562Z</time>
      </trkpt>
      <trkpt lat="43.21535" lon="2.66445">
        <ele>93.891765</ele>
        <time>2022-06-04T04:14:23.458Z</time>
      </trkpt>
      <trkpt lat="43.21563" lon="2.66385">
        <ele>94.435039</ele>
        <time>2022-06-04T04:14:35.146Z</time>
      </trkpt>
      <trkpt lat="43.21583" lon="2.66397">
        <ele>94.658794</ele>
        <time>2022-06-04T04:14:43.648Z</time>
      </trkpt>
      <trkpt lat="43.21599" lon="2.66434">
        <ele>94.998527</ele>
        <time>2022-06-04T04:14:57.234Z</time>
      </trkpt>
      <trkpt lat="43.21656" lon="2.66495">
        <ele>97.709773</ele>
        <time>2022-06-04T04:15:30.822Z</time>
      </trkpt>
      <trkpt lat="43.21677" lon="2.66508">
        <ele>98.555256</ele>
        <time>2022-06-04T04:15:42.149Z</time>
      </trkpt>
      <trkpt lat="43.21695" lon="2.6651">
        <ele>99.233434</ele>
        <time>2022-06-04T04:15:50.231Z</time>
      </trkpt>
      <trkpt lat="43.2172" lon="2.66487">
        <ele>100.348049</ele>
        <time>2022-06-04T04:16:03.714Z</time>
      </trkpt>
      <trkpt lat="43.21723" lon="2.66452">
        <ele>101.301362</ele>
        <time>2022-06-04T04:16:15.986Z</time>
      </trkpt>
      <trkpt lat="43.2174" lon="2.6644">
        <ele>101.524662</ele>
        <time>2022-06-04T04:16:24.488Z</time>
      </trkpt>
      <trkpt lat="43.21806" lon="2.66463">
        <ele>100.653656</ele>
        <time>2022-06-04T04:16:49.405Z</time>
      </trkpt>
      <trkpt lat="43.21832" lon="2.66463">
        <ele>100.330943</ele>
        <time>2022-06-04T04:16:55.502Z</time>
      </trkpt>
      <trkpt lat="43.21888" lon="2.6648">
        <ele>99.601204</ele>
        <time>2022-06-04T04:17:09.724Z</time>
      </trkpt>
      <trkpt lat="43.21897" lon="2.66483">
        <ele>99.486836</ele>
        <time>2022-06-04T04:17:11.662Z</time>
      </trkpt>
      <trkpt lat="43.21919" lon="2.66484">
        <ele>98.497749</ele>
        <time>2022-06-04T04:17:17.175Z</time>
      </trkpt>
      <trkpt lat="43.21929" lon="2.66467">
        <ele>97.348093</ele>
        <time>2022-06-04T04:17:20.580Z</time>
      </trkpt>
      <trkpt lat="43.21987" lon="2.66434">
        <ele>92.974933</ele>
        <time>2022-06-04T04:17:34.673Z</time>
      </trkpt>
      <trkpt lat="43.22009" lon="2.6641">
        <ele>91.045804</ele>
        <time>2022-06-04T04:17:40.760Z</time>
      </trkpt>
      <trkpt lat="43.22035" lon="2.66396">
        <ele>89.098819</ele>
        <time>2022-06-04T04:17:46.513Z</time>
      </trkpt>
      <trkpt lat="43.22064" lon="2.6641">
        <ele>86.95165</ele>
        <time>2022-06-04T04:17:52.785Z</time>
      </trkpt>
      <trkpt lat="43.22092" lon="2.66401">
        <ele>85.131704</ele>
        <time>2022-06-04T04:17:59.025Z</time>
      </trkpt>
      <trkpt lat="43.22115" lon="2.66385">
        <ele>83.442344</ele>
        <time>2022-06-04T04:18:04.885Z</time>
      </trkpt>
      <trkpt lat="43.22195" lon="2.66426">
        <ele>77.918576</ele>
        <time>2022-06-04T04:18:23.745Z</time>
      </trkpt>
      <trkpt lat="43.22176" lon="2.66354">
        <ele>74.865622</ele>
        <time>2022-06-04T04:18:31.297Z</time>
      </trkpt>
      <trkpt lat="43.22188" lon="2.66344">
        <ele>74.466974</ele>
        <time>2022-06-04T04:18:33.056Z</time>
      </trkpt>
      <trkpt lat="43.22225" lon="2.66335">
        <ele>73.383972</ele>
        <time>2022-06-04T04:18:38.173Z</time>
      </trkpt>
      <trkpt lat="43.22247" lon="2.66353">
        <ele>72.61614</ele>
        <time>2022-06-04T04:18:42.111Z</time>
      </trkpt>
      <trkpt lat="43.2233" lon="2.66363">
        <ele>70.206306</ele>
        <time>2022-06-04T04:18:55.017Z</time>
      </trkpt>
      <trkpt lat="43.22363" lon="2.6636">
        <ele>69.676995</ele>
        <time>2022-06-04T04:19:00.550Z</time>
      </trkpt>
      <trkpt lat="43.22472" lon="2.66405">
        <ele>68.151425</ele>
        <time>2022-06-04T04:19:19.041Z</time>
      </trkpt>
      <trkpt lat="43.22513" lon="2.66403">
        <ele>67.613336</ele>
        <time>2022-06-04T04:19:25.561Z</time>
      </trkpt>
      <trkpt lat="43.22602" lon="2.66471">
        <ele>66.507103</ele>
        <time>2022-06-04T04:19:41.929Z</time>
      </trkpt>
      <trkpt lat="43.22627" lon="2.66478">
        <ele>66.222228</ele>
        <time>2022-06-04T04:19:46.245Z</time>
      </trkpt>
      <trkpt lat="43.22667" lon="2.66478">
        <ele>65.793392</ele>
        <time>2022-06-04T04:19:52.824Z</time>
      </trkpt>
      <trkpt lat="43.22723" lon="2.66499">
        <ele>65.858197</ele>
        <time>2022-06-04T04:20:03.153Z</time>
      </trkpt>
      <trkpt lat="43.22734" lon="2.66521">
        <ele>65.927427</ele>
        <time>2022-06-04T04:20:06.927Z</time>
      </trkpt>
      <trkpt lat="43.22751" lon="2.66589">
        <ele>66.115405</ele>
        <time>2022-06-04T04:20:18.255Z</time>
      </trkpt>
      <trkpt lat="43.22771" lon="2.66643">
        <ele>66.269826</ele>
        <time>2022-06-04T04:20:27.833Z</time>
      </trkpt>
      <trkpt lat="43.22828" lon="2.66699">
        <ele>66.676473</ele>
        <time>2022-06-04T04:20:43.616Z</time>
      </trkpt>
      <trkpt lat="43.22869" lon="2.66818">
        <ele>67.282665</ele>
        <time>2022-06-04T04:21:03.519Z</time>
      </trkpt>
      <trkpt lat="43.2302" lon="2.66948">
        <ele>67.137453</ele>
        <time>2022-06-04T04:21:34.898Z</time>
      </trkpt>
      <trkpt lat="43.23129" lon="2.67046">
        <ele>65.675122</ele>
        <time>2022-06-04T04:21:55.929Z</time>
      </trkpt>
      <trkpt lat="43.23146" lon="2.67087">
        <ele>65.188198</ele>
        <time>2022-06-04T04:22:01.153Z</time>
      </trkpt>
      <trkpt lat="43.2316" lon="2.67064">
        <ele>64.885408</ele>
        <time>2022-06-04T04:22:04.298Z</time>
      </trkpt>
      <trkpt lat="43.23185" lon="2.67035">
        <ele>64.274826</ele>
        <time>2022-06-04T04:22:08.996Z</time>
      </trkpt>
      <trkpt lat="43.23212" lon="2.67008">
        <ele>63.222791</ele>
        <time>2022-06-04T04:22:13.688Z</time>
      </trkpt>
      <trkpt lat="43.2323" lon="2.66999">
        <ele>62.625869</ele>
        <time>2022-06-04T04:22:16.295Z</time>
      </trkpt>
      <trkpt lat="43.23235" lon="2.66997">
        <ele>62.465247</ele>
        <time>2022-06-04T04:22:16.995Z</time>
      </trkpt>
      <trkpt lat="43.23384" lon="2.66943">
        <ele>57.559799</ele>
        <time>2022-06-04T04:22:37.919Z</time>
      </trkpt>
      <trkpt lat="43.23434" lon="2.66933">
        <ele>55.933529</ele>
        <time>2022-06-04T04:22:44.659Z</time>
      </trkpt>
      <trkpt lat="43.23479" lon="2.66937">
        <ele>54.4576</ele>
        <time>2022-06-04T04:22:50.792Z</time>
      </trkpt>
      <trkpt lat="43.23554" lon="2.66914">
        <ele>52.421718</ele>
        <time>2022-06-04T04:23:01.550Z</time>
      </trkpt>
      <trkpt lat="43.23593" lon="2.66913">
        <ele>51.669166</ele>
        <time>2022-06-04T04:23:07.240Z</time>
      </trkpt>
      <trkpt lat="43.23601" lon="2.6691">
        <ele>51.515594</ele>
        <time>2022-06-04T04:23:08.398Z</time>
      </trkpt>
      <trkpt lat="43.23609" lon="2.66907">
        <ele>51.351747</ele>
        <time>2022-06-04T04:23:09.636Z</time>
      </trkpt>
      <trkpt lat="43.23745" lon="2.66856">
        <ele>49.375138</ele>
        <time>2022-06-04T04:23:31.297Z</time>
      </trkpt>
      <trkpt lat="43.23877" lon="2.66812">
        <ele>48.704139</ele>
        <time>2022-06-04T04:23:54.898Z</time>
      </trkpt>
      <trkpt lat="43.23953" lon="2.66811">
        <ele>48.607567</ele>
        <time>2022-06-04T04:24:08.318Z</time>
      </trkpt>
      <trkpt lat="43.24203" lon="2.66836">
        <ele>48.23222</ele>
        <time>2022-06-04T04:24:52.042Z</time>
      </trkpt>
      <trkpt lat="43.24218" lon="2.66831">
        <ele>48.205799</ele>
        <time>2022-06-04T04:24:54.822Z</time>
      </trkpt>
      <trkpt lat="43.24229" lon="2.66818">
        <ele>48.180112</ele>
        <time>2022-06-04T04:24:57.185Z</time>
      </trkpt>
      <trkpt lat="43.24285" lon="2.66657">
        <ele>47.822422</ele>
        <time>2022-06-04T04:25:19.451Z</time>
      </trkpt>
      <trkpt lat="43.24302" lon="2.66586">
        <ele>47.704369</ele>
        <time>2022-06-04T04:25:28.772Z</time>
      </trkpt>
      <trkpt lat="43.24325" lon="2.66444">
        <ele>47.855986</ele>
        <time>2022-06-04T04:25:47.539Z</time>
      </trkpt>
      <trkpt lat="43.24351" lon="2.66302">
        <ele>48.315312</ele>
        <time>2022-06-04T04:26:08.790Z</time>
      </trkpt>
      <trkpt lat="43.24375" lon="2.66223">
        <ele>48.86704</ele>
        <time>2022-06-04T04:26:22.098Z</time>
      </trkpt>
      <trkpt lat="43.24385" lon="2.66195">
        <ele>49.070015</ele>
        <time>2022-06-04T04:26:27.180Z</time>
      </trkpt>
      <trkpt lat="43.24408" lon="2.66167">
        <ele>49.343362</ele>
        <time>2022-06-04T04:26:33.933Z</time>
      </trkpt>
      <trkpt lat="43.24508" lon="2.66139">
        <ele>50.340967</ele>
        <time>2022-06-04T04:26:56.526Z</time>
      </trkpt>
      <trkpt lat="43.24558" lon="2.66113">
        <ele>50.867882</ele>
        <time>2022-06-04T04:27:07.960Z</time>
      </trkpt>
      <trkpt lat="43.24649" lon="2.66045">
        <ele>52.224695</ele>
        <time>2022-06-04T04:27:29.928Z</time>
      </trkpt>
      <trkpt lat="43.24737" lon="2.65991">
        <ele>53.748143</ele>
        <time>2022-06-04T04:27:54.146Z</time>
      </trkpt>
      <trkpt lat="43.24753" lon="2.65969">
        <ele>54.112341</ele>
        <time>2022-06-04T04:28:00.249Z</time>
      </trkpt>
      <trkpt lat="43.24755" lon="2.65963">
        <ele>54.186768</ele>
        <time>2022-06-04T04:28:01.470Z</time>
      </trkpt>
      <trkpt lat="43.2477" lon="2.65882">
        <ele>55.164917</ele>
        <time>2022-06-04T04:28:17.491Z</time>
      </trkpt>
      <trkpt lat="43.24787" lon="2.65806">
        <ele>56.079121</ele>
        <time>2022-06-04T04:28:31.848Z</time>
      </trkpt>
      <trkpt lat="43.24806" lon="2.65778">
        <ele>56.524626</ele>
        <time>2022-06-04T04:28:38.399Z</time>
      </trkpt>
      <trkpt lat="43.24818" lon="2.6577">
        <ele>56.734384</ele>
        <time>2022-06-04T04:28:41.384Z</time>
      </trkpt>
      <trkpt lat="43.24898" lon="2.65749">
        <ele>57.282288</ele>
        <time>2022-06-04T04:28:58.067Z</time>
      </trkpt>
      <trkpt lat="43.24952" lon="2.65738">
        <ele>57.474952</ele>
        <time>2022-06-04T04:29:08.403Z</time>
      </trkpt>
      <trkpt lat="43.24983" lon="2.65743">
        <ele>57.585346</ele>
        <time>2022-06-04T04:29:14.397Z</time>
      </trkpt>
      <trkpt lat="43.24987" lon="2.65745">
        <ele>57.599388</ele>
        <time>2022-06-04T04:29:15.097Z</time>
      </trkpt>
      <trkpt lat="43.25033" lon="2.65757">
        <ele>57.603731</ele>
        <time>2022-06-04T04:29:23.294Z</time>
      </trkpt>
      <trkpt lat="43.2509" lon="2.65775">
        <ele>57.290972</ele>
        <time>2022-06-04T04:29:33.581Z</time>
      </trkpt>
      <trkpt lat="43.25124" lon="2.65783">
        <ele>57.109441</ele>
        <time>2022-06-04T04:29:39.565Z</time>
      </trkpt>
      <trkpt lat="43.25214" lon="2.65812">
        <ele>56.567275</ele>
        <time>2022-06-04T04:29:55.336Z</time>
      </trkpt>
      <trkpt lat="43.25252" lon="2.65817">
        <ele>56.288295</ele>
        <time>2022-06-04T04:30:01.598Z</time>
      </trkpt>
      <trkpt lat="43.25321" lon="2.65815">
        <ele>55.784454</ele>
        <time>2022-06-04T04:30:13.007Z</time>
      </trkpt>
      <trkpt lat="43.25413" lon="2.65794">
        <ele>55.519368</ele>
        <time>2022-06-04T04:30:29.718Z</time>
      </trkpt>
      <trkpt lat="43.25424" lon="2.65778">
        <ele>55.554142</ele>
        <time>2022-06-04T04:30:32.880Z</time>
      </trkpt>
      <trkpt lat="43.25424" lon="2.65739">
        <ele>55.617524</ele>
        <time>2022-06-04T04:30:38.473Z</time>
      </trkpt>
      <trkpt lat="43.25428" lon="2.65728">
        <ele>55.636238</ele>
        <time>2022-06-04T04:30:40.306Z</time>
      </trkpt>
      <trkpt lat="43.25437" lon="2.6572">
        <ele>55.66093</ele>
        <time>2022-06-04T04:30:42.525Z</time>
      </trkpt>
      <trkpt lat="43.25479" lon="2.65703">
        <ele>55.758296</ele>
        <time>2022-06-04T04:30:51.451Z</time>
      </trkpt>
      <trkpt lat="43.2549" lon="2.65692">
        <ele>55.787775</ele>
        <time>2022-06-04T04:30:54.205Z</time>
      </trkpt>
      <trkpt lat="43.25665" lon="2.65348">
        <ele>57.09501</ele>
        <time>2022-06-04T04:31:55.338Z</time>
      </trkpt>
      <trkpt lat="43.25821" lon="2.65399">
        <ele>58.127092</ele>
        <time>2022-06-04T04:32:29.309Z</time>
      </trkpt>
      <trkpt lat="43.25974" lon="2.65426">
        <ele>58.963784</ele>
        <time>2022-06-04T04:33:00.647Z</time>
      </trkpt>
      <trkpt lat="43.2608" lon="2.65469">
        <ele>59.29867</ele>
        <time>2022-06-04T04:33:20.951Z</time>
      </trkpt>
      <trkpt lat="43.26217" lon="2.65492">
        <ele>59.06295</ele>
        <time>2022-06-04T04:33:44.903Z</time>
      </trkpt>
      <trkpt lat="43.26259" lon="2.6549">
        <ele>58.985649</ele>
        <time>2022-06-04T04:33:52.193Z</time>
      </trkpt>
      <trkpt lat="43.26399" lon="2.65474">
        <ele>58.593678</ele>
        <time>2022-06-04T04:34:16.291Z</time>
      </trkpt>
      <trkpt lat="43.26498" lon="2.65491">
        <ele>58.365847</ele>
        <time>2022-06-04T04:34:33.232Z</time>
      </trkpt>
      <trkpt lat="43.266" lon="2.65489">
        <ele>58.173283</ele>
        <time>2022-06-04T04:34:50.914Z</time>
      </trkpt>
      <trkpt lat="43.26634" lon="2.65502">
        <ele>58.142225</ele>
        <time>2022-06-04T04:34:57.166Z</time>
      </trkpt>
      <trkpt lat="43.26637" lon="2.65504">
        <ele>58.144616</ele>
        <time>2022-06-04T04:34:57.887Z</time>
      </trkpt>
      <trkpt lat="43.26648" lon="2.65513">
        <ele>58.152125</ele>
        <time>2022-06-04T04:35:00.161Z</time>
      </trkpt>
      <trkpt lat="43.26759" lon="2.656">
        <ele>58.229681</ele>
        <time>2022-06-04T04:35:23.413Z</time>
      </trkpt>
      <trkpt lat="43.2681" lon="2.65653">
        <ele>58.317392</ele>
        <time>2022-06-04T04:35:35.179Z</time>
      </trkpt>
      <trkpt lat="43.26935" lon="2.65743">
        <ele>58.578998</ele>
        <time>2022-06-04T04:36:00.930Z</time>
      </trkpt>
      <trkpt lat="43.2702" lon="2.65786">
        <ele>59.132244</ele>
        <time>2022-06-04T04:36:18.596Z</time>
      </trkpt>
      <trkpt lat="43.27247" lon="2.65885">
        <ele>61.191127</ele>
        <time>2022-06-04T04:37:09.340Z</time>
      </trkpt>
      <trkpt lat="43.27298" lon="2.65935">
        <ele>62.011959</ele>
        <time>2022-06-04T04:37:24.391Z</time>
      </trkpt>
      <trkpt lat="43.27371" lon="2.65985">
        <ele>63.268197</ele>
        <time>2022-06-04T04:37:43.789Z</time>
      </trkpt>
      <trkpt lat="43.27419" lon="2.66036">
        <ele>64.216895</ele>
        <time>2022-06-04T04:37:58.453Z</time>
      </trkpt>
      <trkpt lat="43.27434" lon="2.6596">
        <ele>65.828267</ele>
        <time>2022-06-04T04:38:13.751Z</time>
      </trkpt>
      <trkpt lat="43.27457" lon="2.65936">
        <ele>66.661912</ele>
        <time>2022-06-04T04:38:21.936Z</time>
      </trkpt>
      <trkpt lat="43.27505" lon="2.65912">
        <ele>68.113238</ele>
        <time>2022-06-04T04:38:38.143Z</time>
      </trkpt>
      <trkpt lat="43.27525" lon="2.65902">
        <ele>68.721857</ele>
        <time>2022-06-04T04:38:43.648Z</time>
      </trkpt>
      <trkpt lat="43.27584" lon="2.65849">
        <ele>72.416771</ele>
        <time>2022-06-04T04:39:09.158Z</time>
      </trkpt>
      <trkpt lat="43.27591" lon="2.65851">
        <ele>72.868522</ele>
        <time>2022-06-04T04:39:13.721Z</time>
      </trkpt>
      <trkpt lat="43.27608" lon="2.65836">
        <ele>74.118349</ele>
        <time>2022-06-04T04:39:21.179Z</time>
      </trkpt>
      <trkpt lat="43.27642" lon="2.65776">
        <ele>77.622935</ele>
        <time>2022-06-04T04:39:49.563Z</time>
      </trkpt>
      <trkpt lat="43.27657" lon="2.65769">
        <ele>78.660447</ele>
        <time>2022-06-04T04:39:56.478Z</time>
      </trkpt>
      <trkpt lat="43.2769" lon="2.65779">
        <ele>80.772754</ele>
        <time>2022-06-04T04:40:13.032Z</time>
      </trkpt>
      <trkpt lat="43.27705" lon="2.65779">
        <ele>81.536875</ele>
        <time>2022-06-04T04:40:20.286Z</time>
      </trkpt>
      <trkpt lat="43.27793" lon="2.65754">
        <ele>86.257715</ele>
        <time>2022-06-04T04:40:59.367Z</time>
      </trkpt>
      <trkpt lat="43.27825" lon="2.65753">
        <ele>87.927424</ele>
        <time>2022-06-04T04:41:12.692Z</time>
      </trkpt>
      <trkpt lat="43.27913" lon="2.65611">
        <ele>91.036807</ele>
        <time>2022-06-04T04:41:47.276Z</time>
      </trkpt>
      <trkpt lat="43.27923" lon="2.6559">
        <ele>91.204718</ele>
        <time>2022-06-04T04:41:50.449Z</time>
      </trkpt>
      <trkpt lat="43.27982" lon="2.65612">
        <ele>91.771848</ele>
        <time>2022-06-04T04:42:01.380Z</time>
      </trkpt>
      <trkpt lat="43.28106" lon="2.65623">
        <ele>91.09545</ele>
        <time>2022-06-04T04:42:22.572Z</time>
      </trkpt>
      <trkpt lat="43.28174" lon="2.65635">
        <ele>90.678503</ele>
        <time>2022-06-04T04:42:34.330Z</time>
      </trkpt>
      <trkpt lat="43.28188" lon="2.65641">
        <ele>90.657541</ele>
        <time>2022-06-04T04:42:36.748Z</time>
      </trkpt>
      <trkpt lat="43.28264" lon="2.65645">
        <ele>90.546095</ele>
        <time>2022-06-04T04:42:50.231Z</time>
      </trkpt>
      <trkpt lat="43.28349" lon="2.65634">
        <ele>90.431873</ele>
        <time>2022-06-04T04:43:06.464Z</time>
      </trkpt>
      <trkpt lat="43.28516" lon="2.65569">
        <ele>91.532569</ele>
        <time>2022-06-04T04:43:43.658Z</time>
      </trkpt>
      <trkpt lat="43.28602" lon="2.65564">
        <ele>92.198186</ele>
        <time>2022-06-04T04:44:02.331Z</time>
      </trkpt>
      <trkpt lat="43.2876" lon="2.65488">
        <ele>93.43444</ele>
        <time>2022-06-04T04:44:38.414Z</time>
      </trkpt>
      <trkpt lat="43.288" lon="2.65487">
        <ele>93.707496</ele>
        <time>2022-06-04T04:44:46.979Z</time>
      </trkpt>
      <trkpt lat="43.28845" lon="2.65495">
        <ele>94.017581</ele>
        <time>2022-06-04T04:44:56.496Z</time>
      </trkpt>
      <trkpt lat="43.28877" lon="2.65489">
        <ele>94.232779</ele>
        <time>2022-06-04T04:45:03.169Z</time>
      </trkpt>
      <trkpt lat="43.28918" lon="2.65472">
        <ele>94.503809</ele>
        <time>2022-06-04T04:45:12.154Z</time>
      </trkpt>
      <trkpt lat="43.28968" lon="2.65431">
        <ele>94.870596</ele>
        <time>2022-06-04T04:45:24.420Z</time>
      </trkpt>
      <trkpt lat="43.28994" lon="2.65417">
        <ele>95.0466</ele>
        <time>2022-06-04T04:45:30.313Z</time>
      </trkpt>
      <trkpt lat="43.29025" lon="2.6541">
        <ele>95.242045</ele>
        <time>2022-06-04T04:45:36.880Z</time>
      </trkpt>
      <trkpt lat="43.29133" lon="2.65415">
        <ele>96.1581</ele>
        <time>2022-06-04T04:46:00.161Z</time>
      </trkpt>
      <trkpt lat="43.29252" lon="2.65383">
        <ele>97.256186</ele>
        <time>2022-06-04T04:46:27.554Z</time>
      </trkpt>
      <trkpt lat="43.29306" lon="2.65375">
        <ele>97.795815</ele>
        <time>2022-06-04T04:46:39.922Z</time>
      </trkpt>
      <trkpt lat="43.29344" lon="2.65357">
        <ele>98.190076</ele>
        <time>2022-06-04T04:46:49.336Z</time>
      </trkpt>
      <trkpt lat="43.29404" lon="2.65309">
        <ele>98.736117</ele>
        <time>2022-06-04T04:47:04.563Z</time>
      </trkpt>
      <trkpt lat="43.29451" lon="2.65299">
        <ele>98.895165</ele>
        <time>2022-06-04T04:47:14.338Z</time>
      </trkpt>
      <trkpt lat="43.29473" lon="2.653">
        <ele>98.967177</ele>
        <time>2022-06-04T04:47:18.919Z</time>
      </trkpt>
      <trkpt lat="43.2953" lon="2.65309">
        <ele>99.155782</ele>
        <time>2022-06-04T04:47:29.483Z</time>
      </trkpt>
      <trkpt lat="43.29634" lon="2.65313">
        <ele>99.320927</ele>
        <time>2022-06-04T04:47:48.520Z</time>
      </trkpt>
      <trkpt lat="43.29841" lon="2.65298">
        <ele>99.698005</ele>
        <time>2022-06-04T04:48:28.550Z</time>
      </trkpt>
      <trkpt lat="43.29914" lon="2.65309">
        <ele>99.914694</ele>
        <time>2022-06-04T04:48:43.541Z</time>
      </trkpt>
      <trkpt lat="43.29958" lon="2.6533">
        <ele>100.055005</ele>
        <time>2022-06-04T04:48:52.995Z</time>
      </trkpt>
      <trkpt lat="43.30016" lon="2.65385">
        <ele>100.26704</ele>
        <time>2022-06-04T04:49:07.233Z</time>
      </trkpt>
      <trkpt lat="43.30181" lon="2.65436">
        <ele>100.112965</ele>
        <time>2022-06-04T04:49:39.409Z</time>
      </trkpt>
      <trkpt lat="43.30205" lon="2.65486">
        <ele>99.952011</ele>
        <time>2022-06-04T04:49:46.868Z</time>
      </trkpt>
      <trkpt lat="43.30249" lon="2.65547">
        <ele>99.501225</ele>
        <time>2022-06-04T04:49:57.117Z</time>
      </trkpt>
      <trkpt lat="43.3035" lon="2.65654">
        <ele>97.909222</ele>
        <time>2022-06-04T04:50:17.626Z</time>
      </trkpt>
      <trkpt lat="43.30371" lon="2.65696">
        <ele>97.538776</ele>
        <time>2022-06-04T04:50:23.647Z</time>
      </trkpt>
      <trkpt lat="43.30388" lon="2.65691">
        <ele>97.470112</ele>
        <time>2022-06-04T04:50:26.526Z</time>
      </trkpt>
      <trkpt lat="43.30412" lon="2.65715">
        <ele>97.349829</ele>
        <time>2022-06-04T04:50:31.659Z</time>
      </trkpt>
      <trkpt lat="43.30456" lon="2.6569">
        <ele>97.15874</ele>
        <time>2022-06-04T04:50:40.110Z</time>
      </trkpt>
      <trkpt lat="43.30518" lon="2.65698">
        <ele>96.908613</ele>
        <time>2022-06-04T04:50:51.708Z</time>
      </trkpt>
      <trkpt lat="43.30558" lon="2.65717">
        <ele>96.869874</ele>
        <time>2022-06-04T04:50:59.899Z</time>
      </trkpt>
      <trkpt lat="43.30627" lon="2.65773">
        <ele>96.89561</ele>
        <time>2022-06-04T04:51:15.373Z</time>
      </trkpt>
      <trkpt lat="43.30715" lon="2.6587">
        <ele>96.815205</ele>
        <time>2022-06-04T04:51:35.945Z</time>
      </trkpt>
      <trkpt lat="43.30761" lon="2.65908">
        <ele>96.686544</ele>
        <time>2022-06-04T04:51:45.439Z</time>
      </trkpt>
      <trkpt lat="43.30769" lon="2.65922">
        <ele>96.6548</ele>
        <time>2022-06-04T04:51:47.782Z</time>
      </trkpt>
      <trkpt lat="43.30785" lon="2.65922">
        <ele>96.616617</ele>
        <time>2022-06-04T04:51:50.442Z</time>
      </trkpt>
      <trkpt lat="43.3088" lon="2.65956">
        <ele>96.681339</ele>
        <time>2022-06-04T04:52:07.314Z</time>
      </trkpt>
      <trkpt lat="43.30978" lon="2.65991">
        <ele>97.131867</ele>
        <time>2022-06-04T04:52:27.165Z</time>
      </trkpt>
      <trkpt lat="43.31025" lon="2.66">
        <ele>97.523033</ele>
        <time>2022-06-04T04:52:37.550Z</time>
      </trkpt>
      <trkpt lat="43.31052" lon="2.66001">
        <ele>98.017871</ele>
        <time>2022-06-04T04:52:43.634Z</time>
      </trkpt>
      <trkpt lat="43.31148" lon="2.66008">
        <ele>99.821575</ele>
        <time>2022-06-04T04:53:08.460Z</time>
      </trkpt>
      <trkpt lat="43.31198" lon="2.66025">
        <ele>100.643708</ele>
        <time>2022-06-04T04:53:22.995Z</time>
      </trkpt>
      <trkpt lat="43.3122" lon="2.66044">
        <ele>100.643708</ele>
        <time>2022-06-04T04:53:30.193Z</time>
      </trkpt>
      <trkpt lat="43.31226" lon="2.66048">
        <ele>100.643708</ele>
        <time>2022-06-04T04:53:31.748Z</time>
      </trkpt>
      <trkpt lat="43.3124" lon="2.66057">
        <ele>100.643708</ele>
        <time>2022-06-04T04:53:36.020Z</time>
      </trkpt>
      <trkpt lat="43.31255" lon="2.66072">
        <ele>100.643708</ele>
        <time>2022-06-04T04:53:40.755Z</time>
      </trkpt>
      <trkpt lat="43.31262" lon="2.66081">
        <ele>100.643708</ele>
        <time>2022-06-04T04:53:43.432Z</time>
      </trkpt>
      <trkpt lat="43.3129" lon="2.66091">
        <ele>100.643708</ele>
        <time>2022-06-04T04:53:51.404Z</time>
      </trkpt>
      <trkpt lat="43.31303" lon="2.661">
        <ele>100.643708</ele>
        <time>2022-06-04T04:53:55.607Z</time>
      </trkpt>
      <trkpt lat="43.31306" lon="2.66102">
        <ele>100.643708</ele>
        <time>2022-06-04T04:53:56.638Z</time>
      </trkpt>
      <trkpt lat="43.31332" lon="2.66118">
        <ele>100.643708</ele>
        <time>2022-06-04T04:54:04.475Z</time>
      </trkpt>
      <trkpt lat="43.31326" lon="2.66161">
        <ele>100.643708</ele>
        <time>2022-06-04T04:54:12.705Z</time>
      </trkpt>
      <trkpt lat="43.31332" lon="2.66173">
        <ele>100.643708</ele>
        <time>2022-06-04T04:54:15.354Z</time>
      </trkpt>
      <trkpt lat="43.31347" lon="2.66182">
        <ele>100.643708</ele>
        <time>2022-06-04T04:54:19.128Z</time>
      </trkpt>
      <trkpt lat="43.31362" lon="2.66141">
        <ele>100.643708</ele>
        <time>2022-06-04T04:54:27.059Z</time>
      </trkpt>
      <trkpt lat="43.31355" lon="2.66136">
        <ele>100.643708</ele>
        <time>2022-06-04T04:54:28.884Z</time>
      </trkpt>
    </trkseg>
  </trk>
</gpx>